<?xml version="1.0" encoding="UTF-8" standalone="no" ?>
<gpx xmlns="http://www.topografix.com/GPX/1/1" xmlns:xsi="http://www.w3.org/2001/XMLSchema-instance" xsi:schemaLocation="http://www.topografix.com/GPX/1/1 http://www.topografix.com/GPX/1/1/gpx.xsd" version="1.1" creator="VisuGPX - https://www.visugpx.com">
  <metadata>
    <name>gergovienne 2016</name>
    <desc><![CDATA[a faire par temps sec !!!]]></desc>
  </metadata>
  <trk>
    <name><![CDATA[gergovienne2016 37km]]></name>
    <trkseg>
      <trkpt lat="45.69989" lon="3.12753">
        <ele>477.43</ele>
        <time>2016-06-19T06:54:27Z</time>
      </trkpt>
      <trkpt lat="45.69992" lon="3.12745">
        <ele>476.47</ele>
        <time>2016-06-19T06:55:07Z</time>
      </trkpt>
      <trkpt lat="45.69993" lon="3.12744">
        <ele>476.95</ele>
        <time>2016-06-19T06:57:11Z</time>
      </trkpt>
      <trkpt lat="45.70016" lon="3.12723">
        <ele>478.87</ele>
        <time>2016-06-19T06:57:24Z</time>
      </trkpt>
      <trkpt lat="45.70035" lon="3.12708">
        <ele>480.8</ele>
        <time>2016-06-19T06:57:35Z</time>
      </trkpt>
      <trkpt lat="45.70039" lon="3.12707">
        <ele>481.76</ele>
        <time>2016-06-19T06:57:38Z</time>
      </trkpt>
      <trkpt lat="45.70043" lon="3.12708">
        <ele>482.24</ele>
        <time>2016-06-19T06:57:41Z</time>
      </trkpt>
      <trkpt lat="45.70056" lon="3.12723">
        <ele>484.16</ele>
        <time>2016-06-19T06:57:48Z</time>
      </trkpt>
      <trkpt lat="45.70082" lon="3.12734">
        <ele>488.01</ele>
        <time>2016-06-19T06:58:00Z</time>
      </trkpt>
      <trkpt lat="45.7009" lon="3.12731">
        <ele>488.49</ele>
        <time>2016-06-19T06:58:05Z</time>
      </trkpt>
      <trkpt lat="45.70105" lon="3.12739">
        <ele>490.41</ele>
        <time>2016-06-19T06:58:14Z</time>
      </trkpt>
      <trkpt lat="45.7011" lon="3.12731">
        <ele>491.85</ele>
        <time>2016-06-19T06:58:24Z</time>
      </trkpt>
      <trkpt lat="45.70111" lon="3.12727">
        <ele>491.85</ele>
        <time>2016-06-19T06:58:36Z</time>
      </trkpt>
      <trkpt lat="45.70109" lon="3.12715">
        <ele>492.81</ele>
        <time>2016-06-19T06:58:41Z</time>
      </trkpt>
      <trkpt lat="45.70115" lon="3.12695">
        <ele>494.26</ele>
        <time>2016-06-19T06:58:50Z</time>
      </trkpt>
      <trkpt lat="45.70122" lon="3.12687">
        <ele>494.26</ele>
        <time>2016-06-19T06:58:54Z</time>
      </trkpt>
      <trkpt lat="45.70131" lon="3.12679">
        <ele>495.22</ele>
        <time>2016-06-19T06:59:05Z</time>
      </trkpt>
      <trkpt lat="45.70132" lon="3.12678">
        <ele>495.7</ele>
        <time>2016-06-19T06:59:06Z</time>
      </trkpt>
      <trkpt lat="45.7014" lon="3.1268">
        <ele>497.62</ele>
        <time>2016-06-19T06:59:11Z</time>
      </trkpt>
      <trkpt lat="45.70149" lon="3.12684">
        <ele>498.58</ele>
        <time>2016-06-19T06:59:18Z</time>
      </trkpt>
      <trkpt lat="45.70146" lon="3.12666">
        <ele>499.06</ele>
        <time>2016-06-19T06:59:29Z</time>
      </trkpt>
      <trkpt lat="45.70141" lon="3.12657">
        <ele>497.62</ele>
        <time>2016-06-19T06:59:32Z</time>
      </trkpt>
      <trkpt lat="45.70133" lon="3.12656">
        <ele>495.7</ele>
        <time>2016-06-19T06:59:36Z</time>
      </trkpt>
      <trkpt lat="45.70123" lon="3.12665">
        <ele>494.26</ele>
        <time>2016-06-19T06:59:40Z</time>
      </trkpt>
      <trkpt lat="45.70119" lon="3.12685">
        <ele>494.26</ele>
        <time>2016-06-19T06:59:45Z</time>
      </trkpt>
      <trkpt lat="45.70115" lon="3.12699">
        <ele>493.29</ele>
        <time>2016-06-19T06:59:48Z</time>
      </trkpt>
      <trkpt lat="45.70114" lon="3.12705">
        <ele>492.81</ele>
        <time>2016-06-19T06:59:49Z</time>
      </trkpt>
      <trkpt lat="45.70114" lon="3.12712">
        <ele>492.33</ele>
        <time>2016-06-19T06:59:50Z</time>
      </trkpt>
      <trkpt lat="45.70115" lon="3.12719">
        <ele>492.33</ele>
        <time>2016-06-19T06:59:51Z</time>
      </trkpt>
      <trkpt lat="45.70115" lon="3.12725">
        <ele>491.85</ele>
        <time>2016-06-19T06:59:52Z</time>
      </trkpt>
      <trkpt lat="45.70116" lon="3.12739">
        <ele>490.41</ele>
        <time>2016-06-19T06:59:55Z</time>
      </trkpt>
      <trkpt lat="45.70143" lon="3.1278">
        <ele>491.37</ele>
        <time>2016-06-19T07:00:08Z</time>
      </trkpt>
      <trkpt lat="45.70182" lon="3.12828">
        <ele>492.33</ele>
        <time>2016-06-19T07:00:22Z</time>
      </trkpt>
      <trkpt lat="45.70207" lon="3.12882">
        <ele>492.81</ele>
        <time>2016-06-19T07:00:34Z</time>
      </trkpt>
      <trkpt lat="45.70222" lon="3.12927">
        <ele>490.41</ele>
        <time>2016-06-19T07:00:44Z</time>
      </trkpt>
      <trkpt lat="45.70222" lon="3.1293">
        <ele>490.41</ele>
        <time>2016-06-19T07:00:45Z</time>
      </trkpt>
      <trkpt lat="45.7022" lon="3.12931">
        <ele>489.93</ele>
        <time>2016-06-19T07:00:46Z</time>
      </trkpt>
      <trkpt lat="45.70218" lon="3.12932">
        <ele>489.93</ele>
        <time>2016-06-19T07:00:47Z</time>
      </trkpt>
      <trkpt lat="45.70216" lon="3.12932">
        <ele>489.45</ele>
        <time>2016-06-19T07:00:48Z</time>
      </trkpt>
      <trkpt lat="45.70214" lon="3.12932">
        <ele>489.93</ele>
        <time>2016-06-19T07:00:49Z</time>
      </trkpt>
      <trkpt lat="45.70211" lon="3.12931">
        <ele>489.45</ele>
        <time>2016-06-19T07:00:50Z</time>
      </trkpt>
      <trkpt lat="45.70202" lon="3.12932">
        <ele>488.97</ele>
        <time>2016-06-19T07:00:54Z</time>
      </trkpt>
      <trkpt lat="45.70189" lon="3.12924">
        <ele>486.56</ele>
        <time>2016-06-19T07:01:00Z</time>
      </trkpt>
      <trkpt lat="45.70188" lon="3.12921">
        <ele>486.08</ele>
        <time>2016-06-19T07:01:01Z</time>
      </trkpt>
      <trkpt lat="45.70187" lon="3.12919">
        <ele>486.56</ele>
        <time>2016-06-19T07:01:02Z</time>
      </trkpt>
      <trkpt lat="45.70185" lon="3.12917">
        <ele>486.56</ele>
        <time>2016-06-19T07:01:03Z</time>
      </trkpt>
      <trkpt lat="45.70184" lon="3.12917">
        <ele>486.56</ele>
        <time>2016-06-19T07:01:04Z</time>
      </trkpt>
      <trkpt lat="45.70183" lon="3.12919">
        <ele>486.56</ele>
        <time>2016-06-19T07:01:05Z</time>
      </trkpt>
      <trkpt lat="45.70184" lon="3.12922">
        <ele>486.56</ele>
        <time>2016-06-19T07:01:06Z</time>
      </trkpt>
      <trkpt lat="45.70185" lon="3.12924">
        <ele>486.56</ele>
        <time>2016-06-19T07:01:07Z</time>
      </trkpt>
      <trkpt lat="45.70187" lon="3.12926">
        <ele>486.56</ele>
        <time>2016-06-19T07:01:08Z</time>
      </trkpt>
      <trkpt lat="45.7019" lon="3.12927">
        <ele>486.56</ele>
        <time>2016-06-19T07:01:09Z</time>
      </trkpt>
      <trkpt lat="45.70192" lon="3.12927">
        <ele>486.56</ele>
        <time>2016-06-19T07:01:10Z</time>
      </trkpt>
      <trkpt lat="45.70208" lon="3.1293">
        <ele>488.01</ele>
        <time>2016-06-19T07:01:15Z</time>
      </trkpt>
      <trkpt lat="45.7022" lon="3.12931">
        <ele>489.45</ele>
        <time>2016-06-19T07:01:20Z</time>
      </trkpt>
      <trkpt lat="45.70221" lon="3.1293">
        <ele>489.93</ele>
        <time>2016-06-19T07:01:21Z</time>
      </trkpt>
      <trkpt lat="45.70223" lon="3.12928">
        <ele>489.93</ele>
        <time>2016-06-19T07:01:22Z</time>
      </trkpt>
      <trkpt lat="45.70223" lon="3.12926">
        <ele>489.93</ele>
        <time>2016-06-19T07:01:23Z</time>
      </trkpt>
      <trkpt lat="45.70224" lon="3.12921">
        <ele>490.41</ele>
        <time>2016-06-19T07:01:24Z</time>
      </trkpt>
      <trkpt lat="45.70223" lon="3.12916">
        <ele>490.41</ele>
        <time>2016-06-19T07:01:25Z</time>
      </trkpt>
      <trkpt lat="45.70221" lon="3.12912">
        <ele>490.41</ele>
        <time>2016-06-19T07:01:26Z</time>
      </trkpt>
      <trkpt lat="45.70219" lon="3.12908">
        <ele>490.41</ele>
        <time>2016-06-19T07:01:27Z</time>
      </trkpt>
      <trkpt lat="45.70217" lon="3.12904">
        <ele>490.41</ele>
        <time>2016-06-19T07:01:28Z</time>
      </trkpt>
      <trkpt lat="45.70216" lon="3.12899">
        <ele>490.89</ele>
        <time>2016-06-19T07:01:29Z</time>
      </trkpt>
      <trkpt lat="45.70184" lon="3.1283">
        <ele>492.33</ele>
        <time>2016-06-19T07:01:44Z</time>
      </trkpt>
      <trkpt lat="45.70168" lon="3.12802">
        <ele>491.37</ele>
        <time>2016-06-19T07:01:56Z</time>
      </trkpt>
      <trkpt lat="45.70133" lon="3.12771">
        <ele>489.45</ele>
        <time>2016-06-19T07:02:09Z</time>
      </trkpt>
      <trkpt lat="45.70108" lon="3.12739">
        <ele>488.49</ele>
        <time>2016-06-19T07:02:20Z</time>
      </trkpt>
      <trkpt lat="45.70097" lon="3.12732">
        <ele>488.01</ele>
        <time>2016-06-19T07:02:24Z</time>
      </trkpt>
      <trkpt lat="45.70093" lon="3.1273">
        <ele>487.53</ele>
        <time>2016-06-19T07:02:25Z</time>
      </trkpt>
      <trkpt lat="45.70089" lon="3.1273">
        <ele>487.05</ele>
        <time>2016-06-19T07:02:26Z</time>
      </trkpt>
      <trkpt lat="45.70084" lon="3.1273">
        <ele>486.08</ele>
        <time>2016-06-19T07:02:27Z</time>
      </trkpt>
      <trkpt lat="45.70079" lon="3.12731">
        <ele>485.6</ele>
        <time>2016-06-19T07:02:28Z</time>
      </trkpt>
      <trkpt lat="45.70061" lon="3.1273">
        <ele>482.72</ele>
        <time>2016-06-19T07:02:32Z</time>
      </trkpt>
      <trkpt lat="45.70058" lon="3.12726">
        <ele>482.72</ele>
        <time>2016-06-19T07:02:33Z</time>
      </trkpt>
      <trkpt lat="45.70055" lon="3.12721">
        <ele>481.76</ele>
        <time>2016-06-19T07:02:34Z</time>
      </trkpt>
      <trkpt lat="45.70052" lon="3.12715">
        <ele>481.76</ele>
        <time>2016-06-19T07:02:35Z</time>
      </trkpt>
      <trkpt lat="45.70049" lon="3.1271">
        <ele>481.28</ele>
        <time>2016-06-19T07:02:36Z</time>
      </trkpt>
      <trkpt lat="45.70046" lon="3.12706">
        <ele>480.8</ele>
        <time>2016-06-19T07:02:37Z</time>
      </trkpt>
      <trkpt lat="45.70041" lon="3.12703">
        <ele>479.84</ele>
        <time>2016-06-19T07:02:38Z</time>
      </trkpt>
      <trkpt lat="45.70037" lon="3.12702">
        <ele>479.84</ele>
        <time>2016-06-19T07:02:39Z</time>
      </trkpt>
      <trkpt lat="45.70033" lon="3.12703">
        <ele>479.35</ele>
        <time>2016-06-19T07:02:40Z</time>
      </trkpt>
      <trkpt lat="45.70029" lon="3.12705">
        <ele>478.39</ele>
        <time>2016-06-19T07:02:41Z</time>
      </trkpt>
      <trkpt lat="45.70024" lon="3.12707">
        <ele>477.91</ele>
        <time>2016-06-19T07:02:42Z</time>
      </trkpt>
      <trkpt lat="45.70015" lon="3.12713">
        <ele>476.95</ele>
        <time>2016-06-19T07:02:44Z</time>
      </trkpt>
      <trkpt lat="45.69976" lon="3.12729">
        <ele>473.59</ele>
        <time>2016-06-19T07:02:52Z</time>
      </trkpt>
      <trkpt lat="45.69966" lon="3.12735">
        <ele>472.14</ele>
        <time>2016-06-19T07:03:01Z</time>
      </trkpt>
      <trkpt lat="45.69966" lon="3.12735">
        <ele>472.14</ele>
        <time>2016-06-19T07:03:06Z</time>
      </trkpt>
      <trkpt lat="45.69967" lon="3.12736">
        <ele>472.14</ele>
        <time>2016-06-19T07:03:07Z</time>
      </trkpt>
      <trkpt lat="45.70002" lon="3.12722">
        <ele>474.55</ele>
        <time>2016-06-19T07:03:19Z</time>
      </trkpt>
      <trkpt lat="45.7003" lon="3.12708">
        <ele>477.43</ele>
        <time>2016-06-19T07:03:28Z</time>
      </trkpt>
      <trkpt lat="45.70045" lon="3.12705">
        <ele>479.35</ele>
        <time>2016-06-19T07:03:34Z</time>
      </trkpt>
      <trkpt lat="45.70047" lon="3.12707">
        <ele>479.35</ele>
        <time>2016-06-19T07:03:35Z</time>
      </trkpt>
      <trkpt lat="45.70069" lon="3.12734">
        <ele>482.72</ele>
        <time>2016-06-19T07:03:46Z</time>
      </trkpt>
      <trkpt lat="45.70096" lon="3.12736">
        <ele>486.08</ele>
        <time>2016-06-19T07:03:57Z</time>
      </trkpt>
      <trkpt lat="45.70122" lon="3.12759">
        <ele>488.49</ele>
        <time>2016-06-19T07:04:10Z</time>
      </trkpt>
      <trkpt lat="45.70156" lon="3.12795">
        <ele>488.97</ele>
        <time>2016-06-19T07:04:25Z</time>
      </trkpt>
      <trkpt lat="45.70192" lon="3.12849">
        <ele>490.41</ele>
        <time>2016-06-19T07:04:41Z</time>
      </trkpt>
      <trkpt lat="45.70218" lon="3.12914">
        <ele>489.45</ele>
        <time>2016-06-19T07:04:56Z</time>
      </trkpt>
      <trkpt lat="45.70224" lon="3.12929">
        <ele>488.49</ele>
        <time>2016-06-19T07:04:59Z</time>
      </trkpt>
      <trkpt lat="45.70227" lon="3.12935">
        <ele>488.01</ele>
        <time>2016-06-19T07:05:00Z</time>
      </trkpt>
      <trkpt lat="45.70231" lon="3.12943">
        <ele>487.53</ele>
        <time>2016-06-19T07:05:02Z</time>
      </trkpt>
      <trkpt lat="45.70234" lon="3.12947">
        <ele>487.05</ele>
        <time>2016-06-19T07:05:03Z</time>
      </trkpt>
      <trkpt lat="45.70237" lon="3.1295">
        <ele>486.56</ele>
        <time>2016-06-19T07:05:04Z</time>
      </trkpt>
      <trkpt lat="45.70239" lon="3.12954">
        <ele>486.56</ele>
        <time>2016-06-19T07:05:05Z</time>
      </trkpt>
      <trkpt lat="45.70241" lon="3.12957">
        <ele>486.56</ele>
        <time>2016-06-19T07:05:06Z</time>
      </trkpt>
      <trkpt lat="45.70243" lon="3.12961">
        <ele>486.08</ele>
        <time>2016-06-19T07:05:07Z</time>
      </trkpt>
      <trkpt lat="45.70245" lon="3.12966">
        <ele>486.08</ele>
        <time>2016-06-19T07:05:08Z</time>
      </trkpt>
      <trkpt lat="45.7027" lon="3.13019">
        <ele>483.2</ele>
        <time>2016-06-19T07:05:17Z</time>
      </trkpt>
      <trkpt lat="45.70274" lon="3.13025">
        <ele>482.72</ele>
        <time>2016-06-19T07:05:18Z</time>
      </trkpt>
      <trkpt lat="45.70278" lon="3.1303">
        <ele>482.72</ele>
        <time>2016-06-19T07:05:19Z</time>
      </trkpt>
      <trkpt lat="45.70283" lon="3.13033">
        <ele>482.24</ele>
        <time>2016-06-19T07:05:20Z</time>
      </trkpt>
      <trkpt lat="45.70289" lon="3.13035">
        <ele>482.24</ele>
        <time>2016-06-19T07:05:21Z</time>
      </trkpt>
      <trkpt lat="45.70293" lon="3.13036">
        <ele>482.24</ele>
        <time>2016-06-19T07:05:22Z</time>
      </trkpt>
      <trkpt lat="45.70298" lon="3.13035">
        <ele>482.24</ele>
        <time>2016-06-19T07:05:23Z</time>
      </trkpt>
      <trkpt lat="45.70302" lon="3.13034">
        <ele>481.76</ele>
        <time>2016-06-19T07:05:24Z</time>
      </trkpt>
      <trkpt lat="45.70324" lon="3.13029">
        <ele>481.28</ele>
        <time>2016-06-19T07:05:29Z</time>
      </trkpt>
      <trkpt lat="45.7036" lon="3.13026">
        <ele>479.35</ele>
        <time>2016-06-19T07:05:40Z</time>
      </trkpt>
      <trkpt lat="45.70363" lon="3.13024">
        <ele>478.87</ele>
        <time>2016-06-19T07:05:54Z</time>
      </trkpt>
      <trkpt lat="45.70364" lon="3.13023">
        <ele>478.87</ele>
        <time>2016-06-19T07:05:56Z</time>
      </trkpt>
      <trkpt lat="45.70365" lon="3.13021">
        <ele>479.35</ele>
        <time>2016-06-19T07:05:57Z</time>
      </trkpt>
      <trkpt lat="45.70366" lon="3.13018">
        <ele>479.84</ele>
        <time>2016-06-19T07:05:58Z</time>
      </trkpt>
      <trkpt lat="45.70369" lon="3.13016">
        <ele>479.84</ele>
        <time>2016-06-19T07:05:59Z</time>
      </trkpt>
      <trkpt lat="45.70371" lon="3.13014">
        <ele>479.35</ele>
        <time>2016-06-19T07:06:00Z</time>
      </trkpt>
      <trkpt lat="45.70375" lon="3.13012">
        <ele>479.84</ele>
        <time>2016-06-19T07:06:01Z</time>
      </trkpt>
      <trkpt lat="45.70378" lon="3.13011">
        <ele>480.32</ele>
        <time>2016-06-19T07:06:02Z</time>
      </trkpt>
      <trkpt lat="45.70438" lon="3.1299">
        <ele>480.8</ele>
        <time>2016-06-19T07:06:18Z</time>
      </trkpt>
      <trkpt lat="45.70479" lon="3.12971">
        <ele>481.76</ele>
        <time>2016-06-19T07:06:30Z</time>
      </trkpt>
      <trkpt lat="45.70519" lon="3.12926">
        <ele>483.68</ele>
        <time>2016-06-19T07:06:44Z</time>
      </trkpt>
      <trkpt lat="45.70561" lon="3.12882">
        <ele>486.08</ele>
        <time>2016-06-19T07:06:59Z</time>
      </trkpt>
      <trkpt lat="45.70592" lon="3.12843">
        <ele>488.97</ele>
        <time>2016-06-19T07:07:13Z</time>
      </trkpt>
      <trkpt lat="45.70624" lon="3.12814">
        <ele>491.37</ele>
        <time>2016-06-19T07:07:27Z</time>
      </trkpt>
      <trkpt lat="45.70659" lon="3.12794">
        <ele>494.26</ele>
        <time>2016-06-19T07:07:41Z</time>
      </trkpt>
      <trkpt lat="45.707" lon="3.12777">
        <ele>498.1</ele>
        <time>2016-06-19T07:07:57Z</time>
      </trkpt>
      <trkpt lat="45.70723" lon="3.12774">
        <ele>499.06</ele>
        <time>2016-06-19T07:08:07Z</time>
      </trkpt>
      <trkpt lat="45.70725" lon="3.12772">
        <ele>499.06</ele>
        <time>2016-06-19T07:08:08Z</time>
      </trkpt>
      <trkpt lat="45.70725" lon="3.1277">
        <ele>499.54</ele>
        <time>2016-06-19T07:08:09Z</time>
      </trkpt>
      <trkpt lat="45.70726" lon="3.12767">
        <ele>499.54</ele>
        <time>2016-06-19T07:08:10Z</time>
      </trkpt>
      <trkpt lat="45.70727" lon="3.12764">
        <ele>499.54</ele>
        <time>2016-06-19T07:08:11Z</time>
      </trkpt>
      <trkpt lat="45.70728" lon="3.12761">
        <ele>499.54</ele>
        <time>2016-06-19T07:08:12Z</time>
      </trkpt>
      <trkpt lat="45.7073" lon="3.12758">
        <ele>500.02</ele>
        <time>2016-06-19T07:08:13Z</time>
      </trkpt>
      <trkpt lat="45.70731" lon="3.12755">
        <ele>500.02</ele>
        <time>2016-06-19T07:08:14Z</time>
      </trkpt>
      <trkpt lat="45.70743" lon="3.12729">
        <ele>501.46</ele>
        <time>2016-06-19T07:08:24Z</time>
      </trkpt>
      <trkpt lat="45.70745" lon="3.12729">
        <ele>501.46</ele>
        <time>2016-06-19T07:08:25Z</time>
      </trkpt>
      <trkpt lat="45.70747" lon="3.12729">
        <ele>500.98</ele>
        <time>2016-06-19T07:08:26Z</time>
      </trkpt>
      <trkpt lat="45.70749" lon="3.12728">
        <ele>500.98</ele>
        <time>2016-06-19T07:08:27Z</time>
      </trkpt>
      <trkpt lat="45.7075" lon="3.12727">
        <ele>501.95</ele>
        <time>2016-06-19T07:08:28Z</time>
      </trkpt>
      <trkpt lat="45.70753" lon="3.12722">
        <ele>501.46</ele>
        <time>2016-06-19T07:08:37Z</time>
      </trkpt>
      <trkpt lat="45.70753" lon="3.12722">
        <ele>499.06</ele>
        <time>2016-06-19T07:08:39Z</time>
      </trkpt>
      <trkpt lat="45.70753" lon="3.12722">
        <ele>502.43</ele>
        <time>2016-06-19T07:08:40Z</time>
      </trkpt>
      <trkpt lat="45.70753" lon="3.12722">
        <ele>501.95</ele>
        <time>2016-06-19T07:08:41Z</time>
      </trkpt>
      <trkpt lat="45.70753" lon="3.1272">
        <ele>500.98</ele>
        <time>2016-06-19T07:08:58Z</time>
      </trkpt>
      <trkpt lat="45.70754" lon="3.12719">
        <ele>500.5</ele>
        <time>2016-06-19T07:09:18Z</time>
      </trkpt>
      <trkpt lat="45.70759" lon="3.12716">
        <ele>500.98</ele>
        <time>2016-06-19T07:09:58Z</time>
      </trkpt>
      <trkpt lat="45.7075" lon="3.12722">
        <ele>500.5</ele>
        <time>2016-06-19T07:10:21Z</time>
      </trkpt>
      <trkpt lat="45.70747" lon="3.12721">
        <ele>500.02</ele>
        <time>2016-06-19T07:11:00Z</time>
      </trkpt>
      <trkpt lat="45.70745" lon="3.1272">
        <ele>500.02</ele>
        <time>2016-06-19T07:11:14Z</time>
      </trkpt>
      <trkpt lat="45.70745" lon="3.1272">
        <ele>500.02</ele>
        <time>2016-06-19T07:11:41Z</time>
      </trkpt>
      <trkpt lat="45.70747" lon="3.12717">
        <ele>500.02</ele>
        <time>2016-06-19T07:12:11Z</time>
      </trkpt>
      <trkpt lat="45.70748" lon="3.12715">
        <ele>499.54</ele>
        <time>2016-06-19T07:12:29Z</time>
      </trkpt>
      <trkpt lat="45.70745" lon="3.12712">
        <ele>499.06</ele>
        <time>2016-06-19T07:12:52Z</time>
      </trkpt>
      <trkpt lat="45.70742" lon="3.12708">
        <ele>499.06</ele>
        <time>2016-06-19T07:13:26Z</time>
      </trkpt>
      <trkpt lat="45.70746" lon="3.12703">
        <ele>499.06</ele>
        <time>2016-06-19T07:13:51Z</time>
      </trkpt>
      <trkpt lat="45.70747" lon="3.12703">
        <ele>498.58</ele>
        <time>2016-06-19T07:14:11Z</time>
      </trkpt>
      <trkpt lat="45.70745" lon="3.12713">
        <ele>499.06</ele>
        <time>2016-06-19T07:14:28Z</time>
      </trkpt>
      <trkpt lat="45.70745" lon="3.12711">
        <ele>499.06</ele>
        <time>2016-06-19T07:14:48Z</time>
      </trkpt>
      <trkpt lat="45.70739" lon="3.12718">
        <ele>499.54</ele>
        <time>2016-06-19T07:15:06Z</time>
      </trkpt>
      <trkpt lat="45.70729" lon="3.12728">
        <ele>498.58</ele>
        <time>2016-06-19T07:15:29Z</time>
      </trkpt>
      <trkpt lat="45.70729" lon="3.12728">
        <ele>499.54</ele>
        <time>2016-06-19T07:16:50Z</time>
      </trkpt>
      <trkpt lat="45.70729" lon="3.12728">
        <ele>493.77</ele>
        <time>2016-06-19T07:16:58Z</time>
      </trkpt>
      <trkpt lat="45.70729" lon="3.12728">
        <ele>501.95</ele>
        <time>2016-06-19T07:16:59Z</time>
      </trkpt>
      <trkpt lat="45.70729" lon="3.12728">
        <ele>499.06</ele>
        <time>2016-06-19T07:17:01Z</time>
      </trkpt>
      <trkpt lat="45.70729" lon="3.12728">
        <ele>502.43</ele>
        <time>2016-06-19T07:17:03Z</time>
      </trkpt>
      <trkpt lat="45.70729" lon="3.12728">
        <ele>498.1</ele>
        <time>2016-06-19T07:17:04Z</time>
      </trkpt>
      <trkpt lat="45.70762" lon="3.1271">
        <ele>499.06</ele>
        <time>2016-06-19T07:18:01Z</time>
      </trkpt>
      <trkpt lat="45.70769" lon="3.12711">
        <ele>498.58</ele>
        <time>2016-06-19T07:18:32Z</time>
      </trkpt>
      <trkpt lat="45.70767" lon="3.1271">
        <ele>498.1</ele>
        <time>2016-06-19T07:18:54Z</time>
      </trkpt>
      <trkpt lat="45.70755" lon="3.12726">
        <ele>499.06</ele>
        <time>2016-06-19T07:19:08Z</time>
      </trkpt>
      <trkpt lat="45.70751" lon="3.12723">
        <ele>495.22</ele>
        <time>2016-06-19T07:20:14Z</time>
      </trkpt>
      <trkpt lat="45.70751" lon="3.12723">
        <ele>499.06</ele>
        <time>2016-06-19T07:20:15Z</time>
      </trkpt>
      <trkpt lat="45.70751" lon="3.12723">
        <ele>497.62</ele>
        <time>2016-06-19T07:20:19Z</time>
      </trkpt>
      <trkpt lat="45.70751" lon="3.12726">
        <ele>498.1</ele>
        <time>2016-06-19T07:20:26Z</time>
      </trkpt>
      <trkpt lat="45.70746" lon="3.12729">
        <ele>497.62</ele>
        <time>2016-06-19T07:20:31Z</time>
      </trkpt>
      <trkpt lat="45.70742" lon="3.12727">
        <ele>497.62</ele>
        <time>2016-06-19T07:20:33Z</time>
      </trkpt>
      <trkpt lat="45.70733" lon="3.1274">
        <ele>496.66</ele>
        <time>2016-06-19T07:20:39Z</time>
      </trkpt>
      <trkpt lat="45.70723" lon="3.12769">
        <ele>495.7</ele>
        <time>2016-06-19T07:20:47Z</time>
      </trkpt>
      <trkpt lat="45.70714" lon="3.12769">
        <ele>495.22</ele>
        <time>2016-06-19T07:20:51Z</time>
      </trkpt>
      <trkpt lat="45.70706" lon="3.12769">
        <ele>494.26</ele>
        <time>2016-06-19T07:20:53Z</time>
      </trkpt>
      <trkpt lat="45.70701" lon="3.12769">
        <ele>494.26</ele>
        <time>2016-06-19T07:20:54Z</time>
      </trkpt>
      <trkpt lat="45.70696" lon="3.12771">
        <ele>493.77</ele>
        <time>2016-06-19T07:20:55Z</time>
      </trkpt>
      <trkpt lat="45.70672" lon="3.12781">
        <ele>492.33</ele>
        <time>2016-06-19T07:20:59Z</time>
      </trkpt>
      <trkpt lat="45.70633" lon="3.12804">
        <ele>488.97</ele>
        <time>2016-06-19T07:21:05Z</time>
      </trkpt>
      <trkpt lat="45.70627" lon="3.12808">
        <ele>488.49</ele>
        <time>2016-06-19T07:21:06Z</time>
      </trkpt>
      <trkpt lat="45.70611" lon="3.12818">
        <ele>487.05</ele>
        <time>2016-06-19T07:21:09Z</time>
      </trkpt>
      <trkpt lat="45.70606" lon="3.12823">
        <ele>486.56</ele>
        <time>2016-06-19T07:21:10Z</time>
      </trkpt>
      <trkpt lat="45.70601" lon="3.12828">
        <ele>486.56</ele>
        <time>2016-06-19T07:21:11Z</time>
      </trkpt>
      <trkpt lat="45.70582" lon="3.1285">
        <ele>484.64</ele>
        <time>2016-06-19T07:21:15Z</time>
      </trkpt>
      <trkpt lat="45.70547" lon="3.12889">
        <ele>481.76</ele>
        <time>2016-06-19T07:21:22Z</time>
      </trkpt>
      <trkpt lat="45.70542" lon="3.12894">
        <ele>481.76</ele>
        <time>2016-06-19T07:21:23Z</time>
      </trkpt>
      <trkpt lat="45.70532" lon="3.12906">
        <ele>481.28</ele>
        <time>2016-06-19T07:21:25Z</time>
      </trkpt>
      <trkpt lat="45.70487" lon="3.12956">
        <ele>477.91</ele>
        <time>2016-06-19T07:21:34Z</time>
      </trkpt>
      <trkpt lat="45.70474" lon="3.12972">
        <ele>476.95</ele>
        <time>2016-06-19T07:21:37Z</time>
      </trkpt>
      <trkpt lat="45.7047" lon="3.12975">
        <ele>476.95</ele>
        <time>2016-06-19T07:21:38Z</time>
      </trkpt>
      <trkpt lat="45.70464" lon="3.12977">
        <ele>476.47</ele>
        <time>2016-06-19T07:21:39Z</time>
      </trkpt>
      <trkpt lat="45.70396" lon="3.13">
        <ele>475.51</ele>
        <time>2016-06-19T07:21:52Z</time>
      </trkpt>
      <trkpt lat="45.70371" lon="3.1301">
        <ele>474.55</ele>
        <time>2016-06-19T07:21:57Z</time>
      </trkpt>
      <trkpt lat="45.70367" lon="3.13013">
        <ele>475.03</ele>
        <time>2016-06-19T07:21:58Z</time>
      </trkpt>
      <trkpt lat="45.70341" lon="3.1302">
        <ele>475.03</ele>
        <time>2016-06-19T07:22:06Z</time>
      </trkpt>
      <trkpt lat="45.70314" lon="3.13028">
        <ele>475.51</ele>
        <time>2016-06-19T07:22:13Z</time>
      </trkpt>
      <trkpt lat="45.70269" lon="3.13014">
        <ele>477.43</ele>
        <time>2016-06-19T07:22:26Z</time>
      </trkpt>
      <trkpt lat="45.70244" lon="3.12959">
        <ele>480.32</ele>
        <time>2016-06-19T07:22:40Z</time>
      </trkpt>
      <trkpt lat="45.70228" lon="3.12937">
        <ele>480.8</ele>
        <time>2016-06-19T07:22:47Z</time>
      </trkpt>
      <trkpt lat="45.70227" lon="3.12934">
        <ele>481.28</ele>
        <time>2016-06-19T07:22:48Z</time>
      </trkpt>
      <trkpt lat="45.70205" lon="3.12878">
        <ele>483.68</ele>
        <time>2016-06-19T07:23:02Z</time>
      </trkpt>
      <trkpt lat="45.70185" lon="3.12832">
        <ele>484.16</ele>
        <time>2016-06-19T07:23:14Z</time>
      </trkpt>
      <trkpt lat="45.70155" lon="3.12792">
        <ele>482.24</ele>
        <time>2016-06-19T07:23:26Z</time>
      </trkpt>
      <trkpt lat="45.70144" lon="3.12781">
        <ele>481.76</ele>
        <time>2016-06-19T07:23:29Z</time>
      </trkpt>
      <trkpt lat="45.7014" lon="3.12777">
        <ele>481.76</ele>
        <time>2016-06-19T07:23:30Z</time>
      </trkpt>
      <trkpt lat="45.70136" lon="3.12773">
        <ele>481.76</ele>
        <time>2016-06-19T07:23:31Z</time>
      </trkpt>
      <trkpt lat="45.70133" lon="3.1277">
        <ele>481.76</ele>
        <time>2016-06-19T07:23:32Z</time>
      </trkpt>
      <trkpt lat="45.70129" lon="3.12766">
        <ele>481.28</ele>
        <time>2016-06-19T07:23:33Z</time>
      </trkpt>
      <trkpt lat="45.70125" lon="3.12763">
        <ele>481.76</ele>
        <time>2016-06-19T07:23:34Z</time>
      </trkpt>
      <trkpt lat="45.70122" lon="3.12759">
        <ele>481.76</ele>
        <time>2016-06-19T07:23:35Z</time>
      </trkpt>
      <trkpt lat="45.70118" lon="3.12755">
        <ele>481.28</ele>
        <time>2016-06-19T07:23:36Z</time>
      </trkpt>
      <trkpt lat="45.70115" lon="3.1275">
        <ele>481.28</ele>
        <time>2016-06-19T07:23:37Z</time>
      </trkpt>
      <trkpt lat="45.70111" lon="3.12746">
        <ele>480.8</ele>
        <time>2016-06-19T07:23:38Z</time>
      </trkpt>
      <trkpt lat="45.70104" lon="3.12738">
        <ele>481.28</ele>
        <time>2016-06-19T07:23:40Z</time>
      </trkpt>
      <trkpt lat="45.70094" lon="3.12731">
        <ele>479.35</ele>
        <time>2016-06-19T07:23:42Z</time>
      </trkpt>
      <trkpt lat="45.70089" lon="3.12731">
        <ele>478.87</ele>
        <time>2016-06-19T07:23:43Z</time>
      </trkpt>
      <trkpt lat="45.70084" lon="3.12732">
        <ele>477.91</ele>
        <time>2016-06-19T07:23:44Z</time>
      </trkpt>
      <trkpt lat="45.70068" lon="3.12733">
        <ele>475.51</ele>
        <time>2016-06-19T07:23:47Z</time>
      </trkpt>
      <trkpt lat="45.70064" lon="3.1273">
        <ele>475.03</ele>
        <time>2016-06-19T07:23:48Z</time>
      </trkpt>
      <trkpt lat="45.7006" lon="3.12724">
        <ele>474.55</ele>
        <time>2016-06-19T07:23:49Z</time>
      </trkpt>
      <trkpt lat="45.70046" lon="3.12703">
        <ele>472.14</ele>
        <time>2016-06-19T07:23:53Z</time>
      </trkpt>
      <trkpt lat="45.70041" lon="3.12701">
        <ele>471.66</ele>
        <time>2016-06-19T07:23:54Z</time>
      </trkpt>
      <trkpt lat="45.70035" lon="3.12702">
        <ele>471.66</ele>
        <time>2016-06-19T07:23:55Z</time>
      </trkpt>
      <trkpt lat="45.7003" lon="3.12704">
        <ele>470.7</ele>
        <time>2016-06-19T07:23:56Z</time>
      </trkpt>
      <trkpt lat="45.70025" lon="3.12707">
        <ele>469.74</ele>
        <time>2016-06-19T07:23:57Z</time>
      </trkpt>
      <trkpt lat="45.69989" lon="3.12725">
        <ele>466.86</ele>
        <time>2016-06-19T07:24:04Z</time>
      </trkpt>
      <trkpt lat="45.6997" lon="3.12736">
        <ele>463.97</ele>
        <time>2016-06-19T07:24:11Z</time>
      </trkpt>
      <trkpt lat="45.69966" lon="3.12743">
        <ele>463.97</ele>
        <time>2016-06-19T07:24:13Z</time>
      </trkpt>
      <trkpt lat="45.69965" lon="3.12749">
        <ele>463.01</ele>
        <time>2016-06-19T07:24:14Z</time>
      </trkpt>
      <trkpt lat="45.69966" lon="3.12754">
        <ele>463.01</ele>
        <time>2016-06-19T07:24:15Z</time>
      </trkpt>
      <trkpt lat="45.69968" lon="3.1276">
        <ele>462.05</ele>
        <time>2016-06-19T07:24:16Z</time>
      </trkpt>
      <trkpt lat="45.69971" lon="3.12766">
        <ele>462.05</ele>
        <time>2016-06-19T07:24:17Z</time>
      </trkpt>
      <trkpt lat="45.69973" lon="3.12772">
        <ele>462.05</ele>
        <time>2016-06-19T07:24:18Z</time>
      </trkpt>
      <trkpt lat="45.69976" lon="3.12778">
        <ele>461.57</ele>
        <time>2016-06-19T07:24:19Z</time>
      </trkpt>
      <trkpt lat="45.70001" lon="3.12845">
        <ele>459.65</ele>
        <time>2016-06-19T07:24:29Z</time>
      </trkpt>
      <trkpt lat="45.70001" lon="3.1285">
        <ele>459.65</ele>
        <time>2016-06-19T07:24:30Z</time>
      </trkpt>
      <trkpt lat="45.7" lon="3.12853">
        <ele>459.17</ele>
        <time>2016-06-19T07:24:31Z</time>
      </trkpt>
      <trkpt lat="45.69998" lon="3.12856">
        <ele>459.17</ele>
        <time>2016-06-19T07:24:32Z</time>
      </trkpt>
      <trkpt lat="45.69995" lon="3.12859">
        <ele>459.17</ele>
        <time>2016-06-19T07:24:33Z</time>
      </trkpt>
      <trkpt lat="45.69992" lon="3.12862">
        <ele>459.17</ele>
        <time>2016-06-19T07:24:34Z</time>
      </trkpt>
      <trkpt lat="45.69988" lon="3.12865">
        <ele>458.69</ele>
        <time>2016-06-19T07:24:35Z</time>
      </trkpt>
      <trkpt lat="45.69983" lon="3.1287">
        <ele>458.21</ele>
        <time>2016-06-19T07:24:36Z</time>
      </trkpt>
      <trkpt lat="45.69964" lon="3.12891">
        <ele>455.32</ele>
        <time>2016-06-19T07:24:40Z</time>
      </trkpt>
      <trkpt lat="45.69955" lon="3.12901">
        <ele>454.36</ele>
        <time>2016-06-19T07:24:42Z</time>
      </trkpt>
      <trkpt lat="45.69928" lon="3.12932">
        <ele>451</ele>
        <time>2016-06-19T07:24:51Z</time>
      </trkpt>
      <trkpt lat="45.69913" lon="3.12947">
        <ele>448.11</ele>
        <time>2016-06-19T07:24:55Z</time>
      </trkpt>
      <trkpt lat="45.69907" lon="3.12955">
        <ele>446.67</ele>
        <time>2016-06-19T07:24:57Z</time>
      </trkpt>
      <trkpt lat="45.69903" lon="3.12958">
        <ele>445.71</ele>
        <time>2016-06-19T07:24:58Z</time>
      </trkpt>
      <trkpt lat="45.69901" lon="3.12962">
        <ele>444.75</ele>
        <time>2016-06-19T07:24:59Z</time>
      </trkpt>
      <trkpt lat="45.69896" lon="3.12969">
        <ele>443.79</ele>
        <time>2016-06-19T07:25:01Z</time>
      </trkpt>
      <trkpt lat="45.69886" lon="3.12978">
        <ele>441.38</ele>
        <time>2016-06-19T07:25:04Z</time>
      </trkpt>
      <trkpt lat="45.69876" lon="3.12986">
        <ele>438.02</ele>
        <time>2016-06-19T07:25:07Z</time>
      </trkpt>
      <trkpt lat="45.69866" lon="3.13">
        <ele>434.65</ele>
        <time>2016-06-19T07:25:11Z</time>
      </trkpt>
      <trkpt lat="45.69863" lon="3.13012">
        <ele>432.25</ele>
        <time>2016-06-19T07:25:15Z</time>
      </trkpt>
      <trkpt lat="45.69854" lon="3.1302">
        <ele>431.29</ele>
        <time>2016-06-19T07:25:19Z</time>
      </trkpt>
      <trkpt lat="45.6985" lon="3.13021">
        <ele>430.81</ele>
        <time>2016-06-19T07:25:20Z</time>
      </trkpt>
      <trkpt lat="45.69808" lon="3.13031">
        <ele>430.33</ele>
        <time>2016-06-19T07:25:30Z</time>
      </trkpt>
      <trkpt lat="45.69804" lon="3.13034">
        <ele>430.81</ele>
        <time>2016-06-19T07:25:31Z</time>
      </trkpt>
      <trkpt lat="45.69801" lon="3.13036">
        <ele>429.85</ele>
        <time>2016-06-19T07:25:32Z</time>
      </trkpt>
      <trkpt lat="45.69797" lon="3.13039">
        <ele>430.33</ele>
        <time>2016-06-19T07:25:33Z</time>
      </trkpt>
      <trkpt lat="45.69794" lon="3.13042">
        <ele>430.33</ele>
        <time>2016-06-19T07:25:34Z</time>
      </trkpt>
      <trkpt lat="45.69791" lon="3.13046">
        <ele>430.33</ele>
        <time>2016-06-19T07:25:35Z</time>
      </trkpt>
      <trkpt lat="45.69788" lon="3.1305">
        <ele>430.33</ele>
        <time>2016-06-19T07:25:36Z</time>
      </trkpt>
      <trkpt lat="45.69787" lon="3.13053">
        <ele>430.33</ele>
        <time>2016-06-19T07:25:37Z</time>
      </trkpt>
      <trkpt lat="45.69786" lon="3.13056">
        <ele>430.33</ele>
        <time>2016-06-19T07:25:38Z</time>
      </trkpt>
      <trkpt lat="45.69786" lon="3.1306">
        <ele>430.33</ele>
        <time>2016-06-19T07:25:39Z</time>
      </trkpt>
      <trkpt lat="45.69786" lon="3.13065">
        <ele>430.33</ele>
        <time>2016-06-19T07:25:40Z</time>
      </trkpt>
      <trkpt lat="45.69787" lon="3.1307">
        <ele>430.33</ele>
        <time>2016-06-19T07:25:41Z</time>
      </trkpt>
      <trkpt lat="45.69788" lon="3.13075">
        <ele>430.81</ele>
        <time>2016-06-19T07:25:42Z</time>
      </trkpt>
      <trkpt lat="45.69789" lon="3.1308">
        <ele>430.33</ele>
        <time>2016-06-19T07:25:43Z</time>
      </trkpt>
      <trkpt lat="45.69793" lon="3.13125">
        <ele>430.33</ele>
        <time>2016-06-19T07:25:52Z</time>
      </trkpt>
      <trkpt lat="45.69793" lon="3.13152">
        <ele>431.29</ele>
        <time>2016-06-19T07:26:01Z</time>
      </trkpt>
      <trkpt lat="45.69794" lon="3.13155">
        <ele>430.33</ele>
        <time>2016-06-19T07:26:17Z</time>
      </trkpt>
      <trkpt lat="45.69795" lon="3.13153">
        <ele>430.81</ele>
        <time>2016-06-19T07:26:26Z</time>
      </trkpt>
      <trkpt lat="45.69795" lon="3.13151">
        <ele>430.81</ele>
        <time>2016-06-19T07:26:27Z</time>
      </trkpt>
      <trkpt lat="45.69795" lon="3.13149">
        <ele>430.81</ele>
        <time>2016-06-19T07:26:28Z</time>
      </trkpt>
      <trkpt lat="45.69796" lon="3.13146">
        <ele>430.81</ele>
        <time>2016-06-19T07:26:29Z</time>
      </trkpt>
      <trkpt lat="45.69797" lon="3.13144">
        <ele>430.81</ele>
        <time>2016-06-19T07:26:30Z</time>
      </trkpt>
      <trkpt lat="45.69797" lon="3.1314">
        <ele>430.81</ele>
        <time>2016-06-19T07:26:31Z</time>
      </trkpt>
      <trkpt lat="45.69797" lon="3.13136">
        <ele>430.33</ele>
        <time>2016-06-19T07:26:32Z</time>
      </trkpt>
      <trkpt lat="45.69798" lon="3.13133">
        <ele>430.33</ele>
        <time>2016-06-19T07:26:33Z</time>
      </trkpt>
      <trkpt lat="45.69797" lon="3.13129">
        <ele>430.33</ele>
        <time>2016-06-19T07:26:34Z</time>
      </trkpt>
      <trkpt lat="45.69797" lon="3.13125">
        <ele>430.33</ele>
        <time>2016-06-19T07:26:35Z</time>
      </trkpt>
      <trkpt lat="45.69789" lon="3.13064">
        <ele>429.85</ele>
        <time>2016-06-19T07:26:48Z</time>
      </trkpt>
      <trkpt lat="45.69789" lon="3.1306">
        <ele>429.85</ele>
        <time>2016-06-19T07:26:49Z</time>
      </trkpt>
      <trkpt lat="45.69791" lon="3.13058">
        <ele>429.85</ele>
        <time>2016-06-19T07:26:50Z</time>
      </trkpt>
      <trkpt lat="45.69792" lon="3.13055">
        <ele>429.85</ele>
        <time>2016-06-19T07:26:51Z</time>
      </trkpt>
      <trkpt lat="45.69793" lon="3.13054">
        <ele>429.37</ele>
        <time>2016-06-19T07:26:52Z</time>
      </trkpt>
      <trkpt lat="45.69795" lon="3.13054">
        <ele>429.85</ele>
        <time>2016-06-19T07:26:53Z</time>
      </trkpt>
      <trkpt lat="45.69797" lon="3.13055">
        <ele>429.37</ele>
        <time>2016-06-19T07:26:54Z</time>
      </trkpt>
      <trkpt lat="45.69798" lon="3.13057">
        <ele>428.89</ele>
        <time>2016-06-19T07:26:55Z</time>
      </trkpt>
      <trkpt lat="45.69827" lon="3.13098">
        <ele>425.52</ele>
        <time>2016-06-19T07:27:05Z</time>
      </trkpt>
      <trkpt lat="45.6983" lon="3.13103">
        <ele>426</ele>
        <time>2016-06-19T07:27:06Z</time>
      </trkpt>
      <trkpt lat="45.69835" lon="3.13114">
        <ele>425.52</ele>
        <time>2016-06-19T07:27:08Z</time>
      </trkpt>
      <trkpt lat="45.69837" lon="3.1312">
        <ele>425.04</ele>
        <time>2016-06-19T07:27:09Z</time>
      </trkpt>
      <trkpt lat="45.69855" lon="3.13163">
        <ele>424.56</ele>
        <time>2016-06-19T07:27:17Z</time>
      </trkpt>
      <trkpt lat="45.69854" lon="3.13169">
        <ele>423.6</ele>
        <time>2016-06-19T07:27:18Z</time>
      </trkpt>
      <trkpt lat="45.69854" lon="3.13175">
        <ele>424.08</ele>
        <time>2016-06-19T07:27:19Z</time>
      </trkpt>
      <trkpt lat="45.69861" lon="3.13249">
        <ele>422.64</ele>
        <time>2016-06-19T07:27:31Z</time>
      </trkpt>
      <trkpt lat="45.69862" lon="3.13318">
        <ele>421.19</ele>
        <time>2016-06-19T07:27:41Z</time>
      </trkpt>
      <trkpt lat="45.69854" lon="3.13422">
        <ele>419.27</ele>
        <time>2016-06-19T07:27:57Z</time>
      </trkpt>
      <trkpt lat="45.69852" lon="3.13429">
        <ele>419.75</ele>
        <time>2016-06-19T07:27:58Z</time>
      </trkpt>
      <trkpt lat="45.69851" lon="3.13434">
        <ele>419.27</ele>
        <time>2016-06-19T07:27:59Z</time>
      </trkpt>
      <trkpt lat="45.69852" lon="3.13446">
        <ele>418.79</ele>
        <time>2016-06-19T07:28:01Z</time>
      </trkpt>
      <trkpt lat="45.69853" lon="3.13452">
        <ele>418.31</ele>
        <time>2016-06-19T07:28:02Z</time>
      </trkpt>
      <trkpt lat="45.69854" lon="3.13457">
        <ele>418.31</ele>
        <time>2016-06-19T07:28:03Z</time>
      </trkpt>
      <trkpt lat="45.69856" lon="3.13464">
        <ele>418.31</ele>
        <time>2016-06-19T07:28:04Z</time>
      </trkpt>
      <trkpt lat="45.69857" lon="3.13469">
        <ele>417.83</ele>
        <time>2016-06-19T07:28:05Z</time>
      </trkpt>
      <trkpt lat="45.69857" lon="3.13475">
        <ele>417.83</ele>
        <time>2016-06-19T07:28:06Z</time>
      </trkpt>
      <trkpt lat="45.69857" lon="3.1348">
        <ele>417.83</ele>
        <time>2016-06-19T07:28:07Z</time>
      </trkpt>
      <trkpt lat="45.69858" lon="3.13486">
        <ele>417.83</ele>
        <time>2016-06-19T07:28:08Z</time>
      </trkpt>
      <trkpt lat="45.69857" lon="3.13504">
        <ele>417.83</ele>
        <time>2016-06-19T07:28:11Z</time>
      </trkpt>
      <trkpt lat="45.69856" lon="3.1351">
        <ele>417.83</ele>
        <time>2016-06-19T07:28:12Z</time>
      </trkpt>
      <trkpt lat="45.69855" lon="3.13517">
        <ele>417.83</ele>
        <time>2016-06-19T07:28:13Z</time>
      </trkpt>
      <trkpt lat="45.69851" lon="3.1359">
        <ele>415.91</ele>
        <time>2016-06-19T07:28:23Z</time>
      </trkpt>
      <trkpt lat="45.69851" lon="3.13611">
        <ele>415.91</ele>
        <time>2016-06-19T07:28:26Z</time>
      </trkpt>
      <trkpt lat="45.69843" lon="3.13688">
        <ele>414.95</ele>
        <time>2016-06-19T07:28:37Z</time>
      </trkpt>
      <trkpt lat="45.69841" lon="3.13694">
        <ele>414.95</ele>
        <time>2016-06-19T07:28:38Z</time>
      </trkpt>
      <trkpt lat="45.69839" lon="3.13699">
        <ele>414.95</ele>
        <time>2016-06-19T07:28:39Z</time>
      </trkpt>
      <trkpt lat="45.69837" lon="3.13705">
        <ele>414.95</ele>
        <time>2016-06-19T07:28:40Z</time>
      </trkpt>
      <trkpt lat="45.69836" lon="3.1371">
        <ele>414.95</ele>
        <time>2016-06-19T07:28:41Z</time>
      </trkpt>
      <trkpt lat="45.69833" lon="3.13716">
        <ele>414.95</ele>
        <time>2016-06-19T07:28:42Z</time>
      </trkpt>
      <trkpt lat="45.69831" lon="3.13722">
        <ele>414.95</ele>
        <time>2016-06-19T07:28:43Z</time>
      </trkpt>
      <trkpt lat="45.69828" lon="3.13735">
        <ele>415.43</ele>
        <time>2016-06-19T07:28:45Z</time>
      </trkpt>
      <trkpt lat="45.69827" lon="3.13741">
        <ele>415.43</ele>
        <time>2016-06-19T07:28:46Z</time>
      </trkpt>
      <trkpt lat="45.69825" lon="3.13747">
        <ele>415.91</ele>
        <time>2016-06-19T07:28:47Z</time>
      </trkpt>
      <trkpt lat="45.69822" lon="3.1376">
        <ele>415.43</ele>
        <time>2016-06-19T07:28:49Z</time>
      </trkpt>
      <trkpt lat="45.69819" lon="3.13767">
        <ele>415.43</ele>
        <time>2016-06-19T07:28:50Z</time>
      </trkpt>
      <trkpt lat="45.6979" lon="3.1386">
        <ele>413.5</ele>
        <time>2016-06-19T07:29:04Z</time>
      </trkpt>
      <trkpt lat="45.69789" lon="3.13867">
        <ele>413.5</ele>
        <time>2016-06-19T07:29:05Z</time>
      </trkpt>
      <trkpt lat="45.69784" lon="3.13889">
        <ele>413.98</ele>
        <time>2016-06-19T07:29:08Z</time>
      </trkpt>
      <trkpt lat="45.69778" lon="3.1392">
        <ele>413.5</ele>
        <time>2016-06-19T07:29:12Z</time>
      </trkpt>
      <trkpt lat="45.69777" lon="3.13928">
        <ele>413.98</ele>
        <time>2016-06-19T07:29:13Z</time>
      </trkpt>
      <trkpt lat="45.69772" lon="3.13964">
        <ele>413.5</ele>
        <time>2016-06-19T07:29:18Z</time>
      </trkpt>
      <trkpt lat="45.6977" lon="3.13971">
        <ele>413.5</ele>
        <time>2016-06-19T07:29:19Z</time>
      </trkpt>
      <trkpt lat="45.69768" lon="3.13979">
        <ele>413.02</ele>
        <time>2016-06-19T07:29:20Z</time>
      </trkpt>
      <trkpt lat="45.69766" lon="3.13986">
        <ele>413.5</ele>
        <time>2016-06-19T07:29:21Z</time>
      </trkpt>
      <trkpt lat="45.69764" lon="3.13993">
        <ele>413.5</ele>
        <time>2016-06-19T07:29:22Z</time>
      </trkpt>
      <trkpt lat="45.69762" lon="3.14">
        <ele>413.5</ele>
        <time>2016-06-19T07:29:23Z</time>
      </trkpt>
      <trkpt lat="45.6976" lon="3.14008">
        <ele>413.02</ele>
        <time>2016-06-19T07:29:24Z</time>
      </trkpt>
      <trkpt lat="45.69758" lon="3.14015">
        <ele>413.02</ele>
        <time>2016-06-19T07:29:25Z</time>
      </trkpt>
      <trkpt lat="45.69756" lon="3.14022">
        <ele>413.02</ele>
        <time>2016-06-19T07:29:26Z</time>
      </trkpt>
      <trkpt lat="45.69754" lon="3.1403">
        <ele>412.54</ele>
        <time>2016-06-19T07:29:27Z</time>
      </trkpt>
      <trkpt lat="45.69752" lon="3.14037">
        <ele>413.02</ele>
        <time>2016-06-19T07:29:28Z</time>
      </trkpt>
      <trkpt lat="45.6975" lon="3.14044">
        <ele>412.54</ele>
        <time>2016-06-19T07:29:29Z</time>
      </trkpt>
      <trkpt lat="45.69748" lon="3.14052">
        <ele>412.54</ele>
        <time>2016-06-19T07:29:30Z</time>
      </trkpt>
      <trkpt lat="45.69731" lon="3.14155">
        <ele>410.62</ele>
        <time>2016-06-19T07:29:42Z</time>
      </trkpt>
      <trkpt lat="45.69719" lon="3.14238">
        <ele>410.14</ele>
        <time>2016-06-19T07:29:54Z</time>
      </trkpt>
      <trkpt lat="45.69716" lon="3.14261">
        <ele>409.66</ele>
        <time>2016-06-19T07:29:58Z</time>
      </trkpt>
      <trkpt lat="45.69695" lon="3.14353">
        <ele>408.7</ele>
        <time>2016-06-19T07:30:11Z</time>
      </trkpt>
      <trkpt lat="45.69695" lon="3.1436">
        <ele>408.7</ele>
        <time>2016-06-19T07:30:12Z</time>
      </trkpt>
      <trkpt lat="45.69696" lon="3.14399">
        <ele>407.26</ele>
        <time>2016-06-19T07:30:17Z</time>
      </trkpt>
      <trkpt lat="45.69697" lon="3.14406">
        <ele>407.26</ele>
        <time>2016-06-19T07:30:18Z</time>
      </trkpt>
      <trkpt lat="45.69698" lon="3.14476">
        <ele>405.81</ele>
        <time>2016-06-19T07:30:26Z</time>
      </trkpt>
      <trkpt lat="45.69697" lon="3.14483">
        <ele>405.33</ele>
        <time>2016-06-19T07:30:27Z</time>
      </trkpt>
      <trkpt lat="45.69694" lon="3.14498">
        <ele>405.33</ele>
        <time>2016-06-19T07:30:29Z</time>
      </trkpt>
      <trkpt lat="45.69694" lon="3.14505">
        <ele>404.85</ele>
        <time>2016-06-19T07:30:30Z</time>
      </trkpt>
      <trkpt lat="45.69694" lon="3.14512">
        <ele>404.85</ele>
        <time>2016-06-19T07:30:31Z</time>
      </trkpt>
      <trkpt lat="45.69695" lon="3.1452">
        <ele>404.37</ele>
        <time>2016-06-19T07:30:32Z</time>
      </trkpt>
      <trkpt lat="45.69696" lon="3.14527">
        <ele>403.89</ele>
        <time>2016-06-19T07:30:33Z</time>
      </trkpt>
      <trkpt lat="45.69705" lon="3.14556">
        <ele>402.93</ele>
        <time>2016-06-19T07:30:40Z</time>
      </trkpt>
      <trkpt lat="45.69705" lon="3.14559">
        <ele>402.93</ele>
        <time>2016-06-19T07:30:41Z</time>
      </trkpt>
      <trkpt lat="45.69706" lon="3.14564">
        <ele>402.93</ele>
        <time>2016-06-19T07:30:42Z</time>
      </trkpt>
      <trkpt lat="45.69705" lon="3.14569">
        <ele>402.93</ele>
        <time>2016-06-19T07:30:43Z</time>
      </trkpt>
      <trkpt lat="45.69704" lon="3.14573">
        <ele>402.93</ele>
        <time>2016-06-19T07:30:44Z</time>
      </trkpt>
      <trkpt lat="45.69702" lon="3.14579">
        <ele>402.93</ele>
        <time>2016-06-19T07:30:45Z</time>
      </trkpt>
      <trkpt lat="45.69701" lon="3.14584">
        <ele>402.93</ele>
        <time>2016-06-19T07:30:46Z</time>
      </trkpt>
      <trkpt lat="45.697" lon="3.1459">
        <ele>402.93</ele>
        <time>2016-06-19T07:30:47Z</time>
      </trkpt>
      <trkpt lat="45.69698" lon="3.14595">
        <ele>402.45</ele>
        <time>2016-06-19T07:30:48Z</time>
      </trkpt>
      <trkpt lat="45.69697" lon="3.14601">
        <ele>402.93</ele>
        <time>2016-06-19T07:30:49Z</time>
      </trkpt>
      <trkpt lat="45.69697" lon="3.14608">
        <ele>402.93</ele>
        <time>2016-06-19T07:30:50Z</time>
      </trkpt>
      <trkpt lat="45.69696" lon="3.14615">
        <ele>402.93</ele>
        <time>2016-06-19T07:30:51Z</time>
      </trkpt>
      <trkpt lat="45.69696" lon="3.14622">
        <ele>402.93</ele>
        <time>2016-06-19T07:30:52Z</time>
      </trkpt>
      <trkpt lat="45.69696" lon="3.14637">
        <ele>402.45</ele>
        <time>2016-06-19T07:30:54Z</time>
      </trkpt>
      <trkpt lat="45.69681" lon="3.14733">
        <ele>401.97</ele>
        <time>2016-06-19T07:31:07Z</time>
      </trkpt>
      <trkpt lat="45.69678" lon="3.14744">
        <ele>401.49</ele>
        <time>2016-06-19T07:31:09Z</time>
      </trkpt>
      <trkpt lat="45.69677" lon="3.1475">
        <ele>401.97</ele>
        <time>2016-06-19T07:31:10Z</time>
      </trkpt>
      <trkpt lat="45.69671" lon="3.14781">
        <ele>399.57</ele>
        <time>2016-06-19T07:31:16Z</time>
      </trkpt>
      <trkpt lat="45.69671" lon="3.14788">
        <ele>398.6</ele>
        <time>2016-06-19T07:31:17Z</time>
      </trkpt>
      <trkpt lat="45.69671" lon="3.14793">
        <ele>398.6</ele>
        <time>2016-06-19T07:31:18Z</time>
      </trkpt>
      <trkpt lat="45.69671" lon="3.14799">
        <ele>398.6</ele>
        <time>2016-06-19T07:31:19Z</time>
      </trkpt>
      <trkpt lat="45.69672" lon="3.14805">
        <ele>398.12</ele>
        <time>2016-06-19T07:31:20Z</time>
      </trkpt>
      <trkpt lat="45.69672" lon="3.1481">
        <ele>398.12</ele>
        <time>2016-06-19T07:31:21Z</time>
      </trkpt>
      <trkpt lat="45.69673" lon="3.14834">
        <ele>397.64</ele>
        <time>2016-06-19T07:31:26Z</time>
      </trkpt>
      <trkpt lat="45.69673" lon="3.1484">
        <ele>397.64</ele>
        <time>2016-06-19T07:31:27Z</time>
      </trkpt>
      <trkpt lat="45.69671" lon="3.14845">
        <ele>397.64</ele>
        <time>2016-06-19T07:31:28Z</time>
      </trkpt>
      <trkpt lat="45.69669" lon="3.1485">
        <ele>397.64</ele>
        <time>2016-06-19T07:31:29Z</time>
      </trkpt>
      <trkpt lat="45.69668" lon="3.14853">
        <ele>397.64</ele>
        <time>2016-06-19T07:31:30Z</time>
      </trkpt>
      <trkpt lat="45.69665" lon="3.14855">
        <ele>397.64</ele>
        <time>2016-06-19T07:31:31Z</time>
      </trkpt>
      <trkpt lat="45.69633" lon="3.14874">
        <ele>398.6</ele>
        <time>2016-06-19T07:31:41Z</time>
      </trkpt>
      <trkpt lat="45.69619" lon="3.14883">
        <ele>399.08</ele>
        <time>2016-06-19T07:31:45Z</time>
      </trkpt>
      <trkpt lat="45.6961" lon="3.14887">
        <ele>398.6</ele>
        <time>2016-06-19T07:31:47Z</time>
      </trkpt>
      <trkpt lat="45.69571" lon="3.14902">
        <ele>399.08</ele>
        <time>2016-06-19T07:31:57Z</time>
      </trkpt>
      <trkpt lat="45.69562" lon="3.14905">
        <ele>399.08</ele>
        <time>2016-06-19T07:31:59Z</time>
      </trkpt>
      <trkpt lat="45.69558" lon="3.14906">
        <ele>399.57</ele>
        <time>2016-06-19T07:32:00Z</time>
      </trkpt>
      <trkpt lat="45.69532" lon="3.14914">
        <ele>399.57</ele>
        <time>2016-06-19T07:32:06Z</time>
      </trkpt>
      <trkpt lat="45.69527" lon="3.14917">
        <ele>399.08</ele>
        <time>2016-06-19T07:32:07Z</time>
      </trkpt>
      <trkpt lat="45.69523" lon="3.1492">
        <ele>399.08</ele>
        <time>2016-06-19T07:32:08Z</time>
      </trkpt>
      <trkpt lat="45.69519" lon="3.14924">
        <ele>399.08</ele>
        <time>2016-06-19T07:32:09Z</time>
      </trkpt>
      <trkpt lat="45.69515" lon="3.14929">
        <ele>398.6</ele>
        <time>2016-06-19T07:32:10Z</time>
      </trkpt>
      <trkpt lat="45.69464" lon="3.14994">
        <ele>395.72</ele>
        <time>2016-06-19T07:32:22Z</time>
      </trkpt>
      <trkpt lat="45.69393" lon="3.15072">
        <ele>392.84</ele>
        <time>2016-06-19T07:32:37Z</time>
      </trkpt>
      <trkpt lat="45.69385" lon="3.15084">
        <ele>392.36</ele>
        <time>2016-06-19T07:32:39Z</time>
      </trkpt>
      <trkpt lat="45.69322" lon="3.15164">
        <ele>389.95</ele>
        <time>2016-06-19T07:32:53Z</time>
      </trkpt>
      <trkpt lat="45.69301" lon="3.15197">
        <ele>389.47</ele>
        <time>2016-06-19T07:32:58Z</time>
      </trkpt>
      <trkpt lat="45.69246" lon="3.15276">
        <ele>388.99</ele>
        <time>2016-06-19T07:33:11Z</time>
      </trkpt>
      <trkpt lat="45.69217" lon="3.15317">
        <ele>388.99</ele>
        <time>2016-06-19T07:33:18Z</time>
      </trkpt>
      <trkpt lat="45.692" lon="3.15348">
        <ele>389.47</ele>
        <time>2016-06-19T07:33:23Z</time>
      </trkpt>
      <trkpt lat="45.69198" lon="3.15355">
        <ele>389.47</ele>
        <time>2016-06-19T07:33:24Z</time>
      </trkpt>
      <trkpt lat="45.69196" lon="3.15361">
        <ele>389.47</ele>
        <time>2016-06-19T07:33:25Z</time>
      </trkpt>
      <trkpt lat="45.69194" lon="3.15367">
        <ele>389.47</ele>
        <time>2016-06-19T07:33:26Z</time>
      </trkpt>
      <trkpt lat="45.69193" lon="3.15374">
        <ele>389.47</ele>
        <time>2016-06-19T07:33:27Z</time>
      </trkpt>
      <trkpt lat="45.69192" lon="3.1538">
        <ele>389.95</ele>
        <time>2016-06-19T07:33:28Z</time>
      </trkpt>
      <trkpt lat="45.6919" lon="3.15394">
        <ele>389.95</ele>
        <time>2016-06-19T07:33:30Z</time>
      </trkpt>
      <trkpt lat="45.6919" lon="3.15415">
        <ele>389.95</ele>
        <time>2016-06-19T07:33:33Z</time>
      </trkpt>
      <trkpt lat="45.69191" lon="3.15421">
        <ele>390.43</ele>
        <time>2016-06-19T07:33:34Z</time>
      </trkpt>
      <trkpt lat="45.69192" lon="3.15428">
        <ele>390.43</ele>
        <time>2016-06-19T07:33:35Z</time>
      </trkpt>
      <trkpt lat="45.69193" lon="3.15434">
        <ele>389.95</ele>
        <time>2016-06-19T07:33:36Z</time>
      </trkpt>
      <trkpt lat="45.69195" lon="3.1544">
        <ele>390.43</ele>
        <time>2016-06-19T07:33:37Z</time>
      </trkpt>
      <trkpt lat="45.69214" lon="3.15506">
        <ele>388.99</ele>
        <time>2016-06-19T07:33:47Z</time>
      </trkpt>
      <trkpt lat="45.69216" lon="3.15513">
        <ele>388.99</ele>
        <time>2016-06-19T07:33:48Z</time>
      </trkpt>
      <trkpt lat="45.6922" lon="3.15528">
        <ele>388.99</ele>
        <time>2016-06-19T07:33:50Z</time>
      </trkpt>
      <trkpt lat="45.69257" lon="3.15636">
        <ele>387.07</ele>
        <time>2016-06-19T07:34:04Z</time>
      </trkpt>
      <trkpt lat="45.69265" lon="3.15658">
        <ele>386.59</ele>
        <time>2016-06-19T07:34:07Z</time>
      </trkpt>
      <trkpt lat="45.69266" lon="3.15666">
        <ele>386.59</ele>
        <time>2016-06-19T07:34:08Z</time>
      </trkpt>
      <trkpt lat="45.69265" lon="3.15682">
        <ele>386.59</ele>
        <time>2016-06-19T07:34:11Z</time>
      </trkpt>
      <trkpt lat="45.69262" lon="3.15685">
        <ele>386.59</ele>
        <time>2016-06-19T07:34:12Z</time>
      </trkpt>
      <trkpt lat="45.69259" lon="3.15688">
        <ele>387.07</ele>
        <time>2016-06-19T07:34:13Z</time>
      </trkpt>
      <trkpt lat="45.69257" lon="3.15689">
        <ele>387.07</ele>
        <time>2016-06-19T07:34:14Z</time>
      </trkpt>
      <trkpt lat="45.69254" lon="3.1569">
        <ele>387.55</ele>
        <time>2016-06-19T07:34:15Z</time>
      </trkpt>
      <trkpt lat="45.69252" lon="3.15691">
        <ele>387.55</ele>
        <time>2016-06-19T07:34:16Z</time>
      </trkpt>
      <trkpt lat="45.69211" lon="3.15713">
        <ele>388.51</ele>
        <time>2016-06-19T07:34:28Z</time>
      </trkpt>
      <trkpt lat="45.69183" lon="3.15729">
        <ele>391.87</ele>
        <time>2016-06-19T07:34:40Z</time>
      </trkpt>
      <trkpt lat="45.69165" lon="3.15739">
        <ele>393.8</ele>
        <time>2016-06-19T07:34:52Z</time>
      </trkpt>
      <trkpt lat="45.69162" lon="3.15742">
        <ele>394.28</ele>
        <time>2016-06-19T07:34:55Z</time>
      </trkpt>
      <trkpt lat="45.6916" lon="3.15743">
        <ele>394.76</ele>
        <time>2016-06-19T07:34:56Z</time>
      </trkpt>
      <trkpt lat="45.69159" lon="3.15744">
        <ele>394.28</ele>
        <time>2016-06-19T07:34:57Z</time>
      </trkpt>
      <trkpt lat="45.69158" lon="3.15745">
        <ele>394.76</ele>
        <time>2016-06-19T07:34:58Z</time>
      </trkpt>
      <trkpt lat="45.69156" lon="3.15746">
        <ele>395.24</ele>
        <time>2016-06-19T07:34:59Z</time>
      </trkpt>
      <trkpt lat="45.69155" lon="3.15746">
        <ele>395.24</ele>
        <time>2016-06-19T07:35:00Z</time>
      </trkpt>
      <trkpt lat="45.69152" lon="3.15748">
        <ele>395.24</ele>
        <time>2016-06-19T07:35:03Z</time>
      </trkpt>
      <trkpt lat="45.69151" lon="3.15749">
        <ele>395.72</ele>
        <time>2016-06-19T07:35:04Z</time>
      </trkpt>
      <trkpt lat="45.6915" lon="3.1575">
        <ele>396.2</ele>
        <time>2016-06-19T07:35:05Z</time>
      </trkpt>
      <trkpt lat="45.69148" lon="3.1575">
        <ele>396.2</ele>
        <time>2016-06-19T07:35:06Z</time>
      </trkpt>
      <trkpt lat="45.69147" lon="3.15751">
        <ele>396.2</ele>
        <time>2016-06-19T07:35:07Z</time>
      </trkpt>
      <trkpt lat="45.69146" lon="3.15752">
        <ele>396.2</ele>
        <time>2016-06-19T07:35:08Z</time>
      </trkpt>
      <trkpt lat="45.69125" lon="3.1576">
        <ele>398.6</ele>
        <time>2016-06-19T07:35:24Z</time>
      </trkpt>
      <trkpt lat="45.69119" lon="3.15763">
        <ele>399.57</ele>
        <time>2016-06-19T07:35:29Z</time>
      </trkpt>
      <trkpt lat="45.69119" lon="3.15764">
        <ele>399.08</ele>
        <time>2016-06-19T07:35:30Z</time>
      </trkpt>
      <trkpt lat="45.69118" lon="3.15767">
        <ele>399.57</ele>
        <time>2016-06-19T07:35:31Z</time>
      </trkpt>
      <trkpt lat="45.69118" lon="3.15769">
        <ele>399.08</ele>
        <time>2016-06-19T07:35:32Z</time>
      </trkpt>
      <trkpt lat="45.69118" lon="3.15771">
        <ele>399.57</ele>
        <time>2016-06-19T07:35:33Z</time>
      </trkpt>
      <trkpt lat="45.69118" lon="3.15774">
        <ele>399.08</ele>
        <time>2016-06-19T07:35:34Z</time>
      </trkpt>
      <trkpt lat="45.69116" lon="3.15807">
        <ele>398.6</ele>
        <time>2016-06-19T07:35:46Z</time>
      </trkpt>
      <trkpt lat="45.69114" lon="3.1586">
        <ele>399.08</ele>
        <time>2016-06-19T07:36:01Z</time>
      </trkpt>
      <trkpt lat="45.69112" lon="3.15909">
        <ele>400.05</ele>
        <time>2016-06-19T07:36:16Z</time>
      </trkpt>
      <trkpt lat="45.69114" lon="3.15937">
        <ele>401.01</ele>
        <time>2016-06-19T07:36:25Z</time>
      </trkpt>
      <trkpt lat="45.69113" lon="3.15939">
        <ele>401.01</ele>
        <time>2016-06-19T07:36:26Z</time>
      </trkpt>
      <trkpt lat="45.69119" lon="3.15976">
        <ele>401.97</ele>
        <time>2016-06-19T07:36:39Z</time>
      </trkpt>
      <trkpt lat="45.69128" lon="3.16017">
        <ele>401.97</ele>
        <time>2016-06-19T07:36:54Z</time>
      </trkpt>
      <trkpt lat="45.69129" lon="3.16036">
        <ele>402.45</ele>
        <time>2016-06-19T07:37:06Z</time>
      </trkpt>
      <trkpt lat="45.69128" lon="3.16037">
        <ele>402.45</ele>
        <time>2016-06-19T07:37:12Z</time>
      </trkpt>
      <trkpt lat="45.69126" lon="3.16036">
        <ele>403.41</ele>
        <time>2016-06-19T07:37:29Z</time>
      </trkpt>
      <trkpt lat="45.69125" lon="3.16035">
        <ele>402.45</ele>
        <time>2016-06-19T07:37:49Z</time>
      </trkpt>
      <trkpt lat="45.6912" lon="3.16037">
        <ele>403.41</ele>
        <time>2016-06-19T07:40:15Z</time>
      </trkpt>
      <trkpt lat="45.6911" lon="3.16037">
        <ele>403.89</ele>
        <time>2016-06-19T07:40:28Z</time>
      </trkpt>
      <trkpt lat="45.69089" lon="3.16039">
        <ele>407.26</ele>
        <time>2016-06-19T07:40:42Z</time>
      </trkpt>
      <trkpt lat="45.69085" lon="3.1604">
        <ele>408.22</ele>
        <time>2016-06-19T07:40:52Z</time>
      </trkpt>
      <trkpt lat="45.69069" lon="3.16041">
        <ele>411.1</ele>
        <time>2016-06-19T07:41:06Z</time>
      </trkpt>
      <trkpt lat="45.69058" lon="3.16041">
        <ele>411.58</ele>
        <time>2016-06-19T07:41:15Z</time>
      </trkpt>
      <trkpt lat="45.6905" lon="3.16041">
        <ele>412.06</ele>
        <time>2016-06-19T07:41:31Z</time>
      </trkpt>
      <trkpt lat="45.69046" lon="3.16041">
        <ele>413.02</ele>
        <time>2016-06-19T07:41:37Z</time>
      </trkpt>
      <trkpt lat="45.69045" lon="3.16041">
        <ele>413.5</ele>
        <time>2016-06-19T07:41:38Z</time>
      </trkpt>
      <trkpt lat="45.69044" lon="3.16041">
        <ele>413.5</ele>
        <time>2016-06-19T07:41:39Z</time>
      </trkpt>
      <trkpt lat="45.69042" lon="3.16041">
        <ele>413.5</ele>
        <time>2016-06-19T07:41:40Z</time>
      </trkpt>
      <trkpt lat="45.69041" lon="3.16041">
        <ele>413.5</ele>
        <time>2016-06-19T07:41:41Z</time>
      </trkpt>
      <trkpt lat="45.69018" lon="3.16043">
        <ele>416.39</ele>
        <time>2016-06-19T07:41:55Z</time>
      </trkpt>
      <trkpt lat="45.68988" lon="3.16046">
        <ele>418.79</ele>
        <time>2016-06-19T07:42:13Z</time>
      </trkpt>
      <trkpt lat="45.68959" lon="3.16054">
        <ele>421.19</ele>
        <time>2016-06-19T07:42:29Z</time>
      </trkpt>
      <trkpt lat="45.68917" lon="3.16065">
        <ele>423.12</ele>
        <time>2016-06-19T07:42:50Z</time>
      </trkpt>
      <trkpt lat="45.68885" lon="3.16073">
        <ele>426.48</ele>
        <time>2016-06-19T07:43:07Z</time>
      </trkpt>
      <trkpt lat="45.68852" lon="3.16076">
        <ele>429.37</ele>
        <time>2016-06-19T07:43:25Z</time>
      </trkpt>
      <trkpt lat="45.68826" lon="3.16079">
        <ele>430.81</ele>
        <time>2016-06-19T07:43:40Z</time>
      </trkpt>
      <trkpt lat="45.68797" lon="3.16084">
        <ele>433.69</ele>
        <time>2016-06-19T07:43:56Z</time>
      </trkpt>
      <trkpt lat="45.68765" lon="3.16088">
        <ele>437.06</ele>
        <time>2016-06-19T07:44:15Z</time>
      </trkpt>
      <trkpt lat="45.68747" lon="3.16087">
        <ele>439.46</ele>
        <time>2016-06-19T07:44:27Z</time>
      </trkpt>
      <trkpt lat="45.68747" lon="3.16086">
        <ele>439.46</ele>
        <time>2016-06-19T07:44:28Z</time>
      </trkpt>
      <trkpt lat="45.68747" lon="3.16084">
        <ele>439.94</ele>
        <time>2016-06-19T07:44:29Z</time>
      </trkpt>
      <trkpt lat="45.68748" lon="3.16082">
        <ele>440.42</ele>
        <time>2016-06-19T07:44:30Z</time>
      </trkpt>
      <trkpt lat="45.68748" lon="3.16079">
        <ele>440.42</ele>
        <time>2016-06-19T07:44:31Z</time>
      </trkpt>
      <trkpt lat="45.6875" lon="3.16035">
        <ele>439.94</ele>
        <time>2016-06-19T07:44:45Z</time>
      </trkpt>
      <trkpt lat="45.68754" lon="3.15991">
        <ele>440.42</ele>
        <time>2016-06-19T07:44:58Z</time>
      </trkpt>
      <trkpt lat="45.6875" lon="3.15935">
        <ele>442.34</ele>
        <time>2016-06-19T07:45:13Z</time>
      </trkpt>
      <trkpt lat="45.68747" lon="3.15931">
        <ele>442.82</ele>
        <time>2016-06-19T07:45:15Z</time>
      </trkpt>
      <trkpt lat="45.68745" lon="3.1593">
        <ele>443.31</ele>
        <time>2016-06-19T07:45:16Z</time>
      </trkpt>
      <trkpt lat="45.68743" lon="3.1593">
        <ele>443.31</ele>
        <time>2016-06-19T07:45:17Z</time>
      </trkpt>
      <trkpt lat="45.68741" lon="3.1593">
        <ele>443.79</ele>
        <time>2016-06-19T07:45:18Z</time>
      </trkpt>
      <trkpt lat="45.68738" lon="3.1593">
        <ele>443.79</ele>
        <time>2016-06-19T07:45:19Z</time>
      </trkpt>
      <trkpt lat="45.68736" lon="3.1593">
        <ele>444.27</ele>
        <time>2016-06-19T07:45:20Z</time>
      </trkpt>
      <trkpt lat="45.68734" lon="3.1593">
        <ele>444.75</ele>
        <time>2016-06-19T07:45:21Z</time>
      </trkpt>
      <trkpt lat="45.68733" lon="3.1593">
        <ele>445.23</ele>
        <time>2016-06-19T07:45:22Z</time>
      </trkpt>
      <trkpt lat="45.68731" lon="3.1593">
        <ele>445.23</ele>
        <time>2016-06-19T07:45:23Z</time>
      </trkpt>
      <trkpt lat="45.68729" lon="3.15928">
        <ele>445.71</ele>
        <time>2016-06-19T07:45:24Z</time>
      </trkpt>
      <trkpt lat="45.68727" lon="3.15928">
        <ele>445.71</ele>
        <time>2016-06-19T07:45:25Z</time>
      </trkpt>
      <trkpt lat="45.68725" lon="3.15927">
        <ele>445.71</ele>
        <time>2016-06-19T07:45:26Z</time>
      </trkpt>
      <trkpt lat="45.68724" lon="3.15927">
        <ele>446.19</ele>
        <time>2016-06-19T07:45:27Z</time>
      </trkpt>
      <trkpt lat="45.68722" lon="3.15926">
        <ele>446.67</ele>
        <time>2016-06-19T07:45:28Z</time>
      </trkpt>
      <trkpt lat="45.6872" lon="3.15925">
        <ele>446.67</ele>
        <time>2016-06-19T07:45:29Z</time>
      </trkpt>
      <trkpt lat="45.68718" lon="3.15925">
        <ele>446.67</ele>
        <time>2016-06-19T07:45:30Z</time>
      </trkpt>
      <trkpt lat="45.68716" lon="3.15925">
        <ele>446.67</ele>
        <time>2016-06-19T07:45:31Z</time>
      </trkpt>
      <trkpt lat="45.68714" lon="3.15925">
        <ele>447.15</ele>
        <time>2016-06-19T07:45:32Z</time>
      </trkpt>
      <trkpt lat="45.68712" lon="3.15925">
        <ele>447.15</ele>
        <time>2016-06-19T07:45:33Z</time>
      </trkpt>
      <trkpt lat="45.68687" lon="3.1592">
        <ele>450.52</ele>
        <time>2016-06-19T07:45:49Z</time>
      </trkpt>
      <trkpt lat="45.68673" lon="3.15921">
        <ele>452.44</ele>
        <time>2016-06-19T07:45:59Z</time>
      </trkpt>
      <trkpt lat="45.68671" lon="3.1592">
        <ele>452.44</ele>
        <time>2016-06-19T07:46:00Z</time>
      </trkpt>
      <trkpt lat="45.68654" lon="3.15918">
        <ele>455.8</ele>
        <time>2016-06-19T07:46:14Z</time>
      </trkpt>
      <trkpt lat="45.68649" lon="3.15916">
        <ele>456.76</ele>
        <time>2016-06-19T07:46:18Z</time>
      </trkpt>
      <trkpt lat="45.68649" lon="3.15916">
        <ele>456.76</ele>
        <time>2016-06-19T07:46:19Z</time>
      </trkpt>
      <trkpt lat="45.68647" lon="3.15916">
        <ele>456.76</ele>
        <time>2016-06-19T07:46:20Z</time>
      </trkpt>
      <trkpt lat="45.68646" lon="3.15916">
        <ele>456.76</ele>
        <time>2016-06-19T07:46:21Z</time>
      </trkpt>
      <trkpt lat="45.68645" lon="3.15915">
        <ele>457.24</ele>
        <time>2016-06-19T07:46:22Z</time>
      </trkpt>
      <trkpt lat="45.68634" lon="3.15911">
        <ele>460.13</ele>
        <time>2016-06-19T07:46:37Z</time>
      </trkpt>
      <trkpt lat="45.68633" lon="3.15901">
        <ele>461.09</ele>
        <time>2016-06-19T07:46:52Z</time>
      </trkpt>
      <trkpt lat="45.68633" lon="3.15898">
        <ele>461.09</ele>
        <time>2016-06-19T07:47:08Z</time>
      </trkpt>
      <trkpt lat="45.68633" lon="3.15896">
        <ele>461.09</ele>
        <time>2016-06-19T07:47:09Z</time>
      </trkpt>
      <trkpt lat="45.68633" lon="3.15894">
        <ele>461.09</ele>
        <time>2016-06-19T07:47:10Z</time>
      </trkpt>
      <trkpt lat="45.68633" lon="3.15892">
        <ele>461.57</ele>
        <time>2016-06-19T07:47:11Z</time>
      </trkpt>
      <trkpt lat="45.68633" lon="3.15889">
        <ele>461.57</ele>
        <time>2016-06-19T07:47:12Z</time>
      </trkpt>
      <trkpt lat="45.68633" lon="3.15887">
        <ele>461.57</ele>
        <time>2016-06-19T07:47:13Z</time>
      </trkpt>
      <trkpt lat="45.68636" lon="3.15843">
        <ele>463.49</ele>
        <time>2016-06-19T07:47:29Z</time>
      </trkpt>
      <trkpt lat="45.68641" lon="3.15803">
        <ele>464.93</ele>
        <time>2016-06-19T07:47:43Z</time>
      </trkpt>
      <trkpt lat="45.6864" lon="3.15794">
        <ele>464.45</ele>
        <time>2016-06-19T07:47:46Z</time>
      </trkpt>
      <trkpt lat="45.68639" lon="3.15792">
        <ele>464.93</ele>
        <time>2016-06-19T07:47:47Z</time>
      </trkpt>
      <trkpt lat="45.68629" lon="3.15788">
        <ele>466.38</ele>
        <time>2016-06-19T07:47:53Z</time>
      </trkpt>
      <trkpt lat="45.68614" lon="3.15788">
        <ele>469.26</ele>
        <time>2016-06-19T07:48:04Z</time>
      </trkpt>
      <trkpt lat="45.68597" lon="3.15788">
        <ele>472.14</ele>
        <time>2016-06-19T07:48:19Z</time>
      </trkpt>
      <trkpt lat="45.68579" lon="3.1579">
        <ele>475.51</ele>
        <time>2016-06-19T07:48:35Z</time>
      </trkpt>
      <trkpt lat="45.68574" lon="3.1579">
        <ele>476.47</ele>
        <time>2016-06-19T07:48:39Z</time>
      </trkpt>
      <trkpt lat="45.6857" lon="3.1579">
        <ele>477.43</ele>
        <time>2016-06-19T07:48:43Z</time>
      </trkpt>
      <trkpt lat="45.68565" lon="3.15789">
        <ele>477.91</ele>
        <time>2016-06-19T07:48:48Z</time>
      </trkpt>
      <trkpt lat="45.68559" lon="3.15788">
        <ele>478.87</ele>
        <time>2016-06-19T07:48:53Z</time>
      </trkpt>
      <trkpt lat="45.68554" lon="3.15788">
        <ele>480.32</ele>
        <time>2016-06-19T07:48:58Z</time>
      </trkpt>
      <trkpt lat="45.68551" lon="3.15785">
        <ele>480.8</ele>
        <time>2016-06-19T07:49:03Z</time>
      </trkpt>
      <trkpt lat="45.68553" lon="3.15751">
        <ele>481.28</ele>
        <time>2016-06-19T07:49:17Z</time>
      </trkpt>
      <trkpt lat="45.68551" lon="3.15707">
        <ele>481.28</ele>
        <time>2016-06-19T07:49:31Z</time>
      </trkpt>
      <trkpt lat="45.68542" lon="3.15659">
        <ele>481.76</ele>
        <time>2016-06-19T07:49:47Z</time>
      </trkpt>
      <trkpt lat="45.68534" lon="3.15611">
        <ele>483.2</ele>
        <time>2016-06-19T07:50:03Z</time>
      </trkpt>
      <trkpt lat="45.68527" lon="3.1557">
        <ele>484.16</ele>
        <time>2016-06-19T07:50:18Z</time>
      </trkpt>
      <trkpt lat="45.68524" lon="3.15567">
        <ele>484.64</ele>
        <time>2016-06-19T07:50:20Z</time>
      </trkpt>
      <trkpt lat="45.68499" lon="3.15574">
        <ele>488.49</ele>
        <time>2016-06-19T07:50:36Z</time>
      </trkpt>
      <trkpt lat="45.68479" lon="3.15578">
        <ele>490.41</ele>
        <time>2016-06-19T07:50:49Z</time>
      </trkpt>
      <trkpt lat="45.68459" lon="3.15582">
        <ele>493.29</ele>
        <time>2016-06-19T07:51:03Z</time>
      </trkpt>
      <trkpt lat="45.68437" lon="3.15588">
        <ele>496.66</ele>
        <time>2016-06-19T07:51:20Z</time>
      </trkpt>
      <trkpt lat="45.68436" lon="3.15588">
        <ele>497.14</ele>
        <time>2016-06-19T07:51:21Z</time>
      </trkpt>
      <trkpt lat="45.68432" lon="3.15584">
        <ele>497.14</ele>
        <time>2016-06-19T07:51:25Z</time>
      </trkpt>
      <trkpt lat="45.68421" lon="3.15533">
        <ele>496.66</ele>
        <time>2016-06-19T07:51:42Z</time>
      </trkpt>
      <trkpt lat="45.68407" lon="3.15464">
        <ele>494.26</ele>
        <time>2016-06-19T07:51:56Z</time>
      </trkpt>
      <trkpt lat="45.68392" lon="3.15402">
        <ele>492.81</ele>
        <time>2016-06-19T07:52:11Z</time>
      </trkpt>
      <trkpt lat="45.68384" lon="3.15354">
        <ele>492.81</ele>
        <time>2016-06-19T07:52:24Z</time>
      </trkpt>
      <trkpt lat="45.68372" lon="3.15295">
        <ele>491.85</ele>
        <time>2016-06-19T07:52:40Z</time>
      </trkpt>
      <trkpt lat="45.68355" lon="3.15258">
        <ele>488.97</ele>
        <time>2016-06-19T07:52:53Z</time>
      </trkpt>
      <trkpt lat="45.68324" lon="3.15253">
        <ele>489.93</ele>
        <time>2016-06-19T07:53:09Z</time>
      </trkpt>
      <trkpt lat="45.68296" lon="3.15246">
        <ele>489.93</ele>
        <time>2016-06-19T07:53:25Z</time>
      </trkpt>
      <trkpt lat="45.68266" lon="3.15243">
        <ele>491.85</ele>
        <time>2016-06-19T07:53:37Z</time>
      </trkpt>
      <trkpt lat="45.6823" lon="3.15237">
        <ele>494.26</ele>
        <time>2016-06-19T07:53:52Z</time>
      </trkpt>
      <trkpt lat="45.68217" lon="3.15223">
        <ele>496.66</ele>
        <time>2016-06-19T07:53:59Z</time>
      </trkpt>
      <trkpt lat="45.68202" lon="3.1516">
        <ele>497.14</ele>
        <time>2016-06-19T07:54:13Z</time>
      </trkpt>
      <trkpt lat="45.68186" lon="3.15104">
        <ele>500.5</ele>
        <time>2016-06-19T07:54:25Z</time>
      </trkpt>
      <trkpt lat="45.68184" lon="3.1509">
        <ele>500.98</ele>
        <time>2016-06-19T07:54:29Z</time>
      </trkpt>
      <trkpt lat="45.68205" lon="3.15059">
        <ele>498.58</ele>
        <time>2016-06-19T07:54:38Z</time>
      </trkpt>
      <trkpt lat="45.68208" lon="3.15055">
        <ele>498.1</ele>
        <time>2016-06-19T07:54:39Z</time>
      </trkpt>
      <trkpt lat="45.68214" lon="3.15043">
        <ele>497.14</ele>
        <time>2016-06-19T07:54:41Z</time>
      </trkpt>
      <trkpt lat="45.68228" lon="3.15015">
        <ele>495.22</ele>
        <time>2016-06-19T07:54:45Z</time>
      </trkpt>
      <trkpt lat="45.68243" lon="3.14993">
        <ele>493.29</ele>
        <time>2016-06-19T07:54:48Z</time>
      </trkpt>
      <trkpt lat="45.68266" lon="3.14963">
        <ele>490.41</ele>
        <time>2016-06-19T07:54:52Z</time>
      </trkpt>
      <trkpt lat="45.68272" lon="3.14956">
        <ele>489.93</ele>
        <time>2016-06-19T07:54:53Z</time>
      </trkpt>
      <trkpt lat="45.68302" lon="3.1493">
        <ele>487.05</ele>
        <time>2016-06-19T07:54:58Z</time>
      </trkpt>
      <trkpt lat="45.68311" lon="3.1492">
        <ele>485.12</ele>
        <time>2016-06-19T07:55:00Z</time>
      </trkpt>
      <trkpt lat="45.68316" lon="3.14914">
        <ele>483.68</ele>
        <time>2016-06-19T07:55:01Z</time>
      </trkpt>
      <trkpt lat="45.68324" lon="3.149">
        <ele>482.24</ele>
        <time>2016-06-19T07:55:03Z</time>
      </trkpt>
      <trkpt lat="45.68328" lon="3.14892">
        <ele>480.32</ele>
        <time>2016-06-19T07:55:04Z</time>
      </trkpt>
      <trkpt lat="45.68341" lon="3.14865">
        <ele>476.47</ele>
        <time>2016-06-19T07:55:07Z</time>
      </trkpt>
      <trkpt lat="45.68345" lon="3.14857">
        <ele>476.47</ele>
        <time>2016-06-19T07:55:08Z</time>
      </trkpt>
      <trkpt lat="45.6836" lon="3.14832">
        <ele>472.63</ele>
        <time>2016-06-19T07:55:11Z</time>
      </trkpt>
      <trkpt lat="45.68364" lon="3.14824">
        <ele>471.66</ele>
        <time>2016-06-19T07:55:12Z</time>
      </trkpt>
      <trkpt lat="45.68368" lon="3.14816">
        <ele>471.66</ele>
        <time>2016-06-19T07:55:13Z</time>
      </trkpt>
      <trkpt lat="45.68372" lon="3.1481">
        <ele>471.18</ele>
        <time>2016-06-19T07:55:14Z</time>
      </trkpt>
      <trkpt lat="45.68376" lon="3.14803">
        <ele>469.74</ele>
        <time>2016-06-19T07:55:15Z</time>
      </trkpt>
      <trkpt lat="45.6838" lon="3.14795">
        <ele>470.22</ele>
        <time>2016-06-19T07:55:16Z</time>
      </trkpt>
      <trkpt lat="45.68383" lon="3.14787">
        <ele>468.78</ele>
        <time>2016-06-19T07:55:17Z</time>
      </trkpt>
      <trkpt lat="45.68386" lon="3.14779">
        <ele>467.82</ele>
        <time>2016-06-19T07:55:18Z</time>
      </trkpt>
      <trkpt lat="45.68388" lon="3.1477">
        <ele>467.34</ele>
        <time>2016-06-19T07:55:19Z</time>
      </trkpt>
      <trkpt lat="45.6839" lon="3.1476">
        <ele>467.34</ele>
        <time>2016-06-19T07:55:20Z</time>
      </trkpt>
      <trkpt lat="45.68396" lon="3.14718">
        <ele>464.45</ele>
        <time>2016-06-19T07:55:25Z</time>
      </trkpt>
      <trkpt lat="45.68397" lon="3.14706">
        <ele>463.49</ele>
        <time>2016-06-19T07:55:27Z</time>
      </trkpt>
      <trkpt lat="45.68399" lon="3.14696">
        <ele>463.01</ele>
        <time>2016-06-19T07:55:29Z</time>
      </trkpt>
      <trkpt lat="45.68402" lon="3.14685">
        <ele>463.01</ele>
        <time>2016-06-19T07:55:31Z</time>
      </trkpt>
      <trkpt lat="45.68406" lon="3.14672">
        <ele>462.53</ele>
        <time>2016-06-19T07:55:33Z</time>
      </trkpt>
      <trkpt lat="45.68407" lon="3.14665">
        <ele>462.05</ele>
        <time>2016-06-19T07:55:34Z</time>
      </trkpt>
      <trkpt lat="45.68409" lon="3.14658">
        <ele>461.09</ele>
        <time>2016-06-19T07:55:35Z</time>
      </trkpt>
      <trkpt lat="45.68411" lon="3.1465">
        <ele>461.09</ele>
        <time>2016-06-19T07:55:36Z</time>
      </trkpt>
      <trkpt lat="45.68424" lon="3.14599">
        <ele>458.69</ele>
        <time>2016-06-19T07:55:42Z</time>
      </trkpt>
      <trkpt lat="45.68438" lon="3.14562">
        <ele>457.24</ele>
        <time>2016-06-19T07:55:46Z</time>
      </trkpt>
      <trkpt lat="45.68443" lon="3.14549">
        <ele>455.8</ele>
        <time>2016-06-19T07:55:48Z</time>
      </trkpt>
      <trkpt lat="45.68445" lon="3.14543">
        <ele>455.32</ele>
        <time>2016-06-19T07:55:49Z</time>
      </trkpt>
      <trkpt lat="45.68448" lon="3.14501">
        <ele>452.92</ele>
        <time>2016-06-19T07:55:54Z</time>
      </trkpt>
      <trkpt lat="45.6845" lon="3.14492">
        <ele>451.96</ele>
        <time>2016-06-19T07:55:55Z</time>
      </trkpt>
      <trkpt lat="45.68454" lon="3.1447">
        <ele>451</ele>
        <time>2016-06-19T07:55:57Z</time>
      </trkpt>
      <trkpt lat="45.68456" lon="3.14447">
        <ele>449.55</ele>
        <time>2016-06-19T07:55:59Z</time>
      </trkpt>
      <trkpt lat="45.68456" lon="3.14437">
        <ele>449.55</ele>
        <time>2016-06-19T07:56:00Z</time>
      </trkpt>
      <trkpt lat="45.68455" lon="3.14428">
        <ele>448.59</ele>
        <time>2016-06-19T07:56:01Z</time>
      </trkpt>
      <trkpt lat="45.68452" lon="3.1442">
        <ele>448.11</ele>
        <time>2016-06-19T07:56:02Z</time>
      </trkpt>
      <trkpt lat="45.68447" lon="3.14413">
        <ele>447.63</ele>
        <time>2016-06-19T07:56:03Z</time>
      </trkpt>
      <trkpt lat="45.68442" lon="3.14408">
        <ele>447.15</ele>
        <time>2016-06-19T07:56:04Z</time>
      </trkpt>
      <trkpt lat="45.68436" lon="3.14404">
        <ele>446.67</ele>
        <time>2016-06-19T07:56:05Z</time>
      </trkpt>
      <trkpt lat="45.6843" lon="3.14401">
        <ele>446.67</ele>
        <time>2016-06-19T07:56:06Z</time>
      </trkpt>
      <trkpt lat="45.68423" lon="3.14398">
        <ele>445.71</ele>
        <time>2016-06-19T07:56:07Z</time>
      </trkpt>
      <trkpt lat="45.68417" lon="3.14397">
        <ele>446.19</ele>
        <time>2016-06-19T07:56:08Z</time>
      </trkpt>
      <trkpt lat="45.6841" lon="3.14396">
        <ele>445.23</ele>
        <time>2016-06-19T07:56:09Z</time>
      </trkpt>
      <trkpt lat="45.68404" lon="3.14396">
        <ele>445.23</ele>
        <time>2016-06-19T07:56:10Z</time>
      </trkpt>
      <trkpt lat="45.68309" lon="3.14389">
        <ele>442.34</ele>
        <time>2016-06-19T07:56:25Z</time>
      </trkpt>
      <trkpt lat="45.68204" lon="3.14374">
        <ele>440.42</ele>
        <time>2016-06-19T07:56:41Z</time>
      </trkpt>
      <trkpt lat="45.68099" lon="3.14345">
        <ele>438.98</ele>
        <time>2016-06-19T07:56:57Z</time>
      </trkpt>
      <trkpt lat="45.6803" lon="3.14338">
        <ele>436.1</ele>
        <time>2016-06-19T07:57:10Z</time>
      </trkpt>
      <trkpt lat="45.68024" lon="3.14336">
        <ele>435.61</ele>
        <time>2016-06-19T07:57:11Z</time>
      </trkpt>
      <trkpt lat="45.68012" lon="3.14334">
        <ele>436.1</ele>
        <time>2016-06-19T07:57:13Z</time>
      </trkpt>
      <trkpt lat="45.6798" lon="3.14331">
        <ele>433.69</ele>
        <time>2016-06-19T07:57:19Z</time>
      </trkpt>
      <trkpt lat="45.67978" lon="3.14333">
        <ele>433.69</ele>
        <time>2016-06-19T07:57:20Z</time>
      </trkpt>
      <trkpt lat="45.67977" lon="3.14336">
        <ele>434.65</ele>
        <time>2016-06-19T07:57:21Z</time>
      </trkpt>
      <trkpt lat="45.67976" lon="3.1434">
        <ele>433.69</ele>
        <time>2016-06-19T07:57:22Z</time>
      </trkpt>
      <trkpt lat="45.67977" lon="3.14344">
        <ele>433.21</ele>
        <time>2016-06-19T07:57:23Z</time>
      </trkpt>
      <trkpt lat="45.67978" lon="3.14348">
        <ele>433.21</ele>
        <time>2016-06-19T07:57:24Z</time>
      </trkpt>
      <trkpt lat="45.6799" lon="3.14423">
        <ele>434.17</ele>
        <time>2016-06-19T07:57:36Z</time>
      </trkpt>
      <trkpt lat="45.67997" lon="3.14465">
        <ele>436.58</ele>
        <time>2016-06-19T07:57:48Z</time>
      </trkpt>
      <trkpt lat="45.68" lon="3.14484">
        <ele>438.98</ele>
        <time>2016-06-19T07:57:55Z</time>
      </trkpt>
      <trkpt lat="45.68003" lon="3.14511">
        <ele>441.86</ele>
        <time>2016-06-19T07:58:06Z</time>
      </trkpt>
      <trkpt lat="45.68006" lon="3.14535">
        <ele>443.31</ele>
        <time>2016-06-19T07:58:18Z</time>
      </trkpt>
      <trkpt lat="45.68009" lon="3.14544">
        <ele>445.23</ele>
        <time>2016-06-19T07:58:23Z</time>
      </trkpt>
      <trkpt lat="45.6801" lon="3.14545">
        <ele>445.23</ele>
        <time>2016-06-19T07:58:24Z</time>
      </trkpt>
      <trkpt lat="45.6801" lon="3.14547">
        <ele>446.19</ele>
        <time>2016-06-19T07:58:25Z</time>
      </trkpt>
      <trkpt lat="45.6801" lon="3.14549">
        <ele>446.67</ele>
        <time>2016-06-19T07:58:26Z</time>
      </trkpt>
      <trkpt lat="45.6801" lon="3.1455">
        <ele>445.23</ele>
        <time>2016-06-19T07:58:27Z</time>
      </trkpt>
      <trkpt lat="45.68013" lon="3.14555">
        <ele>446.67</ele>
        <time>2016-06-19T07:58:30Z</time>
      </trkpt>
      <trkpt lat="45.68013" lon="3.14557">
        <ele>445.23</ele>
        <time>2016-06-19T07:58:31Z</time>
      </trkpt>
      <trkpt lat="45.68014" lon="3.14559">
        <ele>445.71</ele>
        <time>2016-06-19T07:58:32Z</time>
      </trkpt>
      <trkpt lat="45.68014" lon="3.14562">
        <ele>447.15</ele>
        <time>2016-06-19T07:58:34Z</time>
      </trkpt>
      <trkpt lat="45.68014" lon="3.14566">
        <ele>447.15</ele>
        <time>2016-06-19T07:58:36Z</time>
      </trkpt>
      <trkpt lat="45.68014" lon="3.14568">
        <ele>447.15</ele>
        <time>2016-06-19T07:58:37Z</time>
      </trkpt>
      <trkpt lat="45.68012" lon="3.1457">
        <ele>448.59</ele>
        <time>2016-06-19T07:58:39Z</time>
      </trkpt>
      <trkpt lat="45.68011" lon="3.14571">
        <ele>448.59</ele>
        <time>2016-06-19T07:58:40Z</time>
      </trkpt>
      <trkpt lat="45.68009" lon="3.14571">
        <ele>447.63</ele>
        <time>2016-06-19T07:58:41Z</time>
      </trkpt>
      <trkpt lat="45.67986" lon="3.14583">
        <ele>445.71</ele>
        <time>2016-06-19T07:58:50Z</time>
      </trkpt>
      <trkpt lat="45.67971" lon="3.14599">
        <ele>446.19</ele>
        <time>2016-06-19T07:58:56Z</time>
      </trkpt>
      <trkpt lat="45.67952" lon="3.14622">
        <ele>442.34</ele>
        <time>2016-06-19T07:59:04Z</time>
      </trkpt>
      <trkpt lat="45.67946" lon="3.14627">
        <ele>444.27</ele>
        <time>2016-06-19T07:59:06Z</time>
      </trkpt>
      <trkpt lat="45.67915" lon="3.14654">
        <ele>440.42</ele>
        <time>2016-06-19T07:59:16Z</time>
      </trkpt>
      <trkpt lat="45.67912" lon="3.14657">
        <ele>440.42</ele>
        <time>2016-06-19T07:59:17Z</time>
      </trkpt>
      <trkpt lat="45.67898" lon="3.14671">
        <ele>439.46</ele>
        <time>2016-06-19T07:59:21Z</time>
      </trkpt>
      <trkpt lat="45.67883" lon="3.14687">
        <ele>438.5</ele>
        <time>2016-06-19T07:59:25Z</time>
      </trkpt>
      <trkpt lat="45.67836" lon="3.14736">
        <ele>435.13</ele>
        <time>2016-06-19T07:59:39Z</time>
      </trkpt>
      <trkpt lat="45.67805" lon="3.14766">
        <ele>435.61</ele>
        <time>2016-06-19T07:59:50Z</time>
      </trkpt>
      <trkpt lat="45.6779" lon="3.14782">
        <ele>433.69</ele>
        <time>2016-06-19T07:59:55Z</time>
      </trkpt>
      <trkpt lat="45.67738" lon="3.14829">
        <ele>433.69</ele>
        <time>2016-06-19T08:00:12Z</time>
      </trkpt>
      <trkpt lat="45.67689" lon="3.14835">
        <ele>431.29</ele>
        <time>2016-06-19T08:00:26Z</time>
      </trkpt>
      <trkpt lat="45.67631" lon="3.14821">
        <ele>429.85</ele>
        <time>2016-06-19T08:00:42Z</time>
      </trkpt>
      <trkpt lat="45.67603" lon="3.14815">
        <ele>427.92</ele>
        <time>2016-06-19T08:00:48Z</time>
      </trkpt>
      <trkpt lat="45.67598" lon="3.14813">
        <ele>426</ele>
        <time>2016-06-19T08:00:49Z</time>
      </trkpt>
      <trkpt lat="45.67594" lon="3.14812">
        <ele>426.48</ele>
        <time>2016-06-19T08:00:50Z</time>
      </trkpt>
      <trkpt lat="45.67567" lon="3.14804">
        <ele>424.56</ele>
        <time>2016-06-19T08:00:55Z</time>
      </trkpt>
      <trkpt lat="45.67551" lon="3.148">
        <ele>422.64</ele>
        <time>2016-06-19T08:00:58Z</time>
      </trkpt>
      <trkpt lat="45.67494" lon="3.14788">
        <ele>420.71</ele>
        <time>2016-06-19T08:01:11Z</time>
      </trkpt>
      <trkpt lat="45.67461" lon="3.1478">
        <ele>420.23</ele>
        <time>2016-06-19T08:01:24Z</time>
      </trkpt>
      <trkpt lat="45.67458" lon="3.14778">
        <ele>419.27</ele>
        <time>2016-06-19T08:01:39Z</time>
      </trkpt>
      <trkpt lat="45.67458" lon="3.14777">
        <ele>419.27</ele>
        <time>2016-06-19T08:01:50Z</time>
      </trkpt>
      <trkpt lat="45.67457" lon="3.1478">
        <ele>419.27</ele>
        <time>2016-06-19T08:01:59Z</time>
      </trkpt>
      <trkpt lat="45.67457" lon="3.14782">
        <ele>419.75</ele>
        <time>2016-06-19T08:02:00Z</time>
      </trkpt>
      <trkpt lat="45.67455" lon="3.14806">
        <ele>421.68</ele>
        <time>2016-06-19T08:02:10Z</time>
      </trkpt>
      <trkpt lat="45.67454" lon="3.14808">
        <ele>421.68</ele>
        <time>2016-06-19T08:02:11Z</time>
      </trkpt>
      <trkpt lat="45.67452" lon="3.14809">
        <ele>422.16</ele>
        <time>2016-06-19T08:02:12Z</time>
      </trkpt>
      <trkpt lat="45.6745" lon="3.14809">
        <ele>422.16</ele>
        <time>2016-06-19T08:02:13Z</time>
      </trkpt>
      <trkpt lat="45.67449" lon="3.14809">
        <ele>423.12</ele>
        <time>2016-06-19T08:02:14Z</time>
      </trkpt>
      <trkpt lat="45.67447" lon="3.14807">
        <ele>422.64</ele>
        <time>2016-06-19T08:02:15Z</time>
      </trkpt>
      <trkpt lat="45.67411" lon="3.14774">
        <ele>421.19</ele>
        <time>2016-06-19T08:02:26Z</time>
      </trkpt>
      <trkpt lat="45.6739" lon="3.14752">
        <ele>418.79</ele>
        <time>2016-06-19T08:02:30Z</time>
      </trkpt>
      <trkpt lat="45.6736" lon="3.14725">
        <ele>416.39</ele>
        <time>2016-06-19T08:02:35Z</time>
      </trkpt>
      <trkpt lat="45.67343" lon="3.14711">
        <ele>415.43</ele>
        <time>2016-06-19T08:02:38Z</time>
      </trkpt>
      <trkpt lat="45.67336" lon="3.14708">
        <ele>414.47</ele>
        <time>2016-06-19T08:02:39Z</time>
      </trkpt>
      <trkpt lat="45.6733" lon="3.14706">
        <ele>414.47</ele>
        <time>2016-06-19T08:02:40Z</time>
      </trkpt>
      <trkpt lat="45.67316" lon="3.14704">
        <ele>414.47</ele>
        <time>2016-06-19T08:02:42Z</time>
      </trkpt>
      <trkpt lat="45.67215" lon="3.14703">
        <ele>413.5</ele>
        <time>2016-06-19T08:02:59Z</time>
      </trkpt>
      <trkpt lat="45.67141" lon="3.14701">
        <ele>410.14</ele>
        <time>2016-06-19T08:03:13Z</time>
      </trkpt>
      <trkpt lat="45.67112" lon="3.147">
        <ele>408.7</ele>
        <time>2016-06-19T08:03:17Z</time>
      </trkpt>
      <trkpt lat="45.6702" lon="3.14687">
        <ele>407.74</ele>
        <time>2016-06-19T08:03:32Z</time>
      </trkpt>
      <trkpt lat="45.66966" lon="3.14681">
        <ele>411.58</ele>
        <time>2016-06-19T08:03:47Z</time>
      </trkpt>
      <trkpt lat="45.66937" lon="3.14678">
        <ele>412.06</ele>
        <time>2016-06-19T08:03:58Z</time>
      </trkpt>
      <trkpt lat="45.66914" lon="3.14675">
        <ele>409.18</ele>
        <time>2016-06-19T08:04:05Z</time>
      </trkpt>
      <trkpt lat="45.6689" lon="3.14671">
        <ele>405.81</ele>
        <time>2016-06-19T08:04:11Z</time>
      </trkpt>
      <trkpt lat="45.66886" lon="3.14671">
        <ele>405.81</ele>
        <time>2016-06-19T08:04:12Z</time>
      </trkpt>
      <trkpt lat="45.66873" lon="3.1467">
        <ele>403.41</ele>
        <time>2016-06-19T08:04:15Z</time>
      </trkpt>
      <trkpt lat="45.66855" lon="3.14667">
        <ele>400.05</ele>
        <time>2016-06-19T08:04:20Z</time>
      </trkpt>
      <trkpt lat="45.66853" lon="3.14667">
        <ele>399.57</ele>
        <time>2016-06-19T08:04:21Z</time>
      </trkpt>
      <trkpt lat="45.6685" lon="3.14669">
        <ele>399.08</ele>
        <time>2016-06-19T08:04:22Z</time>
      </trkpt>
      <trkpt lat="45.66849" lon="3.14671">
        <ele>399.08</ele>
        <time>2016-06-19T08:04:23Z</time>
      </trkpt>
      <trkpt lat="45.66848" lon="3.14675">
        <ele>399.08</ele>
        <time>2016-06-19T08:04:24Z</time>
      </trkpt>
      <trkpt lat="45.66848" lon="3.14679">
        <ele>399.08</ele>
        <time>2016-06-19T08:04:25Z</time>
      </trkpt>
      <trkpt lat="45.66847" lon="3.14684">
        <ele>399.08</ele>
        <time>2016-06-19T08:04:26Z</time>
      </trkpt>
      <trkpt lat="45.66847" lon="3.14688">
        <ele>399.08</ele>
        <time>2016-06-19T08:04:27Z</time>
      </trkpt>
      <trkpt lat="45.66848" lon="3.14693">
        <ele>399.08</ele>
        <time>2016-06-19T08:04:28Z</time>
      </trkpt>
      <trkpt lat="45.66848" lon="3.14742">
        <ele>402.93</ele>
        <time>2016-06-19T08:04:40Z</time>
      </trkpt>
      <trkpt lat="45.66848" lon="3.14746">
        <ele>402.45</ele>
        <time>2016-06-19T08:04:41Z</time>
      </trkpt>
      <trkpt lat="45.6685" lon="3.14817">
        <ele>404.85</ele>
        <time>2016-06-19T08:04:58Z</time>
      </trkpt>
      <trkpt lat="45.66852" lon="3.14893">
        <ele>405.81</ele>
        <time>2016-06-19T08:05:15Z</time>
      </trkpt>
      <trkpt lat="45.6685" lon="3.14982">
        <ele>404.37</ele>
        <time>2016-06-19T08:05:33Z</time>
      </trkpt>
      <trkpt lat="45.66844" lon="3.15034">
        <ele>403.89</ele>
        <time>2016-06-19T08:05:46Z</time>
      </trkpt>
      <trkpt lat="45.66841" lon="3.15044">
        <ele>403.89</ele>
        <time>2016-06-19T08:05:50Z</time>
      </trkpt>
      <trkpt lat="45.66839" lon="3.15045">
        <ele>403.41</ele>
        <time>2016-06-19T08:05:51Z</time>
      </trkpt>
      <trkpt lat="45.66836" lon="3.15044">
        <ele>402.45</ele>
        <time>2016-06-19T08:05:52Z</time>
      </trkpt>
      <trkpt lat="45.66833" lon="3.15042">
        <ele>402.45</ele>
        <time>2016-06-19T08:05:53Z</time>
      </trkpt>
      <trkpt lat="45.6683" lon="3.15039">
        <ele>401.97</ele>
        <time>2016-06-19T08:05:54Z</time>
      </trkpt>
      <trkpt lat="45.66827" lon="3.15036">
        <ele>401.49</ele>
        <time>2016-06-19T08:05:55Z</time>
      </trkpt>
      <trkpt lat="45.66825" lon="3.15032">
        <ele>400.53</ele>
        <time>2016-06-19T08:05:56Z</time>
      </trkpt>
      <trkpt lat="45.66816" lon="3.15019">
        <ele>399.57</ele>
        <time>2016-06-19T08:05:59Z</time>
      </trkpt>
      <trkpt lat="45.6681" lon="3.15007">
        <ele>396.68</ele>
        <time>2016-06-19T08:06:01Z</time>
      </trkpt>
      <trkpt lat="45.66806" lon="3.14995">
        <ele>396.2</ele>
        <time>2016-06-19T08:06:03Z</time>
      </trkpt>
      <trkpt lat="45.66798" lon="3.14973">
        <ele>393.8</ele>
        <time>2016-06-19T08:06:06Z</time>
      </trkpt>
      <trkpt lat="45.66788" lon="3.14943">
        <ele>389.95</ele>
        <time>2016-06-19T08:06:10Z</time>
      </trkpt>
      <trkpt lat="45.6678" lon="3.14919">
        <ele>387.55</ele>
        <time>2016-06-19T08:06:13Z</time>
      </trkpt>
      <trkpt lat="45.66768" lon="3.14885">
        <ele>384.66</ele>
        <time>2016-06-19T08:06:17Z</time>
      </trkpt>
      <trkpt lat="45.66754" lon="3.14847">
        <ele>382.26</ele>
        <time>2016-06-19T08:06:22Z</time>
      </trkpt>
      <trkpt lat="45.66727" lon="3.14796">
        <ele>379.38</ele>
        <time>2016-06-19T08:06:30Z</time>
      </trkpt>
      <trkpt lat="45.66706" lon="3.14764">
        <ele>377.94</ele>
        <time>2016-06-19T08:06:39Z</time>
      </trkpt>
      <trkpt lat="45.66706" lon="3.14763">
        <ele>377.45</ele>
        <time>2016-06-19T08:06:40Z</time>
      </trkpt>
      <trkpt lat="45.66704" lon="3.14759">
        <ele>377.94</ele>
        <time>2016-06-19T08:06:51Z</time>
      </trkpt>
      <trkpt lat="45.66705" lon="3.14761">
        <ele>377.94</ele>
        <time>2016-06-19T08:06:53Z</time>
      </trkpt>
      <trkpt lat="45.66707" lon="3.14761">
        <ele>377.94</ele>
        <time>2016-06-19T08:06:55Z</time>
      </trkpt>
      <trkpt lat="45.66708" lon="3.1476">
        <ele>377.45</ele>
        <time>2016-06-19T08:06:56Z</time>
      </trkpt>
      <trkpt lat="45.66709" lon="3.14758">
        <ele>377.94</ele>
        <time>2016-06-19T08:06:57Z</time>
      </trkpt>
      <trkpt lat="45.66709" lon="3.14756">
        <ele>377.94</ele>
        <time>2016-06-19T08:06:58Z</time>
      </trkpt>
      <trkpt lat="45.66709" lon="3.14754">
        <ele>377.94</ele>
        <time>2016-06-19T08:06:59Z</time>
      </trkpt>
      <trkpt lat="45.66709" lon="3.14753">
        <ele>377.45</ele>
        <time>2016-06-19T08:07:00Z</time>
      </trkpt>
      <trkpt lat="45.66707" lon="3.14752">
        <ele>377.94</ele>
        <time>2016-06-19T08:07:01Z</time>
      </trkpt>
      <trkpt lat="45.66706" lon="3.14753">
        <ele>377.45</ele>
        <time>2016-06-19T08:07:02Z</time>
      </trkpt>
      <trkpt lat="45.66705" lon="3.14756">
        <ele>377.45</ele>
        <time>2016-06-19T08:07:03Z</time>
      </trkpt>
      <trkpt lat="45.66705" lon="3.14759">
        <ele>377.94</ele>
        <time>2016-06-19T08:07:04Z</time>
      </trkpt>
      <trkpt lat="45.66705" lon="3.14762">
        <ele>377.94</ele>
        <time>2016-06-19T08:07:05Z</time>
      </trkpt>
      <trkpt lat="45.66706" lon="3.14765">
        <ele>377.94</ele>
        <time>2016-06-19T08:07:06Z</time>
      </trkpt>
      <trkpt lat="45.66708" lon="3.14774">
        <ele>377.94</ele>
        <time>2016-06-19T08:07:10Z</time>
      </trkpt>
      <trkpt lat="45.66709" lon="3.14774">
        <ele>377.45</ele>
        <time>2016-06-19T08:07:11Z</time>
      </trkpt>
      <trkpt lat="45.6671" lon="3.14772">
        <ele>377.45</ele>
        <time>2016-06-19T08:07:12Z</time>
      </trkpt>
      <trkpt lat="45.66711" lon="3.1477">
        <ele>377.45</ele>
        <time>2016-06-19T08:07:13Z</time>
      </trkpt>
      <trkpt lat="45.66711" lon="3.14768">
        <ele>376.97</ele>
        <time>2016-06-19T08:07:14Z</time>
      </trkpt>
      <trkpt lat="45.6671" lon="3.14767">
        <ele>377.45</ele>
        <time>2016-06-19T08:07:29Z</time>
      </trkpt>
      <trkpt lat="45.6671" lon="3.14769">
        <ele>377.94</ele>
        <time>2016-06-19T08:07:33Z</time>
      </trkpt>
      <trkpt lat="45.66711" lon="3.1477">
        <ele>377.45</ele>
        <time>2016-06-19T08:07:34Z</time>
      </trkpt>
      <trkpt lat="45.66711" lon="3.14772">
        <ele>377.94</ele>
        <time>2016-06-19T08:07:35Z</time>
      </trkpt>
      <trkpt lat="45.66712" lon="3.14776">
        <ele>377.45</ele>
        <time>2016-06-19T08:07:41Z</time>
      </trkpt>
      <trkpt lat="45.6671" lon="3.14757">
        <ele>377.94</ele>
        <time>2016-06-19T08:07:49Z</time>
      </trkpt>
      <trkpt lat="45.66721" lon="3.14679">
        <ele>378.9</ele>
        <time>2016-06-19T08:08:05Z</time>
      </trkpt>
      <trkpt lat="45.6675" lon="3.14611">
        <ele>381.3</ele>
        <time>2016-06-19T08:08:21Z</time>
      </trkpt>
      <trkpt lat="45.66777" lon="3.14553">
        <ele>384.18</ele>
        <time>2016-06-19T08:08:36Z</time>
      </trkpt>
      <trkpt lat="45.66805" lon="3.14488">
        <ele>387.55</ele>
        <time>2016-06-19T08:08:53Z</time>
      </trkpt>
      <trkpt lat="45.66819" lon="3.1442">
        <ele>389.47</ele>
        <time>2016-06-19T08:09:08Z</time>
      </trkpt>
      <trkpt lat="45.66821" lon="3.14335">
        <ele>390.43</ele>
        <time>2016-06-19T08:09:24Z</time>
      </trkpt>
      <trkpt lat="45.66824" lon="3.14235">
        <ele>388.99</ele>
        <time>2016-06-19T08:09:39Z</time>
      </trkpt>
      <trkpt lat="45.66822" lon="3.14134">
        <ele>387.07</ele>
        <time>2016-06-19T08:09:56Z</time>
      </trkpt>
      <trkpt lat="45.66819" lon="3.14131">
        <ele>386.59</ele>
        <time>2016-06-19T08:09:57Z</time>
      </trkpt>
      <trkpt lat="45.66814" lon="3.14129">
        <ele>386.59</ele>
        <time>2016-06-19T08:09:58Z</time>
      </trkpt>
      <trkpt lat="45.66808" lon="3.14128">
        <ele>385.63</ele>
        <time>2016-06-19T08:09:59Z</time>
      </trkpt>
      <trkpt lat="45.66802" lon="3.14127">
        <ele>385.15</ele>
        <time>2016-06-19T08:10:00Z</time>
      </trkpt>
      <trkpt lat="45.66796" lon="3.14127">
        <ele>384.66</ele>
        <time>2016-06-19T08:10:01Z</time>
      </trkpt>
      <trkpt lat="45.6679" lon="3.14128">
        <ele>385.15</ele>
        <time>2016-06-19T08:10:02Z</time>
      </trkpt>
      <trkpt lat="45.66692" lon="3.1413">
        <ele>382.26</ele>
        <time>2016-06-19T08:10:19Z</time>
      </trkpt>
      <trkpt lat="45.66664" lon="3.14123">
        <ele>381.3</ele>
        <time>2016-06-19T08:10:24Z</time>
      </trkpt>
      <trkpt lat="45.6665" lon="3.14116">
        <ele>381.3</ele>
        <time>2016-06-19T08:10:27Z</time>
      </trkpt>
      <trkpt lat="45.66609" lon="3.14107">
        <ele>378.9</ele>
        <time>2016-06-19T08:10:34Z</time>
      </trkpt>
      <trkpt lat="45.66573" lon="3.14102">
        <ele>378.42</ele>
        <time>2016-06-19T08:10:40Z</time>
      </trkpt>
      <trkpt lat="45.66527" lon="3.14094">
        <ele>378.42</ele>
        <time>2016-06-19T08:10:49Z</time>
      </trkpt>
      <trkpt lat="45.66522" lon="3.14092">
        <ele>378.42</ele>
        <time>2016-06-19T08:10:50Z</time>
      </trkpt>
      <trkpt lat="45.66489" lon="3.14072">
        <ele>378.9</ele>
        <time>2016-06-19T08:10:57Z</time>
      </trkpt>
      <trkpt lat="45.66486" lon="3.14068">
        <ele>378.9</ele>
        <time>2016-06-19T08:10:58Z</time>
      </trkpt>
      <trkpt lat="45.66482" lon="3.14064">
        <ele>378.9</ele>
        <time>2016-06-19T08:10:59Z</time>
      </trkpt>
      <trkpt lat="45.66479" lon="3.1406">
        <ele>378.9</ele>
        <time>2016-06-19T08:11:00Z</time>
      </trkpt>
      <trkpt lat="45.66476" lon="3.14056">
        <ele>378.9</ele>
        <time>2016-06-19T08:11:01Z</time>
      </trkpt>
      <trkpt lat="45.66473" lon="3.14052">
        <ele>378.9</ele>
        <time>2016-06-19T08:11:02Z</time>
      </trkpt>
      <trkpt lat="45.66471" lon="3.14047">
        <ele>378.9</ele>
        <time>2016-06-19T08:11:03Z</time>
      </trkpt>
      <trkpt lat="45.66465" lon="3.14039">
        <ele>379.38</ele>
        <time>2016-06-19T08:11:05Z</time>
      </trkpt>
      <trkpt lat="45.66461" lon="3.14036">
        <ele>378.9</ele>
        <time>2016-06-19T08:11:06Z</time>
      </trkpt>
      <trkpt lat="45.66458" lon="3.14033">
        <ele>378.9</ele>
        <time>2016-06-19T08:11:07Z</time>
      </trkpt>
      <trkpt lat="45.66455" lon="3.1403">
        <ele>378.9</ele>
        <time>2016-06-19T08:11:08Z</time>
      </trkpt>
      <trkpt lat="45.66451" lon="3.14028">
        <ele>379.38</ele>
        <time>2016-06-19T08:11:09Z</time>
      </trkpt>
      <trkpt lat="45.66448" lon="3.14027">
        <ele>379.38</ele>
        <time>2016-06-19T08:11:10Z</time>
      </trkpt>
      <trkpt lat="45.66444" lon="3.14025">
        <ele>379.38</ele>
        <time>2016-06-19T08:11:11Z</time>
      </trkpt>
      <trkpt lat="45.66441" lon="3.14024">
        <ele>379.38</ele>
        <time>2016-06-19T08:11:12Z</time>
      </trkpt>
      <trkpt lat="45.66419" lon="3.14007">
        <ele>379.86</ele>
        <time>2016-06-19T08:11:21Z</time>
      </trkpt>
      <trkpt lat="45.66417" lon="3.14003">
        <ele>379.86</ele>
        <time>2016-06-19T08:11:22Z</time>
      </trkpt>
      <trkpt lat="45.66416" lon="3.13998">
        <ele>379.86</ele>
        <time>2016-06-19T08:11:23Z</time>
      </trkpt>
      <trkpt lat="45.66416" lon="3.13994">
        <ele>379.86</ele>
        <time>2016-06-19T08:11:24Z</time>
      </trkpt>
      <trkpt lat="45.66419" lon="3.13966">
        <ele>380.34</ele>
        <time>2016-06-19T08:11:30Z</time>
      </trkpt>
      <trkpt lat="45.66419" lon="3.1389">
        <ele>380.82</ele>
        <time>2016-06-19T08:11:42Z</time>
      </trkpt>
      <trkpt lat="45.66419" lon="3.13877">
        <ele>380.82</ele>
        <time>2016-06-19T08:11:44Z</time>
      </trkpt>
      <trkpt lat="45.66419" lon="3.13871">
        <ele>380.34</ele>
        <time>2016-06-19T08:11:45Z</time>
      </trkpt>
      <trkpt lat="45.6642" lon="3.13778">
        <ele>381.78</ele>
        <time>2016-06-19T08:12:00Z</time>
      </trkpt>
      <trkpt lat="45.66423" lon="3.13749">
        <ele>382.26</ele>
        <time>2016-06-19T08:12:05Z</time>
      </trkpt>
      <trkpt lat="45.66424" lon="3.13744">
        <ele>382.26</ele>
        <time>2016-06-19T08:12:06Z</time>
      </trkpt>
      <trkpt lat="45.6644" lon="3.13687">
        <ele>382.26</ele>
        <time>2016-06-19T08:12:16Z</time>
      </trkpt>
      <trkpt lat="45.66442" lon="3.13675">
        <ele>382.26</ele>
        <time>2016-06-19T08:12:18Z</time>
      </trkpt>
      <trkpt lat="45.66442" lon="3.13669">
        <ele>382.26</ele>
        <time>2016-06-19T08:12:19Z</time>
      </trkpt>
      <trkpt lat="45.66442" lon="3.13663">
        <ele>382.26</ele>
        <time>2016-06-19T08:12:20Z</time>
      </trkpt>
      <trkpt lat="45.66438" lon="3.13597">
        <ele>382.74</ele>
        <time>2016-06-19T08:12:31Z</time>
      </trkpt>
      <trkpt lat="45.66437" lon="3.13585">
        <ele>382.74</ele>
        <time>2016-06-19T08:12:33Z</time>
      </trkpt>
      <trkpt lat="45.66436" lon="3.13579">
        <ele>383.22</ele>
        <time>2016-06-19T08:12:34Z</time>
      </trkpt>
      <trkpt lat="45.66436" lon="3.13573">
        <ele>382.74</ele>
        <time>2016-06-19T08:12:35Z</time>
      </trkpt>
      <trkpt lat="45.66431" lon="3.13507">
        <ele>383.7</ele>
        <time>2016-06-19T08:12:46Z</time>
      </trkpt>
      <trkpt lat="45.66435" lon="3.13445">
        <ele>384.18</ele>
        <time>2016-06-19T08:12:57Z</time>
      </trkpt>
      <trkpt lat="45.66446" lon="3.13356">
        <ele>385.15</ele>
        <time>2016-06-19T08:13:13Z</time>
      </trkpt>
      <trkpt lat="45.66452" lon="3.13351">
        <ele>384.66</ele>
        <time>2016-06-19T08:13:15Z</time>
      </trkpt>
      <trkpt lat="45.66456" lon="3.1335">
        <ele>385.15</ele>
        <time>2016-06-19T08:13:16Z</time>
      </trkpt>
      <trkpt lat="45.6646" lon="3.13351">
        <ele>385.15</ele>
        <time>2016-06-19T08:13:17Z</time>
      </trkpt>
      <trkpt lat="45.66465" lon="3.13352">
        <ele>385.63</ele>
        <time>2016-06-19T08:13:18Z</time>
      </trkpt>
      <trkpt lat="45.66469" lon="3.13354">
        <ele>385.15</ele>
        <time>2016-06-19T08:13:19Z</time>
      </trkpt>
      <trkpt lat="45.66473" lon="3.13356">
        <ele>385.15</ele>
        <time>2016-06-19T08:13:20Z</time>
      </trkpt>
      <trkpt lat="45.66477" lon="3.13358">
        <ele>385.15</ele>
        <time>2016-06-19T08:13:21Z</time>
      </trkpt>
      <trkpt lat="45.66481" lon="3.1336">
        <ele>385.15</ele>
        <time>2016-06-19T08:13:22Z</time>
      </trkpt>
      <trkpt lat="45.66485" lon="3.13362">
        <ele>385.15</ele>
        <time>2016-06-19T08:13:23Z</time>
      </trkpt>
      <trkpt lat="45.6649" lon="3.13363">
        <ele>385.15</ele>
        <time>2016-06-19T08:13:24Z</time>
      </trkpt>
      <trkpt lat="45.66494" lon="3.13364">
        <ele>385.63</ele>
        <time>2016-06-19T08:13:25Z</time>
      </trkpt>
      <trkpt lat="45.66498" lon="3.13365">
        <ele>385.15</ele>
        <time>2016-06-19T08:13:26Z</time>
      </trkpt>
      <trkpt lat="45.66503" lon="3.13365">
        <ele>385.15</ele>
        <time>2016-06-19T08:13:27Z</time>
      </trkpt>
      <trkpt lat="45.66507" lon="3.13364">
        <ele>385.15</ele>
        <time>2016-06-19T08:13:28Z</time>
      </trkpt>
      <trkpt lat="45.66511" lon="3.13362">
        <ele>385.15</ele>
        <time>2016-06-19T08:13:29Z</time>
      </trkpt>
      <trkpt lat="45.66515" lon="3.1336">
        <ele>385.15</ele>
        <time>2016-06-19T08:13:30Z</time>
      </trkpt>
      <trkpt lat="45.66518" lon="3.13358">
        <ele>385.15</ele>
        <time>2016-06-19T08:13:31Z</time>
      </trkpt>
      <trkpt lat="45.66526" lon="3.13353">
        <ele>384.66</ele>
        <time>2016-06-19T08:13:33Z</time>
      </trkpt>
      <trkpt lat="45.66529" lon="3.1335">
        <ele>385.15</ele>
        <time>2016-06-19T08:13:34Z</time>
      </trkpt>
      <trkpt lat="45.66552" lon="3.13324">
        <ele>385.15</ele>
        <time>2016-06-19T08:13:42Z</time>
      </trkpt>
      <trkpt lat="45.66553" lon="3.13318">
        <ele>385.63</ele>
        <time>2016-06-19T08:13:43Z</time>
      </trkpt>
      <trkpt lat="45.66556" lon="3.13306">
        <ele>385.63</ele>
        <time>2016-06-19T08:13:45Z</time>
      </trkpt>
      <trkpt lat="45.66566" lon="3.13218">
        <ele>387.07</ele>
        <time>2016-06-19T08:14:00Z</time>
      </trkpt>
      <trkpt lat="45.6658" lon="3.13145">
        <ele>387.55</ele>
        <time>2016-06-19T08:14:14Z</time>
      </trkpt>
      <trkpt lat="45.66592" lon="3.13083">
        <ele>388.03</ele>
        <time>2016-06-19T08:14:26Z</time>
      </trkpt>
      <trkpt lat="45.66594" lon="3.13059">
        <ele>388.51</ele>
        <time>2016-06-19T08:14:31Z</time>
      </trkpt>
      <trkpt lat="45.66593" lon="3.13055">
        <ele>388.51</ele>
        <time>2016-06-19T08:14:32Z</time>
      </trkpt>
      <trkpt lat="45.66591" lon="3.13051">
        <ele>388.51</ele>
        <time>2016-06-19T08:14:33Z</time>
      </trkpt>
      <trkpt lat="45.66589" lon="3.13047">
        <ele>388.51</ele>
        <time>2016-06-19T08:14:34Z</time>
      </trkpt>
      <trkpt lat="45.66586" lon="3.13044">
        <ele>388.51</ele>
        <time>2016-06-19T08:14:35Z</time>
      </trkpt>
      <trkpt lat="45.66555" lon="3.13006">
        <ele>388.99</ele>
        <time>2016-06-19T08:14:46Z</time>
      </trkpt>
      <trkpt lat="45.66555" lon="3.13001">
        <ele>388.99</ele>
        <time>2016-06-19T08:14:47Z</time>
      </trkpt>
      <trkpt lat="45.66557" lon="3.12996">
        <ele>389.47</ele>
        <time>2016-06-19T08:14:48Z</time>
      </trkpt>
      <trkpt lat="45.66559" lon="3.12992">
        <ele>388.99</ele>
        <time>2016-06-19T08:14:49Z</time>
      </trkpt>
      <trkpt lat="45.66562" lon="3.12988">
        <ele>388.51</ele>
        <time>2016-06-19T08:14:50Z</time>
      </trkpt>
      <trkpt lat="45.66565" lon="3.12985">
        <ele>389.47</ele>
        <time>2016-06-19T08:14:51Z</time>
      </trkpt>
      <trkpt lat="45.66606" lon="3.12926">
        <ele>389.95</ele>
        <time>2016-06-19T08:15:06Z</time>
      </trkpt>
      <trkpt lat="45.66628" lon="3.12858">
        <ele>391.39</ele>
        <time>2016-06-19T08:15:20Z</time>
      </trkpt>
      <trkpt lat="45.66638" lon="3.1277">
        <ele>392.84</ele>
        <time>2016-06-19T08:15:37Z</time>
      </trkpt>
      <trkpt lat="45.66648" lon="3.12692">
        <ele>394.28</ele>
        <time>2016-06-19T08:15:53Z</time>
      </trkpt>
      <trkpt lat="45.66656" lon="3.12622">
        <ele>396.2</ele>
        <time>2016-06-19T08:16:08Z</time>
      </trkpt>
      <trkpt lat="45.66665" lon="3.12546">
        <ele>398.6</ele>
        <time>2016-06-19T08:16:26Z</time>
      </trkpt>
      <trkpt lat="45.66669" lon="3.12507">
        <ele>399.57</ele>
        <time>2016-06-19T08:16:36Z</time>
      </trkpt>
      <trkpt lat="45.66668" lon="3.12502">
        <ele>400.05</ele>
        <time>2016-06-19T08:16:38Z</time>
      </trkpt>
      <trkpt lat="45.66641" lon="3.12501">
        <ele>400.53</ele>
        <time>2016-06-19T08:16:48Z</time>
      </trkpt>
      <trkpt lat="45.66574" lon="3.12524">
        <ele>401.01</ele>
        <time>2016-06-19T08:17:04Z</time>
      </trkpt>
      <trkpt lat="45.66527" lon="3.12542">
        <ele>401.01</ele>
        <time>2016-06-19T08:17:17Z</time>
      </trkpt>
      <trkpt lat="45.66511" lon="3.12529">
        <ele>401.01</ele>
        <time>2016-06-19T08:17:26Z</time>
      </trkpt>
      <trkpt lat="45.66476" lon="3.12513">
        <ele>403.89</ele>
        <time>2016-06-19T08:17:40Z</time>
      </trkpt>
      <trkpt lat="45.66471" lon="3.12514">
        <ele>404.37</ele>
        <time>2016-06-19T08:17:42Z</time>
      </trkpt>
      <trkpt lat="45.66469" lon="3.12516">
        <ele>404.85</ele>
        <time>2016-06-19T08:17:43Z</time>
      </trkpt>
      <trkpt lat="45.66467" lon="3.12517">
        <ele>405.33</ele>
        <time>2016-06-19T08:17:44Z</time>
      </trkpt>
      <trkpt lat="45.66439" lon="3.12536">
        <ele>408.7</ele>
        <time>2016-06-19T08:17:57Z</time>
      </trkpt>
      <trkpt lat="45.66414" lon="3.12551">
        <ele>410.62</ele>
        <time>2016-06-19T08:18:09Z</time>
      </trkpt>
      <trkpt lat="45.66411" lon="3.12554">
        <ele>411.58</ele>
        <time>2016-06-19T08:18:11Z</time>
      </trkpt>
      <trkpt lat="45.66391" lon="3.12574">
        <ele>414.95</ele>
        <time>2016-06-19T08:18:24Z</time>
      </trkpt>
      <trkpt lat="45.66364" lon="3.12585">
        <ele>416.87</ele>
        <time>2016-06-19T08:18:40Z</time>
      </trkpt>
      <trkpt lat="45.66334" lon="3.12588">
        <ele>418.79</ele>
        <time>2016-06-19T08:18:54Z</time>
      </trkpt>
      <trkpt lat="45.66298" lon="3.12599">
        <ele>420.23</ele>
        <time>2016-06-19T08:19:11Z</time>
      </trkpt>
      <trkpt lat="45.66286" lon="3.12603">
        <ele>421.19</ele>
        <time>2016-06-19T08:19:17Z</time>
      </trkpt>
      <trkpt lat="45.66284" lon="3.12602">
        <ele>421.68</ele>
        <time>2016-06-19T08:19:18Z</time>
      </trkpt>
      <trkpt lat="45.66283" lon="3.12601">
        <ele>421.19</ele>
        <time>2016-06-19T08:19:19Z</time>
      </trkpt>
      <trkpt lat="45.66281" lon="3.126">
        <ele>421.68</ele>
        <time>2016-06-19T08:19:20Z</time>
      </trkpt>
      <trkpt lat="45.6628" lon="3.12599">
        <ele>421.68</ele>
        <time>2016-06-19T08:19:21Z</time>
      </trkpt>
      <trkpt lat="45.66278" lon="3.12597">
        <ele>422.16</ele>
        <time>2016-06-19T08:19:22Z</time>
      </trkpt>
      <trkpt lat="45.66277" lon="3.12596">
        <ele>422.16</ele>
        <time>2016-06-19T08:19:23Z</time>
      </trkpt>
      <trkpt lat="45.66276" lon="3.12594">
        <ele>422.64</ele>
        <time>2016-06-19T08:19:24Z</time>
      </trkpt>
      <trkpt lat="45.66275" lon="3.12592">
        <ele>423.12</ele>
        <time>2016-06-19T08:19:25Z</time>
      </trkpt>
      <trkpt lat="45.66274" lon="3.1259">
        <ele>422.64</ele>
        <time>2016-06-19T08:19:26Z</time>
      </trkpt>
      <trkpt lat="45.66261" lon="3.12575">
        <ele>426</ele>
        <time>2016-06-19T08:19:37Z</time>
      </trkpt>
      <trkpt lat="45.66252" lon="3.12563">
        <ele>427.92</ele>
        <time>2016-06-19T08:19:46Z</time>
      </trkpt>
      <trkpt lat="45.66251" lon="3.12561">
        <ele>427.92</ele>
        <time>2016-06-19T08:19:47Z</time>
      </trkpt>
      <trkpt lat="45.6625" lon="3.1256">
        <ele>428.4</ele>
        <time>2016-06-19T08:19:48Z</time>
      </trkpt>
      <trkpt lat="45.66249" lon="3.12559">
        <ele>428.89</ele>
        <time>2016-06-19T08:19:49Z</time>
      </trkpt>
      <trkpt lat="45.66248" lon="3.12557">
        <ele>428.89</ele>
        <time>2016-06-19T08:19:50Z</time>
      </trkpt>
      <trkpt lat="45.66237" lon="3.12542">
        <ele>431.77</ele>
        <time>2016-06-19T08:20:02Z</time>
      </trkpt>
      <trkpt lat="45.66236" lon="3.1254">
        <ele>431.77</ele>
        <time>2016-06-19T08:20:03Z</time>
      </trkpt>
      <trkpt lat="45.66236" lon="3.12539">
        <ele>431.77</ele>
        <time>2016-06-19T08:20:04Z</time>
      </trkpt>
      <trkpt lat="45.66224" lon="3.12521">
        <ele>435.13</ele>
        <time>2016-06-19T08:20:19Z</time>
      </trkpt>
      <trkpt lat="45.66214" lon="3.12509">
        <ele>438.5</ele>
        <time>2016-06-19T08:20:30Z</time>
      </trkpt>
      <trkpt lat="45.66204" lon="3.12494">
        <ele>440.42</ele>
        <time>2016-06-19T08:20:42Z</time>
      </trkpt>
      <trkpt lat="45.6619" lon="3.12484">
        <ele>442.34</ele>
        <time>2016-06-19T08:20:55Z</time>
      </trkpt>
      <trkpt lat="45.66173" lon="3.12469">
        <ele>445.23</ele>
        <time>2016-06-19T08:21:11Z</time>
      </trkpt>
      <trkpt lat="45.66162" lon="3.12456">
        <ele>447.63</ele>
        <time>2016-06-19T08:21:22Z</time>
      </trkpt>
      <trkpt lat="45.66151" lon="3.12448">
        <ele>449.55</ele>
        <time>2016-06-19T08:21:32Z</time>
      </trkpt>
      <trkpt lat="45.6615" lon="3.12446">
        <ele>450.03</ele>
        <time>2016-06-19T08:21:33Z</time>
      </trkpt>
      <trkpt lat="45.66149" lon="3.12445">
        <ele>450.03</ele>
        <time>2016-06-19T08:21:34Z</time>
      </trkpt>
      <trkpt lat="45.66148" lon="3.12445">
        <ele>449.07</ele>
        <time>2016-06-19T08:21:35Z</time>
      </trkpt>
      <trkpt lat="45.66147" lon="3.12444">
        <ele>450.52</ele>
        <time>2016-06-19T08:21:36Z</time>
      </trkpt>
      <trkpt lat="45.66146" lon="3.12443">
        <ele>449.55</ele>
        <time>2016-06-19T08:21:37Z</time>
      </trkpt>
      <trkpt lat="45.66144" lon="3.12443">
        <ele>451</ele>
        <time>2016-06-19T08:21:38Z</time>
      </trkpt>
      <trkpt lat="45.66143" lon="3.12443">
        <ele>450.52</ele>
        <time>2016-06-19T08:21:39Z</time>
      </trkpt>
      <trkpt lat="45.66142" lon="3.12442">
        <ele>451.48</ele>
        <time>2016-06-19T08:21:40Z</time>
      </trkpt>
      <trkpt lat="45.66141" lon="3.12441">
        <ele>451.96</ele>
        <time>2016-06-19T08:21:41Z</time>
      </trkpt>
      <trkpt lat="45.6614" lon="3.12441">
        <ele>451.96</ele>
        <time>2016-06-19T08:21:42Z</time>
      </trkpt>
      <trkpt lat="45.66139" lon="3.1244">
        <ele>451.96</ele>
        <time>2016-06-19T08:21:43Z</time>
      </trkpt>
      <trkpt lat="45.66138" lon="3.12438">
        <ele>452.44</ele>
        <time>2016-06-19T08:21:44Z</time>
      </trkpt>
      <trkpt lat="45.66137" lon="3.12437">
        <ele>451.96</ele>
        <time>2016-06-19T08:21:45Z</time>
      </trkpt>
      <trkpt lat="45.66136" lon="3.12436">
        <ele>452.92</ele>
        <time>2016-06-19T08:21:46Z</time>
      </trkpt>
      <trkpt lat="45.66135" lon="3.12435">
        <ele>452.44</ele>
        <time>2016-06-19T08:21:47Z</time>
      </trkpt>
      <trkpt lat="45.66131" lon="3.12432">
        <ele>453.4</ele>
        <time>2016-06-19T08:21:51Z</time>
      </trkpt>
      <trkpt lat="45.6613" lon="3.12431">
        <ele>453.4</ele>
        <time>2016-06-19T08:21:52Z</time>
      </trkpt>
      <trkpt lat="45.66121" lon="3.12423">
        <ele>456.28</ele>
        <time>2016-06-19T08:22:01Z</time>
      </trkpt>
      <trkpt lat="45.6612" lon="3.12422">
        <ele>455.32</ele>
        <time>2016-06-19T08:22:02Z</time>
      </trkpt>
      <trkpt lat="45.66119" lon="3.1242">
        <ele>455.32</ele>
        <time>2016-06-19T08:22:03Z</time>
      </trkpt>
      <trkpt lat="45.66118" lon="3.12419">
        <ele>454.84</ele>
        <time>2016-06-19T08:22:04Z</time>
      </trkpt>
      <trkpt lat="45.66117" lon="3.12418">
        <ele>455.8</ele>
        <time>2016-06-19T08:22:05Z</time>
      </trkpt>
      <trkpt lat="45.66117" lon="3.12416">
        <ele>456.76</ele>
        <time>2016-06-19T08:22:06Z</time>
      </trkpt>
      <trkpt lat="45.66116" lon="3.12415">
        <ele>455.8</ele>
        <time>2016-06-19T08:22:07Z</time>
      </trkpt>
      <trkpt lat="45.66114" lon="3.12414">
        <ele>457.72</ele>
        <time>2016-06-19T08:22:08Z</time>
      </trkpt>
      <trkpt lat="45.66095" lon="3.12409">
        <ele>458.69</ele>
        <time>2016-06-19T08:22:23Z</time>
      </trkpt>
      <trkpt lat="45.66076" lon="3.12395">
        <ele>462.05</ele>
        <time>2016-06-19T08:22:38Z</time>
      </trkpt>
      <trkpt lat="45.66061" lon="3.12385">
        <ele>463.01</ele>
        <time>2016-06-19T08:22:50Z</time>
      </trkpt>
      <trkpt lat="45.6606" lon="3.12384">
        <ele>463.01</ele>
        <time>2016-06-19T08:22:51Z</time>
      </trkpt>
      <trkpt lat="45.66058" lon="3.12383">
        <ele>463.97</ele>
        <time>2016-06-19T08:22:52Z</time>
      </trkpt>
      <trkpt lat="45.66057" lon="3.12383">
        <ele>464.45</ele>
        <time>2016-06-19T08:22:53Z</time>
      </trkpt>
      <trkpt lat="45.66056" lon="3.12382">
        <ele>463.97</ele>
        <time>2016-06-19T08:22:54Z</time>
      </trkpt>
      <trkpt lat="45.66055" lon="3.12381">
        <ele>463.97</ele>
        <time>2016-06-19T08:22:55Z</time>
      </trkpt>
      <trkpt lat="45.66054" lon="3.1238">
        <ele>465.9</ele>
        <time>2016-06-19T08:22:56Z</time>
      </trkpt>
      <trkpt lat="45.66052" lon="3.12379">
        <ele>464.45</ele>
        <time>2016-06-19T08:22:57Z</time>
      </trkpt>
      <trkpt lat="45.66052" lon="3.12377">
        <ele>464.93</ele>
        <time>2016-06-19T08:22:58Z</time>
      </trkpt>
      <trkpt lat="45.6605" lon="3.12372">
        <ele>465.42</ele>
        <time>2016-06-19T08:23:01Z</time>
      </trkpt>
      <trkpt lat="45.6605" lon="3.1237">
        <ele>466.86</ele>
        <time>2016-06-19T08:23:02Z</time>
      </trkpt>
      <trkpt lat="45.66051" lon="3.12368">
        <ele>466.38</ele>
        <time>2016-06-19T08:23:03Z</time>
      </trkpt>
      <trkpt lat="45.66051" lon="3.12366">
        <ele>466.38</ele>
        <time>2016-06-19T08:23:04Z</time>
      </trkpt>
      <trkpt lat="45.66052" lon="3.12364">
        <ele>466.86</ele>
        <time>2016-06-19T08:23:05Z</time>
      </trkpt>
      <trkpt lat="45.66052" lon="3.12361">
        <ele>465.42</ele>
        <time>2016-06-19T08:23:06Z</time>
      </trkpt>
      <trkpt lat="45.66056" lon="3.12314">
        <ele>467.82</ele>
        <time>2016-06-19T08:23:23Z</time>
      </trkpt>
      <trkpt lat="45.6606" lon="3.12266">
        <ele>469.74</ele>
        <time>2016-06-19T08:23:39Z</time>
      </trkpt>
      <trkpt lat="45.66065" lon="3.1223">
        <ele>470.7</ele>
        <time>2016-06-19T08:23:51Z</time>
      </trkpt>
      <trkpt lat="45.66072" lon="3.122">
        <ele>471.66</ele>
        <time>2016-06-19T08:23:59Z</time>
      </trkpt>
      <trkpt lat="45.66091" lon="3.1213">
        <ele>473.59</ele>
        <time>2016-06-19T08:24:17Z</time>
      </trkpt>
      <trkpt lat="45.66101" lon="3.12077">
        <ele>476.47</ele>
        <time>2016-06-19T08:24:30Z</time>
      </trkpt>
      <trkpt lat="45.66112" lon="3.12027">
        <ele>478.87</ele>
        <time>2016-06-19T08:24:44Z</time>
      </trkpt>
      <trkpt lat="45.66122" lon="3.11991">
        <ele>481.28</ele>
        <time>2016-06-19T08:24:57Z</time>
      </trkpt>
      <trkpt lat="45.66127" lon="3.11974">
        <ele>483.2</ele>
        <time>2016-06-19T08:25:03Z</time>
      </trkpt>
      <trkpt lat="45.66132" lon="3.11956">
        <ele>485.6</ele>
        <time>2016-06-19T08:25:11Z</time>
      </trkpt>
      <trkpt lat="45.66135" lon="3.1195">
        <ele>486.08</ele>
        <time>2016-06-19T08:25:15Z</time>
      </trkpt>
      <trkpt lat="45.66136" lon="3.11948">
        <ele>486.08</ele>
        <time>2016-06-19T08:25:16Z</time>
      </trkpt>
      <trkpt lat="45.66137" lon="3.11946">
        <ele>486.56</ele>
        <time>2016-06-19T08:25:17Z</time>
      </trkpt>
      <trkpt lat="45.66137" lon="3.11944">
        <ele>487.05</ele>
        <time>2016-06-19T08:25:18Z</time>
      </trkpt>
      <trkpt lat="45.66137" lon="3.11943">
        <ele>487.05</ele>
        <time>2016-06-19T08:25:19Z</time>
      </trkpt>
      <trkpt lat="45.66137" lon="3.1194">
        <ele>487.05</ele>
        <time>2016-06-19T08:25:20Z</time>
      </trkpt>
      <trkpt lat="45.66138" lon="3.11939">
        <ele>487.53</ele>
        <time>2016-06-19T08:25:21Z</time>
      </trkpt>
      <trkpt lat="45.66139" lon="3.11937">
        <ele>487.53</ele>
        <time>2016-06-19T08:25:22Z</time>
      </trkpt>
      <trkpt lat="45.6614" lon="3.11935">
        <ele>488.01</ele>
        <time>2016-06-19T08:25:23Z</time>
      </trkpt>
      <trkpt lat="45.6614" lon="3.11934">
        <ele>488.01</ele>
        <time>2016-06-19T08:25:24Z</time>
      </trkpt>
      <trkpt lat="45.66141" lon="3.11932">
        <ele>487.53</ele>
        <time>2016-06-19T08:25:25Z</time>
      </trkpt>
      <trkpt lat="45.66142" lon="3.11931">
        <ele>488.49</ele>
        <time>2016-06-19T08:25:26Z</time>
      </trkpt>
      <trkpt lat="45.66144" lon="3.11929">
        <ele>488.01</ele>
        <time>2016-06-19T08:25:27Z</time>
      </trkpt>
      <trkpt lat="45.66145" lon="3.11926">
        <ele>488.01</ele>
        <time>2016-06-19T08:25:28Z</time>
      </trkpt>
      <trkpt lat="45.66146" lon="3.11924">
        <ele>488.01</ele>
        <time>2016-06-19T08:25:29Z</time>
      </trkpt>
      <trkpt lat="45.66147" lon="3.11921">
        <ele>488.49</ele>
        <time>2016-06-19T08:25:30Z</time>
      </trkpt>
      <trkpt lat="45.66148" lon="3.11918">
        <ele>488.49</ele>
        <time>2016-06-19T08:25:31Z</time>
      </trkpt>
      <trkpt lat="45.66168" lon="3.11867">
        <ele>488.49</ele>
        <time>2016-06-19T08:25:45Z</time>
      </trkpt>
      <trkpt lat="45.66178" lon="3.11809">
        <ele>486.08</ele>
        <time>2016-06-19T08:25:57Z</time>
      </trkpt>
      <trkpt lat="45.66176" lon="3.11763">
        <ele>483.2</ele>
        <time>2016-06-19T08:26:03Z</time>
      </trkpt>
      <trkpt lat="45.66169" lon="3.11728">
        <ele>480.8</ele>
        <time>2016-06-19T08:26:07Z</time>
      </trkpt>
      <trkpt lat="45.66168" lon="3.11719">
        <ele>480.8</ele>
        <time>2016-06-19T08:26:08Z</time>
      </trkpt>
      <trkpt lat="45.66169" lon="3.11709">
        <ele>480.32</ele>
        <time>2016-06-19T08:26:09Z</time>
      </trkpt>
      <trkpt lat="45.66171" lon="3.117">
        <ele>479.84</ele>
        <time>2016-06-19T08:26:10Z</time>
      </trkpt>
      <trkpt lat="45.66174" lon="3.1169">
        <ele>478.87</ele>
        <time>2016-06-19T08:26:11Z</time>
      </trkpt>
      <trkpt lat="45.66184" lon="3.11664">
        <ele>477.91</ele>
        <time>2016-06-19T08:26:14Z</time>
      </trkpt>
      <trkpt lat="45.66188" lon="3.11656">
        <ele>477.43</ele>
        <time>2016-06-19T08:26:15Z</time>
      </trkpt>
      <trkpt lat="45.66214" lon="3.11609">
        <ele>476.95</ele>
        <time>2016-06-19T08:26:22Z</time>
      </trkpt>
      <trkpt lat="45.66253" lon="3.11571">
        <ele>478.87</ele>
        <time>2016-06-19T08:26:34Z</time>
      </trkpt>
      <trkpt lat="45.66291" lon="3.11532">
        <ele>477.91</ele>
        <time>2016-06-19T08:26:47Z</time>
      </trkpt>
      <trkpt lat="45.66306" lon="3.11512">
        <ele>477.43</ele>
        <time>2016-06-19T08:26:53Z</time>
      </trkpt>
      <trkpt lat="45.66329" lon="3.11487">
        <ele>475.99</ele>
        <time>2016-06-19T08:26:59Z</time>
      </trkpt>
      <trkpt lat="45.66345" lon="3.11475">
        <ele>474.07</ele>
        <time>2016-06-19T08:27:02Z</time>
      </trkpt>
      <trkpt lat="45.66366" lon="3.1146">
        <ele>473.11</ele>
        <time>2016-06-19T08:27:06Z</time>
      </trkpt>
      <trkpt lat="45.66371" lon="3.11455">
        <ele>473.11</ele>
        <time>2016-06-19T08:27:07Z</time>
      </trkpt>
      <trkpt lat="45.66375" lon="3.1145">
        <ele>473.11</ele>
        <time>2016-06-19T08:27:08Z</time>
      </trkpt>
      <trkpt lat="45.66378" lon="3.11444">
        <ele>472.63</ele>
        <time>2016-06-19T08:27:09Z</time>
      </trkpt>
      <trkpt lat="45.6639" lon="3.11424">
        <ele>472.14</ele>
        <time>2016-06-19T08:27:13Z</time>
      </trkpt>
      <trkpt lat="45.66394" lon="3.1142">
        <ele>471.66</ele>
        <time>2016-06-19T08:27:14Z</time>
      </trkpt>
      <trkpt lat="45.66398" lon="3.11415">
        <ele>471.18</ele>
        <time>2016-06-19T08:27:15Z</time>
      </trkpt>
      <trkpt lat="45.66403" lon="3.11412">
        <ele>471.18</ele>
        <time>2016-06-19T08:27:16Z</time>
      </trkpt>
      <trkpt lat="45.66408" lon="3.11409">
        <ele>470.7</ele>
        <time>2016-06-19T08:27:17Z</time>
      </trkpt>
      <trkpt lat="45.66419" lon="3.11401">
        <ele>469.74</ele>
        <time>2016-06-19T08:27:19Z</time>
      </trkpt>
      <trkpt lat="45.66444" lon="3.11374">
        <ele>469.26</ele>
        <time>2016-06-19T08:27:25Z</time>
      </trkpt>
      <trkpt lat="45.66447" lon="3.11368">
        <ele>468.78</ele>
        <time>2016-06-19T08:27:26Z</time>
      </trkpt>
      <trkpt lat="45.66449" lon="3.11362">
        <ele>468.78</ele>
        <time>2016-06-19T08:27:27Z</time>
      </trkpt>
      <trkpt lat="45.66456" lon="3.11346">
        <ele>468.78</ele>
        <time>2016-06-19T08:27:30Z</time>
      </trkpt>
      <trkpt lat="45.6646" lon="3.11334">
        <ele>468.78</ele>
        <time>2016-06-19T08:27:32Z</time>
      </trkpt>
      <trkpt lat="45.66461" lon="3.11329">
        <ele>468.78</ele>
        <time>2016-06-19T08:27:33Z</time>
      </trkpt>
      <trkpt lat="45.66463" lon="3.11323">
        <ele>468.3</ele>
        <time>2016-06-19T08:27:34Z</time>
      </trkpt>
      <trkpt lat="45.66464" lon="3.11317">
        <ele>469.26</ele>
        <time>2016-06-19T08:27:35Z</time>
      </trkpt>
      <trkpt lat="45.66465" lon="3.11312">
        <ele>468.78</ele>
        <time>2016-06-19T08:27:36Z</time>
      </trkpt>
      <trkpt lat="45.66474" lon="3.11285">
        <ele>467.82</ele>
        <time>2016-06-19T08:27:41Z</time>
      </trkpt>
      <trkpt lat="45.66505" lon="3.11223">
        <ele>465.9</ele>
        <time>2016-06-19T08:27:54Z</time>
      </trkpt>
      <trkpt lat="45.66529" lon="3.11181">
        <ele>463.49</ele>
        <time>2016-06-19T08:28:01Z</time>
      </trkpt>
      <trkpt lat="45.66535" lon="3.1117">
        <ele>462.05</ele>
        <time>2016-06-19T08:28:03Z</time>
      </trkpt>
      <trkpt lat="45.66537" lon="3.11165">
        <ele>462.53</ele>
        <time>2016-06-19T08:28:04Z</time>
      </trkpt>
      <trkpt lat="45.66538" lon="3.11159">
        <ele>462.05</ele>
        <time>2016-06-19T08:28:05Z</time>
      </trkpt>
      <trkpt lat="45.6654" lon="3.11153">
        <ele>462.05</ele>
        <time>2016-06-19T08:28:06Z</time>
      </trkpt>
      <trkpt lat="45.66541" lon="3.11147">
        <ele>461.57</ele>
        <time>2016-06-19T08:28:07Z</time>
      </trkpt>
      <trkpt lat="45.66557" lon="3.1111">
        <ele>457.72</ele>
        <time>2016-06-19T08:28:13Z</time>
      </trkpt>
      <trkpt lat="45.66562" lon="3.11098">
        <ele>456.76</ele>
        <time>2016-06-19T08:28:15Z</time>
      </trkpt>
      <trkpt lat="45.66564" lon="3.11092">
        <ele>456.76</ele>
        <time>2016-06-19T08:28:16Z</time>
      </trkpt>
      <trkpt lat="45.66565" lon="3.11086">
        <ele>455.8</ele>
        <time>2016-06-19T08:28:17Z</time>
      </trkpt>
      <trkpt lat="45.66569" lon="3.1106">
        <ele>452.92</ele>
        <time>2016-06-19T08:28:21Z</time>
      </trkpt>
      <trkpt lat="45.66571" lon="3.11055">
        <ele>452.92</ele>
        <time>2016-06-19T08:28:22Z</time>
      </trkpt>
      <trkpt lat="45.66574" lon="3.1105">
        <ele>452.44</ele>
        <time>2016-06-19T08:28:23Z</time>
      </trkpt>
      <trkpt lat="45.66577" lon="3.11046">
        <ele>451.48</ele>
        <time>2016-06-19T08:28:24Z</time>
      </trkpt>
      <trkpt lat="45.6658" lon="3.11042">
        <ele>450.52</ele>
        <time>2016-06-19T08:28:25Z</time>
      </trkpt>
      <trkpt lat="45.66582" lon="3.11038">
        <ele>450.52</ele>
        <time>2016-06-19T08:28:26Z</time>
      </trkpt>
      <trkpt lat="45.66589" lon="3.11028">
        <ele>448.59</ele>
        <time>2016-06-19T08:28:28Z</time>
      </trkpt>
      <trkpt lat="45.66591" lon="3.1102">
        <ele>448.11</ele>
        <time>2016-06-19T08:28:29Z</time>
      </trkpt>
      <trkpt lat="45.66593" lon="3.11012">
        <ele>447.63</ele>
        <time>2016-06-19T08:28:30Z</time>
      </trkpt>
      <trkpt lat="45.66595" lon="3.10993">
        <ele>446.19</ele>
        <time>2016-06-19T08:28:32Z</time>
      </trkpt>
      <trkpt lat="45.66602" lon="3.10964">
        <ele>443.79</ele>
        <time>2016-06-19T08:28:35Z</time>
      </trkpt>
      <trkpt lat="45.66608" lon="3.10947">
        <ele>443.31</ele>
        <time>2016-06-19T08:28:37Z</time>
      </trkpt>
      <trkpt lat="45.66611" lon="3.10938">
        <ele>442.82</ele>
        <time>2016-06-19T08:28:38Z</time>
      </trkpt>
      <trkpt lat="45.66618" lon="3.10922">
        <ele>442.34</ele>
        <time>2016-06-19T08:28:40Z</time>
      </trkpt>
      <trkpt lat="45.66622" lon="3.10914">
        <ele>442.34</ele>
        <time>2016-06-19T08:28:41Z</time>
      </trkpt>
      <trkpt lat="45.66627" lon="3.10908">
        <ele>442.82</ele>
        <time>2016-06-19T08:28:42Z</time>
      </trkpt>
      <trkpt lat="45.66648" lon="3.1088">
        <ele>441.38</ele>
        <time>2016-06-19T08:28:47Z</time>
      </trkpt>
      <trkpt lat="45.66654" lon="3.10869">
        <ele>441.38</ele>
        <time>2016-06-19T08:28:49Z</time>
      </trkpt>
      <trkpt lat="45.66656" lon="3.10863">
        <ele>441.38</ele>
        <time>2016-06-19T08:28:50Z</time>
      </trkpt>
      <trkpt lat="45.66658" lon="3.10859">
        <ele>441.38</ele>
        <time>2016-06-19T08:28:51Z</time>
      </trkpt>
      <trkpt lat="45.66662" lon="3.1085">
        <ele>440.9</ele>
        <time>2016-06-19T08:29:01Z</time>
      </trkpt>
      <trkpt lat="45.66663" lon="3.10848">
        <ele>438.98</ele>
        <time>2016-06-19T08:31:55Z</time>
      </trkpt>
      <trkpt lat="45.66663" lon="3.10848">
        <ele>438.98</ele>
        <time>2016-06-19T08:32:05Z</time>
      </trkpt>
      <trkpt lat="45.66664" lon="3.10843">
        <ele>439.46</ele>
        <time>2016-06-19T08:35:31Z</time>
      </trkpt>
      <trkpt lat="45.66669" lon="3.10837">
        <ele>439.94</ele>
        <time>2016-06-19T08:35:37Z</time>
      </trkpt>
      <trkpt lat="45.66705" lon="3.10828">
        <ele>439.94</ele>
        <time>2016-06-19T08:35:49Z</time>
      </trkpt>
      <trkpt lat="45.66736" lon="3.10815">
        <ele>440.42</ele>
        <time>2016-06-19T08:35:59Z</time>
      </trkpt>
      <trkpt lat="45.66741" lon="3.10819">
        <ele>440.9</ele>
        <time>2016-06-19T08:36:01Z</time>
      </trkpt>
      <trkpt lat="45.66742" lon="3.10822">
        <ele>440.9</ele>
        <time>2016-06-19T08:36:02Z</time>
      </trkpt>
      <trkpt lat="45.66743" lon="3.10826">
        <ele>440.9</ele>
        <time>2016-06-19T08:36:03Z</time>
      </trkpt>
      <trkpt lat="45.66742" lon="3.10829">
        <ele>441.38</ele>
        <time>2016-06-19T08:36:04Z</time>
      </trkpt>
      <trkpt lat="45.66742" lon="3.10833">
        <ele>441.86</ele>
        <time>2016-06-19T08:36:05Z</time>
      </trkpt>
      <trkpt lat="45.66736" lon="3.10853">
        <ele>443.79</ele>
        <time>2016-06-19T08:36:11Z</time>
      </trkpt>
      <trkpt lat="45.66734" lon="3.10856">
        <ele>444.27</ele>
        <time>2016-06-19T08:36:12Z</time>
      </trkpt>
      <trkpt lat="45.66733" lon="3.10859">
        <ele>444.27</ele>
        <time>2016-06-19T08:36:13Z</time>
      </trkpt>
      <trkpt lat="45.66732" lon="3.10862">
        <ele>444.27</ele>
        <time>2016-06-19T08:36:14Z</time>
      </trkpt>
      <trkpt lat="45.66731" lon="3.10865">
        <ele>444.27</ele>
        <time>2016-06-19T08:36:15Z</time>
      </trkpt>
      <trkpt lat="45.66729" lon="3.10869">
        <ele>444.75</ele>
        <time>2016-06-19T08:36:16Z</time>
      </trkpt>
      <trkpt lat="45.66728" lon="3.10872">
        <ele>444.75</ele>
        <time>2016-06-19T08:36:17Z</time>
      </trkpt>
      <trkpt lat="45.66726" lon="3.10876">
        <ele>444.27</ele>
        <time>2016-06-19T08:36:18Z</time>
      </trkpt>
      <trkpt lat="45.66725" lon="3.10879">
        <ele>445.23</ele>
        <time>2016-06-19T08:36:19Z</time>
      </trkpt>
      <trkpt lat="45.66723" lon="3.10883">
        <ele>445.23</ele>
        <time>2016-06-19T08:36:20Z</time>
      </trkpt>
      <trkpt lat="45.66722" lon="3.10886">
        <ele>445.23</ele>
        <time>2016-06-19T08:36:21Z</time>
      </trkpt>
      <trkpt lat="45.66721" lon="3.10889">
        <ele>445.23</ele>
        <time>2016-06-19T08:36:22Z</time>
      </trkpt>
      <trkpt lat="45.6672" lon="3.10893">
        <ele>446.19</ele>
        <time>2016-06-19T08:36:23Z</time>
      </trkpt>
      <trkpt lat="45.66721" lon="3.10897">
        <ele>446.19</ele>
        <time>2016-06-19T08:36:24Z</time>
      </trkpt>
      <trkpt lat="45.66721" lon="3.10901">
        <ele>445.71</ele>
        <time>2016-06-19T08:36:25Z</time>
      </trkpt>
      <trkpt lat="45.66723" lon="3.10905">
        <ele>446.67</ele>
        <time>2016-06-19T08:36:26Z</time>
      </trkpt>
      <trkpt lat="45.66724" lon="3.10909">
        <ele>446.19</ele>
        <time>2016-06-19T08:36:27Z</time>
      </trkpt>
      <trkpt lat="45.66726" lon="3.10912">
        <ele>446.19</ele>
        <time>2016-06-19T08:36:28Z</time>
      </trkpt>
      <trkpt lat="45.66728" lon="3.10914">
        <ele>447.15</ele>
        <time>2016-06-19T08:36:29Z</time>
      </trkpt>
      <trkpt lat="45.6673" lon="3.10916">
        <ele>447.15</ele>
        <time>2016-06-19T08:36:30Z</time>
      </trkpt>
      <trkpt lat="45.66732" lon="3.10917">
        <ele>447.15</ele>
        <time>2016-06-19T08:36:31Z</time>
      </trkpt>
      <trkpt lat="45.66734" lon="3.10918">
        <ele>447.63</ele>
        <time>2016-06-19T08:36:32Z</time>
      </trkpt>
      <trkpt lat="45.66736" lon="3.10918">
        <ele>448.11</ele>
        <time>2016-06-19T08:36:33Z</time>
      </trkpt>
      <trkpt lat="45.66738" lon="3.10919">
        <ele>448.11</ele>
        <time>2016-06-19T08:36:34Z</time>
      </trkpt>
      <trkpt lat="45.6674" lon="3.10919">
        <ele>448.59</ele>
        <time>2016-06-19T08:36:35Z</time>
      </trkpt>
      <trkpt lat="45.66742" lon="3.10919">
        <ele>449.07</ele>
        <time>2016-06-19T08:36:36Z</time>
      </trkpt>
      <trkpt lat="45.66763" lon="3.10928">
        <ele>451.96</ele>
        <time>2016-06-19T08:36:49Z</time>
      </trkpt>
      <trkpt lat="45.66766" lon="3.10931">
        <ele>452.44</ele>
        <time>2016-06-19T08:36:51Z</time>
      </trkpt>
      <trkpt lat="45.6679" lon="3.10958">
        <ele>454.84</ele>
        <time>2016-06-19T08:37:04Z</time>
      </trkpt>
      <trkpt lat="45.6683" lon="3.10983">
        <ele>454.36</ele>
        <time>2016-06-19T08:37:16Z</time>
      </trkpt>
      <trkpt lat="45.66864" lon="3.11001">
        <ele>454.36</ele>
        <time>2016-06-19T08:37:26Z</time>
      </trkpt>
      <trkpt lat="45.66869" lon="3.11005">
        <ele>454.36</ele>
        <time>2016-06-19T08:37:27Z</time>
      </trkpt>
      <trkpt lat="45.66893" lon="3.11023">
        <ele>453.88</ele>
        <time>2016-06-19T08:37:33Z</time>
      </trkpt>
      <trkpt lat="45.66898" lon="3.11026">
        <ele>453.88</ele>
        <time>2016-06-19T08:37:34Z</time>
      </trkpt>
      <trkpt lat="45.66925" lon="3.11047">
        <ele>452.92</ele>
        <time>2016-06-19T08:37:40Z</time>
      </trkpt>
      <trkpt lat="45.66934" lon="3.11052">
        <ele>452.92</ele>
        <time>2016-06-19T08:37:42Z</time>
      </trkpt>
      <trkpt lat="45.66938" lon="3.11054">
        <ele>452.92</ele>
        <time>2016-06-19T08:37:43Z</time>
      </trkpt>
      <trkpt lat="45.66985" lon="3.11078">
        <ele>452.44</ele>
        <time>2016-06-19T08:37:55Z</time>
      </trkpt>
      <trkpt lat="45.66988" lon="3.11079">
        <ele>452.44</ele>
        <time>2016-06-19T08:37:56Z</time>
      </trkpt>
      <trkpt lat="45.66991" lon="3.11078">
        <ele>451.96</ele>
        <time>2016-06-19T08:37:57Z</time>
      </trkpt>
      <trkpt lat="45.66993" lon="3.11076">
        <ele>451.96</ele>
        <time>2016-06-19T08:37:58Z</time>
      </trkpt>
      <trkpt lat="45.66995" lon="3.11073">
        <ele>451.96</ele>
        <time>2016-06-19T08:37:59Z</time>
      </trkpt>
      <trkpt lat="45.66997" lon="3.11068">
        <ele>451.96</ele>
        <time>2016-06-19T08:38:11Z</time>
      </trkpt>
      <trkpt lat="45.66997" lon="3.11064">
        <ele>451.96</ele>
        <time>2016-06-19T08:38:12Z</time>
      </trkpt>
      <trkpt lat="45.66997" lon="3.1106">
        <ele>451.96</ele>
        <time>2016-06-19T08:38:13Z</time>
      </trkpt>
      <trkpt lat="45.66986" lon="3.11028">
        <ele>452.92</ele>
        <time>2016-06-19T08:38:20Z</time>
      </trkpt>
      <trkpt lat="45.66987" lon="3.11024">
        <ele>451.96</ele>
        <time>2016-06-19T08:38:21Z</time>
      </trkpt>
      <trkpt lat="45.66988" lon="3.1102">
        <ele>452.92</ele>
        <time>2016-06-19T08:38:22Z</time>
      </trkpt>
      <trkpt lat="45.6699" lon="3.11016">
        <ele>452.92</ele>
        <time>2016-06-19T08:38:23Z</time>
      </trkpt>
      <trkpt lat="45.66993" lon="3.11012">
        <ele>452.44</ele>
        <time>2016-06-19T08:38:24Z</time>
      </trkpt>
      <trkpt lat="45.67023" lon="3.10971">
        <ele>453.88</ele>
        <time>2016-06-19T08:38:35Z</time>
      </trkpt>
      <trkpt lat="45.67026" lon="3.10971">
        <ele>453.88</ele>
        <time>2016-06-19T08:38:36Z</time>
      </trkpt>
      <trkpt lat="45.67029" lon="3.10972">
        <ele>453.4</ele>
        <time>2016-06-19T08:38:37Z</time>
      </trkpt>
      <trkpt lat="45.67032" lon="3.10973">
        <ele>453.88</ele>
        <time>2016-06-19T08:38:38Z</time>
      </trkpt>
      <trkpt lat="45.67036" lon="3.10972">
        <ele>454.36</ele>
        <time>2016-06-19T08:38:39Z</time>
      </trkpt>
      <trkpt lat="45.6704" lon="3.10971">
        <ele>454.36</ele>
        <time>2016-06-19T08:38:40Z</time>
      </trkpt>
      <trkpt lat="45.67043" lon="3.10969">
        <ele>453.88</ele>
        <time>2016-06-19T08:38:41Z</time>
      </trkpt>
      <trkpt lat="45.67047" lon="3.10966">
        <ele>453.88</ele>
        <time>2016-06-19T08:38:42Z</time>
      </trkpt>
      <trkpt lat="45.6705" lon="3.10961">
        <ele>454.36</ele>
        <time>2016-06-19T08:38:43Z</time>
      </trkpt>
      <trkpt lat="45.67053" lon="3.10956">
        <ele>454.36</ele>
        <time>2016-06-19T08:38:44Z</time>
      </trkpt>
      <trkpt lat="45.67055" lon="3.10951">
        <ele>454.84</ele>
        <time>2016-06-19T08:38:45Z</time>
      </trkpt>
      <trkpt lat="45.67056" lon="3.10945">
        <ele>454.36</ele>
        <time>2016-06-19T08:38:46Z</time>
      </trkpt>
      <trkpt lat="45.67057" lon="3.1094">
        <ele>454.84</ele>
        <time>2016-06-19T08:38:47Z</time>
      </trkpt>
      <trkpt lat="45.67058" lon="3.10935">
        <ele>455.32</ele>
        <time>2016-06-19T08:38:48Z</time>
      </trkpt>
      <trkpt lat="45.6706" lon="3.10899">
        <ele>455.8</ele>
        <time>2016-06-19T08:38:55Z</time>
      </trkpt>
      <trkpt lat="45.6706" lon="3.10893">
        <ele>456.28</ele>
        <time>2016-06-19T08:38:56Z</time>
      </trkpt>
      <trkpt lat="45.67061" lon="3.10887">
        <ele>456.76</ele>
        <time>2016-06-19T08:38:57Z</time>
      </trkpt>
      <trkpt lat="45.67067" lon="3.10817">
        <ele>456.28</ele>
        <time>2016-06-19T08:39:10Z</time>
      </trkpt>
      <trkpt lat="45.6707" lon="3.10788">
        <ele>455.8</ele>
        <time>2016-06-19T08:39:16Z</time>
      </trkpt>
      <trkpt lat="45.67072" lon="3.10787">
        <ele>455.32</ele>
        <time>2016-06-19T08:39:17Z</time>
      </trkpt>
      <trkpt lat="45.67075" lon="3.10787">
        <ele>455.32</ele>
        <time>2016-06-19T08:39:18Z</time>
      </trkpt>
      <trkpt lat="45.67078" lon="3.10788">
        <ele>454.84</ele>
        <time>2016-06-19T08:39:19Z</time>
      </trkpt>
      <trkpt lat="45.67082" lon="3.10791">
        <ele>453.88</ele>
        <time>2016-06-19T08:39:20Z</time>
      </trkpt>
      <trkpt lat="45.67086" lon="3.10794">
        <ele>453.88</ele>
        <time>2016-06-19T08:39:21Z</time>
      </trkpt>
      <trkpt lat="45.67092" lon="3.10797">
        <ele>453.4</ele>
        <time>2016-06-19T08:39:22Z</time>
      </trkpt>
      <trkpt lat="45.67097" lon="3.108">
        <ele>452.92</ele>
        <time>2016-06-19T08:39:23Z</time>
      </trkpt>
      <trkpt lat="45.67167" lon="3.10825">
        <ele>452.44</ele>
        <time>2016-06-19T08:39:35Z</time>
      </trkpt>
      <trkpt lat="45.67171" lon="3.10827">
        <ele>452.44</ele>
        <time>2016-06-19T08:39:36Z</time>
      </trkpt>
      <trkpt lat="45.6719" lon="3.10829">
        <ele>453.4</ele>
        <time>2016-06-19T08:39:41Z</time>
      </trkpt>
      <trkpt lat="45.67193" lon="3.10826">
        <ele>453.88</ele>
        <time>2016-06-19T08:39:42Z</time>
      </trkpt>
      <trkpt lat="45.67194" lon="3.10822">
        <ele>453.88</ele>
        <time>2016-06-19T08:39:43Z</time>
      </trkpt>
      <trkpt lat="45.672" lon="3.10781">
        <ele>457.24</ele>
        <time>2016-06-19T08:39:53Z</time>
      </trkpt>
      <trkpt lat="45.67195" lon="3.10725">
        <ele>459.65</ele>
        <time>2016-06-19T08:40:06Z</time>
      </trkpt>
      <trkpt lat="45.67188" lon="3.10673">
        <ele>460.61</ele>
        <time>2016-06-19T08:40:18Z</time>
      </trkpt>
      <trkpt lat="45.67184" lon="3.10607">
        <ele>461.09</ele>
        <time>2016-06-19T08:40:32Z</time>
      </trkpt>
      <trkpt lat="45.67187" lon="3.10541">
        <ele>462.05</ele>
        <time>2016-06-19T08:40:45Z</time>
      </trkpt>
      <trkpt lat="45.67185" lon="3.10489">
        <ele>460.61</ele>
        <time>2016-06-19T08:40:55Z</time>
      </trkpt>
      <trkpt lat="45.67181" lon="3.10477">
        <ele>461.09</ele>
        <time>2016-06-19T08:40:57Z</time>
      </trkpt>
      <trkpt lat="45.67178" lon="3.10463">
        <ele>459.65</ele>
        <time>2016-06-19T08:40:59Z</time>
      </trkpt>
      <trkpt lat="45.67161" lon="3.10386">
        <ele>458.69</ele>
        <time>2016-06-19T08:41:11Z</time>
      </trkpt>
      <trkpt lat="45.67145" lon="3.10374">
        <ele>457.72</ele>
        <time>2016-06-19T08:41:17Z</time>
      </trkpt>
      <trkpt lat="45.67138" lon="3.10372">
        <ele>456.28</ele>
        <time>2016-06-19T08:41:19Z</time>
      </trkpt>
      <trkpt lat="45.67134" lon="3.10373">
        <ele>456.28</ele>
        <time>2016-06-19T08:41:20Z</time>
      </trkpt>
      <trkpt lat="45.6713" lon="3.10374">
        <ele>456.28</ele>
        <time>2016-06-19T08:41:21Z</time>
      </trkpt>
      <trkpt lat="45.67092" lon="3.10414">
        <ele>455.8</ele>
        <time>2016-06-19T08:41:31Z</time>
      </trkpt>
      <trkpt lat="45.67088" lon="3.10416">
        <ele>457.24</ele>
        <time>2016-06-19T08:41:32Z</time>
      </trkpt>
      <trkpt lat="45.67084" lon="3.10416">
        <ele>456.76</ele>
        <time>2016-06-19T08:41:33Z</time>
      </trkpt>
      <trkpt lat="45.6708" lon="3.10415">
        <ele>456.76</ele>
        <time>2016-06-19T08:41:34Z</time>
      </trkpt>
      <trkpt lat="45.67076" lon="3.10414">
        <ele>457.72</ele>
        <time>2016-06-19T08:41:35Z</time>
      </trkpt>
      <trkpt lat="45.67057" lon="3.10408">
        <ele>460.61</ele>
        <time>2016-06-19T08:41:41Z</time>
      </trkpt>
      <trkpt lat="45.67029" lon="3.10379">
        <ele>463.49</ele>
        <time>2016-06-19T08:41:54Z</time>
      </trkpt>
      <trkpt lat="45.66998" lon="3.1036">
        <ele>465.9</ele>
        <time>2016-06-19T08:42:07Z</time>
      </trkpt>
      <trkpt lat="45.66981" lon="3.10354">
        <ele>468.78</ele>
        <time>2016-06-19T08:42:14Z</time>
      </trkpt>
      <trkpt lat="45.66976" lon="3.10342">
        <ele>467.82</ele>
        <time>2016-06-19T08:42:17Z</time>
      </trkpt>
      <trkpt lat="45.66971" lon="3.10305">
        <ele>471.18</ele>
        <time>2016-06-19T08:42:26Z</time>
      </trkpt>
      <trkpt lat="45.66965" lon="3.10283">
        <ele>469.26</ele>
        <time>2016-06-19T08:42:32Z</time>
      </trkpt>
      <trkpt lat="45.66968" lon="3.10278">
        <ele>469.74</ele>
        <time>2016-06-19T08:42:33Z</time>
      </trkpt>
      <trkpt lat="45.66982" lon="3.10252">
        <ele>467.34</ele>
        <time>2016-06-19T08:42:38Z</time>
      </trkpt>
      <trkpt lat="45.66993" lon="3.10226">
        <ele>463.97</ele>
        <time>2016-06-19T08:42:42Z</time>
      </trkpt>
      <trkpt lat="45.66996" lon="3.10219">
        <ele>464.45</ele>
        <time>2016-06-19T08:42:43Z</time>
      </trkpt>
      <trkpt lat="45.67002" lon="3.10202">
        <ele>462.05</ele>
        <time>2016-06-19T08:42:45Z</time>
      </trkpt>
      <trkpt lat="45.67005" lon="3.10193">
        <ele>461.09</ele>
        <time>2016-06-19T08:42:46Z</time>
      </trkpt>
      <trkpt lat="45.67007" lon="3.10185">
        <ele>461.57</ele>
        <time>2016-06-19T08:42:47Z</time>
      </trkpt>
      <trkpt lat="45.6701" lon="3.10178">
        <ele>460.61</ele>
        <time>2016-06-19T08:42:48Z</time>
      </trkpt>
      <trkpt lat="45.67013" lon="3.10173">
        <ele>460.13</ele>
        <time>2016-06-19T08:42:49Z</time>
      </trkpt>
      <trkpt lat="45.67016" lon="3.10167">
        <ele>461.09</ele>
        <time>2016-06-19T08:42:50Z</time>
      </trkpt>
      <trkpt lat="45.6702" lon="3.10164">
        <ele>461.09</ele>
        <time>2016-06-19T08:42:51Z</time>
      </trkpt>
      <trkpt lat="45.6705" lon="3.10132">
        <ele>464.45</ele>
        <time>2016-06-19T08:43:02Z</time>
      </trkpt>
      <trkpt lat="45.67069" lon="3.10108">
        <ele>467.34</ele>
        <time>2016-06-19T08:43:15Z</time>
      </trkpt>
      <trkpt lat="45.67072" lon="3.10105">
        <ele>468.3</ele>
        <time>2016-06-19T08:43:17Z</time>
      </trkpt>
      <trkpt lat="45.67082" lon="3.10091">
        <ele>470.22</ele>
        <time>2016-06-19T08:43:26Z</time>
      </trkpt>
      <trkpt lat="45.671" lon="3.10076">
        <ele>471.66</ele>
        <time>2016-06-19T08:43:39Z</time>
      </trkpt>
      <trkpt lat="45.67111" lon="3.10066">
        <ele>475.03</ele>
        <time>2016-06-19T08:43:49Z</time>
      </trkpt>
      <trkpt lat="45.67121" lon="3.10056">
        <ele>477.43</ele>
        <time>2016-06-19T08:43:56Z</time>
      </trkpt>
      <trkpt lat="45.67121" lon="3.10055">
        <ele>476.95</ele>
        <time>2016-06-19T08:43:57Z</time>
      </trkpt>
      <trkpt lat="45.67122" lon="3.10053">
        <ele>478.39</ele>
        <time>2016-06-19T08:43:58Z</time>
      </trkpt>
      <trkpt lat="45.67123" lon="3.10051">
        <ele>477.91</ele>
        <time>2016-06-19T08:43:59Z</time>
      </trkpt>
      <trkpt lat="45.67123" lon="3.10049">
        <ele>478.39</ele>
        <time>2016-06-19T08:44:00Z</time>
      </trkpt>
      <trkpt lat="45.67123" lon="3.10047">
        <ele>478.87</ele>
        <time>2016-06-19T08:44:01Z</time>
      </trkpt>
      <trkpt lat="45.67124" lon="3.10045">
        <ele>478.39</ele>
        <time>2016-06-19T08:44:02Z</time>
      </trkpt>
      <trkpt lat="45.67125" lon="3.10018">
        <ele>481.76</ele>
        <time>2016-06-19T08:44:14Z</time>
      </trkpt>
      <trkpt lat="45.67132" lon="3.09983">
        <ele>482.72</ele>
        <time>2016-06-19T08:44:30Z</time>
      </trkpt>
      <trkpt lat="45.67133" lon="3.0998">
        <ele>483.68</ele>
        <time>2016-06-19T08:44:32Z</time>
      </trkpt>
      <trkpt lat="45.67136" lon="3.09965">
        <ele>485.12</ele>
        <time>2016-06-19T08:44:38Z</time>
      </trkpt>
      <trkpt lat="45.67138" lon="3.0995">
        <ele>484.64</ele>
        <time>2016-06-19T08:44:44Z</time>
      </trkpt>
      <trkpt lat="45.67138" lon="3.09945">
        <ele>486.08</ele>
        <time>2016-06-19T08:44:46Z</time>
      </trkpt>
      <trkpt lat="45.6714" lon="3.09938">
        <ele>487.05</ele>
        <time>2016-06-19T08:44:49Z</time>
      </trkpt>
      <trkpt lat="45.67139" lon="3.0992">
        <ele>488.49</ele>
        <time>2016-06-19T08:44:57Z</time>
      </trkpt>
      <trkpt lat="45.67138" lon="3.09918">
        <ele>488.97</ele>
        <time>2016-06-19T08:44:58Z</time>
      </trkpt>
      <trkpt lat="45.67137" lon="3.09915">
        <ele>489.93</ele>
        <time>2016-06-19T08:44:59Z</time>
      </trkpt>
      <trkpt lat="45.67136" lon="3.09913">
        <ele>489.45</ele>
        <time>2016-06-19T08:45:00Z</time>
      </trkpt>
      <trkpt lat="45.67135" lon="3.09911">
        <ele>490.89</ele>
        <time>2016-06-19T08:45:01Z</time>
      </trkpt>
      <trkpt lat="45.67134" lon="3.09909">
        <ele>491.37</ele>
        <time>2016-06-19T08:45:02Z</time>
      </trkpt>
      <trkpt lat="45.67132" lon="3.09908">
        <ele>491.37</ele>
        <time>2016-06-19T08:45:03Z</time>
      </trkpt>
      <trkpt lat="45.6713" lon="3.09906">
        <ele>490.41</ele>
        <time>2016-06-19T08:45:04Z</time>
      </trkpt>
      <trkpt lat="45.67128" lon="3.09904">
        <ele>491.85</ele>
        <time>2016-06-19T08:45:05Z</time>
      </trkpt>
      <trkpt lat="45.67126" lon="3.09903">
        <ele>490.89</ele>
        <time>2016-06-19T08:45:06Z</time>
      </trkpt>
      <trkpt lat="45.67124" lon="3.09901">
        <ele>491.37</ele>
        <time>2016-06-19T08:45:07Z</time>
      </trkpt>
      <trkpt lat="45.67122" lon="3.099">
        <ele>491.85</ele>
        <time>2016-06-19T08:45:08Z</time>
      </trkpt>
      <trkpt lat="45.67098" lon="3.09888">
        <ele>493.29</ele>
        <time>2016-06-19T08:45:21Z</time>
      </trkpt>
      <trkpt lat="45.67097" lon="3.09886">
        <ele>494.26</ele>
        <time>2016-06-19T08:45:22Z</time>
      </trkpt>
      <trkpt lat="45.67097" lon="3.09885">
        <ele>493.77</ele>
        <time>2016-06-19T08:45:23Z</time>
      </trkpt>
      <trkpt lat="45.67097" lon="3.09882">
        <ele>494.26</ele>
        <time>2016-06-19T08:45:24Z</time>
      </trkpt>
      <trkpt lat="45.67097" lon="3.0988">
        <ele>494.26</ele>
        <time>2016-06-19T08:45:25Z</time>
      </trkpt>
      <trkpt lat="45.67097" lon="3.09878">
        <ele>494.74</ele>
        <time>2016-06-19T08:45:26Z</time>
      </trkpt>
      <trkpt lat="45.67097" lon="3.09875">
        <ele>494.74</ele>
        <time>2016-06-19T08:45:27Z</time>
      </trkpt>
      <trkpt lat="45.67097" lon="3.09872">
        <ele>494.26</ele>
        <time>2016-06-19T08:45:28Z</time>
      </trkpt>
      <trkpt lat="45.67098" lon="3.0987">
        <ele>494.74</ele>
        <time>2016-06-19T08:45:29Z</time>
      </trkpt>
      <trkpt lat="45.67098" lon="3.09868">
        <ele>495.7</ele>
        <time>2016-06-19T08:45:30Z</time>
      </trkpt>
      <trkpt lat="45.67099" lon="3.09865">
        <ele>494.74</ele>
        <time>2016-06-19T08:45:31Z</time>
      </trkpt>
      <trkpt lat="45.671" lon="3.09863">
        <ele>495.22</ele>
        <time>2016-06-19T08:45:32Z</time>
      </trkpt>
      <trkpt lat="45.67101" lon="3.09861">
        <ele>495.22</ele>
        <time>2016-06-19T08:45:33Z</time>
      </trkpt>
      <trkpt lat="45.67103" lon="3.0986">
        <ele>494.74</ele>
        <time>2016-06-19T08:45:34Z</time>
      </trkpt>
      <trkpt lat="45.67105" lon="3.09859">
        <ele>495.22</ele>
        <time>2016-06-19T08:45:35Z</time>
      </trkpt>
      <trkpt lat="45.67108" lon="3.09859">
        <ele>495.22</ele>
        <time>2016-06-19T08:45:36Z</time>
      </trkpt>
      <trkpt lat="45.67111" lon="3.09859">
        <ele>495.22</ele>
        <time>2016-06-19T08:45:37Z</time>
      </trkpt>
      <trkpt lat="45.67114" lon="3.0986">
        <ele>495.22</ele>
        <time>2016-06-19T08:45:38Z</time>
      </trkpt>
      <trkpt lat="45.67116" lon="3.09861">
        <ele>494.74</ele>
        <time>2016-06-19T08:45:39Z</time>
      </trkpt>
      <trkpt lat="45.67132" lon="3.09857">
        <ele>495.7</ele>
        <time>2016-06-19T08:45:45Z</time>
      </trkpt>
      <trkpt lat="45.67133" lon="3.09853">
        <ele>495.7</ele>
        <time>2016-06-19T08:45:46Z</time>
      </trkpt>
      <trkpt lat="45.67134" lon="3.09849">
        <ele>496.18</ele>
        <time>2016-06-19T08:45:47Z</time>
      </trkpt>
      <trkpt lat="45.67134" lon="3.09846">
        <ele>496.18</ele>
        <time>2016-06-19T08:45:48Z</time>
      </trkpt>
      <trkpt lat="45.67135" lon="3.09842">
        <ele>496.18</ele>
        <time>2016-06-19T08:45:49Z</time>
      </trkpt>
      <trkpt lat="45.67135" lon="3.09839">
        <ele>496.66</ele>
        <time>2016-06-19T08:45:50Z</time>
      </trkpt>
      <trkpt lat="45.67135" lon="3.09811">
        <ele>499.54</ele>
        <time>2016-06-19T08:46:00Z</time>
      </trkpt>
      <trkpt lat="45.67129" lon="3.09788">
        <ele>502.43</ele>
        <time>2016-06-19T08:46:09Z</time>
      </trkpt>
      <trkpt lat="45.67127" lon="3.0976">
        <ele>504.83</ele>
        <time>2016-06-19T08:46:23Z</time>
      </trkpt>
      <trkpt lat="45.67121" lon="3.09735">
        <ele>507.71</ele>
        <time>2016-06-19T08:46:36Z</time>
      </trkpt>
      <trkpt lat="45.67121" lon="3.09728">
        <ele>508.19</ele>
        <time>2016-06-19T08:46:40Z</time>
      </trkpt>
      <trkpt lat="45.6712" lon="3.09725">
        <ele>508.67</ele>
        <time>2016-06-19T08:46:42Z</time>
      </trkpt>
      <trkpt lat="45.67119" lon="3.09724">
        <ele>508.67</ele>
        <time>2016-06-19T08:46:43Z</time>
      </trkpt>
      <trkpt lat="45.67119" lon="3.09722">
        <ele>509.16</ele>
        <time>2016-06-19T08:46:44Z</time>
      </trkpt>
      <trkpt lat="45.67118" lon="3.0972">
        <ele>508.67</ele>
        <time>2016-06-19T08:46:45Z</time>
      </trkpt>
      <trkpt lat="45.67118" lon="3.09718">
        <ele>509.16</ele>
        <time>2016-06-19T08:46:46Z</time>
      </trkpt>
      <trkpt lat="45.67118" lon="3.09715">
        <ele>508.67</ele>
        <time>2016-06-19T08:46:47Z</time>
      </trkpt>
      <trkpt lat="45.67113" lon="3.09687">
        <ele>510.6</ele>
        <time>2016-06-19T08:47:00Z</time>
      </trkpt>
      <trkpt lat="45.67109" lon="3.09655">
        <ele>513.48</ele>
        <time>2016-06-19T08:47:14Z</time>
      </trkpt>
      <trkpt lat="45.67105" lon="3.09619">
        <ele>516.85</ele>
        <time>2016-06-19T08:47:29Z</time>
      </trkpt>
      <trkpt lat="45.67098" lon="3.09583">
        <ele>518.29</ele>
        <time>2016-06-19T08:47:44Z</time>
      </trkpt>
      <trkpt lat="45.67094" lon="3.09555">
        <ele>518.77</ele>
        <time>2016-06-19T08:47:55Z</time>
      </trkpt>
      <trkpt lat="45.67095" lon="3.09553">
        <ele>518.29</ele>
        <time>2016-06-19T08:47:56Z</time>
      </trkpt>
      <trkpt lat="45.67096" lon="3.09551">
        <ele>518.77</ele>
        <time>2016-06-19T08:47:57Z</time>
      </trkpt>
      <trkpt lat="45.67099" lon="3.09547">
        <ele>518.77</ele>
        <time>2016-06-19T08:47:59Z</time>
      </trkpt>
      <trkpt lat="45.67121" lon="3.09531">
        <ele>522.13</ele>
        <time>2016-06-19T08:48:13Z</time>
      </trkpt>
      <trkpt lat="45.6714" lon="3.09507">
        <ele>523.09</ele>
        <time>2016-06-19T08:48:27Z</time>
      </trkpt>
      <trkpt lat="45.67156" lon="3.09484">
        <ele>525.5</ele>
        <time>2016-06-19T08:48:40Z</time>
      </trkpt>
      <trkpt lat="45.67179" lon="3.09456">
        <ele>525.98</ele>
        <time>2016-06-19T08:48:55Z</time>
      </trkpt>
      <trkpt lat="45.67196" lon="3.09432">
        <ele>524.54</ele>
        <time>2016-06-19T08:49:03Z</time>
      </trkpt>
      <trkpt lat="45.67199" lon="3.09428">
        <ele>524.54</ele>
        <time>2016-06-19T08:49:04Z</time>
      </trkpt>
      <trkpt lat="45.67202" lon="3.09423">
        <ele>524.06</ele>
        <time>2016-06-19T08:49:05Z</time>
      </trkpt>
      <trkpt lat="45.67205" lon="3.09419">
        <ele>524.06</ele>
        <time>2016-06-19T08:49:06Z</time>
      </trkpt>
      <trkpt lat="45.67207" lon="3.09415">
        <ele>524.54</ele>
        <time>2016-06-19T08:49:07Z</time>
      </trkpt>
      <trkpt lat="45.6721" lon="3.09413">
        <ele>524.54</ele>
        <time>2016-06-19T08:49:08Z</time>
      </trkpt>
      <trkpt lat="45.67212" lon="3.09411">
        <ele>524.54</ele>
        <time>2016-06-19T08:49:09Z</time>
      </trkpt>
      <trkpt lat="45.67248" lon="3.09389">
        <ele>526.94</ele>
        <time>2016-06-19T08:49:24Z</time>
      </trkpt>
      <trkpt lat="45.67273" lon="3.09375">
        <ele>529.82</ele>
        <time>2016-06-19T08:49:34Z</time>
      </trkpt>
      <trkpt lat="45.67306" lon="3.09351">
        <ele>533.19</ele>
        <time>2016-06-19T08:49:49Z</time>
      </trkpt>
      <trkpt lat="45.67326" lon="3.09316">
        <ele>535.59</ele>
        <time>2016-06-19T08:50:02Z</time>
      </trkpt>
      <trkpt lat="45.6734" lon="3.09283">
        <ele>537.99</ele>
        <time>2016-06-19T08:50:14Z</time>
      </trkpt>
      <trkpt lat="45.6736" lon="3.09234">
        <ele>540.88</ele>
        <time>2016-06-19T08:50:30Z</time>
      </trkpt>
      <trkpt lat="45.67371" lon="3.09184">
        <ele>543.28</ele>
        <time>2016-06-19T08:50:45Z</time>
      </trkpt>
      <trkpt lat="45.67372" lon="3.09117">
        <ele>546.17</ele>
        <time>2016-06-19T08:51:03Z</time>
      </trkpt>
      <trkpt lat="45.67372" lon="3.09055">
        <ele>548.09</ele>
        <time>2016-06-19T08:51:19Z</time>
      </trkpt>
      <trkpt lat="45.67379" lon="3.09014">
        <ele>550.97</ele>
        <time>2016-06-19T08:51:31Z</time>
      </trkpt>
      <trkpt lat="45.67383" lon="3.08979">
        <ele>554.34</ele>
        <time>2016-06-19T08:51:42Z</time>
      </trkpt>
      <trkpt lat="45.67391" lon="3.08937">
        <ele>557.7</ele>
        <time>2016-06-19T08:51:57Z</time>
      </trkpt>
      <trkpt lat="45.67402" lon="3.08888">
        <ele>560.59</ele>
        <time>2016-06-19T08:52:14Z</time>
      </trkpt>
      <trkpt lat="45.67419" lon="3.08844">
        <ele>563.47</ele>
        <time>2016-06-19T08:52:31Z</time>
      </trkpt>
      <trkpt lat="45.67432" lon="3.08801">
        <ele>566.83</ele>
        <time>2016-06-19T08:52:45Z</time>
      </trkpt>
      <trkpt lat="45.67441" lon="3.08746">
        <ele>569.72</ele>
        <time>2016-06-19T08:53:02Z</time>
      </trkpt>
      <trkpt lat="45.67433" lon="3.0869">
        <ele>571.64</ele>
        <time>2016-06-19T08:53:18Z</time>
      </trkpt>
      <trkpt lat="45.67426" lon="3.08641">
        <ele>575.01</ele>
        <time>2016-06-19T08:53:32Z</time>
      </trkpt>
      <trkpt lat="45.67428" lon="3.08591">
        <ele>576.93</ele>
        <time>2016-06-19T08:53:47Z</time>
      </trkpt>
      <trkpt lat="45.67436" lon="3.08556">
        <ele>581.25</ele>
        <time>2016-06-19T08:54:00Z</time>
      </trkpt>
      <trkpt lat="45.67437" lon="3.08553">
        <ele>580.29</ele>
        <time>2016-06-19T08:54:01Z</time>
      </trkpt>
      <trkpt lat="45.67438" lon="3.08546">
        <ele>582.22</ele>
        <time>2016-06-19T08:54:04Z</time>
      </trkpt>
      <trkpt lat="45.67441" lon="3.08533">
        <ele>582.22</ele>
        <time>2016-06-19T08:54:09Z</time>
      </trkpt>
      <trkpt lat="45.67442" lon="3.08531">
        <ele>582.7</ele>
        <time>2016-06-19T08:54:10Z</time>
      </trkpt>
      <trkpt lat="45.67443" lon="3.08529">
        <ele>583.18</ele>
        <time>2016-06-19T08:54:11Z</time>
      </trkpt>
      <trkpt lat="45.67443" lon="3.08527">
        <ele>583.18</ele>
        <time>2016-06-19T08:54:12Z</time>
      </trkpt>
      <trkpt lat="45.67443" lon="3.08524">
        <ele>583.18</ele>
        <time>2016-06-19T08:54:13Z</time>
      </trkpt>
      <trkpt lat="45.6745" lon="3.08492">
        <ele>586.06</ele>
        <time>2016-06-19T08:54:25Z</time>
      </trkpt>
      <trkpt lat="45.67455" lon="3.08459">
        <ele>588.95</ele>
        <time>2016-06-19T08:54:39Z</time>
      </trkpt>
      <trkpt lat="45.67463" lon="3.08428">
        <ele>591.83</ele>
        <time>2016-06-19T08:54:54Z</time>
      </trkpt>
      <trkpt lat="45.67471" lon="3.08401">
        <ele>595.19</ele>
        <time>2016-06-19T08:55:08Z</time>
      </trkpt>
      <trkpt lat="45.67471" lon="3.08398">
        <ele>595.19</ele>
        <time>2016-06-19T08:55:09Z</time>
      </trkpt>
      <trkpt lat="45.67471" lon="3.08396">
        <ele>595.19</ele>
        <time>2016-06-19T08:55:10Z</time>
      </trkpt>
      <trkpt lat="45.67471" lon="3.08393">
        <ele>595.67</ele>
        <time>2016-06-19T08:55:11Z</time>
      </trkpt>
      <trkpt lat="45.67471" lon="3.08391">
        <ele>596.15</ele>
        <time>2016-06-19T08:55:12Z</time>
      </trkpt>
      <trkpt lat="45.67471" lon="3.08388">
        <ele>596.15</ele>
        <time>2016-06-19T08:55:13Z</time>
      </trkpt>
      <trkpt lat="45.67471" lon="3.08386">
        <ele>596.15</ele>
        <time>2016-06-19T08:55:14Z</time>
      </trkpt>
      <trkpt lat="45.67471" lon="3.08384">
        <ele>597.12</ele>
        <time>2016-06-19T08:55:15Z</time>
      </trkpt>
      <trkpt lat="45.67471" lon="3.08382">
        <ele>596.64</ele>
        <time>2016-06-19T08:55:16Z</time>
      </trkpt>
      <trkpt lat="45.67471" lon="3.0838">
        <ele>597.12</ele>
        <time>2016-06-19T08:55:17Z</time>
      </trkpt>
      <trkpt lat="45.6747" lon="3.08378">
        <ele>597.6</ele>
        <time>2016-06-19T08:55:18Z</time>
      </trkpt>
      <trkpt lat="45.6747" lon="3.08375">
        <ele>597.6</ele>
        <time>2016-06-19T08:55:19Z</time>
      </trkpt>
      <trkpt lat="45.6747" lon="3.08373">
        <ele>598.08</ele>
        <time>2016-06-19T08:55:20Z</time>
      </trkpt>
      <trkpt lat="45.6747" lon="3.08371">
        <ele>598.56</ele>
        <time>2016-06-19T08:55:21Z</time>
      </trkpt>
      <trkpt lat="45.67468" lon="3.08342">
        <ele>600.48</ele>
        <time>2016-06-19T08:55:35Z</time>
      </trkpt>
      <trkpt lat="45.67465" lon="3.08315">
        <ele>603.36</ele>
        <time>2016-06-19T08:55:48Z</time>
      </trkpt>
      <trkpt lat="45.67464" lon="3.08281">
        <ele>606.25</ele>
        <time>2016-06-19T08:56:03Z</time>
      </trkpt>
      <trkpt lat="45.67465" lon="3.08261">
        <ele>608.17</ele>
        <time>2016-06-19T08:56:12Z</time>
      </trkpt>
      <trkpt lat="45.67464" lon="3.08259">
        <ele>608.17</ele>
        <time>2016-06-19T08:56:13Z</time>
      </trkpt>
      <trkpt lat="45.67465" lon="3.08255">
        <ele>608.65</ele>
        <time>2016-06-19T08:56:15Z</time>
      </trkpt>
      <trkpt lat="45.67465" lon="3.08252">
        <ele>608.17</ele>
        <time>2016-06-19T08:56:16Z</time>
      </trkpt>
      <trkpt lat="45.67465" lon="3.0825">
        <ele>609.13</ele>
        <time>2016-06-19T08:56:17Z</time>
      </trkpt>
      <trkpt lat="45.67465" lon="3.08247">
        <ele>609.13</ele>
        <time>2016-06-19T08:56:18Z</time>
      </trkpt>
      <trkpt lat="45.67464" lon="3.08244">
        <ele>609.13</ele>
        <time>2016-06-19T08:56:19Z</time>
      </trkpt>
      <trkpt lat="45.67463" lon="3.08242">
        <ele>609.13</ele>
        <time>2016-06-19T08:56:20Z</time>
      </trkpt>
      <trkpt lat="45.67463" lon="3.0824">
        <ele>609.13</ele>
        <time>2016-06-19T08:56:21Z</time>
      </trkpt>
      <trkpt lat="45.67462" lon="3.08237">
        <ele>609.13</ele>
        <time>2016-06-19T08:56:22Z</time>
      </trkpt>
      <trkpt lat="45.67458" lon="3.08208">
        <ele>609.61</ele>
        <time>2016-06-19T08:56:33Z</time>
      </trkpt>
      <trkpt lat="45.67459" lon="3.08205">
        <ele>610.09</ele>
        <time>2016-06-19T08:56:34Z</time>
      </trkpt>
      <trkpt lat="45.6746" lon="3.08203">
        <ele>610.57</ele>
        <time>2016-06-19T08:56:35Z</time>
      </trkpt>
      <trkpt lat="45.67473" lon="3.08185">
        <ele>613.94</ele>
        <time>2016-06-19T08:56:46Z</time>
      </trkpt>
      <trkpt lat="45.67489" lon="3.0817">
        <ele>616.34</ele>
        <time>2016-06-19T08:56:58Z</time>
      </trkpt>
      <trkpt lat="45.6749" lon="3.08171">
        <ele>615.86</ele>
        <time>2016-06-19T08:56:59Z</time>
      </trkpt>
      <trkpt lat="45.67493" lon="3.08177">
        <ele>616.82</ele>
        <time>2016-06-19T08:57:02Z</time>
      </trkpt>
      <trkpt lat="45.67494" lon="3.0818">
        <ele>616.82</ele>
        <time>2016-06-19T08:57:03Z</time>
      </trkpt>
      <trkpt lat="45.67494" lon="3.08182">
        <ele>616.82</ele>
        <time>2016-06-19T08:57:04Z</time>
      </trkpt>
      <trkpt lat="45.67495" lon="3.08185">
        <ele>617.3</ele>
        <time>2016-06-19T08:57:05Z</time>
      </trkpt>
      <trkpt lat="45.67495" lon="3.08187">
        <ele>617.78</ele>
        <time>2016-06-19T08:57:06Z</time>
      </trkpt>
      <trkpt lat="45.67496" lon="3.08189">
        <ele>617.78</ele>
        <time>2016-06-19T08:57:07Z</time>
      </trkpt>
      <trkpt lat="45.67496" lon="3.08191">
        <ele>617.78</ele>
        <time>2016-06-19T08:57:08Z</time>
      </trkpt>
      <trkpt lat="45.67502" lon="3.08206">
        <ele>619.23</ele>
        <time>2016-06-19T08:57:16Z</time>
      </trkpt>
      <trkpt lat="45.67501" lon="3.08209">
        <ele>619.23</ele>
        <time>2016-06-19T08:57:17Z</time>
      </trkpt>
      <trkpt lat="45.675" lon="3.08213">
        <ele>619.23</ele>
        <time>2016-06-19T08:57:18Z</time>
      </trkpt>
      <trkpt lat="45.675" lon="3.08218">
        <ele>618.75</ele>
        <time>2016-06-19T08:57:19Z</time>
      </trkpt>
      <trkpt lat="45.675" lon="3.08224">
        <ele>618.75</ele>
        <time>2016-06-19T08:57:20Z</time>
      </trkpt>
      <trkpt lat="45.67501" lon="3.08231">
        <ele>617.78</ele>
        <time>2016-06-19T08:57:21Z</time>
      </trkpt>
      <trkpt lat="45.67503" lon="3.08236">
        <ele>617.78</ele>
        <time>2016-06-19T08:57:22Z</time>
      </trkpt>
      <trkpt lat="45.67519" lon="3.08257">
        <ele>620.19</ele>
        <time>2016-06-19T08:57:31Z</time>
      </trkpt>
      <trkpt lat="45.67522" lon="3.08259">
        <ele>620.19</ele>
        <time>2016-06-19T08:57:32Z</time>
      </trkpt>
      <trkpt lat="45.67523" lon="3.08261">
        <ele>619.71</ele>
        <time>2016-06-19T08:57:33Z</time>
      </trkpt>
      <trkpt lat="45.67524" lon="3.08263">
        <ele>620.19</ele>
        <time>2016-06-19T08:57:34Z</time>
      </trkpt>
      <trkpt lat="45.67526" lon="3.08265">
        <ele>620.67</ele>
        <time>2016-06-19T08:57:35Z</time>
      </trkpt>
      <trkpt lat="45.67527" lon="3.08267">
        <ele>620.67</ele>
        <time>2016-06-19T08:57:36Z</time>
      </trkpt>
      <trkpt lat="45.67528" lon="3.0827">
        <ele>620.67</ele>
        <time>2016-06-19T08:57:37Z</time>
      </trkpt>
      <trkpt lat="45.67534" lon="3.08281">
        <ele>621.15</ele>
        <time>2016-06-19T08:57:42Z</time>
      </trkpt>
      <trkpt lat="45.67535" lon="3.08284">
        <ele>621.15</ele>
        <time>2016-06-19T08:57:43Z</time>
      </trkpt>
      <trkpt lat="45.67537" lon="3.08286">
        <ele>621.63</ele>
        <time>2016-06-19T08:57:44Z</time>
      </trkpt>
      <trkpt lat="45.67539" lon="3.08288">
        <ele>621.63</ele>
        <time>2016-06-19T08:57:45Z</time>
      </trkpt>
      <trkpt lat="45.6754" lon="3.0829">
        <ele>621.63</ele>
        <time>2016-06-19T08:57:46Z</time>
      </trkpt>
      <trkpt lat="45.67542" lon="3.08291">
        <ele>621.63</ele>
        <time>2016-06-19T08:57:47Z</time>
      </trkpt>
      <trkpt lat="45.67545" lon="3.08295">
        <ele>622.59</ele>
        <time>2016-06-19T08:57:50Z</time>
      </trkpt>
      <trkpt lat="45.67546" lon="3.08296">
        <ele>622.59</ele>
        <time>2016-06-19T08:57:51Z</time>
      </trkpt>
      <trkpt lat="45.67547" lon="3.08298">
        <ele>622.59</ele>
        <time>2016-06-19T08:57:52Z</time>
      </trkpt>
      <trkpt lat="45.67549" lon="3.08299">
        <ele>623.55</ele>
        <time>2016-06-19T08:57:53Z</time>
      </trkpt>
      <trkpt lat="45.67549" lon="3.08301">
        <ele>623.07</ele>
        <time>2016-06-19T08:57:54Z</time>
      </trkpt>
      <trkpt lat="45.6755" lon="3.08303">
        <ele>623.55</ele>
        <time>2016-06-19T08:57:55Z</time>
      </trkpt>
      <trkpt lat="45.67551" lon="3.08305">
        <ele>624.03</ele>
        <time>2016-06-19T08:57:56Z</time>
      </trkpt>
      <trkpt lat="45.67557" lon="3.08321">
        <ele>625.47</ele>
        <time>2016-06-19T08:58:04Z</time>
      </trkpt>
      <trkpt lat="45.67557" lon="3.08324">
        <ele>625.96</ele>
        <time>2016-06-19T08:58:05Z</time>
      </trkpt>
      <trkpt lat="45.67558" lon="3.08327">
        <ele>625.47</ele>
        <time>2016-06-19T08:58:06Z</time>
      </trkpt>
      <trkpt lat="45.67558" lon="3.0833">
        <ele>625.47</ele>
        <time>2016-06-19T08:58:07Z</time>
      </trkpt>
      <trkpt lat="45.67558" lon="3.08333">
        <ele>625.96</ele>
        <time>2016-06-19T08:58:08Z</time>
      </trkpt>
      <trkpt lat="45.67558" lon="3.08335">
        <ele>625.96</ele>
        <time>2016-06-19T08:58:09Z</time>
      </trkpt>
      <trkpt lat="45.67558" lon="3.08338">
        <ele>625.47</ele>
        <time>2016-06-19T08:58:10Z</time>
      </trkpt>
      <trkpt lat="45.67559" lon="3.08341">
        <ele>625.96</ele>
        <time>2016-06-19T08:58:11Z</time>
      </trkpt>
      <trkpt lat="45.67559" lon="3.08343">
        <ele>625.96</ele>
        <time>2016-06-19T08:58:12Z</time>
      </trkpt>
      <trkpt lat="45.67562" lon="3.0836">
        <ele>626.92</ele>
        <time>2016-06-19T08:58:18Z</time>
      </trkpt>
      <trkpt lat="45.67563" lon="3.08362">
        <ele>626.92</ele>
        <time>2016-06-19T08:58:19Z</time>
      </trkpt>
      <trkpt lat="45.67564" lon="3.08365">
        <ele>626.92</ele>
        <time>2016-06-19T08:58:20Z</time>
      </trkpt>
      <trkpt lat="45.67564" lon="3.08367">
        <ele>626.92</ele>
        <time>2016-06-19T08:58:21Z</time>
      </trkpt>
      <trkpt lat="45.67565" lon="3.08369">
        <ele>627.4</ele>
        <time>2016-06-19T08:58:22Z</time>
      </trkpt>
      <trkpt lat="45.67565" lon="3.08372">
        <ele>627.4</ele>
        <time>2016-06-19T08:58:23Z</time>
      </trkpt>
      <trkpt lat="45.67566" lon="3.08375">
        <ele>627.88</ele>
        <time>2016-06-19T08:58:24Z</time>
      </trkpt>
      <trkpt lat="45.67566" lon="3.08378">
        <ele>627.88</ele>
        <time>2016-06-19T08:58:25Z</time>
      </trkpt>
      <trkpt lat="45.67567" lon="3.08381">
        <ele>627.88</ele>
        <time>2016-06-19T08:58:26Z</time>
      </trkpt>
      <trkpt lat="45.67568" lon="3.08384">
        <ele>627.88</ele>
        <time>2016-06-19T08:58:27Z</time>
      </trkpt>
      <trkpt lat="45.67568" lon="3.08387">
        <ele>628.36</ele>
        <time>2016-06-19T08:58:28Z</time>
      </trkpt>
      <trkpt lat="45.67568" lon="3.0839">
        <ele>628.36</ele>
        <time>2016-06-19T08:58:29Z</time>
      </trkpt>
      <trkpt lat="45.67568" lon="3.08392">
        <ele>628.36</ele>
        <time>2016-06-19T08:58:30Z</time>
      </trkpt>
      <trkpt lat="45.67569" lon="3.08395">
        <ele>628.84</ele>
        <time>2016-06-19T08:58:31Z</time>
      </trkpt>
      <trkpt lat="45.67569" lon="3.08397">
        <ele>628.84</ele>
        <time>2016-06-19T08:58:32Z</time>
      </trkpt>
      <trkpt lat="45.6757" lon="3.084">
        <ele>628.36</ele>
        <time>2016-06-19T08:58:33Z</time>
      </trkpt>
      <trkpt lat="45.67571" lon="3.08402">
        <ele>629.32</ele>
        <time>2016-06-19T08:58:34Z</time>
      </trkpt>
      <trkpt lat="45.67571" lon="3.08404">
        <ele>628.84</ele>
        <time>2016-06-19T08:58:35Z</time>
      </trkpt>
      <trkpt lat="45.67573" lon="3.08407">
        <ele>629.32</ele>
        <time>2016-06-19T08:58:36Z</time>
      </trkpt>
      <trkpt lat="45.67574" lon="3.08409">
        <ele>629.32</ele>
        <time>2016-06-19T08:58:37Z</time>
      </trkpt>
      <trkpt lat="45.67578" lon="3.08414">
        <ele>629.32</ele>
        <time>2016-06-19T08:58:40Z</time>
      </trkpt>
      <trkpt lat="45.67581" lon="3.08417">
        <ele>630.28</ele>
        <time>2016-06-19T08:58:42Z</time>
      </trkpt>
      <trkpt lat="45.67582" lon="3.08419">
        <ele>630.28</ele>
        <time>2016-06-19T08:58:43Z</time>
      </trkpt>
      <trkpt lat="45.67584" lon="3.08419">
        <ele>630.76</ele>
        <time>2016-06-19T08:58:44Z</time>
      </trkpt>
      <trkpt lat="45.67585" lon="3.0842">
        <ele>630.76</ele>
        <time>2016-06-19T08:58:45Z</time>
      </trkpt>
      <trkpt lat="45.67586" lon="3.08421">
        <ele>631.72</ele>
        <time>2016-06-19T08:58:46Z</time>
      </trkpt>
      <trkpt lat="45.67587" lon="3.08423">
        <ele>632.2</ele>
        <time>2016-06-19T08:58:47Z</time>
      </trkpt>
      <trkpt lat="45.67588" lon="3.08424">
        <ele>632.2</ele>
        <time>2016-06-19T08:58:48Z</time>
      </trkpt>
      <trkpt lat="45.67588" lon="3.08426">
        <ele>632.68</ele>
        <time>2016-06-19T08:58:49Z</time>
      </trkpt>
      <trkpt lat="45.67589" lon="3.08428">
        <ele>632.68</ele>
        <time>2016-06-19T08:58:50Z</time>
      </trkpt>
      <trkpt lat="45.6759" lon="3.0843">
        <ele>633.17</ele>
        <time>2016-06-19T08:58:51Z</time>
      </trkpt>
      <trkpt lat="45.6759" lon="3.08432">
        <ele>633.65</ele>
        <time>2016-06-19T08:58:52Z</time>
      </trkpt>
      <trkpt lat="45.67591" lon="3.08434">
        <ele>633.65</ele>
        <time>2016-06-19T08:58:53Z</time>
      </trkpt>
      <trkpt lat="45.67594" lon="3.08459">
        <ele>637.01</ele>
        <time>2016-06-19T08:59:05Z</time>
      </trkpt>
      <trkpt lat="45.6761" lon="3.08494">
        <ele>639.89</ele>
        <time>2016-06-19T08:59:24Z</time>
      </trkpt>
      <trkpt lat="45.67626" lon="3.08516">
        <ele>642.3</ele>
        <time>2016-06-19T08:59:37Z</time>
      </trkpt>
      <trkpt lat="45.67642" lon="3.08542">
        <ele>645.18</ele>
        <time>2016-06-19T08:59:53Z</time>
      </trkpt>
      <trkpt lat="45.67654" lon="3.08566">
        <ele>648.55</ele>
        <time>2016-06-19T09:00:07Z</time>
      </trkpt>
      <trkpt lat="45.67666" lon="3.08589">
        <ele>651.43</ele>
        <time>2016-06-19T09:00:21Z</time>
      </trkpt>
      <trkpt lat="45.67684" lon="3.08603">
        <ele>654.31</ele>
        <time>2016-06-19T09:00:37Z</time>
      </trkpt>
      <trkpt lat="45.67703" lon="3.08616">
        <ele>657.68</ele>
        <time>2016-06-19T09:00:53Z</time>
      </trkpt>
      <trkpt lat="45.67706" lon="3.08617">
        <ele>658.16</ele>
        <time>2016-06-19T09:00:55Z</time>
      </trkpt>
      <trkpt lat="45.67724" lon="3.0863">
        <ele>661.52</ele>
        <time>2016-06-19T09:01:11Z</time>
      </trkpt>
      <trkpt lat="45.67743" lon="3.08641">
        <ele>663.93</ele>
        <time>2016-06-19T09:01:25Z</time>
      </trkpt>
      <trkpt lat="45.67747" lon="3.08649">
        <ele>664.89</ele>
        <time>2016-06-19T09:01:30Z</time>
      </trkpt>
      <trkpt lat="45.67748" lon="3.08653">
        <ele>664.89</ele>
        <time>2016-06-19T09:01:32Z</time>
      </trkpt>
      <trkpt lat="45.67748" lon="3.08655">
        <ele>664.89</ele>
        <time>2016-06-19T09:01:33Z</time>
      </trkpt>
      <trkpt lat="45.67749" lon="3.08656">
        <ele>664.89</ele>
        <time>2016-06-19T09:01:34Z</time>
      </trkpt>
      <trkpt lat="45.67749" lon="3.08658">
        <ele>664.89</ele>
        <time>2016-06-19T09:01:35Z</time>
      </trkpt>
      <trkpt lat="45.6775" lon="3.0866">
        <ele>665.37</ele>
        <time>2016-06-19T09:01:36Z</time>
      </trkpt>
      <trkpt lat="45.6775" lon="3.08662">
        <ele>665.85</ele>
        <time>2016-06-19T09:01:37Z</time>
      </trkpt>
      <trkpt lat="45.67751" lon="3.08664">
        <ele>665.85</ele>
        <time>2016-06-19T09:01:38Z</time>
      </trkpt>
      <trkpt lat="45.67752" lon="3.08666">
        <ele>665.85</ele>
        <time>2016-06-19T09:01:39Z</time>
      </trkpt>
      <trkpt lat="45.67753" lon="3.08667">
        <ele>665.85</ele>
        <time>2016-06-19T09:01:40Z</time>
      </trkpt>
      <trkpt lat="45.67754" lon="3.08669">
        <ele>666.33</ele>
        <time>2016-06-19T09:01:41Z</time>
      </trkpt>
      <trkpt lat="45.67755" lon="3.0867">
        <ele>666.81</ele>
        <time>2016-06-19T09:01:42Z</time>
      </trkpt>
      <trkpt lat="45.67759" lon="3.0869">
        <ele>668.73</ele>
        <time>2016-06-19T09:01:53Z</time>
      </trkpt>
      <trkpt lat="45.67764" lon="3.08705">
        <ele>670.66</ele>
        <time>2016-06-19T09:02:02Z</time>
      </trkpt>
      <trkpt lat="45.67767" lon="3.08712">
        <ele>673.06</ele>
        <time>2016-06-19T09:02:16Z</time>
      </trkpt>
      <trkpt lat="45.67768" lon="3.08712">
        <ele>673.06</ele>
        <time>2016-06-19T09:03:45Z</time>
      </trkpt>
      <trkpt lat="45.67776" lon="3.0872">
        <ele>675.46</ele>
        <time>2016-06-19T09:04:19Z</time>
      </trkpt>
      <trkpt lat="45.67785" lon="3.08728">
        <ele>677.39</ele>
        <time>2016-06-19T09:04:30Z</time>
      </trkpt>
      <trkpt lat="45.67794" lon="3.08743">
        <ele>679.79</ele>
        <time>2016-06-19T09:04:43Z</time>
      </trkpt>
      <trkpt lat="45.67794" lon="3.08744">
        <ele>679.31</ele>
        <time>2016-06-19T09:05:16Z</time>
      </trkpt>
      <trkpt lat="45.67797" lon="3.08752">
        <ele>681.23</ele>
        <time>2016-06-19T09:05:44Z</time>
      </trkpt>
      <trkpt lat="45.67797" lon="3.08758">
        <ele>681.71</ele>
        <time>2016-06-19T09:05:47Z</time>
      </trkpt>
      <trkpt lat="45.67798" lon="3.0876">
        <ele>681.71</ele>
        <time>2016-06-19T09:05:48Z</time>
      </trkpt>
      <trkpt lat="45.67798" lon="3.08762">
        <ele>681.71</ele>
        <time>2016-06-19T09:05:49Z</time>
      </trkpt>
      <trkpt lat="45.67803" lon="3.08789">
        <ele>684.6</ele>
        <time>2016-06-19T09:06:02Z</time>
      </trkpt>
      <trkpt lat="45.67809" lon="3.08809">
        <ele>686.52</ele>
        <time>2016-06-19T09:06:12Z</time>
      </trkpt>
      <trkpt lat="45.6781" lon="3.08811">
        <ele>687</ele>
        <time>2016-06-19T09:06:13Z</time>
      </trkpt>
      <trkpt lat="45.67815" lon="3.08827">
        <ele>689.4</ele>
        <time>2016-06-19T09:06:23Z</time>
      </trkpt>
      <trkpt lat="45.67817" lon="3.08836">
        <ele>690.84</ele>
        <time>2016-06-19T09:06:35Z</time>
      </trkpt>
      <trkpt lat="45.67832" lon="3.08837">
        <ele>693.73</ele>
        <time>2016-06-19T09:06:48Z</time>
      </trkpt>
      <trkpt lat="45.67843" lon="3.08833">
        <ele>696.61</ele>
        <time>2016-06-19T09:07:01Z</time>
      </trkpt>
      <trkpt lat="45.6785" lon="3.08826">
        <ele>698.05</ele>
        <time>2016-06-19T09:07:13Z</time>
      </trkpt>
      <trkpt lat="45.67853" lon="3.08825">
        <ele>698.53</ele>
        <time>2016-06-19T09:07:16Z</time>
      </trkpt>
      <trkpt lat="45.6786" lon="3.08823">
        <ele>699.98</ele>
        <time>2016-06-19T09:07:29Z</time>
      </trkpt>
      <trkpt lat="45.67875" lon="3.0882">
        <ele>700.94</ele>
        <time>2016-06-19T09:07:40Z</time>
      </trkpt>
      <trkpt lat="45.6792" lon="3.08829">
        <ele>698.53</ele>
        <time>2016-06-19T09:07:56Z</time>
      </trkpt>
      <trkpt lat="45.67959" lon="3.08838">
        <ele>697.09</ele>
        <time>2016-06-19T09:08:06Z</time>
      </trkpt>
      <trkpt lat="45.67987" lon="3.08852">
        <ele>696.13</ele>
        <time>2016-06-19T09:08:16Z</time>
      </trkpt>
      <trkpt lat="45.68038" lon="3.08878">
        <ele>694.21</ele>
        <time>2016-06-19T09:08:31Z</time>
      </trkpt>
      <trkpt lat="45.68076" lon="3.089">
        <ele>690.84</ele>
        <time>2016-06-19T09:08:42Z</time>
      </trkpt>
      <trkpt lat="45.68079" lon="3.08901">
        <ele>690.84</ele>
        <time>2016-06-19T09:08:43Z</time>
      </trkpt>
      <trkpt lat="45.68081" lon="3.089">
        <ele>691.33</ele>
        <time>2016-06-19T09:08:44Z</time>
      </trkpt>
      <trkpt lat="45.68083" lon="3.08899">
        <ele>690.84</ele>
        <time>2016-06-19T09:08:45Z</time>
      </trkpt>
      <trkpt lat="45.68085" lon="3.08896">
        <ele>690.84</ele>
        <time>2016-06-19T09:08:46Z</time>
      </trkpt>
      <trkpt lat="45.68086" lon="3.08893">
        <ele>690.84</ele>
        <time>2016-06-19T09:08:47Z</time>
      </trkpt>
      <trkpt lat="45.68087" lon="3.0889">
        <ele>690.36</ele>
        <time>2016-06-19T09:08:48Z</time>
      </trkpt>
      <trkpt lat="45.68088" lon="3.08887">
        <ele>690.36</ele>
        <time>2016-06-19T09:08:49Z</time>
      </trkpt>
      <trkpt lat="45.68089" lon="3.08883">
        <ele>690.36</ele>
        <time>2016-06-19T09:08:50Z</time>
      </trkpt>
      <trkpt lat="45.6809" lon="3.08879">
        <ele>690.36</ele>
        <time>2016-06-19T09:08:51Z</time>
      </trkpt>
      <trkpt lat="45.68091" lon="3.08875">
        <ele>690.84</ele>
        <time>2016-06-19T09:08:52Z</time>
      </trkpt>
      <trkpt lat="45.68091" lon="3.08871">
        <ele>690.84</ele>
        <time>2016-06-19T09:08:53Z</time>
      </trkpt>
      <trkpt lat="45.68092" lon="3.08867">
        <ele>690.84</ele>
        <time>2016-06-19T09:08:54Z</time>
      </trkpt>
      <trkpt lat="45.68093" lon="3.08864">
        <ele>690.36</ele>
        <time>2016-06-19T09:08:55Z</time>
      </trkpt>
      <trkpt lat="45.68112" lon="3.08805">
        <ele>691.81</ele>
        <time>2016-06-19T09:09:07Z</time>
      </trkpt>
      <trkpt lat="45.68132" lon="3.08767">
        <ele>695.17</ele>
        <time>2016-06-19T09:09:17Z</time>
      </trkpt>
      <trkpt lat="45.6814" lon="3.08735">
        <ele>697.57</ele>
        <time>2016-06-19T09:09:27Z</time>
      </trkpt>
      <trkpt lat="45.68146" lon="3.08701">
        <ele>699.98</ele>
        <time>2016-06-19T09:09:37Z</time>
      </trkpt>
      <trkpt lat="45.68154" lon="3.08668">
        <ele>701.9</ele>
        <time>2016-06-19T09:09:49Z</time>
      </trkpt>
      <trkpt lat="45.68165" lon="3.08642">
        <ele>703.82</ele>
        <time>2016-06-19T09:09:57Z</time>
      </trkpt>
      <trkpt lat="45.68166" lon="3.08639">
        <ele>704.78</ele>
        <time>2016-06-19T09:09:58Z</time>
      </trkpt>
      <trkpt lat="45.68173" lon="3.08599">
        <ele>706.23</ele>
        <time>2016-06-19T09:10:14Z</time>
      </trkpt>
      <trkpt lat="45.68173" lon="3.08597">
        <ele>706.71</ele>
        <time>2016-06-19T09:10:15Z</time>
      </trkpt>
      <trkpt lat="45.68173" lon="3.08594">
        <ele>707.19</ele>
        <time>2016-06-19T09:10:16Z</time>
      </trkpt>
      <trkpt lat="45.68172" lon="3.08581">
        <ele>707.67</ele>
        <time>2016-06-19T09:10:21Z</time>
      </trkpt>
      <trkpt lat="45.68173" lon="3.08578">
        <ele>707.19</ele>
        <time>2016-06-19T09:10:22Z</time>
      </trkpt>
      <trkpt lat="45.68173" lon="3.08575">
        <ele>707.67</ele>
        <time>2016-06-19T09:10:23Z</time>
      </trkpt>
      <trkpt lat="45.68173" lon="3.08572">
        <ele>708.15</ele>
        <time>2016-06-19T09:10:24Z</time>
      </trkpt>
      <trkpt lat="45.68174" lon="3.08569">
        <ele>708.15</ele>
        <time>2016-06-19T09:10:25Z</time>
      </trkpt>
      <trkpt lat="45.68175" lon="3.08566">
        <ele>708.15</ele>
        <time>2016-06-19T09:10:26Z</time>
      </trkpt>
      <trkpt lat="45.68176" lon="3.08563">
        <ele>709.11</ele>
        <time>2016-06-19T09:10:27Z</time>
      </trkpt>
      <trkpt lat="45.6819" lon="3.08531">
        <ele>709.59</ele>
        <time>2016-06-19T09:10:39Z</time>
      </trkpt>
      <trkpt lat="45.68204" lon="3.08488">
        <ele>711.99</ele>
        <time>2016-06-19T09:10:54Z</time>
      </trkpt>
      <trkpt lat="45.68207" lon="3.08449">
        <ele>712.95</ele>
        <time>2016-06-19T09:11:06Z</time>
      </trkpt>
      <trkpt lat="45.68215" lon="3.08398">
        <ele>713.44</ele>
        <time>2016-06-19T09:11:21Z</time>
      </trkpt>
      <trkpt lat="45.68234" lon="3.08351">
        <ele>715.36</ele>
        <time>2016-06-19T09:11:36Z</time>
      </trkpt>
      <trkpt lat="45.68261" lon="3.08297">
        <ele>717.28</ele>
        <time>2016-06-19T09:11:52Z</time>
      </trkpt>
      <trkpt lat="45.68278" lon="3.08247">
        <ele>718.24</ele>
        <time>2016-06-19T09:12:03Z</time>
      </trkpt>
      <trkpt lat="45.68286" lon="3.08183">
        <ele>718.24</ele>
        <time>2016-06-19T09:12:16Z</time>
      </trkpt>
      <trkpt lat="45.68301" lon="3.08131">
        <ele>720.16</ele>
        <time>2016-06-19T09:12:27Z</time>
      </trkpt>
      <trkpt lat="45.68318" lon="3.08076">
        <ele>719.68</ele>
        <time>2016-06-19T09:12:39Z</time>
      </trkpt>
      <trkpt lat="45.68329" lon="3.08028">
        <ele>721.61</ele>
        <time>2016-06-19T09:12:50Z</time>
      </trkpt>
      <trkpt lat="45.6833" lon="3.08024">
        <ele>721.13</ele>
        <time>2016-06-19T09:12:51Z</time>
      </trkpt>
      <trkpt lat="45.68331" lon="3.08019">
        <ele>721.13</ele>
        <time>2016-06-19T09:12:52Z</time>
      </trkpt>
      <trkpt lat="45.68341" lon="3.07971">
        <ele>721.61</ele>
        <time>2016-06-19T09:13:03Z</time>
      </trkpt>
      <trkpt lat="45.68345" lon="3.07927">
        <ele>721.61</ele>
        <time>2016-06-19T09:13:14Z</time>
      </trkpt>
      <trkpt lat="45.6835" lon="3.07876">
        <ele>721.13</ele>
        <time>2016-06-19T09:13:25Z</time>
      </trkpt>
      <trkpt lat="45.6835" lon="3.07869">
        <ele>721.13</ele>
        <time>2016-06-19T09:13:27Z</time>
      </trkpt>
      <trkpt lat="45.6835" lon="3.07866">
        <ele>721.13</ele>
        <time>2016-06-19T09:13:28Z</time>
      </trkpt>
      <trkpt lat="45.68353" lon="3.07849">
        <ele>721.13</ele>
        <time>2016-06-19T09:13:39Z</time>
      </trkpt>
      <trkpt lat="45.68359" lon="3.0781">
        <ele>722.57</ele>
        <time>2016-06-19T09:13:50Z</time>
      </trkpt>
      <trkpt lat="45.68361" lon="3.07787">
        <ele>722.09</ele>
        <time>2016-06-19T09:14:01Z</time>
      </trkpt>
      <trkpt lat="45.68367" lon="3.07744">
        <ele>722.57</ele>
        <time>2016-06-19T09:14:14Z</time>
      </trkpt>
      <trkpt lat="45.68375" lon="3.07678">
        <ele>724.01</ele>
        <time>2016-06-19T09:14:27Z</time>
      </trkpt>
      <trkpt lat="45.68382" lon="3.0763">
        <ele>724.97</ele>
        <time>2016-06-19T09:14:39Z</time>
      </trkpt>
      <trkpt lat="45.68385" lon="3.07609">
        <ele>724.49</ele>
        <time>2016-06-19T09:14:44Z</time>
      </trkpt>
      <trkpt lat="45.68385" lon="3.07608">
        <ele>724.49</ele>
        <time>2016-06-19T09:14:45Z</time>
      </trkpt>
      <trkpt lat="45.68386" lon="3.07607">
        <ele>724.49</ele>
        <time>2016-06-19T09:14:46Z</time>
      </trkpt>
      <trkpt lat="45.68389" lon="3.07608">
        <ele>724.49</ele>
        <time>2016-06-19T09:14:48Z</time>
      </trkpt>
      <trkpt lat="45.6839" lon="3.07609">
        <ele>724.97</ele>
        <time>2016-06-19T09:14:49Z</time>
      </trkpt>
      <trkpt lat="45.68392" lon="3.0761">
        <ele>723.53</ele>
        <time>2016-06-19T09:14:50Z</time>
      </trkpt>
      <trkpt lat="45.68433" lon="3.0762">
        <ele>721.13</ele>
        <time>2016-06-19T09:15:04Z</time>
      </trkpt>
      <trkpt lat="45.68456" lon="3.07626">
        <ele>718.72</ele>
        <time>2016-06-19T09:15:11Z</time>
      </trkpt>
      <trkpt lat="45.68483" lon="3.07636">
        <ele>715.36</ele>
        <time>2016-06-19T09:15:23Z</time>
      </trkpt>
      <trkpt lat="45.68507" lon="3.07643">
        <ele>712.95</ele>
        <time>2016-06-19T09:15:30Z</time>
      </trkpt>
      <trkpt lat="45.68512" lon="3.07643">
        <ele>712.47</ele>
        <time>2016-06-19T09:15:31Z</time>
      </trkpt>
      <trkpt lat="45.68516" lon="3.07643">
        <ele>711.99</ele>
        <time>2016-06-19T09:15:32Z</time>
      </trkpt>
      <trkpt lat="45.6852" lon="3.07642">
        <ele>711.51</ele>
        <time>2016-06-19T09:15:33Z</time>
      </trkpt>
      <trkpt lat="45.68523" lon="3.07639">
        <ele>710.55</ele>
        <time>2016-06-19T09:15:34Z</time>
      </trkpt>
      <trkpt lat="45.68526" lon="3.07635">
        <ele>710.07</ele>
        <time>2016-06-19T09:15:36Z</time>
      </trkpt>
      <trkpt lat="45.68528" lon="3.07631">
        <ele>709.11</ele>
        <time>2016-06-19T09:15:38Z</time>
      </trkpt>
      <trkpt lat="45.68536" lon="3.07617">
        <ele>707.19</ele>
        <time>2016-06-19T09:15:43Z</time>
      </trkpt>
      <trkpt lat="45.6854" lon="3.07604">
        <ele>705.26</ele>
        <time>2016-06-19T09:15:47Z</time>
      </trkpt>
      <trkpt lat="45.68542" lon="3.07601">
        <ele>704.78</ele>
        <time>2016-06-19T09:15:48Z</time>
      </trkpt>
      <trkpt lat="45.68543" lon="3.07597">
        <ele>704.78</ele>
        <time>2016-06-19T09:15:49Z</time>
      </trkpt>
      <trkpt lat="45.68544" lon="3.07594">
        <ele>704.78</ele>
        <time>2016-06-19T09:15:50Z</time>
      </trkpt>
      <trkpt lat="45.68546" lon="3.07591">
        <ele>704.3</ele>
        <time>2016-06-19T09:15:51Z</time>
      </trkpt>
      <trkpt lat="45.68553" lon="3.07575">
        <ele>702.38</ele>
        <time>2016-06-19T09:15:56Z</time>
      </trkpt>
      <trkpt lat="45.68555" lon="3.07574">
        <ele>701.9</ele>
        <time>2016-06-19T09:15:57Z</time>
      </trkpt>
      <trkpt lat="45.6856" lon="3.07568">
        <ele>701.42</ele>
        <time>2016-06-19T09:16:00Z</time>
      </trkpt>
      <trkpt lat="45.68561" lon="3.07566">
        <ele>700.94</ele>
        <time>2016-06-19T09:16:01Z</time>
      </trkpt>
      <trkpt lat="45.68562" lon="3.07563">
        <ele>700.94</ele>
        <time>2016-06-19T09:16:02Z</time>
      </trkpt>
      <trkpt lat="45.68564" lon="3.0756">
        <ele>700.46</ele>
        <time>2016-06-19T09:16:03Z</time>
      </trkpt>
      <trkpt lat="45.68566" lon="3.07556">
        <ele>699.98</ele>
        <time>2016-06-19T09:16:04Z</time>
      </trkpt>
      <trkpt lat="45.6857" lon="3.07553">
        <ele>699.5</ele>
        <time>2016-06-19T09:16:05Z</time>
      </trkpt>
      <trkpt lat="45.68575" lon="3.07545">
        <ele>699.5</ele>
        <time>2016-06-19T09:16:07Z</time>
      </trkpt>
      <trkpt lat="45.6858" lon="3.07531">
        <ele>699.02</ele>
        <time>2016-06-19T09:16:12Z</time>
      </trkpt>
      <trkpt lat="45.68581" lon="3.07528">
        <ele>699.02</ele>
        <time>2016-06-19T09:16:13Z</time>
      </trkpt>
      <trkpt lat="45.68582" lon="3.07525">
        <ele>699.02</ele>
        <time>2016-06-19T09:16:14Z</time>
      </trkpt>
      <trkpt lat="45.68583" lon="3.07522">
        <ele>699.02</ele>
        <time>2016-06-19T09:16:15Z</time>
      </trkpt>
      <trkpt lat="45.68582" lon="3.07517">
        <ele>699.5</ele>
        <time>2016-06-19T09:16:16Z</time>
      </trkpt>
      <trkpt lat="45.68581" lon="3.07513">
        <ele>699.98</ele>
        <time>2016-06-19T09:16:17Z</time>
      </trkpt>
      <trkpt lat="45.6858" lon="3.07511">
        <ele>700.94</ele>
        <time>2016-06-19T09:16:18Z</time>
      </trkpt>
      <trkpt lat="45.68577" lon="3.07473">
        <ele>704.3</ele>
        <time>2016-06-19T09:16:28Z</time>
      </trkpt>
      <trkpt lat="45.68577" lon="3.07466">
        <ele>704.78</ele>
        <time>2016-06-19T09:16:30Z</time>
      </trkpt>
      <trkpt lat="45.68576" lon="3.07463">
        <ele>704.78</ele>
        <time>2016-06-19T09:16:31Z</time>
      </trkpt>
      <trkpt lat="45.68576" lon="3.07459">
        <ele>704.78</ele>
        <time>2016-06-19T09:16:32Z</time>
      </trkpt>
      <trkpt lat="45.68576" lon="3.07456">
        <ele>705.26</ele>
        <time>2016-06-19T09:16:33Z</time>
      </trkpt>
      <trkpt lat="45.68576" lon="3.07452">
        <ele>705.75</ele>
        <time>2016-06-19T09:16:34Z</time>
      </trkpt>
      <trkpt lat="45.68576" lon="3.07449">
        <ele>705.26</ele>
        <time>2016-06-19T09:16:35Z</time>
      </trkpt>
      <trkpt lat="45.68578" lon="3.07432">
        <ele>706.71</ele>
        <time>2016-06-19T09:16:40Z</time>
      </trkpt>
      <trkpt lat="45.68583" lon="3.07391">
        <ele>708.63</ele>
        <time>2016-06-19T09:16:52Z</time>
      </trkpt>
      <trkpt lat="45.68594" lon="3.07341">
        <ele>710.07</ele>
        <time>2016-06-19T09:17:05Z</time>
      </trkpt>
      <trkpt lat="45.68608" lon="3.07301">
        <ele>711.03</ele>
        <time>2016-06-19T09:17:16Z</time>
      </trkpt>
      <trkpt lat="45.68634" lon="3.07274">
        <ele>713.44</ele>
        <time>2016-06-19T09:17:27Z</time>
      </trkpt>
      <trkpt lat="45.68647" lon="3.07244">
        <ele>715.84</ele>
        <time>2016-06-19T09:17:39Z</time>
      </trkpt>
      <trkpt lat="45.68663" lon="3.07203">
        <ele>718.24</ele>
        <time>2016-06-19T09:17:54Z</time>
      </trkpt>
      <trkpt lat="45.68692" lon="3.07153">
        <ele>719.68</ele>
        <time>2016-06-19T09:18:11Z</time>
      </trkpt>
      <trkpt lat="45.68714" lon="3.0712">
        <ele>718.24</ele>
        <time>2016-06-19T09:18:22Z</time>
      </trkpt>
      <trkpt lat="45.68716" lon="3.07119">
        <ele>717.28</ele>
        <time>2016-06-19T09:18:23Z</time>
      </trkpt>
      <trkpt lat="45.68718" lon="3.07116">
        <ele>716.8</ele>
        <time>2016-06-19T09:18:24Z</time>
      </trkpt>
      <trkpt lat="45.6872" lon="3.07114">
        <ele>716.8</ele>
        <time>2016-06-19T09:18:25Z</time>
      </trkpt>
      <trkpt lat="45.68721" lon="3.07111">
        <ele>716.32</ele>
        <time>2016-06-19T09:18:26Z</time>
      </trkpt>
      <trkpt lat="45.68723" lon="3.07109">
        <ele>715.84</ele>
        <time>2016-06-19T09:18:27Z</time>
      </trkpt>
      <trkpt lat="45.68724" lon="3.07107">
        <ele>714.4</ele>
        <time>2016-06-19T09:18:28Z</time>
      </trkpt>
      <trkpt lat="45.68726" lon="3.07105">
        <ele>713.44</ele>
        <time>2016-06-19T09:18:29Z</time>
      </trkpt>
      <trkpt lat="45.68734" lon="3.07096">
        <ele>711.03</ele>
        <time>2016-06-19T09:18:32Z</time>
      </trkpt>
      <trkpt lat="45.6875" lon="3.07079">
        <ele>708.15</ele>
        <time>2016-06-19T09:18:36Z</time>
      </trkpt>
      <trkpt lat="45.68754" lon="3.07074">
        <ele>707.67</ele>
        <time>2016-06-19T09:18:37Z</time>
      </trkpt>
      <trkpt lat="45.68758" lon="3.0707">
        <ele>706.71</ele>
        <time>2016-06-19T09:18:38Z</time>
      </trkpt>
      <trkpt lat="45.68766" lon="3.07062">
        <ele>705.75</ele>
        <time>2016-06-19T09:18:40Z</time>
      </trkpt>
      <trkpt lat="45.6877" lon="3.07059">
        <ele>705.26</ele>
        <time>2016-06-19T09:18:41Z</time>
      </trkpt>
      <trkpt lat="45.68774" lon="3.07054">
        <ele>704.3</ele>
        <time>2016-06-19T09:18:42Z</time>
      </trkpt>
      <trkpt lat="45.68777" lon="3.07049">
        <ele>702.86</ele>
        <time>2016-06-19T09:18:43Z</time>
      </trkpt>
      <trkpt lat="45.68781" lon="3.07042">
        <ele>701.9</ele>
        <time>2016-06-19T09:18:44Z</time>
      </trkpt>
      <trkpt lat="45.68785" lon="3.07034">
        <ele>701.42</ele>
        <time>2016-06-19T09:18:45Z</time>
      </trkpt>
      <trkpt lat="45.68789" lon="3.07026">
        <ele>700.94</ele>
        <time>2016-06-19T09:18:46Z</time>
      </trkpt>
      <trkpt lat="45.68796" lon="3.07012">
        <ele>699.98</ele>
        <time>2016-06-19T09:18:48Z</time>
      </trkpt>
      <trkpt lat="45.68798" lon="3.07003">
        <ele>699.02</ele>
        <time>2016-06-19T09:18:49Z</time>
      </trkpt>
      <trkpt lat="45.688" lon="3.06993">
        <ele>699.02</ele>
        <time>2016-06-19T09:18:50Z</time>
      </trkpt>
      <trkpt lat="45.68806" lon="3.06972">
        <ele>698.53</ele>
        <time>2016-06-19T09:18:52Z</time>
      </trkpt>
      <trkpt lat="45.68824" lon="3.0693">
        <ele>695.17</ele>
        <time>2016-06-19T09:18:58Z</time>
      </trkpt>
      <trkpt lat="45.68825" lon="3.06924">
        <ele>695.17</ele>
        <time>2016-06-19T09:18:59Z</time>
      </trkpt>
      <trkpt lat="45.68826" lon="3.06917">
        <ele>694.21</ele>
        <time>2016-06-19T09:19:00Z</time>
      </trkpt>
      <trkpt lat="45.68833" lon="3.06879">
        <ele>694.21</ele>
        <time>2016-06-19T09:19:09Z</time>
      </trkpt>
      <trkpt lat="45.68862" lon="3.06822">
        <ele>693.25</ele>
        <time>2016-06-19T09:19:20Z</time>
      </trkpt>
      <trkpt lat="45.68873" lon="3.06802">
        <ele>692.29</ele>
        <time>2016-06-19T09:19:24Z</time>
      </trkpt>
      <trkpt lat="45.68877" lon="3.06796">
        <ele>691.81</ele>
        <time>2016-06-19T09:19:25Z</time>
      </trkpt>
      <trkpt lat="45.68885" lon="3.06784">
        <ele>690.84</ele>
        <time>2016-06-19T09:19:27Z</time>
      </trkpt>
      <trkpt lat="45.68898" lon="3.06765">
        <ele>690.84</ele>
        <time>2016-06-19T09:19:30Z</time>
      </trkpt>
      <trkpt lat="45.68908" lon="3.06751">
        <ele>689.4</ele>
        <time>2016-06-19T09:19:32Z</time>
      </trkpt>
      <trkpt lat="45.68912" lon="3.06744">
        <ele>689.88</ele>
        <time>2016-06-19T09:19:33Z</time>
      </trkpt>
      <trkpt lat="45.68934" lon="3.0671">
        <ele>687.48</ele>
        <time>2016-06-19T09:19:38Z</time>
      </trkpt>
      <trkpt lat="45.68969" lon="3.06671">
        <ele>684.6</ele>
        <time>2016-06-19T09:19:46Z</time>
      </trkpt>
      <trkpt lat="45.68973" lon="3.06667">
        <ele>684.6</ele>
        <time>2016-06-19T09:19:47Z</time>
      </trkpt>
      <trkpt lat="45.68981" lon="3.06652">
        <ele>682.19</ele>
        <time>2016-06-19T09:19:51Z</time>
      </trkpt>
      <trkpt lat="45.68983" lon="3.06649">
        <ele>682.19</ele>
        <time>2016-06-19T09:19:53Z</time>
      </trkpt>
      <trkpt lat="45.68983" lon="3.06645">
        <ele>681.71</ele>
        <time>2016-06-19T09:19:54Z</time>
      </trkpt>
      <trkpt lat="45.68984" lon="3.06641">
        <ele>681.71</ele>
        <time>2016-06-19T09:19:55Z</time>
      </trkpt>
      <trkpt lat="45.68984" lon="3.06636">
        <ele>681.71</ele>
        <time>2016-06-19T09:19:56Z</time>
      </trkpt>
      <trkpt lat="45.68986" lon="3.0663">
        <ele>681.71</ele>
        <time>2016-06-19T09:19:57Z</time>
      </trkpt>
      <trkpt lat="45.68988" lon="3.06623">
        <ele>681.71</ele>
        <time>2016-06-19T09:19:58Z</time>
      </trkpt>
      <trkpt lat="45.68991" lon="3.06616">
        <ele>681.71</ele>
        <time>2016-06-19T09:19:59Z</time>
      </trkpt>
      <trkpt lat="45.68994" lon="3.06611">
        <ele>681.23</ele>
        <time>2016-06-19T09:20:00Z</time>
      </trkpt>
      <trkpt lat="45.68997" lon="3.06607">
        <ele>680.75</ele>
        <time>2016-06-19T09:20:01Z</time>
      </trkpt>
      <trkpt lat="45.69" lon="3.06603">
        <ele>681.23</ele>
        <time>2016-06-19T09:20:02Z</time>
      </trkpt>
      <trkpt lat="45.69002" lon="3.066">
        <ele>681.23</ele>
        <time>2016-06-19T09:20:03Z</time>
      </trkpt>
      <trkpt lat="45.69009" lon="3.06595">
        <ele>681.23</ele>
        <time>2016-06-19T09:20:05Z</time>
      </trkpt>
      <trkpt lat="45.69028" lon="3.0659">
        <ele>680.27</ele>
        <time>2016-06-19T09:20:09Z</time>
      </trkpt>
      <trkpt lat="45.69065" lon="3.06574">
        <ele>679.79</ele>
        <time>2016-06-19T09:20:19Z</time>
      </trkpt>
      <trkpt lat="45.69069" lon="3.0657">
        <ele>679.79</ele>
        <time>2016-06-19T09:20:20Z</time>
      </trkpt>
      <trkpt lat="45.69072" lon="3.06566">
        <ele>678.83</ele>
        <time>2016-06-19T09:20:21Z</time>
      </trkpt>
      <trkpt lat="45.69074" lon="3.06563">
        <ele>678.83</ele>
        <time>2016-06-19T09:20:22Z</time>
      </trkpt>
      <trkpt lat="45.69077" lon="3.0656">
        <ele>678.83</ele>
        <time>2016-06-19T09:20:23Z</time>
      </trkpt>
      <trkpt lat="45.69098" lon="3.06531">
        <ele>676.42</ele>
        <time>2016-06-19T09:20:34Z</time>
      </trkpt>
      <trkpt lat="45.6911" lon="3.0651">
        <ele>674.98</ele>
        <time>2016-06-19T09:20:43Z</time>
      </trkpt>
      <trkpt lat="45.69113" lon="3.06509">
        <ele>674.02</ele>
        <time>2016-06-19T09:20:45Z</time>
      </trkpt>
      <trkpt lat="45.69114" lon="3.06508">
        <ele>674.5</ele>
        <time>2016-06-19T09:20:46Z</time>
      </trkpt>
      <trkpt lat="45.69116" lon="3.06508">
        <ele>674.02</ele>
        <time>2016-06-19T09:20:47Z</time>
      </trkpt>
      <trkpt lat="45.69118" lon="3.06507">
        <ele>674.02</ele>
        <time>2016-06-19T09:20:48Z</time>
      </trkpt>
      <trkpt lat="45.69121" lon="3.06507">
        <ele>673.54</ele>
        <time>2016-06-19T09:20:49Z</time>
      </trkpt>
      <trkpt lat="45.69123" lon="3.06506">
        <ele>672.58</ele>
        <time>2016-06-19T09:20:50Z</time>
      </trkpt>
      <trkpt lat="45.69125" lon="3.06506">
        <ele>672.58</ele>
        <time>2016-06-19T09:20:51Z</time>
      </trkpt>
      <trkpt lat="45.69128" lon="3.06505">
        <ele>672.1</ele>
        <time>2016-06-19T09:20:52Z</time>
      </trkpt>
      <trkpt lat="45.69131" lon="3.06504">
        <ele>671.62</ele>
        <time>2016-06-19T09:20:53Z</time>
      </trkpt>
      <trkpt lat="45.69133" lon="3.06504">
        <ele>671.14</ele>
        <time>2016-06-19T09:20:54Z</time>
      </trkpt>
      <trkpt lat="45.69136" lon="3.06504">
        <ele>670.66</ele>
        <time>2016-06-19T09:20:55Z</time>
      </trkpt>
      <trkpt lat="45.69138" lon="3.06504">
        <ele>670.18</ele>
        <time>2016-06-19T09:20:56Z</time>
      </trkpt>
      <trkpt lat="45.69141" lon="3.06504">
        <ele>669.7</ele>
        <time>2016-06-19T09:20:57Z</time>
      </trkpt>
      <trkpt lat="45.69144" lon="3.06504">
        <ele>669.22</ele>
        <time>2016-06-19T09:20:58Z</time>
      </trkpt>
      <trkpt lat="45.69147" lon="3.06504">
        <ele>668.73</ele>
        <time>2016-06-19T09:20:59Z</time>
      </trkpt>
      <trkpt lat="45.69154" lon="3.06504">
        <ele>667.29</ele>
        <time>2016-06-19T09:21:02Z</time>
      </trkpt>
      <trkpt lat="45.69157" lon="3.06504">
        <ele>666.81</ele>
        <time>2016-06-19T09:21:03Z</time>
      </trkpt>
      <trkpt lat="45.69161" lon="3.06504">
        <ele>665.85</ele>
        <time>2016-06-19T09:21:04Z</time>
      </trkpt>
      <trkpt lat="45.69163" lon="3.06504">
        <ele>665.37</ele>
        <time>2016-06-19T09:21:05Z</time>
      </trkpt>
      <trkpt lat="45.69165" lon="3.06506">
        <ele>664.89</ele>
        <time>2016-06-19T09:21:06Z</time>
      </trkpt>
      <trkpt lat="45.69176" lon="3.0651">
        <ele>662.01</ele>
        <time>2016-06-19T09:21:10Z</time>
      </trkpt>
      <trkpt lat="45.69191" lon="3.06514">
        <ele>658.16</ele>
        <time>2016-06-19T09:21:14Z</time>
      </trkpt>
      <trkpt lat="45.69194" lon="3.06514">
        <ele>658.16</ele>
        <time>2016-06-19T09:21:15Z</time>
      </trkpt>
      <trkpt lat="45.69201" lon="3.06514">
        <ele>656.72</ele>
        <time>2016-06-19T09:21:17Z</time>
      </trkpt>
      <trkpt lat="45.69203" lon="3.06515">
        <ele>655.76</ele>
        <time>2016-06-19T09:21:18Z</time>
      </trkpt>
      <trkpt lat="45.6922" lon="3.06516">
        <ele>652.39</ele>
        <time>2016-06-19T09:21:24Z</time>
      </trkpt>
      <trkpt lat="45.69224" lon="3.06515">
        <ele>651.91</ele>
        <time>2016-06-19T09:21:25Z</time>
      </trkpt>
      <trkpt lat="45.69228" lon="3.06515">
        <ele>651.43</ele>
        <time>2016-06-19T09:21:26Z</time>
      </trkpt>
      <trkpt lat="45.69233" lon="3.06515">
        <ele>649.51</ele>
        <time>2016-06-19T09:21:28Z</time>
      </trkpt>
      <trkpt lat="45.69235" lon="3.06515">
        <ele>649.51</ele>
        <time>2016-06-19T09:21:29Z</time>
      </trkpt>
      <trkpt lat="45.69238" lon="3.06515">
        <ele>649.03</ele>
        <time>2016-06-19T09:21:30Z</time>
      </trkpt>
      <trkpt lat="45.6924" lon="3.06516">
        <ele>648.55</ele>
        <time>2016-06-19T09:21:31Z</time>
      </trkpt>
      <trkpt lat="45.69242" lon="3.06517">
        <ele>648.07</ele>
        <time>2016-06-19T09:21:32Z</time>
      </trkpt>
      <trkpt lat="45.69255" lon="3.06516">
        <ele>645.18</ele>
        <time>2016-06-19T09:21:40Z</time>
      </trkpt>
      <trkpt lat="45.69257" lon="3.06516">
        <ele>644.7</ele>
        <time>2016-06-19T09:21:41Z</time>
      </trkpt>
      <trkpt lat="45.69261" lon="3.06516">
        <ele>643.26</ele>
        <time>2016-06-19T09:21:50Z</time>
      </trkpt>
      <trkpt lat="45.69263" lon="3.06516">
        <ele>642.78</ele>
        <time>2016-06-19T09:21:51Z</time>
      </trkpt>
      <trkpt lat="45.69265" lon="3.06515">
        <ele>642.3</ele>
        <time>2016-06-19T09:21:52Z</time>
      </trkpt>
      <trkpt lat="45.69268" lon="3.06515">
        <ele>642.3</ele>
        <time>2016-06-19T09:21:53Z</time>
      </trkpt>
      <trkpt lat="45.69271" lon="3.06515">
        <ele>640.86</ele>
        <time>2016-06-19T09:21:54Z</time>
      </trkpt>
      <trkpt lat="45.69274" lon="3.06515">
        <ele>640.86</ele>
        <time>2016-06-19T09:21:55Z</time>
      </trkpt>
      <trkpt lat="45.69276" lon="3.06514">
        <ele>641.34</ele>
        <time>2016-06-19T09:21:56Z</time>
      </trkpt>
      <trkpt lat="45.69279" lon="3.06514">
        <ele>640.38</ele>
        <time>2016-06-19T09:21:57Z</time>
      </trkpt>
      <trkpt lat="45.69281" lon="3.06515">
        <ele>639.89</ele>
        <time>2016-06-19T09:21:58Z</time>
      </trkpt>
      <trkpt lat="45.69283" lon="3.06517">
        <ele>639.89</ele>
        <time>2016-06-19T09:21:59Z</time>
      </trkpt>
      <trkpt lat="45.69286" lon="3.06518">
        <ele>639.41</ele>
        <time>2016-06-19T09:22:00Z</time>
      </trkpt>
      <trkpt lat="45.69289" lon="3.06518">
        <ele>638.93</ele>
        <time>2016-06-19T09:22:01Z</time>
      </trkpt>
      <trkpt lat="45.69293" lon="3.06518">
        <ele>638.45</ele>
        <time>2016-06-19T09:22:02Z</time>
      </trkpt>
      <trkpt lat="45.69297" lon="3.06517">
        <ele>638.45</ele>
        <time>2016-06-19T09:22:03Z</time>
      </trkpt>
      <trkpt lat="45.69337" lon="3.065">
        <ele>635.09</ele>
        <time>2016-06-19T09:22:14Z</time>
      </trkpt>
      <trkpt lat="45.69339" lon="3.06498">
        <ele>635.09</ele>
        <time>2016-06-19T09:22:15Z</time>
      </trkpt>
      <trkpt lat="45.69348" lon="3.06487">
        <ele>631.72</ele>
        <time>2016-06-19T09:22:27Z</time>
      </trkpt>
      <trkpt lat="45.69353" lon="3.0648">
        <ele>628.84</ele>
        <time>2016-06-19T09:22:37Z</time>
      </trkpt>
      <trkpt lat="45.69363" lon="3.06473">
        <ele>625.96</ele>
        <time>2016-06-19T09:22:45Z</time>
      </trkpt>
      <trkpt lat="45.69365" lon="3.06471">
        <ele>625.47</ele>
        <time>2016-06-19T09:22:58Z</time>
      </trkpt>
      <trkpt lat="45.69371" lon="3.06463">
        <ele>623.55</ele>
        <time>2016-06-19T09:23:06Z</time>
      </trkpt>
      <trkpt lat="45.69377" lon="3.06448">
        <ele>621.15</ele>
        <time>2016-06-19T09:23:18Z</time>
      </trkpt>
      <trkpt lat="45.69381" lon="3.06439">
        <ele>619.71</ele>
        <time>2016-06-19T09:23:20Z</time>
      </trkpt>
      <trkpt lat="45.69393" lon="3.06415">
        <ele>618.26</ele>
        <time>2016-06-19T09:23:29Z</time>
      </trkpt>
      <trkpt lat="45.69394" lon="3.06413">
        <ele>617.3</ele>
        <time>2016-06-19T09:23:30Z</time>
      </trkpt>
      <trkpt lat="45.69396" lon="3.06411">
        <ele>617.3</ele>
        <time>2016-06-19T09:23:31Z</time>
      </trkpt>
      <trkpt lat="45.69397" lon="3.06409">
        <ele>616.82</ele>
        <time>2016-06-19T09:23:32Z</time>
      </trkpt>
      <trkpt lat="45.69398" lon="3.06408">
        <ele>616.34</ele>
        <time>2016-06-19T09:23:36Z</time>
      </trkpt>
      <trkpt lat="45.69397" lon="3.0641">
        <ele>616.34</ele>
        <time>2016-06-19T09:23:46Z</time>
      </trkpt>
      <trkpt lat="45.69397" lon="3.06411">
        <ele>616.34</ele>
        <time>2016-06-19T09:23:47Z</time>
      </trkpt>
      <trkpt lat="45.69398" lon="3.06414">
        <ele>615.38</ele>
        <time>2016-06-19T09:23:48Z</time>
      </trkpt>
      <trkpt lat="45.69399" lon="3.06417">
        <ele>615.86</ele>
        <time>2016-06-19T09:23:49Z</time>
      </trkpt>
      <trkpt lat="45.69399" lon="3.06419">
        <ele>615.86</ele>
        <time>2016-06-19T09:23:50Z</time>
      </trkpt>
      <trkpt lat="45.69399" lon="3.06422">
        <ele>614.9</ele>
        <time>2016-06-19T09:23:51Z</time>
      </trkpt>
      <trkpt lat="45.69399" lon="3.06426">
        <ele>614.9</ele>
        <time>2016-06-19T09:23:52Z</time>
      </trkpt>
      <trkpt lat="45.69399" lon="3.0643">
        <ele>614.9</ele>
        <time>2016-06-19T09:23:53Z</time>
      </trkpt>
      <trkpt lat="45.69398" lon="3.06435">
        <ele>613.94</ele>
        <time>2016-06-19T09:23:54Z</time>
      </trkpt>
      <trkpt lat="45.69399" lon="3.06439">
        <ele>613.46</ele>
        <time>2016-06-19T09:23:55Z</time>
      </trkpt>
      <trkpt lat="45.69399" lon="3.06442">
        <ele>612.98</ele>
        <time>2016-06-19T09:23:56Z</time>
      </trkpt>
      <trkpt lat="45.69401" lon="3.06446">
        <ele>612.5</ele>
        <time>2016-06-19T09:23:57Z</time>
      </trkpt>
      <trkpt lat="45.69403" lon="3.06449">
        <ele>612.02</ele>
        <time>2016-06-19T09:23:58Z</time>
      </trkpt>
      <trkpt lat="45.69405" lon="3.06452">
        <ele>611.54</ele>
        <time>2016-06-19T09:23:59Z</time>
      </trkpt>
      <trkpt lat="45.69406" lon="3.06456">
        <ele>611.06</ele>
        <time>2016-06-19T09:24:00Z</time>
      </trkpt>
      <trkpt lat="45.69407" lon="3.06461">
        <ele>610.09</ele>
        <time>2016-06-19T09:24:01Z</time>
      </trkpt>
      <trkpt lat="45.69407" lon="3.06465">
        <ele>609.61</ele>
        <time>2016-06-19T09:24:02Z</time>
      </trkpt>
      <trkpt lat="45.69409" lon="3.06469">
        <ele>609.61</ele>
        <time>2016-06-19T09:24:03Z</time>
      </trkpt>
      <trkpt lat="45.6941" lon="3.06473">
        <ele>609.13</ele>
        <time>2016-06-19T09:24:04Z</time>
      </trkpt>
      <trkpt lat="45.69411" lon="3.06478">
        <ele>608.65</ele>
        <time>2016-06-19T09:24:05Z</time>
      </trkpt>
      <trkpt lat="45.69413" lon="3.06482">
        <ele>607.69</ele>
        <time>2016-06-19T09:24:06Z</time>
      </trkpt>
      <trkpt lat="45.69413" lon="3.06488">
        <ele>607.69</ele>
        <time>2016-06-19T09:24:07Z</time>
      </trkpt>
      <trkpt lat="45.69414" lon="3.06495">
        <ele>606.73</ele>
        <time>2016-06-19T09:24:08Z</time>
      </trkpt>
      <trkpt lat="45.69414" lon="3.06501">
        <ele>606.25</ele>
        <time>2016-06-19T09:24:09Z</time>
      </trkpt>
      <trkpt lat="45.69414" lon="3.06506">
        <ele>605.77</ele>
        <time>2016-06-19T09:24:10Z</time>
      </trkpt>
      <trkpt lat="45.69416" lon="3.06529">
        <ele>603.85</ele>
        <time>2016-06-19T09:24:15Z</time>
      </trkpt>
      <trkpt lat="45.69418" lon="3.0654">
        <ele>602.88</ele>
        <time>2016-06-19T09:24:17Z</time>
      </trkpt>
      <trkpt lat="45.69417" lon="3.06547">
        <ele>602.4</ele>
        <time>2016-06-19T09:24:18Z</time>
      </trkpt>
      <trkpt lat="45.69416" lon="3.06553">
        <ele>601.92</ele>
        <time>2016-06-19T09:24:19Z</time>
      </trkpt>
      <trkpt lat="45.69415" lon="3.06558">
        <ele>601.92</ele>
        <time>2016-06-19T09:24:20Z</time>
      </trkpt>
      <trkpt lat="45.69414" lon="3.06562">
        <ele>601.92</ele>
        <time>2016-06-19T09:24:21Z</time>
      </trkpt>
      <trkpt lat="45.69414" lon="3.06573">
        <ele>600.48</ele>
        <time>2016-06-19T09:24:33Z</time>
      </trkpt>
      <trkpt lat="45.69415" lon="3.06583">
        <ele>598.56</ele>
        <time>2016-06-19T09:24:45Z</time>
      </trkpt>
      <trkpt lat="45.6942" lon="3.0659">
        <ele>598.56</ele>
        <time>2016-06-19T09:24:56Z</time>
      </trkpt>
      <trkpt lat="45.69421" lon="3.06602">
        <ele>597.12</ele>
        <time>2016-06-19T09:25:04Z</time>
      </trkpt>
      <trkpt lat="45.69421" lon="3.06606">
        <ele>597.12</ele>
        <time>2016-06-19T09:25:18Z</time>
      </trkpt>
      <trkpt lat="45.69421" lon="3.06606">
        <ele>597.12</ele>
        <time>2016-06-19T09:25:21Z</time>
      </trkpt>
      <trkpt lat="45.69422" lon="3.06608">
        <ele>597.6</ele>
        <time>2016-06-19T09:25:22Z</time>
      </trkpt>
      <trkpt lat="45.69423" lon="3.06611">
        <ele>597.6</ele>
        <time>2016-06-19T09:25:23Z</time>
      </trkpt>
      <trkpt lat="45.69423" lon="3.06614">
        <ele>597.6</ele>
        <time>2016-06-19T09:25:24Z</time>
      </trkpt>
      <trkpt lat="45.69424" lon="3.06618">
        <ele>597.6</ele>
        <time>2016-06-19T09:25:25Z</time>
      </trkpt>
      <trkpt lat="45.69425" lon="3.06621">
        <ele>598.08</ele>
        <time>2016-06-19T09:25:26Z</time>
      </trkpt>
      <trkpt lat="45.69428" lon="3.06625">
        <ele>598.08</ele>
        <time>2016-06-19T09:25:27Z</time>
      </trkpt>
      <trkpt lat="45.6943" lon="3.06628">
        <ele>598.08</ele>
        <time>2016-06-19T09:25:28Z</time>
      </trkpt>
      <trkpt lat="45.69433" lon="3.0663">
        <ele>598.56</ele>
        <time>2016-06-19T09:25:29Z</time>
      </trkpt>
      <trkpt lat="45.69436" lon="3.06632">
        <ele>598.56</ele>
        <time>2016-06-19T09:25:30Z</time>
      </trkpt>
      <trkpt lat="45.69465" lon="3.06644">
        <ele>600.48</ele>
        <time>2016-06-19T09:25:40Z</time>
      </trkpt>
      <trkpt lat="45.69488" lon="3.06649">
        <ele>601.92</ele>
        <time>2016-06-19T09:25:49Z</time>
      </trkpt>
      <trkpt lat="45.69492" lon="3.06654">
        <ele>601.92</ele>
        <time>2016-06-19T09:25:51Z</time>
      </trkpt>
      <trkpt lat="45.69494" lon="3.06658">
        <ele>601.92</ele>
        <time>2016-06-19T09:25:52Z</time>
      </trkpt>
      <trkpt lat="45.69494" lon="3.06662">
        <ele>601.44</ele>
        <time>2016-06-19T09:25:53Z</time>
      </trkpt>
      <trkpt lat="45.69495" lon="3.06667">
        <ele>601.92</ele>
        <time>2016-06-19T09:25:54Z</time>
      </trkpt>
      <trkpt lat="45.69495" lon="3.06672">
        <ele>602.4</ele>
        <time>2016-06-19T09:25:55Z</time>
      </trkpt>
      <trkpt lat="45.69494" lon="3.06683">
        <ele>601.92</ele>
        <time>2016-06-19T09:25:57Z</time>
      </trkpt>
      <trkpt lat="45.69492" lon="3.06688">
        <ele>601.92</ele>
        <time>2016-06-19T09:25:58Z</time>
      </trkpt>
      <trkpt lat="45.69459" lon="3.06796">
        <ele>599.52</ele>
        <time>2016-06-19T09:26:13Z</time>
      </trkpt>
      <trkpt lat="45.69433" lon="3.06861">
        <ele>598.08</ele>
        <time>2016-06-19T09:26:22Z</time>
      </trkpt>
      <trkpt lat="45.69426" lon="3.06882">
        <ele>598.08</ele>
        <time>2016-06-19T09:26:25Z</time>
      </trkpt>
      <trkpt lat="45.69424" lon="3.06889">
        <ele>598.08</ele>
        <time>2016-06-19T09:26:26Z</time>
      </trkpt>
      <trkpt lat="45.69418" lon="3.06963">
        <ele>598.08</ele>
        <time>2016-06-19T09:26:37Z</time>
      </trkpt>
      <trkpt lat="45.6942" lon="3.06967">
        <ele>598.08</ele>
        <time>2016-06-19T09:26:38Z</time>
      </trkpt>
      <trkpt lat="45.69421" lon="3.06969">
        <ele>598.56</ele>
        <time>2016-06-19T09:26:39Z</time>
      </trkpt>
      <trkpt lat="45.69421" lon="3.06972">
        <ele>598.08</ele>
        <time>2016-06-19T09:26:40Z</time>
      </trkpt>
      <trkpt lat="45.69419" lon="3.06975">
        <ele>598.56</ele>
        <time>2016-06-19T09:26:41Z</time>
      </trkpt>
      <trkpt lat="45.69417" lon="3.06978">
        <ele>598.56</ele>
        <time>2016-06-19T09:26:42Z</time>
      </trkpt>
      <trkpt lat="45.69414" lon="3.06982">
        <ele>598.08</ele>
        <time>2016-06-19T09:26:43Z</time>
      </trkpt>
      <trkpt lat="45.69411" lon="3.06987">
        <ele>598.56</ele>
        <time>2016-06-19T09:26:44Z</time>
      </trkpt>
      <trkpt lat="45.69409" lon="3.06994">
        <ele>597.6</ele>
        <time>2016-06-19T09:26:45Z</time>
      </trkpt>
      <trkpt lat="45.69406" lon="3.07001">
        <ele>597.6</ele>
        <time>2016-06-19T09:26:46Z</time>
      </trkpt>
      <trkpt lat="45.69403" lon="3.07009">
        <ele>597.12</ele>
        <time>2016-06-19T09:26:47Z</time>
      </trkpt>
      <trkpt lat="45.69396" lon="3.0707">
        <ele>594.23</ele>
        <time>2016-06-19T09:26:53Z</time>
      </trkpt>
      <trkpt lat="45.69398" lon="3.07156">
        <ele>591.35</ele>
        <time>2016-06-19T09:27:00Z</time>
      </trkpt>
      <trkpt lat="45.69398" lon="3.07169">
        <ele>590.87</ele>
        <time>2016-06-19T09:27:01Z</time>
      </trkpt>
      <trkpt lat="45.694" lon="3.07221">
        <ele>588.46</ele>
        <time>2016-06-19T09:27:05Z</time>
      </trkpt>
      <trkpt lat="45.69401" lon="3.07302">
        <ele>586.06</ele>
        <time>2016-06-19T09:27:11Z</time>
      </trkpt>
      <trkpt lat="45.69401" lon="3.07414">
        <ele>583.18</ele>
        <time>2016-06-19T09:27:20Z</time>
      </trkpt>
      <trkpt lat="45.69399" lon="3.07577">
        <ele>581.73</ele>
        <time>2016-06-19T09:27:36Z</time>
      </trkpt>
      <trkpt lat="45.69397" lon="3.07602">
        <ele>581.25</ele>
        <time>2016-06-19T09:27:39Z</time>
      </trkpt>
      <trkpt lat="45.69396" lon="3.07609">
        <ele>581.25</ele>
        <time>2016-06-19T09:27:40Z</time>
      </trkpt>
      <trkpt lat="45.69394" lon="3.07617">
        <ele>581.25</ele>
        <time>2016-06-19T09:27:41Z</time>
      </trkpt>
      <trkpt lat="45.69391" lon="3.07632">
        <ele>581.25</ele>
        <time>2016-06-19T09:27:43Z</time>
      </trkpt>
      <trkpt lat="45.69389" lon="3.07639">
        <ele>580.77</ele>
        <time>2016-06-19T09:27:44Z</time>
      </trkpt>
      <trkpt lat="45.69359" lon="3.07721">
        <ele>577.89</ele>
        <time>2016-06-19T09:27:54Z</time>
      </trkpt>
      <trkpt lat="45.6934" lon="3.07786">
        <ele>575.01</ele>
        <time>2016-06-19T09:28:00Z</time>
      </trkpt>
      <trkpt lat="45.69308" lon="3.07845">
        <ele>571.64</ele>
        <time>2016-06-19T09:28:06Z</time>
      </trkpt>
      <trkpt lat="45.69299" lon="3.07862">
        <ele>570.68</ele>
        <time>2016-06-19T09:28:08Z</time>
      </trkpt>
      <trkpt lat="45.69296" lon="3.0787">
        <ele>570.2</ele>
        <time>2016-06-19T09:28:09Z</time>
      </trkpt>
      <trkpt lat="45.69295" lon="3.07876">
        <ele>569.72</ele>
        <time>2016-06-19T09:28:10Z</time>
      </trkpt>
      <trkpt lat="45.69293" lon="3.07881">
        <ele>569.72</ele>
        <time>2016-06-19T09:28:11Z</time>
      </trkpt>
      <trkpt lat="45.69291" lon="3.07884">
        <ele>569.24</ele>
        <time>2016-06-19T09:28:12Z</time>
      </trkpt>
      <trkpt lat="45.69288" lon="3.07886">
        <ele>569.24</ele>
        <time>2016-06-19T09:28:13Z</time>
      </trkpt>
      <trkpt lat="45.69285" lon="3.07884">
        <ele>568.28</ele>
        <time>2016-06-19T09:28:14Z</time>
      </trkpt>
      <trkpt lat="45.69282" lon="3.0788">
        <ele>567.8</ele>
        <time>2016-06-19T09:28:15Z</time>
      </trkpt>
      <trkpt lat="45.6928" lon="3.07875">
        <ele>567.8</ele>
        <time>2016-06-19T09:28:16Z</time>
      </trkpt>
      <trkpt lat="45.69279" lon="3.07869">
        <ele>567.8</ele>
        <time>2016-06-19T09:28:17Z</time>
      </trkpt>
      <trkpt lat="45.69277" lon="3.07863">
        <ele>567.32</ele>
        <time>2016-06-19T09:28:18Z</time>
      </trkpt>
      <trkpt lat="45.69277" lon="3.07857">
        <ele>567.32</ele>
        <time>2016-06-19T09:28:19Z</time>
      </trkpt>
      <trkpt lat="45.69276" lon="3.0785">
        <ele>566.83</ele>
        <time>2016-06-19T09:28:20Z</time>
      </trkpt>
      <trkpt lat="45.69277" lon="3.07844">
        <ele>566.83</ele>
        <time>2016-06-19T09:28:21Z</time>
      </trkpt>
      <trkpt lat="45.69277" lon="3.07838">
        <ele>566.83</ele>
        <time>2016-06-19T09:28:22Z</time>
      </trkpt>
      <trkpt lat="45.69279" lon="3.07819">
        <ele>566.83</ele>
        <time>2016-06-19T09:28:25Z</time>
      </trkpt>
      <trkpt lat="45.69279" lon="3.07807">
        <ele>566.83</ele>
        <time>2016-06-19T09:28:27Z</time>
      </trkpt>
      <trkpt lat="45.69279" lon="3.07794">
        <ele>566.83</ele>
        <time>2016-06-19T09:28:29Z</time>
      </trkpt>
      <trkpt lat="45.6928" lon="3.07787">
        <ele>566.83</ele>
        <time>2016-06-19T09:28:30Z</time>
      </trkpt>
      <trkpt lat="45.6928" lon="3.0778">
        <ele>566.83</ele>
        <time>2016-06-19T09:28:31Z</time>
      </trkpt>
      <trkpt lat="45.6928" lon="3.07773">
        <ele>566.83</ele>
        <time>2016-06-19T09:28:32Z</time>
      </trkpt>
      <trkpt lat="45.69281" lon="3.07766">
        <ele>566.83</ele>
        <time>2016-06-19T09:28:33Z</time>
      </trkpt>
      <trkpt lat="45.69282" lon="3.07759">
        <ele>566.35</ele>
        <time>2016-06-19T09:28:34Z</time>
      </trkpt>
      <trkpt lat="45.69283" lon="3.07751">
        <ele>566.35</ele>
        <time>2016-06-19T09:28:35Z</time>
      </trkpt>
      <trkpt lat="45.69291" lon="3.07702">
        <ele>566.83</ele>
        <time>2016-06-19T09:28:42Z</time>
      </trkpt>
      <trkpt lat="45.69291" lon="3.07696">
        <ele>566.83</ele>
        <time>2016-06-19T09:28:43Z</time>
      </trkpt>
      <trkpt lat="45.69291" lon="3.0769">
        <ele>567.32</ele>
        <time>2016-06-19T09:28:44Z</time>
      </trkpt>
      <trkpt lat="45.69289" lon="3.07678">
        <ele>567.8</ele>
        <time>2016-06-19T09:28:46Z</time>
      </trkpt>
      <trkpt lat="45.69289" lon="3.07672">
        <ele>567.32</ele>
        <time>2016-06-19T09:28:47Z</time>
      </trkpt>
      <trkpt lat="45.69291" lon="3.07666">
        <ele>567.32</ele>
        <time>2016-06-19T09:28:48Z</time>
      </trkpt>
      <trkpt lat="45.69294" lon="3.0766">
        <ele>567.8</ele>
        <time>2016-06-19T09:28:49Z</time>
      </trkpt>
      <trkpt lat="45.69297" lon="3.07656">
        <ele>568.28</ele>
        <time>2016-06-19T09:28:50Z</time>
      </trkpt>
      <trkpt lat="45.693" lon="3.07651">
        <ele>568.76</ele>
        <time>2016-06-19T09:28:51Z</time>
      </trkpt>
      <trkpt lat="45.69305" lon="3.0764">
        <ele>570.2</ele>
        <time>2016-06-19T09:28:54Z</time>
      </trkpt>
      <trkpt lat="45.69307" lon="3.0763">
        <ele>571.64</ele>
        <time>2016-06-19T09:28:57Z</time>
      </trkpt>
      <trkpt lat="45.69306" lon="3.07627">
        <ele>571.64</ele>
        <time>2016-06-19T09:28:58Z</time>
      </trkpt>
      <trkpt lat="45.69305" lon="3.07625">
        <ele>571.64</ele>
        <time>2016-06-19T09:28:59Z</time>
      </trkpt>
      <trkpt lat="45.69303" lon="3.07624">
        <ele>572.12</ele>
        <time>2016-06-19T09:29:00Z</time>
      </trkpt>
      <trkpt lat="45.69301" lon="3.07623">
        <ele>572.12</ele>
        <time>2016-06-19T09:29:01Z</time>
      </trkpt>
      <trkpt lat="45.69299" lon="3.07623">
        <ele>572.12</ele>
        <time>2016-06-19T09:29:02Z</time>
      </trkpt>
      <trkpt lat="45.69297" lon="3.07623">
        <ele>572.6</ele>
        <time>2016-06-19T09:29:03Z</time>
      </trkpt>
      <trkpt lat="45.6929" lon="3.07623">
        <ele>572.6</ele>
        <time>2016-06-19T09:29:07Z</time>
      </trkpt>
      <trkpt lat="45.69289" lon="3.07624">
        <ele>572.6</ele>
        <time>2016-06-19T09:29:08Z</time>
      </trkpt>
      <trkpt lat="45.69288" lon="3.07623">
        <ele>572.12</ele>
        <time>2016-06-19T09:29:16Z</time>
      </trkpt>
      <trkpt lat="45.69288" lon="3.07622">
        <ele>571.64</ele>
        <time>2016-06-19T09:29:36Z</time>
      </trkpt>
      <trkpt lat="45.69288" lon="3.0762">
        <ele>573.56</ele>
        <time>2016-06-19T09:32:48Z</time>
      </trkpt>
      <trkpt lat="45.69289" lon="3.0762">
        <ele>572.6</ele>
        <time>2016-06-19T09:35:08Z</time>
      </trkpt>
      <trkpt lat="45.69291" lon="3.0762">
        <ele>573.08</ele>
        <time>2016-06-19T09:35:11Z</time>
      </trkpt>
      <trkpt lat="45.69295" lon="3.0762">
        <ele>574.04</ele>
        <time>2016-06-19T09:35:25Z</time>
      </trkpt>
      <trkpt lat="45.69295" lon="3.0762">
        <ele>573.56</ele>
        <time>2016-06-19T09:35:41Z</time>
      </trkpt>
      <trkpt lat="45.69301" lon="3.07619">
        <ele>573.56</ele>
        <time>2016-06-19T09:35:46Z</time>
      </trkpt>
      <trkpt lat="45.69306" lon="3.0763">
        <ele>573.08</ele>
        <time>2016-06-19T09:35:50Z</time>
      </trkpt>
      <trkpt lat="45.69305" lon="3.07637">
        <ele>573.08</ele>
        <time>2016-06-19T09:35:51Z</time>
      </trkpt>
      <trkpt lat="45.69302" lon="3.07644">
        <ele>572.12</ele>
        <time>2016-06-19T09:35:52Z</time>
      </trkpt>
      <trkpt lat="45.69296" lon="3.07661">
        <ele>570.2</ele>
        <time>2016-06-19T09:35:54Z</time>
      </trkpt>
      <trkpt lat="45.69295" lon="3.0767">
        <ele>569.24</ele>
        <time>2016-06-19T09:35:55Z</time>
      </trkpt>
      <trkpt lat="45.69294" lon="3.0768">
        <ele>569.24</ele>
        <time>2016-06-19T09:35:56Z</time>
      </trkpt>
      <trkpt lat="45.69294" lon="3.07707">
        <ele>567.8</ele>
        <time>2016-06-19T09:35:59Z</time>
      </trkpt>
      <trkpt lat="45.69292" lon="3.07717">
        <ele>567.8</ele>
        <time>2016-06-19T09:36:00Z</time>
      </trkpt>
      <trkpt lat="45.69287" lon="3.07734">
        <ele>567.8</ele>
        <time>2016-06-19T09:36:02Z</time>
      </trkpt>
      <trkpt lat="45.69285" lon="3.07741">
        <ele>567.8</ele>
        <time>2016-06-19T09:36:03Z</time>
      </trkpt>
      <trkpt lat="45.69279" lon="3.07763">
        <ele>567.32</ele>
        <time>2016-06-19T09:36:06Z</time>
      </trkpt>
      <trkpt lat="45.69278" lon="3.07769">
        <ele>567.32</ele>
        <time>2016-06-19T09:36:07Z</time>
      </trkpt>
      <trkpt lat="45.69277" lon="3.07776">
        <ele>567.8</ele>
        <time>2016-06-19T09:36:08Z</time>
      </trkpt>
      <trkpt lat="45.69277" lon="3.07782">
        <ele>567.8</ele>
        <time>2016-06-19T09:36:09Z</time>
      </trkpt>
      <trkpt lat="45.69277" lon="3.07789">
        <ele>567.8</ele>
        <time>2016-06-19T09:36:10Z</time>
      </trkpt>
      <trkpt lat="45.69276" lon="3.07796">
        <ele>568.28</ele>
        <time>2016-06-19T09:36:11Z</time>
      </trkpt>
      <trkpt lat="45.69276" lon="3.07819">
        <ele>568.28</ele>
        <time>2016-06-19T09:36:14Z</time>
      </trkpt>
      <trkpt lat="45.69274" lon="3.07849">
        <ele>568.28</ele>
        <time>2016-06-19T09:36:18Z</time>
      </trkpt>
      <trkpt lat="45.69274" lon="3.07856">
        <ele>568.28</ele>
        <time>2016-06-19T09:36:19Z</time>
      </trkpt>
      <trkpt lat="45.69274" lon="3.07863">
        <ele>568.76</ele>
        <time>2016-06-19T09:36:20Z</time>
      </trkpt>
      <trkpt lat="45.69275" lon="3.07869">
        <ele>568.76</ele>
        <time>2016-06-19T09:36:21Z</time>
      </trkpt>
      <trkpt lat="45.69277" lon="3.07875">
        <ele>568.28</ele>
        <time>2016-06-19T09:36:22Z</time>
      </trkpt>
      <trkpt lat="45.6928" lon="3.0788">
        <ele>569.24</ele>
        <time>2016-06-19T09:36:23Z</time>
      </trkpt>
      <trkpt lat="45.69283" lon="3.07884">
        <ele>569.24</ele>
        <time>2016-06-19T09:36:24Z</time>
      </trkpt>
      <trkpt lat="45.69286" lon="3.07886">
        <ele>569.72</ele>
        <time>2016-06-19T09:36:25Z</time>
      </trkpt>
      <trkpt lat="45.69289" lon="3.07886">
        <ele>569.72</ele>
        <time>2016-06-19T09:36:26Z</time>
      </trkpt>
      <trkpt lat="45.69292" lon="3.07883">
        <ele>570.68</ele>
        <time>2016-06-19T09:36:27Z</time>
      </trkpt>
      <trkpt lat="45.69294" lon="3.07879">
        <ele>570.68</ele>
        <time>2016-06-19T09:36:28Z</time>
      </trkpt>
      <trkpt lat="45.69319" lon="3.07833">
        <ele>573.56</ele>
        <time>2016-06-19T09:36:40Z</time>
      </trkpt>
      <trkpt lat="45.69345" lon="3.07782">
        <ele>575.97</ele>
        <time>2016-06-19T09:36:52Z</time>
      </trkpt>
      <trkpt lat="45.69365" lon="3.07715">
        <ele>578.85</ele>
        <time>2016-06-19T09:37:07Z</time>
      </trkpt>
      <trkpt lat="45.69387" lon="3.07656">
        <ele>582.22</ele>
        <time>2016-06-19T09:37:22Z</time>
      </trkpt>
      <trkpt lat="45.69393" lon="3.07642">
        <ele>582.7</ele>
        <time>2016-06-19T09:37:26Z</time>
      </trkpt>
      <trkpt lat="45.69396" lon="3.07641">
        <ele>582.7</ele>
        <time>2016-06-19T09:37:27Z</time>
      </trkpt>
      <trkpt lat="45.69398" lon="3.07641">
        <ele>583.18</ele>
        <time>2016-06-19T09:37:28Z</time>
      </trkpt>
      <trkpt lat="45.69403" lon="3.07642">
        <ele>583.66</ele>
        <time>2016-06-19T09:37:30Z</time>
      </trkpt>
      <trkpt lat="45.69404" lon="3.07643">
        <ele>584.14</ele>
        <time>2016-06-19T09:37:31Z</time>
      </trkpt>
      <trkpt lat="45.69406" lon="3.07643">
        <ele>584.14</ele>
        <time>2016-06-19T09:37:32Z</time>
      </trkpt>
      <trkpt lat="45.69436" lon="3.07657">
        <ele>587.02</ele>
        <time>2016-06-19T09:37:46Z</time>
      </trkpt>
      <trkpt lat="45.69456" lon="3.0767">
        <ele>590.87</ele>
        <time>2016-06-19T09:37:57Z</time>
      </trkpt>
      <trkpt lat="45.69475" lon="3.0768">
        <ele>593.75</ele>
        <time>2016-06-19T09:38:10Z</time>
      </trkpt>
      <trkpt lat="45.69488" lon="3.07689">
        <ele>594.71</ele>
        <time>2016-06-19T09:38:19Z</time>
      </trkpt>
      <trkpt lat="45.6951" lon="3.07704">
        <ele>598.08</ele>
        <time>2016-06-19T09:38:33Z</time>
      </trkpt>
      <trkpt lat="45.69531" lon="3.07717">
        <ele>600</ele>
        <time>2016-06-19T09:38:48Z</time>
      </trkpt>
      <trkpt lat="45.69546" lon="3.07728">
        <ele>603.36</ele>
        <time>2016-06-19T09:39:00Z</time>
      </trkpt>
      <trkpt lat="45.69553" lon="3.07734">
        <ele>603.85</ele>
        <time>2016-06-19T09:39:06Z</time>
      </trkpt>
      <trkpt lat="45.69554" lon="3.07735">
        <ele>603.85</ele>
        <time>2016-06-19T09:39:07Z</time>
      </trkpt>
      <trkpt lat="45.69555" lon="3.07735">
        <ele>604.33</ele>
        <time>2016-06-19T09:39:08Z</time>
      </trkpt>
      <trkpt lat="45.69557" lon="3.07736">
        <ele>603.85</ele>
        <time>2016-06-19T09:39:09Z</time>
      </trkpt>
      <trkpt lat="45.69558" lon="3.07737">
        <ele>603.85</ele>
        <time>2016-06-19T09:39:10Z</time>
      </trkpt>
      <trkpt lat="45.69559" lon="3.07738">
        <ele>604.33</ele>
        <time>2016-06-19T09:39:11Z</time>
      </trkpt>
      <trkpt lat="45.6956" lon="3.07738">
        <ele>604.81</ele>
        <time>2016-06-19T09:39:12Z</time>
      </trkpt>
      <trkpt lat="45.69561" lon="3.07739">
        <ele>605.29</ele>
        <time>2016-06-19T09:39:13Z</time>
      </trkpt>
      <trkpt lat="45.69563" lon="3.0774">
        <ele>605.29</ele>
        <time>2016-06-19T09:39:14Z</time>
      </trkpt>
      <trkpt lat="45.69564" lon="3.07741">
        <ele>605.29</ele>
        <time>2016-06-19T09:39:15Z</time>
      </trkpt>
      <trkpt lat="45.69565" lon="3.07742">
        <ele>605.29</ele>
        <time>2016-06-19T09:39:16Z</time>
      </trkpt>
      <trkpt lat="45.69566" lon="3.07743">
        <ele>605.29</ele>
        <time>2016-06-19T09:39:17Z</time>
      </trkpt>
      <trkpt lat="45.69567" lon="3.07743">
        <ele>605.77</ele>
        <time>2016-06-19T09:39:18Z</time>
      </trkpt>
      <trkpt lat="45.69568" lon="3.07744">
        <ele>605.77</ele>
        <time>2016-06-19T09:39:19Z</time>
      </trkpt>
      <trkpt lat="45.6957" lon="3.07745">
        <ele>606.25</ele>
        <time>2016-06-19T09:39:20Z</time>
      </trkpt>
      <trkpt lat="45.69571" lon="3.07746">
        <ele>606.25</ele>
        <time>2016-06-19T09:39:21Z</time>
      </trkpt>
      <trkpt lat="45.69572" lon="3.07747">
        <ele>606.25</ele>
        <time>2016-06-19T09:39:22Z</time>
      </trkpt>
      <trkpt lat="45.69574" lon="3.07748">
        <ele>606.73</ele>
        <time>2016-06-19T09:39:23Z</time>
      </trkpt>
      <trkpt lat="45.69575" lon="3.07749">
        <ele>606.73</ele>
        <time>2016-06-19T09:39:24Z</time>
      </trkpt>
      <trkpt lat="45.69576" lon="3.0775">
        <ele>606.73</ele>
        <time>2016-06-19T09:39:25Z</time>
      </trkpt>
      <trkpt lat="45.69577" lon="3.0775">
        <ele>607.21</ele>
        <time>2016-06-19T09:39:26Z</time>
      </trkpt>
      <trkpt lat="45.69579" lon="3.07751">
        <ele>607.21</ele>
        <time>2016-06-19T09:39:27Z</time>
      </trkpt>
      <trkpt lat="45.69598" lon="3.07764">
        <ele>610.09</ele>
        <time>2016-06-19T09:39:41Z</time>
      </trkpt>
      <trkpt lat="45.69608" lon="3.0777">
        <ele>611.54</ele>
        <time>2016-06-19T09:39:50Z</time>
      </trkpt>
      <trkpt lat="45.69609" lon="3.07772">
        <ele>611.54</ele>
        <time>2016-06-19T09:39:51Z</time>
      </trkpt>
      <trkpt lat="45.6961" lon="3.07773">
        <ele>612.02</ele>
        <time>2016-06-19T09:39:52Z</time>
      </trkpt>
      <trkpt lat="45.69612" lon="3.07774">
        <ele>612.5</ele>
        <time>2016-06-19T09:39:53Z</time>
      </trkpt>
      <trkpt lat="45.69613" lon="3.07775">
        <ele>613.46</ele>
        <time>2016-06-19T09:39:54Z</time>
      </trkpt>
      <trkpt lat="45.69614" lon="3.07776">
        <ele>612.98</ele>
        <time>2016-06-19T09:39:55Z</time>
      </trkpt>
      <trkpt lat="45.69615" lon="3.07777">
        <ele>612.98</ele>
        <time>2016-06-19T09:39:56Z</time>
      </trkpt>
      <trkpt lat="45.69619" lon="3.07781">
        <ele>614.42</ele>
        <time>2016-06-19T09:40:06Z</time>
      </trkpt>
      <trkpt lat="45.6962" lon="3.07782">
        <ele>614.42</ele>
        <time>2016-06-19T09:40:07Z</time>
      </trkpt>
      <trkpt lat="45.69622" lon="3.07783">
        <ele>614.42</ele>
        <time>2016-06-19T09:40:09Z</time>
      </trkpt>
      <trkpt lat="45.69623" lon="3.07783">
        <ele>614.9</ele>
        <time>2016-06-19T09:40:10Z</time>
      </trkpt>
      <trkpt lat="45.69642" lon="3.07795">
        <ele>618.26</ele>
        <time>2016-06-19T09:40:25Z</time>
      </trkpt>
      <trkpt lat="45.69653" lon="3.07803">
        <ele>619.71</ele>
        <time>2016-06-19T09:40:34Z</time>
      </trkpt>
      <trkpt lat="45.69654" lon="3.07803">
        <ele>620.19</ele>
        <time>2016-06-19T09:40:35Z</time>
      </trkpt>
      <trkpt lat="45.6966" lon="3.07808">
        <ele>621.15</ele>
        <time>2016-06-19T09:40:45Z</time>
      </trkpt>
      <trkpt lat="45.69675" lon="3.07817">
        <ele>624.51</ele>
        <time>2016-06-19T09:40:59Z</time>
      </trkpt>
      <trkpt lat="45.69693" lon="3.07827">
        <ele>626.92</ele>
        <time>2016-06-19T09:41:14Z</time>
      </trkpt>
      <trkpt lat="45.69694" lon="3.07828">
        <ele>626.92</ele>
        <time>2016-06-19T09:41:15Z</time>
      </trkpt>
      <trkpt lat="45.69695" lon="3.07828">
        <ele>626.92</ele>
        <time>2016-06-19T09:41:16Z</time>
      </trkpt>
      <trkpt lat="45.69696" lon="3.07829">
        <ele>627.4</ele>
        <time>2016-06-19T09:41:17Z</time>
      </trkpt>
      <trkpt lat="45.69697" lon="3.0783">
        <ele>627.4</ele>
        <time>2016-06-19T09:41:18Z</time>
      </trkpt>
      <trkpt lat="45.6971" lon="3.07835">
        <ele>629.8</ele>
        <time>2016-06-19T09:41:29Z</time>
      </trkpt>
      <trkpt lat="45.69718" lon="3.07839">
        <ele>631.24</ele>
        <time>2016-06-19T09:41:35Z</time>
      </trkpt>
      <trkpt lat="45.69727" lon="3.07844">
        <ele>632.68</ele>
        <time>2016-06-19T09:41:43Z</time>
      </trkpt>
      <trkpt lat="45.69728" lon="3.07845">
        <ele>633.17</ele>
        <time>2016-06-19T09:41:44Z</time>
      </trkpt>
      <trkpt lat="45.69729" lon="3.07846">
        <ele>633.17</ele>
        <time>2016-06-19T09:41:45Z</time>
      </trkpt>
      <trkpt lat="45.6973" lon="3.07847">
        <ele>633.17</ele>
        <time>2016-06-19T09:41:46Z</time>
      </trkpt>
      <trkpt lat="45.69731" lon="3.07848">
        <ele>633.17</ele>
        <time>2016-06-19T09:41:47Z</time>
      </trkpt>
      <trkpt lat="45.69733" lon="3.07849">
        <ele>633.65</ele>
        <time>2016-06-19T09:41:48Z</time>
      </trkpt>
      <trkpt lat="45.69734" lon="3.0785">
        <ele>634.13</ele>
        <time>2016-06-19T09:41:49Z</time>
      </trkpt>
      <trkpt lat="45.69735" lon="3.07851">
        <ele>634.13</ele>
        <time>2016-06-19T09:41:50Z</time>
      </trkpt>
      <trkpt lat="45.69736" lon="3.07852">
        <ele>634.13</ele>
        <time>2016-06-19T09:41:51Z</time>
      </trkpt>
      <trkpt lat="45.69753" lon="3.07862">
        <ele>637.01</ele>
        <time>2016-06-19T09:42:05Z</time>
      </trkpt>
      <trkpt lat="45.69767" lon="3.07875">
        <ele>639.41</ele>
        <time>2016-06-19T09:42:18Z</time>
      </trkpt>
      <trkpt lat="45.69768" lon="3.07876">
        <ele>639.41</ele>
        <time>2016-06-19T09:42:19Z</time>
      </trkpt>
      <trkpt lat="45.69768" lon="3.07878">
        <ele>639.89</ele>
        <time>2016-06-19T09:42:20Z</time>
      </trkpt>
      <trkpt lat="45.69769" lon="3.0788">
        <ele>640.86</ele>
        <time>2016-06-19T09:42:21Z</time>
      </trkpt>
      <trkpt lat="45.6977" lon="3.07881">
        <ele>640.86</ele>
        <time>2016-06-19T09:42:22Z</time>
      </trkpt>
      <trkpt lat="45.69777" lon="3.07897">
        <ele>642.78</ele>
        <time>2016-06-19T09:42:34Z</time>
      </trkpt>
      <trkpt lat="45.69784" lon="3.0791">
        <ele>645.66</ele>
        <time>2016-06-19T09:42:44Z</time>
      </trkpt>
      <trkpt lat="45.69785" lon="3.07912">
        <ele>645.66</ele>
        <time>2016-06-19T09:42:46Z</time>
      </trkpt>
      <trkpt lat="45.69786" lon="3.07914">
        <ele>645.66</ele>
        <time>2016-06-19T09:42:47Z</time>
      </trkpt>
      <trkpt lat="45.69789" lon="3.07919">
        <ele>647.1</ele>
        <time>2016-06-19T09:42:51Z</time>
      </trkpt>
      <trkpt lat="45.6979" lon="3.07921">
        <ele>646.62</ele>
        <time>2016-06-19T09:42:52Z</time>
      </trkpt>
      <trkpt lat="45.69791" lon="3.07923">
        <ele>646.62</ele>
        <time>2016-06-19T09:42:53Z</time>
      </trkpt>
      <trkpt lat="45.69792" lon="3.07924">
        <ele>647.1</ele>
        <time>2016-06-19T09:42:54Z</time>
      </trkpt>
      <trkpt lat="45.69794" lon="3.07926">
        <ele>646.62</ele>
        <time>2016-06-19T09:42:55Z</time>
      </trkpt>
      <trkpt lat="45.69808" lon="3.07942">
        <ele>649.99</ele>
        <time>2016-06-19T09:43:08Z</time>
      </trkpt>
      <trkpt lat="45.69815" lon="3.07951">
        <ele>651.43</ele>
        <time>2016-06-19T09:43:15Z</time>
      </trkpt>
      <trkpt lat="45.69816" lon="3.07952">
        <ele>651.43</ele>
        <time>2016-06-19T09:43:16Z</time>
      </trkpt>
      <trkpt lat="45.69817" lon="3.07954">
        <ele>651.91</ele>
        <time>2016-06-19T09:43:17Z</time>
      </trkpt>
      <trkpt lat="45.69825" lon="3.07965">
        <ele>652.87</ele>
        <time>2016-06-19T09:43:25Z</time>
      </trkpt>
      <trkpt lat="45.69826" lon="3.07967">
        <ele>652.87</ele>
        <time>2016-06-19T09:43:26Z</time>
      </trkpt>
      <trkpt lat="45.69827" lon="3.07968">
        <ele>653.35</ele>
        <time>2016-06-19T09:43:27Z</time>
      </trkpt>
      <trkpt lat="45.69828" lon="3.0797">
        <ele>653.35</ele>
        <time>2016-06-19T09:43:28Z</time>
      </trkpt>
      <trkpt lat="45.69829" lon="3.07971">
        <ele>653.35</ele>
        <time>2016-06-19T09:43:29Z</time>
      </trkpt>
      <trkpt lat="45.69843" lon="3.07993">
        <ele>655.76</ele>
        <time>2016-06-19T09:43:42Z</time>
      </trkpt>
      <trkpt lat="45.6985" lon="3.08001">
        <ele>656.72</ele>
        <time>2016-06-19T09:43:48Z</time>
      </trkpt>
      <trkpt lat="45.69855" lon="3.08016">
        <ele>659.12</ele>
        <time>2016-06-19T09:43:57Z</time>
      </trkpt>
      <trkpt lat="45.69865" lon="3.08042">
        <ele>661.04</ele>
        <time>2016-06-19T09:44:12Z</time>
      </trkpt>
      <trkpt lat="45.6986" lon="3.08076">
        <ele>661.52</ele>
        <time>2016-06-19T09:44:24Z</time>
      </trkpt>
      <trkpt lat="45.69851" lon="3.08106">
        <ele>663.45</ele>
        <time>2016-06-19T09:44:35Z</time>
      </trkpt>
      <trkpt lat="45.69835" lon="3.08162">
        <ele>664.41</ele>
        <time>2016-06-19T09:44:52Z</time>
      </trkpt>
      <trkpt lat="45.69823" lon="3.08218">
        <ele>663.93</ele>
        <time>2016-06-19T09:45:07Z</time>
      </trkpt>
      <trkpt lat="45.69815" lon="3.08268">
        <ele>663.93</ele>
        <time>2016-06-19T09:45:20Z</time>
      </trkpt>
      <trkpt lat="45.69817" lon="3.08268">
        <ele>662.97</ele>
        <time>2016-06-19T09:45:29Z</time>
      </trkpt>
      <trkpt lat="45.69813" lon="3.0829">
        <ele>663.45</ele>
        <time>2016-06-19T09:46:58Z</time>
      </trkpt>
      <trkpt lat="45.69806" lon="3.08365">
        <ele>660.08</ele>
        <time>2016-06-19T09:47:12Z</time>
      </trkpt>
      <trkpt lat="45.69803" lon="3.08414">
        <ele>658.64</ele>
        <time>2016-06-19T09:47:21Z</time>
      </trkpt>
      <trkpt lat="45.69802" lon="3.08451">
        <ele>654.8</ele>
        <time>2016-06-19T09:47:28Z</time>
      </trkpt>
      <trkpt lat="45.69801" lon="3.08456">
        <ele>654.31</ele>
        <time>2016-06-19T09:47:29Z</time>
      </trkpt>
      <trkpt lat="45.69801" lon="3.08463">
        <ele>653.83</ele>
        <time>2016-06-19T09:47:30Z</time>
      </trkpt>
      <trkpt lat="45.69798" lon="3.08487">
        <ele>650.95</ele>
        <time>2016-06-19T09:47:34Z</time>
      </trkpt>
      <trkpt lat="45.69798" lon="3.08512">
        <ele>647.59</ele>
        <time>2016-06-19T09:47:38Z</time>
      </trkpt>
      <trkpt lat="45.69797" lon="3.0853">
        <ele>645.18</ele>
        <time>2016-06-19T09:47:41Z</time>
      </trkpt>
      <trkpt lat="45.69791" lon="3.08553">
        <ele>641.82</ele>
        <time>2016-06-19T09:47:46Z</time>
      </trkpt>
      <trkpt lat="45.69783" lon="3.0857">
        <ele>638.45</ele>
        <time>2016-06-19T09:47:50Z</time>
      </trkpt>
      <trkpt lat="45.69774" lon="3.08594">
        <ele>634.61</ele>
        <time>2016-06-19T09:47:55Z</time>
      </trkpt>
      <trkpt lat="45.69767" lon="3.08613">
        <ele>631.24</ele>
        <time>2016-06-19T09:47:59Z</time>
      </trkpt>
      <trkpt lat="45.69761" lon="3.08629">
        <ele>629.8</ele>
        <time>2016-06-19T09:48:02Z</time>
      </trkpt>
      <trkpt lat="45.69758" lon="3.08634">
        <ele>628.36</ele>
        <time>2016-06-19T09:48:03Z</time>
      </trkpt>
      <trkpt lat="45.69752" lon="3.08644">
        <ele>626.44</ele>
        <time>2016-06-19T09:48:05Z</time>
      </trkpt>
      <trkpt lat="45.69748" lon="3.08649">
        <ele>625.47</ele>
        <time>2016-06-19T09:48:06Z</time>
      </trkpt>
      <trkpt lat="45.6973" lon="3.08669">
        <ele>622.59</ele>
        <time>2016-06-19T09:48:10Z</time>
      </trkpt>
      <trkpt lat="45.69709" lon="3.08684">
        <ele>618.75</ele>
        <time>2016-06-19T09:48:14Z</time>
      </trkpt>
      <trkpt lat="45.69683" lon="3.08702">
        <ele>615.38</ele>
        <time>2016-06-19T09:48:20Z</time>
      </trkpt>
      <trkpt lat="45.69667" lon="3.08714">
        <ele>612.5</ele>
        <time>2016-06-19T09:48:23Z</time>
      </trkpt>
      <trkpt lat="45.69652" lon="3.08726">
        <ele>610.09</ele>
        <time>2016-06-19T09:48:26Z</time>
      </trkpt>
      <trkpt lat="45.69648" lon="3.0873">
        <ele>609.61</ele>
        <time>2016-06-19T09:48:27Z</time>
      </trkpt>
      <trkpt lat="45.69644" lon="3.08737">
        <ele>608.17</ele>
        <time>2016-06-19T09:48:28Z</time>
      </trkpt>
      <trkpt lat="45.6964" lon="3.08743">
        <ele>607.69</ele>
        <time>2016-06-19T09:48:29Z</time>
      </trkpt>
      <trkpt lat="45.69637" lon="3.0875">
        <ele>606.73</ele>
        <time>2016-06-19T09:48:30Z</time>
      </trkpt>
      <trkpt lat="45.6962" lon="3.08782">
        <ele>602.88</ele>
        <time>2016-06-19T09:48:35Z</time>
      </trkpt>
      <trkpt lat="45.69602" lon="3.08814">
        <ele>600</ele>
        <time>2016-06-19T09:48:40Z</time>
      </trkpt>
      <trkpt lat="45.6959" lon="3.08841">
        <ele>596.64</ele>
        <time>2016-06-19T09:48:44Z</time>
      </trkpt>
      <trkpt lat="45.69587" lon="3.08847">
        <ele>596.64</ele>
        <time>2016-06-19T09:48:45Z</time>
      </trkpt>
      <trkpt lat="45.6958" lon="3.08867">
        <ele>592.79</ele>
        <time>2016-06-19T09:48:48Z</time>
      </trkpt>
      <trkpt lat="45.69565" lon="3.08903">
        <ele>588.46</ele>
        <time>2016-06-19T09:48:53Z</time>
      </trkpt>
      <trkpt lat="45.69562" lon="3.0891">
        <ele>588.46</ele>
        <time>2016-06-19T09:48:54Z</time>
      </trkpt>
      <trkpt lat="45.69549" lon="3.08935">
        <ele>585.58</ele>
        <time>2016-06-19T09:48:58Z</time>
      </trkpt>
      <trkpt lat="45.69537" lon="3.08964">
        <ele>582.22</ele>
        <time>2016-06-19T09:49:02Z</time>
      </trkpt>
      <trkpt lat="45.69528" lon="3.0899">
        <ele>579.81</ele>
        <time>2016-06-19T09:49:06Z</time>
      </trkpt>
      <trkpt lat="45.69526" lon="3.08996">
        <ele>579.81</ele>
        <time>2016-06-19T09:49:07Z</time>
      </trkpt>
      <trkpt lat="45.69512" lon="3.09041">
        <ele>575.97</ele>
        <time>2016-06-19T09:49:12Z</time>
      </trkpt>
      <trkpt lat="45.69498" lon="3.09084">
        <ele>573.08</ele>
        <time>2016-06-19T09:49:17Z</time>
      </trkpt>
      <trkpt lat="45.6949" lon="3.0911">
        <ele>569.24</ele>
        <time>2016-06-19T09:49:20Z</time>
      </trkpt>
      <trkpt lat="45.69482" lon="3.09134">
        <ele>565.87</ele>
        <time>2016-06-19T09:49:23Z</time>
      </trkpt>
      <trkpt lat="45.69475" lon="3.09157">
        <ele>562.51</ele>
        <time>2016-06-19T09:49:26Z</time>
      </trkpt>
      <trkpt lat="45.69465" lon="3.09188">
        <ele>558.66</ele>
        <time>2016-06-19T09:49:30Z</time>
      </trkpt>
      <trkpt lat="45.69458" lon="3.09211">
        <ele>555.78</ele>
        <time>2016-06-19T09:49:33Z</time>
      </trkpt>
      <trkpt lat="45.69452" lon="3.09232">
        <ele>551.93</ele>
        <time>2016-06-19T09:49:36Z</time>
      </trkpt>
      <trkpt lat="45.69446" lon="3.09255">
        <ele>549.05</ele>
        <time>2016-06-19T09:49:41Z</time>
      </trkpt>
      <trkpt lat="45.69445" lon="3.09257">
        <ele>548.09</ele>
        <time>2016-06-19T09:49:42Z</time>
      </trkpt>
      <trkpt lat="45.69444" lon="3.09259">
        <ele>548.57</ele>
        <time>2016-06-19T09:49:43Z</time>
      </trkpt>
      <trkpt lat="45.69443" lon="3.09261">
        <ele>547.61</ele>
        <time>2016-06-19T09:49:44Z</time>
      </trkpt>
      <trkpt lat="45.69442" lon="3.09262">
        <ele>547.61</ele>
        <time>2016-06-19T09:49:45Z</time>
      </trkpt>
      <trkpt lat="45.69441" lon="3.09264">
        <ele>547.13</ele>
        <time>2016-06-19T09:49:46Z</time>
      </trkpt>
      <trkpt lat="45.69437" lon="3.0927">
        <ele>546.65</ele>
        <time>2016-06-19T09:49:50Z</time>
      </trkpt>
      <trkpt lat="45.69437" lon="3.09275">
        <ele>545.69</ele>
        <time>2016-06-19T09:49:53Z</time>
      </trkpt>
      <trkpt lat="45.69438" lon="3.09275">
        <ele>546.17</ele>
        <time>2016-06-19T09:49:54Z</time>
      </trkpt>
      <trkpt lat="45.6944" lon="3.09274">
        <ele>546.17</ele>
        <time>2016-06-19T09:49:55Z</time>
      </trkpt>
      <trkpt lat="45.69441" lon="3.09272">
        <ele>546.17</ele>
        <time>2016-06-19T09:49:56Z</time>
      </trkpt>
      <trkpt lat="45.69442" lon="3.0927">
        <ele>545.69</ele>
        <time>2016-06-19T09:49:57Z</time>
      </trkpt>
      <trkpt lat="45.69442" lon="3.09268">
        <ele>546.65</ele>
        <time>2016-06-19T09:49:58Z</time>
      </trkpt>
      <trkpt lat="45.69443" lon="3.09266">
        <ele>546.65</ele>
        <time>2016-06-19T09:49:59Z</time>
      </trkpt>
      <trkpt lat="45.69443" lon="3.09265">
        <ele>547.13</ele>
        <time>2016-06-19T09:50:00Z</time>
      </trkpt>
      <trkpt lat="45.69445" lon="3.09264">
        <ele>547.13</ele>
        <time>2016-06-19T09:50:01Z</time>
      </trkpt>
      <trkpt lat="45.69446" lon="3.09262">
        <ele>547.13</ele>
        <time>2016-06-19T09:50:02Z</time>
      </trkpt>
      <trkpt lat="45.69447" lon="3.0926">
        <ele>547.61</ele>
        <time>2016-06-19T09:50:03Z</time>
      </trkpt>
      <trkpt lat="45.69447" lon="3.09258">
        <ele>548.09</ele>
        <time>2016-06-19T09:50:04Z</time>
      </trkpt>
      <trkpt lat="45.69447" lon="3.09256">
        <ele>548.09</ele>
        <time>2016-06-19T09:50:05Z</time>
      </trkpt>
      <trkpt lat="45.69447" lon="3.09254">
        <ele>549.05</ele>
        <time>2016-06-19T09:50:06Z</time>
      </trkpt>
      <trkpt lat="45.69447" lon="3.09252">
        <ele>548.57</ele>
        <time>2016-06-19T09:50:07Z</time>
      </trkpt>
      <trkpt lat="45.69448" lon="3.0925">
        <ele>549.05</ele>
        <time>2016-06-19T09:50:08Z</time>
      </trkpt>
      <trkpt lat="45.69448" lon="3.09248">
        <ele>549.05</ele>
        <time>2016-06-19T09:50:09Z</time>
      </trkpt>
      <trkpt lat="45.69449" lon="3.09247">
        <ele>549.05</ele>
        <time>2016-06-19T09:50:10Z</time>
      </trkpt>
      <trkpt lat="45.6945" lon="3.09245">
        <ele>549.53</ele>
        <time>2016-06-19T09:50:11Z</time>
      </trkpt>
      <trkpt lat="45.69449" lon="3.09244">
        <ele>549.53</ele>
        <time>2016-06-19T09:50:12Z</time>
      </trkpt>
      <trkpt lat="45.69448" lon="3.09241">
        <ele>550.01</ele>
        <time>2016-06-19T09:50:14Z</time>
      </trkpt>
      <trkpt lat="45.69447" lon="3.09241">
        <ele>550.01</ele>
        <time>2016-06-19T09:50:15Z</time>
      </trkpt>
      <trkpt lat="45.69446" lon="3.09242">
        <ele>550.49</ele>
        <time>2016-06-19T09:50:16Z</time>
      </trkpt>
      <trkpt lat="45.69445" lon="3.09243">
        <ele>550.01</ele>
        <time>2016-06-19T09:50:17Z</time>
      </trkpt>
      <trkpt lat="45.69444" lon="3.09246">
        <ele>549.53</ele>
        <time>2016-06-19T09:50:20Z</time>
      </trkpt>
      <trkpt lat="45.69445" lon="3.09251">
        <ele>549.05</ele>
        <time>2016-06-19T09:50:33Z</time>
      </trkpt>
      <trkpt lat="45.69438" lon="3.09271">
        <ele>546.17</ele>
        <time>2016-06-19T09:50:42Z</time>
      </trkpt>
      <trkpt lat="45.69433" lon="3.09274">
        <ele>545.69</ele>
        <time>2016-06-19T09:50:54Z</time>
      </trkpt>
      <trkpt lat="45.69433" lon="3.09274">
        <ele>546.17</ele>
        <time>2016-06-19T09:51:06Z</time>
      </trkpt>
      <trkpt lat="45.69435" lon="3.09276">
        <ele>546.17</ele>
        <time>2016-06-19T09:51:07Z</time>
      </trkpt>
      <trkpt lat="45.69437" lon="3.09276">
        <ele>545.69</ele>
        <time>2016-06-19T09:51:08Z</time>
      </trkpt>
      <trkpt lat="45.69439" lon="3.09275">
        <ele>545.69</ele>
        <time>2016-06-19T09:51:09Z</time>
      </trkpt>
      <trkpt lat="45.69439" lon="3.09273">
        <ele>545.69</ele>
        <time>2016-06-19T09:51:10Z</time>
      </trkpt>
      <trkpt lat="45.6944" lon="3.09271">
        <ele>546.17</ele>
        <time>2016-06-19T09:51:11Z</time>
      </trkpt>
      <trkpt lat="45.6944" lon="3.09268">
        <ele>546.17</ele>
        <time>2016-06-19T09:51:12Z</time>
      </trkpt>
      <trkpt lat="45.69441" lon="3.09266">
        <ele>546.65</ele>
        <time>2016-06-19T09:51:13Z</time>
      </trkpt>
      <trkpt lat="45.69442" lon="3.09264">
        <ele>546.65</ele>
        <time>2016-06-19T09:51:14Z</time>
      </trkpt>
      <trkpt lat="45.69444" lon="3.09262">
        <ele>547.13</ele>
        <time>2016-06-19T09:51:15Z</time>
      </trkpt>
      <trkpt lat="45.69444" lon="3.09259">
        <ele>547.13</ele>
        <time>2016-06-19T09:51:16Z</time>
      </trkpt>
      <trkpt lat="45.69444" lon="3.09257">
        <ele>547.61</ele>
        <time>2016-06-19T09:51:17Z</time>
      </trkpt>
      <trkpt lat="45.69445" lon="3.09254">
        <ele>548.09</ele>
        <time>2016-06-19T09:51:18Z</time>
      </trkpt>
      <trkpt lat="45.69445" lon="3.09252">
        <ele>548.09</ele>
        <time>2016-06-19T09:51:19Z</time>
      </trkpt>
      <trkpt lat="45.69446" lon="3.09251">
        <ele>548.57</ele>
        <time>2016-06-19T09:51:20Z</time>
      </trkpt>
      <trkpt lat="45.69445" lon="3.09249">
        <ele>549.05</ele>
        <time>2016-06-19T09:51:21Z</time>
      </trkpt>
      <trkpt lat="45.69445" lon="3.09247">
        <ele>549.05</ele>
        <time>2016-06-19T09:51:22Z</time>
      </trkpt>
      <trkpt lat="45.69446" lon="3.09245">
        <ele>549.05</ele>
        <time>2016-06-19T09:51:23Z</time>
      </trkpt>
      <trkpt lat="45.69447" lon="3.09244">
        <ele>549.05</ele>
        <time>2016-06-19T09:51:24Z</time>
      </trkpt>
      <trkpt lat="45.69448" lon="3.09242">
        <ele>549.53</ele>
        <time>2016-06-19T09:51:25Z</time>
      </trkpt>
      <trkpt lat="45.69449" lon="3.0924">
        <ele>550.01</ele>
        <time>2016-06-19T09:51:26Z</time>
      </trkpt>
      <trkpt lat="45.69454" lon="3.09226">
        <ele>551.93</ele>
        <time>2016-06-19T09:51:32Z</time>
      </trkpt>
      <trkpt lat="45.69455" lon="3.09224">
        <ele>551.93</ele>
        <time>2016-06-19T09:51:33Z</time>
      </trkpt>
      <trkpt lat="45.69455" lon="3.09222">
        <ele>552.41</ele>
        <time>2016-06-19T09:51:34Z</time>
      </trkpt>
      <trkpt lat="45.69456" lon="3.0922">
        <ele>552.41</ele>
        <time>2016-06-19T09:51:35Z</time>
      </trkpt>
      <trkpt lat="45.69456" lon="3.09218">
        <ele>552.9</ele>
        <time>2016-06-19T09:51:36Z</time>
      </trkpt>
      <trkpt lat="45.69457" lon="3.09217">
        <ele>552.41</ele>
        <time>2016-06-19T09:51:37Z</time>
      </trkpt>
      <trkpt lat="45.69457" lon="3.09215">
        <ele>553.38</ele>
        <time>2016-06-19T09:51:38Z</time>
      </trkpt>
      <trkpt lat="45.69463" lon="3.09198">
        <ele>555.3</ele>
        <time>2016-06-19T09:51:47Z</time>
      </trkpt>
      <trkpt lat="45.69463" lon="3.09197">
        <ele>555.78</ele>
        <time>2016-06-19T09:51:48Z</time>
      </trkpt>
      <trkpt lat="45.69464" lon="3.09195">
        <ele>555.78</ele>
        <time>2016-06-19T09:51:49Z</time>
      </trkpt>
      <trkpt lat="45.69464" lon="3.09193">
        <ele>556.26</ele>
        <time>2016-06-19T09:51:50Z</time>
      </trkpt>
      <trkpt lat="45.69465" lon="3.09192">
        <ele>556.26</ele>
        <time>2016-06-19T09:51:51Z</time>
      </trkpt>
      <trkpt lat="45.69465" lon="3.0919">
        <ele>556.74</ele>
        <time>2016-06-19T09:51:52Z</time>
      </trkpt>
      <trkpt lat="45.69466" lon="3.09189">
        <ele>556.74</ele>
        <time>2016-06-19T09:51:53Z</time>
      </trkpt>
      <trkpt lat="45.69467" lon="3.09187">
        <ele>557.22</ele>
        <time>2016-06-19T09:51:54Z</time>
      </trkpt>
      <trkpt lat="45.69467" lon="3.09185">
        <ele>557.7</ele>
        <time>2016-06-19T09:51:55Z</time>
      </trkpt>
      <trkpt lat="45.69467" lon="3.09183">
        <ele>557.7</ele>
        <time>2016-06-19T09:51:56Z</time>
      </trkpt>
      <trkpt lat="45.69468" lon="3.09182">
        <ele>558.18</ele>
        <time>2016-06-19T09:51:57Z</time>
      </trkpt>
      <trkpt lat="45.69468" lon="3.0918">
        <ele>558.66</ele>
        <time>2016-06-19T09:51:58Z</time>
      </trkpt>
      <trkpt lat="45.69469" lon="3.09179">
        <ele>558.66</ele>
        <time>2016-06-19T09:51:59Z</time>
      </trkpt>
      <trkpt lat="45.69469" lon="3.09177">
        <ele>558.66</ele>
        <time>2016-06-19T09:52:00Z</time>
      </trkpt>
      <trkpt lat="45.69469" lon="3.09175">
        <ele>558.66</ele>
        <time>2016-06-19T09:52:01Z</time>
      </trkpt>
      <trkpt lat="45.6947" lon="3.09173">
        <ele>559.14</ele>
        <time>2016-06-19T09:52:02Z</time>
      </trkpt>
      <trkpt lat="45.6947" lon="3.09172">
        <ele>559.62</ele>
        <time>2016-06-19T09:52:03Z</time>
      </trkpt>
      <trkpt lat="45.69471" lon="3.0917">
        <ele>559.62</ele>
        <time>2016-06-19T09:52:04Z</time>
      </trkpt>
      <trkpt lat="45.69472" lon="3.09169">
        <ele>559.62</ele>
        <time>2016-06-19T09:52:05Z</time>
      </trkpt>
      <trkpt lat="45.69478" lon="3.09148">
        <ele>562.99</ele>
        <time>2016-06-19T09:52:18Z</time>
      </trkpt>
      <trkpt lat="45.69482" lon="3.09136">
        <ele>564.91</ele>
        <time>2016-06-19T09:52:25Z</time>
      </trkpt>
      <trkpt lat="45.69487" lon="3.0912">
        <ele>566.35</ele>
        <time>2016-06-19T09:52:35Z</time>
      </trkpt>
      <trkpt lat="45.69488" lon="3.09118">
        <ele>566.83</ele>
        <time>2016-06-19T09:52:36Z</time>
      </trkpt>
      <trkpt lat="45.69493" lon="3.091">
        <ele>569.24</ele>
        <time>2016-06-19T09:52:47Z</time>
      </trkpt>
      <trkpt lat="45.69501" lon="3.09075">
        <ele>572.6</ele>
        <time>2016-06-19T09:53:02Z</time>
      </trkpt>
      <trkpt lat="45.6951" lon="3.09048">
        <ele>575.01</ele>
        <time>2016-06-19T09:53:17Z</time>
      </trkpt>
      <trkpt lat="45.69519" lon="3.09018">
        <ele>577.41</ele>
        <time>2016-06-19T09:53:32Z</time>
      </trkpt>
      <trkpt lat="45.69531" lon="3.08981">
        <ele>580.29</ele>
        <time>2016-06-19T09:53:50Z</time>
      </trkpt>
      <trkpt lat="45.69543" lon="3.08951">
        <ele>583.18</ele>
        <time>2016-06-19T09:54:06Z</time>
      </trkpt>
      <trkpt lat="45.69557" lon="3.0892">
        <ele>586.06</ele>
        <time>2016-06-19T09:54:24Z</time>
      </trkpt>
      <trkpt lat="45.69569" lon="3.08893">
        <ele>588.95</ele>
        <time>2016-06-19T09:54:39Z</time>
      </trkpt>
      <trkpt lat="45.69572" lon="3.08884">
        <ele>589.91</ele>
        <time>2016-06-19T09:54:44Z</time>
      </trkpt>
      <trkpt lat="45.69574" lon="3.08883">
        <ele>589.91</ele>
        <time>2016-06-19T09:54:45Z</time>
      </trkpt>
      <trkpt lat="45.69574" lon="3.08881">
        <ele>590.87</ele>
        <time>2016-06-19T09:54:46Z</time>
      </trkpt>
      <trkpt lat="45.69579" lon="3.0887">
        <ele>591.83</ele>
        <time>2016-06-19T09:54:52Z</time>
      </trkpt>
      <trkpt lat="45.6958" lon="3.08869">
        <ele>592.31</ele>
        <time>2016-06-19T09:54:53Z</time>
      </trkpt>
      <trkpt lat="45.69581" lon="3.08867">
        <ele>592.31</ele>
        <time>2016-06-19T09:54:54Z</time>
      </trkpt>
      <trkpt lat="45.69581" lon="3.08865">
        <ele>592.79</ele>
        <time>2016-06-19T09:54:55Z</time>
      </trkpt>
      <trkpt lat="45.69582" lon="3.08864">
        <ele>592.79</ele>
        <time>2016-06-19T09:54:56Z</time>
      </trkpt>
      <trkpt lat="45.69583" lon="3.08862">
        <ele>593.27</ele>
        <time>2016-06-19T09:54:57Z</time>
      </trkpt>
      <trkpt lat="45.69583" lon="3.0886">
        <ele>593.75</ele>
        <time>2016-06-19T09:54:58Z</time>
      </trkpt>
      <trkpt lat="45.69584" lon="3.08858">
        <ele>593.27</ele>
        <time>2016-06-19T09:54:59Z</time>
      </trkpt>
      <trkpt lat="45.69584" lon="3.08857">
        <ele>593.75</ele>
        <time>2016-06-19T09:55:00Z</time>
      </trkpt>
      <trkpt lat="45.6959" lon="3.08844">
        <ele>595.67</ele>
        <time>2016-06-19T09:55:08Z</time>
      </trkpt>
      <trkpt lat="45.69591" lon="3.08843">
        <ele>595.67</ele>
        <time>2016-06-19T09:55:09Z</time>
      </trkpt>
      <trkpt lat="45.69592" lon="3.08841">
        <ele>595.67</ele>
        <time>2016-06-19T09:55:10Z</time>
      </trkpt>
      <trkpt lat="45.69592" lon="3.0884">
        <ele>596.15</ele>
        <time>2016-06-19T09:55:11Z</time>
      </trkpt>
      <trkpt lat="45.69593" lon="3.08838">
        <ele>596.15</ele>
        <time>2016-06-19T09:55:12Z</time>
      </trkpt>
      <trkpt lat="45.69594" lon="3.08836">
        <ele>596.64</ele>
        <time>2016-06-19T09:55:13Z</time>
      </trkpt>
      <trkpt lat="45.69606" lon="3.0881">
        <ele>600</ele>
        <time>2016-06-19T09:55:29Z</time>
      </trkpt>
      <trkpt lat="45.69607" lon="3.08808">
        <ele>600.48</ele>
        <time>2016-06-19T09:55:30Z</time>
      </trkpt>
      <trkpt lat="45.6962" lon="3.08782">
        <ele>602.88</ele>
        <time>2016-06-19T09:55:46Z</time>
      </trkpt>
      <trkpt lat="45.69625" lon="3.08773">
        <ele>603.85</ele>
        <time>2016-06-19T09:55:52Z</time>
      </trkpt>
      <trkpt lat="45.69626" lon="3.08772">
        <ele>604.33</ele>
        <time>2016-06-19T09:55:53Z</time>
      </trkpt>
      <trkpt lat="45.69627" lon="3.0877">
        <ele>604.81</ele>
        <time>2016-06-19T09:55:54Z</time>
      </trkpt>
      <trkpt lat="45.69628" lon="3.08769">
        <ele>604.81</ele>
        <time>2016-06-19T09:55:55Z</time>
      </trkpt>
      <trkpt lat="45.69629" lon="3.08767">
        <ele>604.81</ele>
        <time>2016-06-19T09:55:56Z</time>
      </trkpt>
      <trkpt lat="45.6963" lon="3.08765">
        <ele>604.81</ele>
        <time>2016-06-19T09:55:57Z</time>
      </trkpt>
      <trkpt lat="45.6963" lon="3.08764">
        <ele>604.81</ele>
        <time>2016-06-19T09:55:58Z</time>
      </trkpt>
      <trkpt lat="45.69631" lon="3.08762">
        <ele>605.29</ele>
        <time>2016-06-19T09:55:59Z</time>
      </trkpt>
      <trkpt lat="45.69645" lon="3.08738">
        <ele>608.17</ele>
        <time>2016-06-19T09:56:16Z</time>
      </trkpt>
      <trkpt lat="45.69648" lon="3.08733">
        <ele>608.65</ele>
        <time>2016-06-19T09:56:19Z</time>
      </trkpt>
      <trkpt lat="45.69649" lon="3.08731">
        <ele>609.13</ele>
        <time>2016-06-19T09:56:20Z</time>
      </trkpt>
      <trkpt lat="45.6965" lon="3.0873">
        <ele>608.65</ele>
        <time>2016-06-19T09:56:21Z</time>
      </trkpt>
      <trkpt lat="45.69651" lon="3.08729">
        <ele>609.61</ele>
        <time>2016-06-19T09:56:22Z</time>
      </trkpt>
      <trkpt lat="45.69652" lon="3.08727">
        <ele>609.13</ele>
        <time>2016-06-19T09:56:23Z</time>
      </trkpt>
      <trkpt lat="45.69668" lon="3.08713">
        <ele>612.5</ele>
        <time>2016-06-19T09:56:37Z</time>
      </trkpt>
      <trkpt lat="45.69684" lon="3.087">
        <ele>615.38</ele>
        <time>2016-06-19T09:56:52Z</time>
      </trkpt>
      <trkpt lat="45.69702" lon="3.08687">
        <ele>617.78</ele>
        <time>2016-06-19T09:57:07Z</time>
      </trkpt>
      <trkpt lat="45.69728" lon="3.08669">
        <ele>621.15</ele>
        <time>2016-06-19T09:57:28Z</time>
      </trkpt>
      <trkpt lat="45.69746" lon="3.08651">
        <ele>624.03</ele>
        <time>2016-06-19T09:57:44Z</time>
      </trkpt>
      <trkpt lat="45.69748" lon="3.08649">
        <ele>624.51</ele>
        <time>2016-06-19T09:57:47Z</time>
      </trkpt>
      <trkpt lat="45.69749" lon="3.08648">
        <ele>624.99</ele>
        <time>2016-06-19T09:57:48Z</time>
      </trkpt>
      <trkpt lat="45.69754" lon="3.08642">
        <ele>625.47</ele>
        <time>2016-06-19T09:57:53Z</time>
      </trkpt>
      <trkpt lat="45.69755" lon="3.08641">
        <ele>625.96</ele>
        <time>2016-06-19T09:57:54Z</time>
      </trkpt>
      <trkpt lat="45.69758" lon="3.08635">
        <ele>626.92</ele>
        <time>2016-06-19T09:57:58Z</time>
      </trkpt>
      <trkpt lat="45.69759" lon="3.08634">
        <ele>627.4</ele>
        <time>2016-06-19T09:57:59Z</time>
      </trkpt>
      <trkpt lat="45.69763" lon="3.08627">
        <ele>628.84</ele>
        <time>2016-06-19T09:58:05Z</time>
      </trkpt>
      <trkpt lat="45.69763" lon="3.08625">
        <ele>628.84</ele>
        <time>2016-06-19T09:58:06Z</time>
      </trkpt>
      <trkpt lat="45.69764" lon="3.08621">
        <ele>629.32</ele>
        <time>2016-06-19T09:58:08Z</time>
      </trkpt>
      <trkpt lat="45.69768" lon="3.0861">
        <ele>631.24</ele>
        <time>2016-06-19T09:58:17Z</time>
      </trkpt>
      <trkpt lat="45.69772" lon="3.086">
        <ele>633.17</ele>
        <time>2016-06-19T09:58:30Z</time>
      </trkpt>
      <trkpt lat="45.69778" lon="3.08587">
        <ele>635.57</ele>
        <time>2016-06-19T09:58:50Z</time>
      </trkpt>
      <trkpt lat="45.69784" lon="3.0857">
        <ele>637.97</ele>
        <time>2016-06-19T09:59:05Z</time>
      </trkpt>
      <trkpt lat="45.69788" lon="3.08561">
        <ele>640.86</ele>
        <time>2016-06-19T09:59:18Z</time>
      </trkpt>
      <trkpt lat="45.69793" lon="3.08548">
        <ele>641.82</ele>
        <time>2016-06-19T09:59:31Z</time>
      </trkpt>
      <trkpt lat="45.69796" lon="3.08539">
        <ele>644.22</ele>
        <time>2016-06-19T09:59:40Z</time>
      </trkpt>
      <trkpt lat="45.69798" lon="3.08523">
        <ele>645.66</ele>
        <time>2016-06-19T09:59:53Z</time>
      </trkpt>
      <trkpt lat="45.69799" lon="3.08504">
        <ele>648.55</ele>
        <time>2016-06-19T10:00:08Z</time>
      </trkpt>
      <trkpt lat="45.698" lon="3.08493">
        <ele>649.99</ele>
        <time>2016-06-19T10:00:17Z</time>
      </trkpt>
      <trkpt lat="45.698" lon="3.0848">
        <ele>650.95</ele>
        <time>2016-06-19T10:00:28Z</time>
      </trkpt>
      <trkpt lat="45.698" lon="3.08468">
        <ele>652.87</ele>
        <time>2016-06-19T10:00:37Z</time>
      </trkpt>
      <trkpt lat="45.69801" lon="3.08454">
        <ele>654.8</ele>
        <time>2016-06-19T10:00:51Z</time>
      </trkpt>
      <trkpt lat="45.69801" lon="3.08442">
        <ele>656.24</ele>
        <time>2016-06-19T10:01:00Z</time>
      </trkpt>
      <trkpt lat="45.69801" lon="3.08441">
        <ele>656.72</ele>
        <time>2016-06-19T10:01:01Z</time>
      </trkpt>
      <trkpt lat="45.69801" lon="3.08437">
        <ele>656.72</ele>
        <time>2016-06-19T10:01:04Z</time>
      </trkpt>
      <trkpt lat="45.69802" lon="3.08418">
        <ele>658.16</ele>
        <time>2016-06-19T10:01:18Z</time>
      </trkpt>
      <trkpt lat="45.69802" lon="3.08405">
        <ele>659.6</ele>
        <time>2016-06-19T10:01:31Z</time>
      </trkpt>
      <trkpt lat="45.69805" lon="3.084">
        <ele>660.56</ele>
        <time>2016-06-19T10:01:37Z</time>
      </trkpt>
      <trkpt lat="45.69805" lon="3.08402">
        <ele>660.56</ele>
        <time>2016-06-19T10:01:38Z</time>
      </trkpt>
      <trkpt lat="45.69808" lon="3.08406">
        <ele>660.56</ele>
        <time>2016-06-19T10:01:41Z</time>
      </trkpt>
      <trkpt lat="45.69809" lon="3.08407">
        <ele>660.56</ele>
        <time>2016-06-19T10:02:00Z</time>
      </trkpt>
      <trkpt lat="45.69813" lon="3.08414">
        <ele>661.04</ele>
        <time>2016-06-19T10:02:25Z</time>
      </trkpt>
      <trkpt lat="45.69834" lon="3.08448">
        <ele>660.56</ele>
        <time>2016-06-19T10:02:40Z</time>
      </trkpt>
      <trkpt lat="45.69857" lon="3.08483">
        <ele>659.12</ele>
        <time>2016-06-19T10:02:50Z</time>
      </trkpt>
      <trkpt lat="45.69888" lon="3.08536">
        <ele>657.68</ele>
        <time>2016-06-19T10:03:02Z</time>
      </trkpt>
      <trkpt lat="45.69913" lon="3.08577">
        <ele>656.24</ele>
        <time>2016-06-19T10:03:14Z</time>
      </trkpt>
      <trkpt lat="45.69917" lon="3.08583">
        <ele>656.24</ele>
        <time>2016-06-19T10:03:15Z</time>
      </trkpt>
      <trkpt lat="45.69937" lon="3.08608">
        <ele>652.87</ele>
        <time>2016-06-19T10:03:20Z</time>
      </trkpt>
      <trkpt lat="45.69971" lon="3.08641">
        <ele>649.03</ele>
        <time>2016-06-19T10:03:27Z</time>
      </trkpt>
      <trkpt lat="45.69984" lon="3.08651">
        <ele>648.07</ele>
        <time>2016-06-19T10:03:29Z</time>
      </trkpt>
      <trkpt lat="45.70024" lon="3.08686">
        <ele>645.18</ele>
        <time>2016-06-19T10:03:37Z</time>
      </trkpt>
      <trkpt lat="45.70034" lon="3.08694">
        <ele>644.22</ele>
        <time>2016-06-19T10:03:39Z</time>
      </trkpt>
      <trkpt lat="45.70043" lon="3.08701">
        <ele>643.74</ele>
        <time>2016-06-19T10:03:41Z</time>
      </trkpt>
      <trkpt lat="45.70049" lon="3.08705">
        <ele>643.74</ele>
        <time>2016-06-19T10:03:42Z</time>
      </trkpt>
      <trkpt lat="45.70107" lon="3.08748">
        <ele>640.38</ele>
        <time>2016-06-19T10:03:56Z</time>
      </trkpt>
      <trkpt lat="45.70147" lon="3.08762">
        <ele>639.41</ele>
        <time>2016-06-19T10:04:08Z</time>
      </trkpt>
      <trkpt lat="45.70182" lon="3.08783">
        <ele>640.38</ele>
        <time>2016-06-19T10:04:21Z</time>
      </trkpt>
      <trkpt lat="45.70224" lon="3.08814">
        <ele>640.38</ele>
        <time>2016-06-19T10:04:35Z</time>
      </trkpt>
      <trkpt lat="45.70229" lon="3.08823">
        <ele>639.41</ele>
        <time>2016-06-19T10:04:37Z</time>
      </trkpt>
      <trkpt lat="45.70231" lon="3.08828">
        <ele>639.41</ele>
        <time>2016-06-19T10:04:38Z</time>
      </trkpt>
      <trkpt lat="45.70233" lon="3.08835">
        <ele>638.45</ele>
        <time>2016-06-19T10:04:39Z</time>
      </trkpt>
      <trkpt lat="45.70235" lon="3.08841">
        <ele>637.49</ele>
        <time>2016-06-19T10:04:40Z</time>
      </trkpt>
      <trkpt lat="45.70236" lon="3.08847">
        <ele>636.53</ele>
        <time>2016-06-19T10:04:41Z</time>
      </trkpt>
      <trkpt lat="45.70237" lon="3.08851">
        <ele>637.01</ele>
        <time>2016-06-19T10:04:42Z</time>
      </trkpt>
      <trkpt lat="45.70243" lon="3.08868">
        <ele>636.05</ele>
        <time>2016-06-19T10:04:45Z</time>
      </trkpt>
      <trkpt lat="45.70248" lon="3.08881">
        <ele>636.05</ele>
        <time>2016-06-19T10:04:47Z</time>
      </trkpt>
      <trkpt lat="45.70265" lon="3.08916">
        <ele>635.57</ele>
        <time>2016-06-19T10:04:53Z</time>
      </trkpt>
      <trkpt lat="45.70269" lon="3.08921">
        <ele>635.09</ele>
        <time>2016-06-19T10:04:54Z</time>
      </trkpt>
      <trkpt lat="45.70272" lon="3.08924">
        <ele>634.61</ele>
        <time>2016-06-19T10:04:55Z</time>
      </trkpt>
      <trkpt lat="45.70275" lon="3.08928">
        <ele>634.61</ele>
        <time>2016-06-19T10:04:56Z</time>
      </trkpt>
      <trkpt lat="45.70279" lon="3.08932">
        <ele>634.61</ele>
        <time>2016-06-19T10:04:57Z</time>
      </trkpt>
      <trkpt lat="45.70283" lon="3.08934">
        <ele>634.13</ele>
        <time>2016-06-19T10:04:58Z</time>
      </trkpt>
      <trkpt lat="45.70288" lon="3.08936">
        <ele>634.13</ele>
        <time>2016-06-19T10:04:59Z</time>
      </trkpt>
      <trkpt lat="45.70292" lon="3.08936">
        <ele>633.65</ele>
        <time>2016-06-19T10:05:00Z</time>
      </trkpt>
      <trkpt lat="45.70296" lon="3.08938">
        <ele>634.13</ele>
        <time>2016-06-19T10:05:01Z</time>
      </trkpt>
      <trkpt lat="45.703" lon="3.08939">
        <ele>634.61</ele>
        <time>2016-06-19T10:05:02Z</time>
      </trkpt>
      <trkpt lat="45.70304" lon="3.08941">
        <ele>634.61</ele>
        <time>2016-06-19T10:05:03Z</time>
      </trkpt>
      <trkpt lat="45.70308" lon="3.08942">
        <ele>635.09</ele>
        <time>2016-06-19T10:05:04Z</time>
      </trkpt>
      <trkpt lat="45.70312" lon="3.08943">
        <ele>635.09</ele>
        <time>2016-06-19T10:05:05Z</time>
      </trkpt>
      <trkpt lat="45.70342" lon="3.0895">
        <ele>637.01</ele>
        <time>2016-06-19T10:05:15Z</time>
      </trkpt>
      <trkpt lat="45.70378" lon="3.08968">
        <ele>638.93</ele>
        <time>2016-06-19T10:05:27Z</time>
      </trkpt>
      <trkpt lat="45.70403" lon="3.08986">
        <ele>640.38</ele>
        <time>2016-06-19T10:05:38Z</time>
      </trkpt>
      <trkpt lat="45.70407" lon="3.08988">
        <ele>640.86</ele>
        <time>2016-06-19T10:05:40Z</time>
      </trkpt>
      <trkpt lat="45.70409" lon="3.08989">
        <ele>641.34</ele>
        <time>2016-06-19T10:05:41Z</time>
      </trkpt>
      <trkpt lat="45.70411" lon="3.08991">
        <ele>641.34</ele>
        <time>2016-06-19T10:05:42Z</time>
      </trkpt>
      <trkpt lat="45.70414" lon="3.08992">
        <ele>641.34</ele>
        <time>2016-06-19T10:05:43Z</time>
      </trkpt>
      <trkpt lat="45.70417" lon="3.08993">
        <ele>641.82</ele>
        <time>2016-06-19T10:05:44Z</time>
      </trkpt>
      <trkpt lat="45.70419" lon="3.08994">
        <ele>641.34</ele>
        <time>2016-06-19T10:05:45Z</time>
      </trkpt>
      <trkpt lat="45.70421" lon="3.08996">
        <ele>641.82</ele>
        <time>2016-06-19T10:05:46Z</time>
      </trkpt>
      <trkpt lat="45.70424" lon="3.08997">
        <ele>641.82</ele>
        <time>2016-06-19T10:05:47Z</time>
      </trkpt>
      <trkpt lat="45.70426" lon="3.08999">
        <ele>642.3</ele>
        <time>2016-06-19T10:05:48Z</time>
      </trkpt>
      <trkpt lat="45.70428" lon="3.09001">
        <ele>642.78</ele>
        <time>2016-06-19T10:05:49Z</time>
      </trkpt>
      <trkpt lat="45.70455" lon="3.09019">
        <ele>645.66</ele>
        <time>2016-06-19T10:06:02Z</time>
      </trkpt>
      <trkpt lat="45.70481" lon="3.09034">
        <ele>648.07</ele>
        <time>2016-06-19T10:06:16Z</time>
      </trkpt>
      <trkpt lat="45.70503" lon="3.09037">
        <ele>650.47</ele>
        <time>2016-06-19T10:06:29Z</time>
      </trkpt>
      <trkpt lat="45.70522" lon="3.09036">
        <ele>653.83</ele>
        <time>2016-06-19T10:06:43Z</time>
      </trkpt>
      <trkpt lat="45.70546" lon="3.09032">
        <ele>656.72</ele>
        <time>2016-06-19T10:06:58Z</time>
      </trkpt>
      <trkpt lat="45.70576" lon="3.09029">
        <ele>660.08</ele>
        <time>2016-06-19T10:07:16Z</time>
      </trkpt>
      <trkpt lat="45.70594" lon="3.0903">
        <ele>662.97</ele>
        <time>2016-06-19T10:07:28Z</time>
      </trkpt>
      <trkpt lat="45.70613" lon="3.09035">
        <ele>665.37</ele>
        <time>2016-06-19T10:07:43Z</time>
      </trkpt>
      <trkpt lat="45.70642" lon="3.09038">
        <ele>667.77</ele>
        <time>2016-06-19T10:07:58Z</time>
      </trkpt>
      <trkpt lat="45.70658" lon="3.09041">
        <ele>668.73</ele>
        <time>2016-06-19T10:08:07Z</time>
      </trkpt>
      <trkpt lat="45.7066" lon="3.09043">
        <ele>669.22</ele>
        <time>2016-06-19T10:08:08Z</time>
      </trkpt>
      <trkpt lat="45.70661" lon="3.09046">
        <ele>668.73</ele>
        <time>2016-06-19T10:08:09Z</time>
      </trkpt>
      <trkpt lat="45.70662" lon="3.0905">
        <ele>668.25</ele>
        <time>2016-06-19T10:08:10Z</time>
      </trkpt>
      <trkpt lat="45.70662" lon="3.09054">
        <ele>668.73</ele>
        <time>2016-06-19T10:08:11Z</time>
      </trkpt>
      <trkpt lat="45.70662" lon="3.09058">
        <ele>668.25</ele>
        <time>2016-06-19T10:08:12Z</time>
      </trkpt>
      <trkpt lat="45.70663" lon="3.09062">
        <ele>668.25</ele>
        <time>2016-06-19T10:08:13Z</time>
      </trkpt>
      <trkpt lat="45.70669" lon="3.09099">
        <ele>664.89</ele>
        <time>2016-06-19T10:08:21Z</time>
      </trkpt>
      <trkpt lat="45.7067" lon="3.09101">
        <ele>664.41</ele>
        <time>2016-06-19T10:08:22Z</time>
      </trkpt>
      <trkpt lat="45.7067" lon="3.09104">
        <ele>663.93</ele>
        <time>2016-06-19T10:08:23Z</time>
      </trkpt>
      <trkpt lat="45.70669" lon="3.09107">
        <ele>663.93</ele>
        <time>2016-06-19T10:08:26Z</time>
      </trkpt>
      <trkpt lat="45.70668" lon="3.09109">
        <ele>663.93</ele>
        <time>2016-06-19T10:08:27Z</time>
      </trkpt>
      <trkpt lat="45.70667" lon="3.09115">
        <ele>662.49</ele>
        <time>2016-06-19T10:08:36Z</time>
      </trkpt>
      <trkpt lat="45.70667" lon="3.09119">
        <ele>662.01</ele>
        <time>2016-06-19T10:08:42Z</time>
      </trkpt>
      <trkpt lat="45.70666" lon="3.09121">
        <ele>661.04</ele>
        <time>2016-06-19T10:08:43Z</time>
      </trkpt>
      <trkpt lat="45.70666" lon="3.09124">
        <ele>661.52</ele>
        <time>2016-06-19T10:08:44Z</time>
      </trkpt>
      <trkpt lat="45.70666" lon="3.09127">
        <ele>661.04</ele>
        <time>2016-06-19T10:08:45Z</time>
      </trkpt>
      <trkpt lat="45.70665" lon="3.0913">
        <ele>660.56</ele>
        <time>2016-06-19T10:08:46Z</time>
      </trkpt>
      <trkpt lat="45.70656" lon="3.09144">
        <ele>657.2</ele>
        <time>2016-06-19T10:08:51Z</time>
      </trkpt>
      <trkpt lat="45.70647" lon="3.09152">
        <ele>653.83</ele>
        <time>2016-06-19T10:08:55Z</time>
      </trkpt>
      <trkpt lat="45.70638" lon="3.09162">
        <ele>650.47</ele>
        <time>2016-06-19T10:08:59Z</time>
      </trkpt>
      <trkpt lat="45.70637" lon="3.09164">
        <ele>650.47</ele>
        <time>2016-06-19T10:09:00Z</time>
      </trkpt>
      <trkpt lat="45.70633" lon="3.0917">
        <ele>648.55</ele>
        <time>2016-06-19T10:09:03Z</time>
      </trkpt>
      <trkpt lat="45.7063" lon="3.09181">
        <ele>646.14</ele>
        <time>2016-06-19T10:09:08Z</time>
      </trkpt>
      <trkpt lat="45.70628" lon="3.09201">
        <ele>642.78</ele>
        <time>2016-06-19T10:09:14Z</time>
      </trkpt>
      <trkpt lat="45.70627" lon="3.09222">
        <ele>639.41</ele>
        <time>2016-06-19T10:09:21Z</time>
      </trkpt>
      <trkpt lat="45.70628" lon="3.09225">
        <ele>639.41</ele>
        <time>2016-06-19T10:09:22Z</time>
      </trkpt>
      <trkpt lat="45.70627" lon="3.09235">
        <ele>637.97</ele>
        <time>2016-06-19T10:09:25Z</time>
      </trkpt>
      <trkpt lat="45.70625" lon="3.09267">
        <ele>635.57</ele>
        <time>2016-06-19T10:09:34Z</time>
      </trkpt>
      <trkpt lat="45.70623" lon="3.09272">
        <ele>635.57</ele>
        <time>2016-06-19T10:09:35Z</time>
      </trkpt>
      <trkpt lat="45.70621" lon="3.09276">
        <ele>634.61</ele>
        <time>2016-06-19T10:09:36Z</time>
      </trkpt>
      <trkpt lat="45.70618" lon="3.0928">
        <ele>633.65</ele>
        <time>2016-06-19T10:09:37Z</time>
      </trkpt>
      <trkpt lat="45.70614" lon="3.09284">
        <ele>632.68</ele>
        <time>2016-06-19T10:09:38Z</time>
      </trkpt>
      <trkpt lat="45.70609" lon="3.09287">
        <ele>632.2</ele>
        <time>2016-06-19T10:09:39Z</time>
      </trkpt>
      <trkpt lat="45.70604" lon="3.0929">
        <ele>631.24</ele>
        <time>2016-06-19T10:09:40Z</time>
      </trkpt>
      <trkpt lat="45.70598" lon="3.09294">
        <ele>630.28</ele>
        <time>2016-06-19T10:09:41Z</time>
      </trkpt>
      <trkpt lat="45.70594" lon="3.09297">
        <ele>629.8</ele>
        <time>2016-06-19T10:09:42Z</time>
      </trkpt>
      <trkpt lat="45.70577" lon="3.09306">
        <ele>626.92</ele>
        <time>2016-06-19T10:09:45Z</time>
      </trkpt>
      <trkpt lat="45.70572" lon="3.09308">
        <ele>625.96</ele>
        <time>2016-06-19T10:09:46Z</time>
      </trkpt>
      <trkpt lat="45.70561" lon="3.09313">
        <ele>624.51</ele>
        <time>2016-06-19T10:09:48Z</time>
      </trkpt>
      <trkpt lat="45.70557" lon="3.09316">
        <ele>623.55</ele>
        <time>2016-06-19T10:09:49Z</time>
      </trkpt>
      <trkpt lat="45.70554" lon="3.09319">
        <ele>623.07</ele>
        <time>2016-06-19T10:09:50Z</time>
      </trkpt>
      <trkpt lat="45.7055" lon="3.09322">
        <ele>622.11</ele>
        <time>2016-06-19T10:09:51Z</time>
      </trkpt>
      <trkpt lat="45.70546" lon="3.09324">
        <ele>621.15</ele>
        <time>2016-06-19T10:09:52Z</time>
      </trkpt>
      <trkpt lat="45.70527" lon="3.09336">
        <ele>618.26</ele>
        <time>2016-06-19T10:09:56Z</time>
      </trkpt>
      <trkpt lat="45.7052" lon="3.09341">
        <ele>617.3</ele>
        <time>2016-06-19T10:09:57Z</time>
      </trkpt>
      <trkpt lat="45.70514" lon="3.09345">
        <ele>616.34</ele>
        <time>2016-06-19T10:09:58Z</time>
      </trkpt>
      <trkpt lat="45.70491" lon="3.09361">
        <ele>612.5</ele>
        <time>2016-06-19T10:10:02Z</time>
      </trkpt>
      <trkpt lat="45.70465" lon="3.09379">
        <ele>608.17</ele>
        <time>2016-06-19T10:10:06Z</time>
      </trkpt>
      <trkpt lat="45.70454" lon="3.0939">
        <ele>606.73</ele>
        <time>2016-06-19T10:10:08Z</time>
      </trkpt>
      <trkpt lat="45.70448" lon="3.09396">
        <ele>605.29</ele>
        <time>2016-06-19T10:10:09Z</time>
      </trkpt>
      <trkpt lat="45.70438" lon="3.09408">
        <ele>604.33</ele>
        <time>2016-06-19T10:10:11Z</time>
      </trkpt>
      <trkpt lat="45.70433" lon="3.09415">
        <ele>603.85</ele>
        <time>2016-06-19T10:10:12Z</time>
      </trkpt>
      <trkpt lat="45.70409" lon="3.09447">
        <ele>602.88</ele>
        <time>2016-06-19T10:10:21Z</time>
      </trkpt>
      <trkpt lat="45.70372" lon="3.09482">
        <ele>602.4</ele>
        <time>2016-06-19T10:10:31Z</time>
      </trkpt>
      <trkpt lat="45.7034" lon="3.09516">
        <ele>600.96</ele>
        <time>2016-06-19T10:10:39Z</time>
      </trkpt>
      <trkpt lat="45.70307" lon="3.09547">
        <ele>598.56</ele>
        <time>2016-06-19T10:10:46Z</time>
      </trkpt>
      <trkpt lat="45.70252" lon="3.09604">
        <ele>595.67</ele>
        <time>2016-06-19T10:10:58Z</time>
      </trkpt>
      <trkpt lat="45.7022" lon="3.09693">
        <ele>594.23</ele>
        <time>2016-06-19T10:11:12Z</time>
      </trkpt>
      <trkpt lat="45.70206" lon="3.0977">
        <ele>594.23</ele>
        <time>2016-06-19T10:11:24Z</time>
      </trkpt>
      <trkpt lat="45.70201" lon="3.09794">
        <ele>594.71</ele>
        <time>2016-06-19T10:11:28Z</time>
      </trkpt>
      <trkpt lat="45.70182" lon="3.09867">
        <ele>597.12</ele>
        <time>2016-06-19T10:11:43Z</time>
      </trkpt>
      <trkpt lat="45.70163" lon="3.09924">
        <ele>594.71</ele>
        <time>2016-06-19T10:11:54Z</time>
      </trkpt>
      <trkpt lat="45.70151" lon="3.10013">
        <ele>591.83</ele>
        <time>2016-06-19T10:12:04Z</time>
      </trkpt>
      <trkpt lat="45.70156" lon="3.10085">
        <ele>588.46</ele>
        <time>2016-06-19T10:12:10Z</time>
      </trkpt>
      <trkpt lat="45.70162" lon="3.10111">
        <ele>587.02</ele>
        <time>2016-06-19T10:12:12Z</time>
      </trkpt>
      <trkpt lat="45.70179" lon="3.1018">
        <ele>588.95</ele>
        <time>2016-06-19T10:12:20Z</time>
      </trkpt>
      <trkpt lat="45.7018" lon="3.10184">
        <ele>589.43</ele>
        <time>2016-06-19T10:12:21Z</time>
      </trkpt>
      <trkpt lat="45.70184" lon="3.1019">
        <ele>589.91</ele>
        <time>2016-06-19T10:12:23Z</time>
      </trkpt>
      <trkpt lat="45.70186" lon="3.10192">
        <ele>589.43</ele>
        <time>2016-06-19T10:12:24Z</time>
      </trkpt>
      <trkpt lat="45.70189" lon="3.10193">
        <ele>590.39</ele>
        <time>2016-06-19T10:12:25Z</time>
      </trkpt>
      <trkpt lat="45.70191" lon="3.10193">
        <ele>591.35</ele>
        <time>2016-06-19T10:12:26Z</time>
      </trkpt>
      <trkpt lat="45.70193" lon="3.10194">
        <ele>591.35</ele>
        <time>2016-06-19T10:12:27Z</time>
      </trkpt>
      <trkpt lat="45.70195" lon="3.10194">
        <ele>592.31</ele>
        <time>2016-06-19T10:12:28Z</time>
      </trkpt>
      <trkpt lat="45.70197" lon="3.10194">
        <ele>592.79</ele>
        <time>2016-06-19T10:12:29Z</time>
      </trkpt>
      <trkpt lat="45.70211" lon="3.10194">
        <ele>595.67</ele>
        <time>2016-06-19T10:12:38Z</time>
      </trkpt>
      <trkpt lat="45.70215" lon="3.10194">
        <ele>597.6</ele>
        <time>2016-06-19T10:12:41Z</time>
      </trkpt>
      <trkpt lat="45.70217" lon="3.10195">
        <ele>597.6</ele>
        <time>2016-06-19T10:12:42Z</time>
      </trkpt>
      <trkpt lat="45.70221" lon="3.102">
        <ele>598.08</ele>
        <time>2016-06-19T10:12:46Z</time>
      </trkpt>
      <trkpt lat="45.70232" lon="3.10217">
        <ele>601.44</ele>
        <time>2016-06-19T10:12:56Z</time>
      </trkpt>
      <trkpt lat="45.70233" lon="3.10219">
        <ele>600.96</ele>
        <time>2016-06-19T10:12:57Z</time>
      </trkpt>
      <trkpt lat="45.70244" lon="3.1024">
        <ele>603.36</ele>
        <time>2016-06-19T10:13:08Z</time>
      </trkpt>
      <trkpt lat="45.70257" lon="3.10256">
        <ele>606.25</ele>
        <time>2016-06-19T10:13:20Z</time>
      </trkpt>
      <trkpt lat="45.70258" lon="3.10256">
        <ele>607.21</ele>
        <time>2016-06-19T10:13:21Z</time>
      </trkpt>
      <trkpt lat="45.70259" lon="3.10257">
        <ele>606.25</ele>
        <time>2016-06-19T10:13:22Z</time>
      </trkpt>
      <trkpt lat="45.70261" lon="3.10258">
        <ele>607.21</ele>
        <time>2016-06-19T10:13:23Z</time>
      </trkpt>
      <trkpt lat="45.70262" lon="3.1026">
        <ele>607.69</ele>
        <time>2016-06-19T10:13:24Z</time>
      </trkpt>
      <trkpt lat="45.70268" lon="3.10277">
        <ele>608.17</ele>
        <time>2016-06-19T10:13:36Z</time>
      </trkpt>
      <trkpt lat="45.70272" lon="3.1029">
        <ele>609.61</ele>
        <time>2016-06-19T10:13:42Z</time>
      </trkpt>
      <trkpt lat="45.70279" lon="3.10315">
        <ele>611.54</ele>
        <time>2016-06-19T10:13:54Z</time>
      </trkpt>
      <trkpt lat="45.70279" lon="3.10319">
        <ele>610.57</ele>
        <time>2016-06-19T10:13:56Z</time>
      </trkpt>
      <trkpt lat="45.7028" lon="3.10321">
        <ele>610.57</ele>
        <time>2016-06-19T10:13:57Z</time>
      </trkpt>
      <trkpt lat="45.70278" lon="3.10326">
        <ele>612.02</ele>
        <time>2016-06-19T10:14:01Z</time>
      </trkpt>
      <trkpt lat="45.70275" lon="3.10332">
        <ele>612.98</ele>
        <time>2016-06-19T10:14:05Z</time>
      </trkpt>
      <trkpt lat="45.70276" lon="3.1035">
        <ele>612.02</ele>
        <time>2016-06-19T10:14:09Z</time>
      </trkpt>
      <trkpt lat="45.7028" lon="3.10364">
        <ele>612.02</ele>
        <time>2016-06-19T10:14:12Z</time>
      </trkpt>
      <trkpt lat="45.70284" lon="3.10392">
        <ele>610.57</ele>
        <time>2016-06-19T10:14:17Z</time>
      </trkpt>
      <trkpt lat="45.70286" lon="3.10399">
        <ele>611.06</ele>
        <time>2016-06-19T10:14:18Z</time>
      </trkpt>
      <trkpt lat="45.70299" lon="3.10441">
        <ele>608.65</ele>
        <time>2016-06-19T10:14:25Z</time>
      </trkpt>
      <trkpt lat="45.70312" lon="3.10468">
        <ele>604.81</ele>
        <time>2016-06-19T10:14:30Z</time>
      </trkpt>
      <trkpt lat="45.70315" lon="3.10473">
        <ele>604.81</ele>
        <time>2016-06-19T10:14:31Z</time>
      </trkpt>
      <trkpt lat="45.7032" lon="3.10483">
        <ele>603.85</ele>
        <time>2016-06-19T10:14:33Z</time>
      </trkpt>
      <trkpt lat="45.70326" lon="3.10493">
        <ele>602.4</ele>
        <time>2016-06-19T10:14:35Z</time>
      </trkpt>
      <trkpt lat="45.7033" lon="3.1051">
        <ele>600</ele>
        <time>2016-06-19T10:14:38Z</time>
      </trkpt>
      <trkpt lat="45.70332" lon="3.10525">
        <ele>596.64</ele>
        <time>2016-06-19T10:14:41Z</time>
      </trkpt>
      <trkpt lat="45.70332" lon="3.10529">
        <ele>596.15</ele>
        <time>2016-06-19T10:14:42Z</time>
      </trkpt>
      <trkpt lat="45.70331" lon="3.10535">
        <ele>596.15</ele>
        <time>2016-06-19T10:14:43Z</time>
      </trkpt>
      <trkpt lat="45.7033" lon="3.10548">
        <ele>592.79</ele>
        <time>2016-06-19T10:14:46Z</time>
      </trkpt>
      <trkpt lat="45.70329" lon="3.10555">
        <ele>592.31</ele>
        <time>2016-06-19T10:14:48Z</time>
      </trkpt>
      <trkpt lat="45.70327" lon="3.10566">
        <ele>589.91</ele>
        <time>2016-06-19T10:14:51Z</time>
      </trkpt>
      <trkpt lat="45.70327" lon="3.1057">
        <ele>589.91</ele>
        <time>2016-06-19T10:14:52Z</time>
      </trkpt>
      <trkpt lat="45.70328" lon="3.10575">
        <ele>587.98</ele>
        <time>2016-06-19T10:14:53Z</time>
      </trkpt>
      <trkpt lat="45.7033" lon="3.10582">
        <ele>587.98</ele>
        <time>2016-06-19T10:14:54Z</time>
      </trkpt>
      <trkpt lat="45.70341" lon="3.10613">
        <ele>585.1</ele>
        <time>2016-06-19T10:14:57Z</time>
      </trkpt>
      <trkpt lat="45.70349" lon="3.10636">
        <ele>581.25</ele>
        <time>2016-06-19T10:14:59Z</time>
      </trkpt>
      <trkpt lat="45.7036" lon="3.10673">
        <ele>579.33</ele>
        <time>2016-06-19T10:15:02Z</time>
      </trkpt>
      <trkpt lat="45.70369" lon="3.10707">
        <ele>577.89</ele>
        <time>2016-06-19T10:15:06Z</time>
      </trkpt>
      <trkpt lat="45.70373" lon="3.1071">
        <ele>577.41</ele>
        <time>2016-06-19T10:15:07Z</time>
      </trkpt>
      <trkpt lat="45.70376" lon="3.10711">
        <ele>576.93</ele>
        <time>2016-06-19T10:15:08Z</time>
      </trkpt>
      <trkpt lat="45.70378" lon="3.1071">
        <ele>577.41</ele>
        <time>2016-06-19T10:15:09Z</time>
      </trkpt>
      <trkpt lat="45.70381" lon="3.10708">
        <ele>577.89</ele>
        <time>2016-06-19T10:15:10Z</time>
      </trkpt>
      <trkpt lat="45.70382" lon="3.10706">
        <ele>578.37</ele>
        <time>2016-06-19T10:15:11Z</time>
      </trkpt>
      <trkpt lat="45.70384" lon="3.10704">
        <ele>578.37</ele>
        <time>2016-06-19T10:15:12Z</time>
      </trkpt>
      <trkpt lat="45.70385" lon="3.10702">
        <ele>578.85</ele>
        <time>2016-06-19T10:15:13Z</time>
      </trkpt>
      <trkpt lat="45.70401" lon="3.1068">
        <ele>580.77</ele>
        <time>2016-06-19T10:15:23Z</time>
      </trkpt>
      <trkpt lat="45.70405" lon="3.10675">
        <ele>581.73</ele>
        <time>2016-06-19T10:15:26Z</time>
      </trkpt>
      <trkpt lat="45.70407" lon="3.10674">
        <ele>581.73</ele>
        <time>2016-06-19T10:15:27Z</time>
      </trkpt>
      <trkpt lat="45.70408" lon="3.10671">
        <ele>581.73</ele>
        <time>2016-06-19T10:15:28Z</time>
      </trkpt>
      <trkpt lat="45.70409" lon="3.10669">
        <ele>581.73</ele>
        <time>2016-06-19T10:15:29Z</time>
      </trkpt>
      <trkpt lat="45.7041" lon="3.10666">
        <ele>582.22</ele>
        <time>2016-06-19T10:15:30Z</time>
      </trkpt>
      <trkpt lat="45.70411" lon="3.10664">
        <ele>582.7</ele>
        <time>2016-06-19T10:15:31Z</time>
      </trkpt>
      <trkpt lat="45.70422" lon="3.10649">
        <ele>585.58</ele>
        <time>2016-06-19T10:15:40Z</time>
      </trkpt>
      <trkpt lat="45.7044" lon="3.10638">
        <ele>588.46</ele>
        <time>2016-06-19T10:15:53Z</time>
      </trkpt>
      <trkpt lat="45.70454" lon="3.1063">
        <ele>589.91</ele>
        <time>2016-06-19T10:16:04Z</time>
      </trkpt>
      <trkpt lat="45.70456" lon="3.10629">
        <ele>589.91</ele>
        <time>2016-06-19T10:16:05Z</time>
      </trkpt>
      <trkpt lat="45.70468" lon="3.10622">
        <ele>590.87</ele>
        <time>2016-06-19T10:16:13Z</time>
      </trkpt>
      <trkpt lat="45.70469" lon="3.10621">
        <ele>592.31</ele>
        <time>2016-06-19T10:16:14Z</time>
      </trkpt>
      <trkpt lat="45.70473" lon="3.10617">
        <ele>593.27</ele>
        <time>2016-06-19T10:16:17Z</time>
      </trkpt>
      <trkpt lat="45.70474" lon="3.10615">
        <ele>593.27</ele>
        <time>2016-06-19T10:16:18Z</time>
      </trkpt>
      <trkpt lat="45.70475" lon="3.10613">
        <ele>593.27</ele>
        <time>2016-06-19T10:16:19Z</time>
      </trkpt>
      <trkpt lat="45.70476" lon="3.10611">
        <ele>592.31</ele>
        <time>2016-06-19T10:16:20Z</time>
      </trkpt>
      <trkpt lat="45.70477" lon="3.10611">
        <ele>592.31</ele>
        <time>2016-06-19T10:16:21Z</time>
      </trkpt>
      <trkpt lat="45.70483" lon="3.10613">
        <ele>594.71</ele>
        <time>2016-06-19T10:16:25Z</time>
      </trkpt>
      <trkpt lat="45.70487" lon="3.10623">
        <ele>595.19</ele>
        <time>2016-06-19T10:16:32Z</time>
      </trkpt>
      <trkpt lat="45.70489" lon="3.10648">
        <ele>597.6</ele>
        <time>2016-06-19T10:16:47Z</time>
      </trkpt>
      <trkpt lat="45.70506" lon="3.10664">
        <ele>600</ele>
        <time>2016-06-19T10:17:00Z</time>
      </trkpt>
      <trkpt lat="45.70526" lon="3.10671">
        <ele>602.4</ele>
        <time>2016-06-19T10:17:14Z</time>
      </trkpt>
      <trkpt lat="45.70544" lon="3.10669">
        <ele>606.25</ele>
        <time>2016-06-19T10:17:28Z</time>
      </trkpt>
      <trkpt lat="45.70565" lon="3.1067">
        <ele>608.17</ele>
        <time>2016-06-19T10:17:43Z</time>
      </trkpt>
      <trkpt lat="45.70567" lon="3.10671">
        <ele>608.65</ele>
        <time>2016-06-19T10:17:44Z</time>
      </trkpt>
      <trkpt lat="45.70589" lon="3.10682">
        <ele>611.54</ele>
        <time>2016-06-19T10:17:58Z</time>
      </trkpt>
      <trkpt lat="45.70596" lon="3.10682">
        <ele>612.5</ele>
        <time>2016-06-19T10:18:03Z</time>
      </trkpt>
      <trkpt lat="45.70602" lon="3.1068">
        <ele>612.98</ele>
        <time>2016-06-19T10:18:07Z</time>
      </trkpt>
      <trkpt lat="45.7061" lon="3.10677">
        <ele>614.42</ele>
        <time>2016-06-19T10:18:15Z</time>
      </trkpt>
      <trkpt lat="45.70623" lon="3.10673">
        <ele>617.3</ele>
        <time>2016-06-19T10:18:24Z</time>
      </trkpt>
      <trkpt lat="45.70631" lon="3.10669">
        <ele>617.78</ele>
        <time>2016-06-19T10:18:30Z</time>
      </trkpt>
      <trkpt lat="45.70639" lon="3.10666">
        <ele>619.71</ele>
        <time>2016-06-19T10:18:37Z</time>
      </trkpt>
      <trkpt lat="45.70642" lon="3.10668">
        <ele>620.19</ele>
        <time>2016-06-19T10:18:40Z</time>
      </trkpt>
      <trkpt lat="45.70644" lon="3.10675">
        <ele>621.15</ele>
        <time>2016-06-19T10:18:45Z</time>
      </trkpt>
      <trkpt lat="45.70644" lon="3.10688">
        <ele>623.07</ele>
        <time>2016-06-19T10:18:55Z</time>
      </trkpt>
      <trkpt lat="45.70638" lon="3.10709">
        <ele>625.47</ele>
        <time>2016-06-19T10:19:08Z</time>
      </trkpt>
      <trkpt lat="45.70633" lon="3.10725">
        <ele>627.4</ele>
        <time>2016-06-19T10:19:18Z</time>
      </trkpt>
      <trkpt lat="45.70631" lon="3.10734">
        <ele>628.84</ele>
        <time>2016-06-19T10:19:23Z</time>
      </trkpt>
      <trkpt lat="45.7063" lon="3.10745">
        <ele>630.28</ele>
        <time>2016-06-19T10:19:35Z</time>
      </trkpt>
      <trkpt lat="45.70629" lon="3.10748">
        <ele>630.76</ele>
        <time>2016-06-19T10:19:39Z</time>
      </trkpt>
      <trkpt lat="45.70627" lon="3.10758">
        <ele>632.68</ele>
        <time>2016-06-19T10:19:51Z</time>
      </trkpt>
      <trkpt lat="45.70629" lon="3.10773">
        <ele>635.09</ele>
        <time>2016-06-19T10:20:07Z</time>
      </trkpt>
      <trkpt lat="45.7063" lon="3.10789">
        <ele>637.97</ele>
        <time>2016-06-19T10:20:21Z</time>
      </trkpt>
      <trkpt lat="45.70637" lon="3.10793">
        <ele>639.89</ele>
        <time>2016-06-19T10:20:34Z</time>
      </trkpt>
      <trkpt lat="45.70638" lon="3.10791">
        <ele>639.89</ele>
        <time>2016-06-19T10:20:36Z</time>
      </trkpt>
      <trkpt lat="45.70645" lon="3.10785">
        <ele>641.34</ele>
        <time>2016-06-19T10:20:46Z</time>
      </trkpt>
      <trkpt lat="45.70648" lon="3.10779">
        <ele>642.3</ele>
        <time>2016-06-19T10:20:53Z</time>
      </trkpt>
      <trkpt lat="45.70655" lon="3.1076">
        <ele>643.74</ele>
        <time>2016-06-19T10:21:08Z</time>
      </trkpt>
      <trkpt lat="45.70656" lon="3.1076">
        <ele>643.74</ele>
        <time>2016-06-19T10:21:10Z</time>
      </trkpt>
      <trkpt lat="45.7066" lon="3.10759">
        <ele>644.7</ele>
        <time>2016-06-19T10:21:14Z</time>
      </trkpt>
      <trkpt lat="45.70676" lon="3.10767">
        <ele>645.66</ele>
        <time>2016-06-19T10:21:32Z</time>
      </trkpt>
      <trkpt lat="45.70688" lon="3.10776">
        <ele>645.66</ele>
        <time>2016-06-19T10:21:43Z</time>
      </trkpt>
      <trkpt lat="45.70727" lon="3.10812">
        <ele>646.14</ele>
        <time>2016-06-19T10:21:57Z</time>
      </trkpt>
      <trkpt lat="45.70767" lon="3.10866">
        <ele>644.7</ele>
        <time>2016-06-19T10:22:12Z</time>
      </trkpt>
      <trkpt lat="45.70772" lon="3.10875">
        <ele>644.22</ele>
        <time>2016-06-19T10:22:14Z</time>
      </trkpt>
      <trkpt lat="45.70775" lon="3.1088">
        <ele>643.74</ele>
        <time>2016-06-19T10:22:15Z</time>
      </trkpt>
      <trkpt lat="45.70777" lon="3.10884">
        <ele>643.74</ele>
        <time>2016-06-19T10:22:16Z</time>
      </trkpt>
      <trkpt lat="45.7078" lon="3.10887">
        <ele>643.26</ele>
        <time>2016-06-19T10:22:17Z</time>
      </trkpt>
      <trkpt lat="45.70784" lon="3.10888">
        <ele>642.78</ele>
        <time>2016-06-19T10:22:18Z</time>
      </trkpt>
      <trkpt lat="45.70788" lon="3.10888">
        <ele>641.82</ele>
        <time>2016-06-19T10:22:19Z</time>
      </trkpt>
      <trkpt lat="45.70792" lon="3.10888">
        <ele>642.3</ele>
        <time>2016-06-19T10:22:20Z</time>
      </trkpt>
      <trkpt lat="45.70796" lon="3.10887">
        <ele>641.82</ele>
        <time>2016-06-19T10:22:21Z</time>
      </trkpt>
      <trkpt lat="45.708" lon="3.10886">
        <ele>641.34</ele>
        <time>2016-06-19T10:22:22Z</time>
      </trkpt>
      <trkpt lat="45.70804" lon="3.10885">
        <ele>641.34</ele>
        <time>2016-06-19T10:22:23Z</time>
      </trkpt>
      <trkpt lat="45.70808" lon="3.10884">
        <ele>640.86</ele>
        <time>2016-06-19T10:22:24Z</time>
      </trkpt>
      <trkpt lat="45.70813" lon="3.10883">
        <ele>640.86</ele>
        <time>2016-06-19T10:22:25Z</time>
      </trkpt>
      <trkpt lat="45.70854" lon="3.10878">
        <ele>639.89</ele>
        <time>2016-06-19T10:22:36Z</time>
      </trkpt>
      <trkpt lat="45.70902" lon="3.10871">
        <ele>640.38</ele>
        <time>2016-06-19T10:22:49Z</time>
      </trkpt>
      <trkpt lat="45.70951" lon="3.1086">
        <ele>638.93</ele>
        <time>2016-06-19T10:23:01Z</time>
      </trkpt>
      <trkpt lat="45.70993" lon="3.10848">
        <ele>637.97</ele>
        <time>2016-06-19T10:23:13Z</time>
      </trkpt>
      <trkpt lat="45.71045" lon="3.10829">
        <ele>636.05</ele>
        <time>2016-06-19T10:23:28Z</time>
      </trkpt>
      <trkpt lat="45.7107" lon="3.10794">
        <ele>636.53</ele>
        <time>2016-06-19T10:23:38Z</time>
      </trkpt>
      <trkpt lat="45.71075" lon="3.10786">
        <ele>637.01</ele>
        <time>2016-06-19T10:23:40Z</time>
      </trkpt>
      <trkpt lat="45.71082" lon="3.10773">
        <ele>637.49</ele>
        <time>2016-06-19T10:23:44Z</time>
      </trkpt>
      <trkpt lat="45.71099" lon="3.10737">
        <ele>638.45</ele>
        <time>2016-06-19T10:23:52Z</time>
      </trkpt>
      <trkpt lat="45.71122" lon="3.10673">
        <ele>639.41</ele>
        <time>2016-06-19T10:24:05Z</time>
      </trkpt>
      <trkpt lat="45.71127" lon="3.10642">
        <ele>641.82</ele>
        <time>2016-06-19T10:24:13Z</time>
      </trkpt>
      <trkpt lat="45.71123" lon="3.10623">
        <ele>642.3</ele>
        <time>2016-06-19T10:24:18Z</time>
      </trkpt>
      <trkpt lat="45.71125" lon="3.10611">
        <ele>641.82</ele>
        <time>2016-06-19T10:24:21Z</time>
      </trkpt>
      <trkpt lat="45.71127" lon="3.10604">
        <ele>640.86</ele>
        <time>2016-06-19T10:24:23Z</time>
      </trkpt>
      <trkpt lat="45.71133" lon="3.10595">
        <ele>639.89</ele>
        <time>2016-06-19T10:24:26Z</time>
      </trkpt>
      <trkpt lat="45.71137" lon="3.10591">
        <ele>639.41</ele>
        <time>2016-06-19T10:24:28Z</time>
      </trkpt>
      <trkpt lat="45.71142" lon="3.10586">
        <ele>638.93</ele>
        <time>2016-06-19T10:24:30Z</time>
      </trkpt>
      <trkpt lat="45.71153" lon="3.10582">
        <ele>637.01</ele>
        <time>2016-06-19T10:24:36Z</time>
      </trkpt>
      <trkpt lat="45.71156" lon="3.10584">
        <ele>636.05</ele>
        <time>2016-06-19T10:24:38Z</time>
      </trkpt>
      <trkpt lat="45.71156" lon="3.10588">
        <ele>634.61</ele>
        <time>2016-06-19T10:24:41Z</time>
      </trkpt>
      <trkpt lat="45.71155" lon="3.10592">
        <ele>634.61</ele>
        <time>2016-06-19T10:24:43Z</time>
      </trkpt>
      <trkpt lat="45.71154" lon="3.10597">
        <ele>633.65</ele>
        <time>2016-06-19T10:24:45Z</time>
      </trkpt>
      <trkpt lat="45.71149" lon="3.10617">
        <ele>630.76</ele>
        <time>2016-06-19T10:24:53Z</time>
      </trkpt>
      <trkpt lat="45.71151" lon="3.1063">
        <ele>628.84</ele>
        <time>2016-06-19T10:25:00Z</time>
      </trkpt>
      <trkpt lat="45.7115" lon="3.10631">
        <ele>628.36</ele>
        <time>2016-06-19T10:25:01Z</time>
      </trkpt>
      <trkpt lat="45.71149" lon="3.10643">
        <ele>626.92</ele>
        <time>2016-06-19T10:25:05Z</time>
      </trkpt>
      <trkpt lat="45.71149" lon="3.10649">
        <ele>626.44</ele>
        <time>2016-06-19T10:25:07Z</time>
      </trkpt>
      <trkpt lat="45.71153" lon="3.10674">
        <ele>624.03</ele>
        <time>2016-06-19T10:25:12Z</time>
      </trkpt>
      <trkpt lat="45.71153" lon="3.10688">
        <ele>623.07</ele>
        <time>2016-06-19T10:25:15Z</time>
      </trkpt>
      <trkpt lat="45.71152" lon="3.10694">
        <ele>622.11</ele>
        <time>2016-06-19T10:25:17Z</time>
      </trkpt>
      <trkpt lat="45.71141" lon="3.10709">
        <ele>618.75</ele>
        <time>2016-06-19T10:25:25Z</time>
      </trkpt>
      <trkpt lat="45.71148" lon="3.10763">
        <ele>615.38</ele>
        <time>2016-06-19T10:25:34Z</time>
      </trkpt>
      <trkpt lat="45.7115" lon="3.10777">
        <ele>613.94</ele>
        <time>2016-06-19T10:25:37Z</time>
      </trkpt>
      <trkpt lat="45.71161" lon="3.10817">
        <ele>612.5</ele>
        <time>2016-06-19T10:25:46Z</time>
      </trkpt>
      <trkpt lat="45.71174" lon="3.1083">
        <ele>613.94</ele>
        <time>2016-06-19T10:25:57Z</time>
      </trkpt>
      <trkpt lat="45.71187" lon="3.10836">
        <ele>616.82</ele>
        <time>2016-06-19T10:26:10Z</time>
      </trkpt>
      <trkpt lat="45.712" lon="3.1084">
        <ele>619.23</ele>
        <time>2016-06-19T10:26:22Z</time>
      </trkpt>
      <trkpt lat="45.71208" lon="3.10841">
        <ele>621.15</ele>
        <time>2016-06-19T10:26:29Z</time>
      </trkpt>
      <trkpt lat="45.71225" lon="3.10842">
        <ele>623.07</ele>
        <time>2016-06-19T10:26:43Z</time>
      </trkpt>
      <trkpt lat="45.71239" lon="3.10835">
        <ele>625.47</ele>
        <time>2016-06-19T10:26:58Z</time>
      </trkpt>
      <trkpt lat="45.71253" lon="3.10831">
        <ele>627.88</ele>
        <time>2016-06-19T10:27:14Z</time>
      </trkpt>
      <trkpt lat="45.71265" lon="3.1083">
        <ele>629.8</ele>
        <time>2016-06-19T10:27:28Z</time>
      </trkpt>
      <trkpt lat="45.71275" lon="3.10828">
        <ele>631.72</ele>
        <time>2016-06-19T10:27:39Z</time>
      </trkpt>
      <trkpt lat="45.71288" lon="3.10824">
        <ele>634.13</ele>
        <time>2016-06-19T10:27:53Z</time>
      </trkpt>
      <trkpt lat="45.713" lon="3.10821">
        <ele>635.57</ele>
        <time>2016-06-19T10:28:08Z</time>
      </trkpt>
      <trkpt lat="45.71301" lon="3.1082">
        <ele>635.57</ele>
        <time>2016-06-19T10:28:27Z</time>
      </trkpt>
      <trkpt lat="45.71309" lon="3.10817">
        <ele>637.01</ele>
        <time>2016-06-19T10:28:32Z</time>
      </trkpt>
      <trkpt lat="45.71341" lon="3.10812">
        <ele>639.41</ele>
        <time>2016-06-19T10:28:46Z</time>
      </trkpt>
      <trkpt lat="45.71381" lon="3.10806">
        <ele>641.82</ele>
        <time>2016-06-19T10:29:02Z</time>
      </trkpt>
      <trkpt lat="45.71413" lon="3.10796">
        <ele>644.22</ele>
        <time>2016-06-19T10:29:16Z</time>
      </trkpt>
      <trkpt lat="45.71419" lon="3.10787">
        <ele>644.7</ele>
        <time>2016-06-19T10:29:20Z</time>
      </trkpt>
      <trkpt lat="45.71425" lon="3.10775">
        <ele>646.62</ele>
        <time>2016-06-19T10:29:30Z</time>
      </trkpt>
      <trkpt lat="45.71432" lon="3.1076">
        <ele>649.51</ele>
        <time>2016-06-19T10:29:43Z</time>
      </trkpt>
      <trkpt lat="45.71437" lon="3.10747">
        <ele>650.95</ele>
        <time>2016-06-19T10:29:52Z</time>
      </trkpt>
      <trkpt lat="45.71434" lon="3.10735">
        <ele>653.83</ele>
        <time>2016-06-19T10:30:04Z</time>
      </trkpt>
      <trkpt lat="45.71446" lon="3.1072">
        <ele>655.76</ele>
        <time>2016-06-19T10:30:16Z</time>
      </trkpt>
      <trkpt lat="45.71429" lon="3.10711">
        <ele>657.68</ele>
        <time>2016-06-19T10:30:31Z</time>
      </trkpt>
      <trkpt lat="45.71417" lon="3.10708">
        <ele>658.64</ele>
        <time>2016-06-19T10:31:14Z</time>
      </trkpt>
      <trkpt lat="45.71382" lon="3.10695">
        <ele>660.08</ele>
        <time>2016-06-19T10:31:31Z</time>
      </trkpt>
      <trkpt lat="45.71369" lon="3.10688">
        <ele>661.52</ele>
        <time>2016-06-19T10:31:38Z</time>
      </trkpt>
      <trkpt lat="45.71364" lon="3.10682">
        <ele>662.49</ele>
        <time>2016-06-19T10:31:42Z</time>
      </trkpt>
      <trkpt lat="45.7137" lon="3.10666">
        <ele>665.37</ele>
        <time>2016-06-19T10:31:53Z</time>
      </trkpt>
      <trkpt lat="45.71375" lon="3.10658">
        <ele>667.29</ele>
        <time>2016-06-19T10:31:59Z</time>
      </trkpt>
      <trkpt lat="45.71378" lon="3.1065">
        <ele>668.73</ele>
        <time>2016-06-19T10:32:05Z</time>
      </trkpt>
      <trkpt lat="45.71379" lon="3.1065">
        <ele>668.25</ele>
        <time>2016-06-19T10:32:06Z</time>
      </trkpt>
      <trkpt lat="45.71385" lon="3.10641">
        <ele>671.62</ele>
        <time>2016-06-19T10:32:22Z</time>
      </trkpt>
      <trkpt lat="45.71392" lon="3.10631">
        <ele>673.54</ele>
        <time>2016-06-19T10:32:36Z</time>
      </trkpt>
      <trkpt lat="45.71401" lon="3.10619">
        <ele>675.46</ele>
        <time>2016-06-19T10:32:49Z</time>
      </trkpt>
      <trkpt lat="45.71412" lon="3.10605">
        <ele>677.87</ele>
        <time>2016-06-19T10:33:02Z</time>
      </trkpt>
      <trkpt lat="45.71421" lon="3.10592">
        <ele>679.31</ele>
        <time>2016-06-19T10:33:15Z</time>
      </trkpt>
      <trkpt lat="45.7143" lon="3.10579">
        <ele>681.23</ele>
        <time>2016-06-19T10:33:27Z</time>
      </trkpt>
      <trkpt lat="45.71437" lon="3.10573">
        <ele>682.19</ele>
        <time>2016-06-19T10:33:41Z</time>
      </trkpt>
      <trkpt lat="45.71453" lon="3.10555">
        <ele>683.63</ele>
        <time>2016-06-19T10:33:54Z</time>
      </trkpt>
      <trkpt lat="45.71468" lon="3.10536">
        <ele>687</ele>
        <time>2016-06-19T10:34:09Z</time>
      </trkpt>
      <trkpt lat="45.71488" lon="3.10518">
        <ele>689.4</ele>
        <time>2016-06-19T10:34:23Z</time>
      </trkpt>
      <trkpt lat="45.71496" lon="3.1051">
        <ele>691.81</ele>
        <time>2016-06-19T10:34:30Z</time>
      </trkpt>
      <trkpt lat="45.71498" lon="3.10501">
        <ele>691.81</ele>
        <time>2016-06-19T10:34:34Z</time>
      </trkpt>
      <trkpt lat="45.71508" lon="3.10476">
        <ele>694.21</ele>
        <time>2016-06-19T10:34:48Z</time>
      </trkpt>
      <trkpt lat="45.71508" lon="3.10473">
        <ele>694.69</ele>
        <time>2016-06-19T10:34:49Z</time>
      </trkpt>
      <trkpt lat="45.71512" lon="3.1046">
        <ele>695.17</ele>
        <time>2016-06-19T10:34:56Z</time>
      </trkpt>
      <trkpt lat="45.71522" lon="3.10434">
        <ele>698.05</ele>
        <time>2016-06-19T10:35:10Z</time>
      </trkpt>
      <trkpt lat="45.71528" lon="3.1043">
        <ele>697.57</ele>
        <time>2016-06-19T10:35:14Z</time>
      </trkpt>
      <trkpt lat="45.71555" lon="3.10418">
        <ele>697.57</ele>
        <time>2016-06-19T10:35:28Z</time>
      </trkpt>
      <trkpt lat="45.71582" lon="3.10404">
        <ele>697.57</ele>
        <time>2016-06-19T10:35:41Z</time>
      </trkpt>
      <trkpt lat="45.71596" lon="3.10402">
        <ele>699.02</ele>
        <time>2016-06-19T10:35:53Z</time>
      </trkpt>
      <trkpt lat="45.71601" lon="3.10407">
        <ele>699.5</ele>
        <time>2016-06-19T10:36:00Z</time>
      </trkpt>
      <trkpt lat="45.71622" lon="3.10466">
        <ele>700.46</ele>
        <time>2016-06-19T10:36:14Z</time>
      </trkpt>
      <trkpt lat="45.71668" lon="3.10528">
        <ele>701.42</ele>
        <time>2016-06-19T10:36:30Z</time>
      </trkpt>
      <trkpt lat="45.71684" lon="3.10551">
        <ele>701.42</ele>
        <time>2016-06-19T10:36:36Z</time>
      </trkpt>
      <trkpt lat="45.71686" lon="3.10555">
        <ele>701.42</ele>
        <time>2016-06-19T10:36:37Z</time>
      </trkpt>
      <trkpt lat="45.71695" lon="3.10618">
        <ele>701.42</ele>
        <time>2016-06-19T10:36:49Z</time>
      </trkpt>
      <trkpt lat="45.71659" lon="3.1065">
        <ele>699.02</ele>
        <time>2016-06-19T10:36:58Z</time>
      </trkpt>
      <trkpt lat="45.71643" lon="3.10668">
        <ele>698.05</ele>
        <time>2016-06-19T10:37:01Z</time>
      </trkpt>
      <trkpt lat="45.71639" lon="3.10675">
        <ele>697.57</ele>
        <time>2016-06-19T10:37:02Z</time>
      </trkpt>
      <trkpt lat="45.71635" lon="3.10683">
        <ele>697.09</ele>
        <time>2016-06-19T10:37:03Z</time>
      </trkpt>
      <trkpt lat="45.71631" lon="3.10692">
        <ele>697.09</ele>
        <time>2016-06-19T10:37:04Z</time>
      </trkpt>
      <trkpt lat="45.71628" lon="3.10702">
        <ele>697.09</ele>
        <time>2016-06-19T10:37:05Z</time>
      </trkpt>
      <trkpt lat="45.71626" lon="3.10711">
        <ele>696.61</ele>
        <time>2016-06-19T10:37:06Z</time>
      </trkpt>
      <trkpt lat="45.71597" lon="3.10851">
        <ele>694.69</ele>
        <time>2016-06-19T10:37:23Z</time>
      </trkpt>
      <trkpt lat="45.71576" lon="3.10962">
        <ele>691.81</ele>
        <time>2016-06-19T10:37:36Z</time>
      </trkpt>
      <trkpt lat="45.71549" lon="3.1105">
        <ele>687.96</ele>
        <time>2016-06-19T10:37:45Z</time>
      </trkpt>
      <trkpt lat="45.71546" lon="3.1106">
        <ele>687.48</ele>
        <time>2016-06-19T10:37:46Z</time>
      </trkpt>
      <trkpt lat="45.71508" lon="3.11174">
        <ele>687</ele>
        <time>2016-06-19T10:38:00Z</time>
      </trkpt>
      <trkpt lat="45.71459" lon="3.11313">
        <ele>684.6</ele>
        <time>2016-06-19T10:38:17Z</time>
      </trkpt>
      <trkpt lat="45.71451" lon="3.1138">
        <ele>681.71</ele>
        <time>2016-06-19T10:38:24Z</time>
      </trkpt>
      <trkpt lat="45.71449" lon="3.11459">
        <ele>678.83</ele>
        <time>2016-06-19T10:38:31Z</time>
      </trkpt>
      <trkpt lat="45.71443" lon="3.115">
        <ele>674.98</ele>
        <time>2016-06-19T10:38:34Z</time>
      </trkpt>
      <trkpt lat="45.7144" lon="3.11514">
        <ele>674.5</ele>
        <time>2016-06-19T10:38:35Z</time>
      </trkpt>
      <trkpt lat="45.71436" lon="3.11529">
        <ele>673.06</ele>
        <time>2016-06-19T10:38:36Z</time>
      </trkpt>
      <trkpt lat="45.71427" lon="3.11556">
        <ele>670.18</ele>
        <time>2016-06-19T10:38:38Z</time>
      </trkpt>
      <trkpt lat="45.71423" lon="3.11569">
        <ele>668.25</ele>
        <time>2016-06-19T10:38:39Z</time>
      </trkpt>
      <trkpt lat="45.7142" lon="3.11581">
        <ele>668.25</ele>
        <time>2016-06-19T10:38:40Z</time>
      </trkpt>
      <trkpt lat="45.71418" lon="3.11593">
        <ele>666.81</ele>
        <time>2016-06-19T10:38:41Z</time>
      </trkpt>
      <trkpt lat="45.71416" lon="3.1162">
        <ele>664.89</ele>
        <time>2016-06-19T10:38:43Z</time>
      </trkpt>
      <trkpt lat="45.71417" lon="3.11633">
        <ele>663.45</ele>
        <time>2016-06-19T10:38:44Z</time>
      </trkpt>
      <trkpt lat="45.71418" lon="3.11645">
        <ele>662.49</ele>
        <time>2016-06-19T10:38:45Z</time>
      </trkpt>
      <trkpt lat="45.7142" lon="3.11657">
        <ele>661.52</ele>
        <time>2016-06-19T10:38:46Z</time>
      </trkpt>
      <trkpt lat="45.71422" lon="3.11669">
        <ele>660.08</ele>
        <time>2016-06-19T10:38:47Z</time>
      </trkpt>
      <trkpt lat="45.71428" lon="3.11705">
        <ele>656.72</ele>
        <time>2016-06-19T10:38:50Z</time>
      </trkpt>
      <trkpt lat="45.71428" lon="3.11717">
        <ele>655.28</ele>
        <time>2016-06-19T10:38:51Z</time>
      </trkpt>
      <trkpt lat="45.71426" lon="3.11728">
        <ele>654.31</ele>
        <time>2016-06-19T10:38:52Z</time>
      </trkpt>
      <trkpt lat="45.71423" lon="3.11739">
        <ele>652.87</ele>
        <time>2016-06-19T10:38:53Z</time>
      </trkpt>
      <trkpt lat="45.71419" lon="3.11749">
        <ele>651.91</ele>
        <time>2016-06-19T10:38:54Z</time>
      </trkpt>
      <trkpt lat="45.71412" lon="3.11758">
        <ele>651.91</ele>
        <time>2016-06-19T10:38:55Z</time>
      </trkpt>
      <trkpt lat="45.71406" lon="3.11768">
        <ele>650.47</ele>
        <time>2016-06-19T10:38:56Z</time>
      </trkpt>
      <trkpt lat="45.714" lon="3.11779">
        <ele>649.99</ele>
        <time>2016-06-19T10:38:57Z</time>
      </trkpt>
      <trkpt lat="45.71394" lon="3.11791">
        <ele>648.55</ele>
        <time>2016-06-19T10:38:58Z</time>
      </trkpt>
      <trkpt lat="45.71389" lon="3.11804">
        <ele>647.59</ele>
        <time>2016-06-19T10:38:59Z</time>
      </trkpt>
      <trkpt lat="45.71385" lon="3.11816">
        <ele>646.62</ele>
        <time>2016-06-19T10:39:00Z</time>
      </trkpt>
      <trkpt lat="45.71382" lon="3.11828">
        <ele>645.66</ele>
        <time>2016-06-19T10:39:01Z</time>
      </trkpt>
      <trkpt lat="45.7138" lon="3.1184">
        <ele>643.74</ele>
        <time>2016-06-19T10:39:02Z</time>
      </trkpt>
      <trkpt lat="45.71378" lon="3.11851">
        <ele>642.78</ele>
        <time>2016-06-19T10:39:03Z</time>
      </trkpt>
      <trkpt lat="45.71378" lon="3.11862">
        <ele>642.3</ele>
        <time>2016-06-19T10:39:04Z</time>
      </trkpt>
      <trkpt lat="45.7138" lon="3.11872">
        <ele>640.86</ele>
        <time>2016-06-19T10:39:05Z</time>
      </trkpt>
      <trkpt lat="45.71384" lon="3.11883">
        <ele>640.38</ele>
        <time>2016-06-19T10:39:06Z</time>
      </trkpt>
      <trkpt lat="45.71388" lon="3.11892">
        <ele>639.41</ele>
        <time>2016-06-19T10:39:07Z</time>
      </trkpt>
      <trkpt lat="45.71395" lon="3.11907">
        <ele>638.45</ele>
        <time>2016-06-19T10:39:09Z</time>
      </trkpt>
      <trkpt lat="45.7142" lon="3.11956">
        <ele>637.01</ele>
        <time>2016-06-19T10:39:17Z</time>
      </trkpt>
      <trkpt lat="45.71423" lon="3.1197">
        <ele>637.49</ele>
        <time>2016-06-19T10:39:19Z</time>
      </trkpt>
      <trkpt lat="45.71425" lon="3.11978">
        <ele>636.53</ele>
        <time>2016-06-19T10:39:20Z</time>
      </trkpt>
      <trkpt lat="45.71425" lon="3.11986">
        <ele>636.53</ele>
        <time>2016-06-19T10:39:21Z</time>
      </trkpt>
      <trkpt lat="45.71425" lon="3.11995">
        <ele>636.05</ele>
        <time>2016-06-19T10:39:22Z</time>
      </trkpt>
      <trkpt lat="45.71425" lon="3.12005">
        <ele>635.57</ele>
        <time>2016-06-19T10:39:23Z</time>
      </trkpt>
      <trkpt lat="45.71421" lon="3.12049">
        <ele>633.17</ele>
        <time>2016-06-19T10:39:27Z</time>
      </trkpt>
      <trkpt lat="45.7142" lon="3.12074">
        <ele>631.24</ele>
        <time>2016-06-19T10:39:29Z</time>
      </trkpt>
      <trkpt lat="45.71415" lon="3.12124">
        <ele>628.36</ele>
        <time>2016-06-19T10:39:33Z</time>
      </trkpt>
      <trkpt lat="45.71406" lon="3.12158">
        <ele>624.99</ele>
        <time>2016-06-19T10:39:36Z</time>
      </trkpt>
      <trkpt lat="45.71387" lon="3.12203">
        <ele>620.67</ele>
        <time>2016-06-19T10:39:40Z</time>
      </trkpt>
      <trkpt lat="45.7137" lon="3.12235">
        <ele>617.78</ele>
        <time>2016-06-19T10:39:43Z</time>
      </trkpt>
      <trkpt lat="45.71356" lon="3.12265">
        <ele>613.94</ele>
        <time>2016-06-19T10:39:46Z</time>
      </trkpt>
      <trkpt lat="45.71342" lon="3.12297">
        <ele>610.57</ele>
        <time>2016-06-19T10:39:49Z</time>
      </trkpt>
      <trkpt lat="45.71333" lon="3.12316">
        <ele>609.13</ele>
        <time>2016-06-19T10:39:51Z</time>
      </trkpt>
      <trkpt lat="45.71326" lon="3.12332">
        <ele>606.25</ele>
        <time>2016-06-19T10:39:53Z</time>
      </trkpt>
      <trkpt lat="45.71314" lon="3.12367">
        <ele>603.36</ele>
        <time>2016-06-19T10:39:58Z</time>
      </trkpt>
      <trkpt lat="45.71311" lon="3.12372">
        <ele>602.4</ele>
        <time>2016-06-19T10:39:59Z</time>
      </trkpt>
      <trkpt lat="45.71307" lon="3.12376">
        <ele>601.44</ele>
        <time>2016-06-19T10:40:00Z</time>
      </trkpt>
      <trkpt lat="45.71301" lon="3.1238">
        <ele>600.96</ele>
        <time>2016-06-19T10:40:01Z</time>
      </trkpt>
      <trkpt lat="45.71295" lon="3.12384">
        <ele>599.52</ele>
        <time>2016-06-19T10:40:02Z</time>
      </trkpt>
      <trkpt lat="45.71264" lon="3.12404">
        <ele>596.15</ele>
        <time>2016-06-19T10:40:07Z</time>
      </trkpt>
      <trkpt lat="45.71247" lon="3.12414">
        <ele>594.23</ele>
        <time>2016-06-19T10:40:10Z</time>
      </trkpt>
      <trkpt lat="45.71242" lon="3.12416">
        <ele>594.23</ele>
        <time>2016-06-19T10:40:11Z</time>
      </trkpt>
      <trkpt lat="45.71226" lon="3.1242">
        <ele>591.83</ele>
        <time>2016-06-19T10:40:14Z</time>
      </trkpt>
      <trkpt lat="45.71202" lon="3.12426">
        <ele>588.46</ele>
        <time>2016-06-19T10:40:19Z</time>
      </trkpt>
      <trkpt lat="45.71198" lon="3.12428">
        <ele>586.54</ele>
        <time>2016-06-19T10:40:20Z</time>
      </trkpt>
      <trkpt lat="45.71196" lon="3.12432">
        <ele>586.54</ele>
        <time>2016-06-19T10:40:21Z</time>
      </trkpt>
      <trkpt lat="45.71195" lon="3.12436">
        <ele>589.43</ele>
        <time>2016-06-19T10:40:22Z</time>
      </trkpt>
      <trkpt lat="45.71195" lon="3.12441">
        <ele>586.54</ele>
        <time>2016-06-19T10:40:23Z</time>
      </trkpt>
      <trkpt lat="45.71195" lon="3.12445">
        <ele>585.58</ele>
        <time>2016-06-19T10:40:24Z</time>
      </trkpt>
      <trkpt lat="45.71196" lon="3.12449">
        <ele>585.1</ele>
        <time>2016-06-19T10:40:25Z</time>
      </trkpt>
      <trkpt lat="45.712" lon="3.12457">
        <ele>583.66</ele>
        <time>2016-06-19T10:40:27Z</time>
      </trkpt>
      <trkpt lat="45.71203" lon="3.12459">
        <ele>583.18</ele>
        <time>2016-06-19T10:40:28Z</time>
      </trkpt>
      <trkpt lat="45.71218" lon="3.1247">
        <ele>580.77</ele>
        <time>2016-06-19T10:40:33Z</time>
      </trkpt>
      <trkpt lat="45.71222" lon="3.12473">
        <ele>580.77</ele>
        <time>2016-06-19T10:40:34Z</time>
      </trkpt>
      <trkpt lat="45.7123" lon="3.12483">
        <ele>579.33</ele>
        <time>2016-06-19T10:40:37Z</time>
      </trkpt>
      <trkpt lat="45.71231" lon="3.12487">
        <ele>579.33</ele>
        <time>2016-06-19T10:40:38Z</time>
      </trkpt>
      <trkpt lat="45.71231" lon="3.12492">
        <ele>577.89</ele>
        <time>2016-06-19T10:40:39Z</time>
      </trkpt>
      <trkpt lat="45.71231" lon="3.12498">
        <ele>577.41</ele>
        <time>2016-06-19T10:40:41Z</time>
      </trkpt>
      <trkpt lat="45.71229" lon="3.12502">
        <ele>576.93</ele>
        <time>2016-06-19T10:40:42Z</time>
      </trkpt>
      <trkpt lat="45.71228" lon="3.12505">
        <ele>576.45</ele>
        <time>2016-06-19T10:40:43Z</time>
      </trkpt>
      <trkpt lat="45.71225" lon="3.12508">
        <ele>575.97</ele>
        <time>2016-06-19T10:40:44Z</time>
      </trkpt>
      <trkpt lat="45.71222" lon="3.12511">
        <ele>575.49</ele>
        <time>2016-06-19T10:40:45Z</time>
      </trkpt>
      <trkpt lat="45.71219" lon="3.12514">
        <ele>574.53</ele>
        <time>2016-06-19T10:40:46Z</time>
      </trkpt>
      <trkpt lat="45.71215" lon="3.12516">
        <ele>574.04</ele>
        <time>2016-06-19T10:40:47Z</time>
      </trkpt>
      <trkpt lat="45.712" lon="3.12535">
        <ele>569.72</ele>
        <time>2016-06-19T10:40:53Z</time>
      </trkpt>
      <trkpt lat="45.71196" lon="3.12546">
        <ele>568.76</ele>
        <time>2016-06-19T10:40:56Z</time>
      </trkpt>
      <trkpt lat="45.71194" lon="3.12547">
        <ele>568.76</ele>
        <time>2016-06-19T10:40:57Z</time>
      </trkpt>
      <trkpt lat="45.71192" lon="3.12547">
        <ele>569.24</ele>
        <time>2016-06-19T10:40:58Z</time>
      </trkpt>
      <trkpt lat="45.71189" lon="3.12547">
        <ele>569.24</ele>
        <time>2016-06-19T10:40:59Z</time>
      </trkpt>
      <trkpt lat="45.71186" lon="3.12546">
        <ele>569.24</ele>
        <time>2016-06-19T10:41:00Z</time>
      </trkpt>
      <trkpt lat="45.71182" lon="3.12546">
        <ele>568.76</ele>
        <time>2016-06-19T10:41:01Z</time>
      </trkpt>
      <trkpt lat="45.71166" lon="3.12542">
        <ele>567.32</ele>
        <time>2016-06-19T10:41:05Z</time>
      </trkpt>
      <trkpt lat="45.71155" lon="3.12541">
        <ele>566.83</ele>
        <time>2016-06-19T10:41:07Z</time>
      </trkpt>
      <trkpt lat="45.71125" lon="3.12539">
        <ele>563.47</ele>
        <time>2016-06-19T10:41:13Z</time>
      </trkpt>
      <trkpt lat="45.7112" lon="3.12537">
        <ele>562.99</ele>
        <time>2016-06-19T10:41:14Z</time>
      </trkpt>
      <trkpt lat="45.71108" lon="3.12529">
        <ele>561.55</ele>
        <time>2016-06-19T10:41:16Z</time>
      </trkpt>
      <trkpt lat="45.71087" lon="3.12511">
        <ele>557.7</ele>
        <time>2016-06-19T10:41:19Z</time>
      </trkpt>
      <trkpt lat="45.71081" lon="3.12503">
        <ele>556.74</ele>
        <time>2016-06-19T10:41:20Z</time>
      </trkpt>
      <trkpt lat="45.71075" lon="3.12493">
        <ele>555.78</ele>
        <time>2016-06-19T10:41:21Z</time>
      </trkpt>
      <trkpt lat="45.71057" lon="3.12457">
        <ele>551.45</ele>
        <time>2016-06-19T10:41:24Z</time>
      </trkpt>
      <trkpt lat="45.71051" lon="3.12445">
        <ele>550.97</ele>
        <time>2016-06-19T10:41:25Z</time>
      </trkpt>
      <trkpt lat="45.71038" lon="3.12416">
        <ele>548.09</ele>
        <time>2016-06-19T10:41:28Z</time>
      </trkpt>
      <trkpt lat="45.71028" lon="3.12396">
        <ele>547.13</ele>
        <time>2016-06-19T10:41:30Z</time>
      </trkpt>
      <trkpt lat="45.71013" lon="3.12363">
        <ele>543.76</ele>
        <time>2016-06-19T10:41:33Z</time>
      </trkpt>
      <trkpt lat="45.71009" lon="3.1235">
        <ele>543.76</ele>
        <time>2016-06-19T10:41:34Z</time>
      </trkpt>
      <trkpt lat="45.71006" lon="3.12337">
        <ele>543.28</ele>
        <time>2016-06-19T10:41:35Z</time>
      </trkpt>
      <trkpt lat="45.70996" lon="3.12297">
        <ele>542.32</ele>
        <time>2016-06-19T10:41:39Z</time>
      </trkpt>
      <trkpt lat="45.70992" lon="3.12291">
        <ele>542.32</ele>
        <time>2016-06-19T10:41:40Z</time>
      </trkpt>
      <trkpt lat="45.70987" lon="3.12286">
        <ele>541.84</ele>
        <time>2016-06-19T10:41:41Z</time>
      </trkpt>
      <trkpt lat="45.70982" lon="3.12282">
        <ele>540.88</ele>
        <time>2016-06-19T10:41:42Z</time>
      </trkpt>
      <trkpt lat="45.70976" lon="3.12279">
        <ele>540.4</ele>
        <time>2016-06-19T10:41:43Z</time>
      </trkpt>
      <trkpt lat="45.70952" lon="3.12266">
        <ele>538.48</ele>
        <time>2016-06-19T10:41:47Z</time>
      </trkpt>
      <trkpt lat="45.70947" lon="3.12262">
        <ele>537.99</ele>
        <time>2016-06-19T10:41:48Z</time>
      </trkpt>
      <trkpt lat="45.70943" lon="3.12257">
        <ele>537.03</ele>
        <time>2016-06-19T10:41:49Z</time>
      </trkpt>
      <trkpt lat="45.70939" lon="3.12251">
        <ele>537.03</ele>
        <time>2016-06-19T10:41:50Z</time>
      </trkpt>
      <trkpt lat="45.70933" lon="3.12246">
        <ele>536.55</ele>
        <time>2016-06-19T10:41:51Z</time>
      </trkpt>
      <trkpt lat="45.70926" lon="3.12242">
        <ele>535.59</ele>
        <time>2016-06-19T10:41:52Z</time>
      </trkpt>
      <trkpt lat="45.70919" lon="3.12238">
        <ele>534.15</ele>
        <time>2016-06-19T10:41:53Z</time>
      </trkpt>
      <trkpt lat="45.70913" lon="3.12233">
        <ele>533.19</ele>
        <time>2016-06-19T10:41:54Z</time>
      </trkpt>
      <trkpt lat="45.70909" lon="3.12227">
        <ele>532.71</ele>
        <time>2016-06-19T10:41:55Z</time>
      </trkpt>
      <trkpt lat="45.70906" lon="3.12219">
        <ele>531.75</ele>
        <time>2016-06-19T10:41:56Z</time>
      </trkpt>
      <trkpt lat="45.70904" lon="3.1221">
        <ele>531.75</ele>
        <time>2016-06-19T10:41:57Z</time>
      </trkpt>
      <trkpt lat="45.70903" lon="3.122">
        <ele>530.79</ele>
        <time>2016-06-19T10:41:58Z</time>
      </trkpt>
      <trkpt lat="45.70902" lon="3.1219">
        <ele>530.79</ele>
        <time>2016-06-19T10:41:59Z</time>
      </trkpt>
      <trkpt lat="45.709" lon="3.12181">
        <ele>530.79</ele>
        <time>2016-06-19T10:42:00Z</time>
      </trkpt>
      <trkpt lat="45.70898" lon="3.12173">
        <ele>529.34</ele>
        <time>2016-06-19T10:42:01Z</time>
      </trkpt>
      <trkpt lat="45.70894" lon="3.12167">
        <ele>528.86</ele>
        <time>2016-06-19T10:42:02Z</time>
      </trkpt>
      <trkpt lat="45.70888" lon="3.12164">
        <ele>528.86</ele>
        <time>2016-06-19T10:42:03Z</time>
      </trkpt>
      <trkpt lat="45.70882" lon="3.12162">
        <ele>527.9</ele>
        <time>2016-06-19T10:42:04Z</time>
      </trkpt>
      <trkpt lat="45.70875" lon="3.12161">
        <ele>527.9</ele>
        <time>2016-06-19T10:42:05Z</time>
      </trkpt>
      <trkpt lat="45.70867" lon="3.12161">
        <ele>527.9</ele>
        <time>2016-06-19T10:42:06Z</time>
      </trkpt>
      <trkpt lat="45.70859" lon="3.12161">
        <ele>525.02</ele>
        <time>2016-06-19T10:42:07Z</time>
      </trkpt>
      <trkpt lat="45.70828" lon="3.12157">
        <ele>521.65</ele>
        <time>2016-06-19T10:42:11Z</time>
      </trkpt>
      <trkpt lat="45.70822" lon="3.12159">
        <ele>521.17</ele>
        <time>2016-06-19T10:42:12Z</time>
      </trkpt>
      <trkpt lat="45.70817" lon="3.12164">
        <ele>520.69</ele>
        <time>2016-06-19T10:42:13Z</time>
      </trkpt>
      <trkpt lat="45.70814" lon="3.12171">
        <ele>520.21</ele>
        <time>2016-06-19T10:42:14Z</time>
      </trkpt>
      <trkpt lat="45.70811" lon="3.12179">
        <ele>520.21</ele>
        <time>2016-06-19T10:42:15Z</time>
      </trkpt>
      <trkpt lat="45.7081" lon="3.12183">
        <ele>519.73</ele>
        <time>2016-06-19T10:42:16Z</time>
      </trkpt>
      <trkpt lat="45.70808" lon="3.12186">
        <ele>518.77</ele>
        <time>2016-06-19T10:42:18Z</time>
      </trkpt>
      <trkpt lat="45.70807" lon="3.12186">
        <ele>518.77</ele>
        <time>2016-06-19T10:42:19Z</time>
      </trkpt>
      <trkpt lat="45.70798" lon="3.12179">
        <ele>519.25</ele>
        <time>2016-06-19T10:42:24Z</time>
      </trkpt>
      <trkpt lat="45.70785" lon="3.1217">
        <ele>519.25</ele>
        <time>2016-06-19T10:42:29Z</time>
      </trkpt>
      <trkpt lat="45.70784" lon="3.12154">
        <ele>519.73</ele>
        <time>2016-06-19T10:42:35Z</time>
      </trkpt>
      <trkpt lat="45.70796" lon="3.12111">
        <ele>521.65</ele>
        <time>2016-06-19T10:42:44Z</time>
      </trkpt>
      <trkpt lat="45.70789" lon="3.1209">
        <ele>522.13</ele>
        <time>2016-06-19T10:42:49Z</time>
      </trkpt>
      <trkpt lat="45.70785" lon="3.12087">
        <ele>522.13</ele>
        <time>2016-06-19T10:42:50Z</time>
      </trkpt>
      <trkpt lat="45.70781" lon="3.12085">
        <ele>522.13</ele>
        <time>2016-06-19T10:42:51Z</time>
      </trkpt>
      <trkpt lat="45.70776" lon="3.12083">
        <ele>522.61</ele>
        <time>2016-06-19T10:42:52Z</time>
      </trkpt>
      <trkpt lat="45.70772" lon="3.12081">
        <ele>522.61</ele>
        <time>2016-06-19T10:42:53Z</time>
      </trkpt>
      <trkpt lat="45.70767" lon="3.1208">
        <ele>522.61</ele>
        <time>2016-06-19T10:42:54Z</time>
      </trkpt>
      <trkpt lat="45.70763" lon="3.12078">
        <ele>523.09</ele>
        <time>2016-06-19T10:42:55Z</time>
      </trkpt>
      <trkpt lat="45.70729" lon="3.12068">
        <ele>526.46</ele>
        <time>2016-06-19T10:43:06Z</time>
      </trkpt>
      <trkpt lat="45.70726" lon="3.12069">
        <ele>526.94</ele>
        <time>2016-06-19T10:43:08Z</time>
      </trkpt>
      <trkpt lat="45.70696" lon="3.12086">
        <ele>529.82</ele>
        <time>2016-06-19T10:43:22Z</time>
      </trkpt>
      <trkpt lat="45.70667" lon="3.121">
        <ele>533.19</ele>
        <time>2016-06-19T10:43:36Z</time>
      </trkpt>
      <trkpt lat="45.70648" lon="3.12111">
        <ele>536.55</ele>
        <time>2016-06-19T10:43:49Z</time>
      </trkpt>
      <trkpt lat="45.70639" lon="3.12127">
        <ele>538.48</ele>
        <time>2016-06-19T10:43:58Z</time>
      </trkpt>
      <trkpt lat="45.70639" lon="3.1213">
        <ele>538.48</ele>
        <time>2016-06-19T10:43:59Z</time>
      </trkpt>
      <trkpt lat="45.70637" lon="3.12181">
        <ele>539.44</ele>
        <time>2016-06-19T10:44:13Z</time>
      </trkpt>
      <trkpt lat="45.70635" lon="3.12244">
        <ele>536.55</ele>
        <time>2016-06-19T10:44:22Z</time>
      </trkpt>
      <trkpt lat="45.70623" lon="3.12301">
        <ele>534.15</ele>
        <time>2016-06-19T10:44:29Z</time>
      </trkpt>
      <trkpt lat="45.70622" lon="3.1231">
        <ele>533.19</ele>
        <time>2016-06-19T10:44:30Z</time>
      </trkpt>
      <trkpt lat="45.7062" lon="3.12318">
        <ele>532.71</ele>
        <time>2016-06-19T10:44:31Z</time>
      </trkpt>
      <trkpt lat="45.70619" lon="3.12327">
        <ele>532.71</ele>
        <time>2016-06-19T10:44:32Z</time>
      </trkpt>
      <trkpt lat="45.70617" lon="3.12335">
        <ele>532.71</ele>
        <time>2016-06-19T10:44:33Z</time>
      </trkpt>
      <trkpt lat="45.70615" lon="3.12343">
        <ele>532.23</ele>
        <time>2016-06-19T10:44:34Z</time>
      </trkpt>
      <trkpt lat="45.70584" lon="3.1244">
        <ele>528.86</ele>
        <time>2016-06-19T10:44:47Z</time>
      </trkpt>
      <trkpt lat="45.70581" lon="3.12448">
        <ele>528.38</ele>
        <time>2016-06-19T10:44:48Z</time>
      </trkpt>
      <trkpt lat="45.70575" lon="3.12465">
        <ele>527.42</ele>
        <time>2016-06-19T10:44:50Z</time>
      </trkpt>
      <trkpt lat="45.70563" lon="3.12487">
        <ele>526.46</ele>
        <time>2016-06-19T10:44:53Z</time>
      </trkpt>
      <trkpt lat="45.70555" lon="3.12499">
        <ele>526.46</ele>
        <time>2016-06-19T10:44:55Z</time>
      </trkpt>
      <trkpt lat="45.70546" lon="3.12508">
        <ele>525.02</ele>
        <time>2016-06-19T10:44:57Z</time>
      </trkpt>
      <trkpt lat="45.70537" lon="3.12513">
        <ele>526.46</ele>
        <time>2016-06-19T10:44:59Z</time>
      </trkpt>
      <trkpt lat="45.70533" lon="3.12516">
        <ele>526.94</ele>
        <time>2016-06-19T10:45:00Z</time>
      </trkpt>
      <trkpt lat="45.70529" lon="3.12519">
        <ele>526.94</ele>
        <time>2016-06-19T10:45:01Z</time>
      </trkpt>
      <trkpt lat="45.70505" lon="3.12534">
        <ele>528.38</ele>
        <time>2016-06-19T10:45:10Z</time>
      </trkpt>
      <trkpt lat="45.70465" lon="3.12565">
        <ele>528.38</ele>
        <time>2016-06-19T10:45:24Z</time>
      </trkpt>
      <trkpt lat="45.70433" lon="3.12587">
        <ele>525.5</ele>
        <time>2016-06-19T10:45:31Z</time>
      </trkpt>
      <trkpt lat="45.70413" lon="3.12603">
        <ele>523.58</ele>
        <time>2016-06-19T10:45:34Z</time>
      </trkpt>
      <trkpt lat="45.70378" lon="3.12631">
        <ele>521.17</ele>
        <time>2016-06-19T10:45:39Z</time>
      </trkpt>
      <trkpt lat="45.70355" lon="3.12649">
        <ele>520.21</ele>
        <time>2016-06-19T10:45:43Z</time>
      </trkpt>
      <trkpt lat="45.7034" lon="3.12657">
        <ele>518.77</ele>
        <time>2016-06-19T10:45:46Z</time>
      </trkpt>
      <trkpt lat="45.70336" lon="3.12661">
        <ele>519.25</ele>
        <time>2016-06-19T10:45:47Z</time>
      </trkpt>
      <trkpt lat="45.70332" lon="3.12665">
        <ele>518.77</ele>
        <time>2016-06-19T10:45:48Z</time>
      </trkpt>
      <trkpt lat="45.70323" lon="3.12675">
        <ele>517.81</ele>
        <time>2016-06-19T10:45:50Z</time>
      </trkpt>
      <trkpt lat="45.70319" lon="3.12681">
        <ele>517.33</ele>
        <time>2016-06-19T10:45:51Z</time>
      </trkpt>
      <trkpt lat="45.70315" lon="3.12687">
        <ele>517.33</ele>
        <time>2016-06-19T10:45:52Z</time>
      </trkpt>
      <trkpt lat="45.70307" lon="3.12699">
        <ele>515.88</ele>
        <time>2016-06-19T10:45:54Z</time>
      </trkpt>
      <trkpt lat="45.70299" lon="3.12711">
        <ele>514.92</ele>
        <time>2016-06-19T10:45:56Z</time>
      </trkpt>
      <trkpt lat="45.70281" lon="3.12734">
        <ele>512.04</ele>
        <time>2016-06-19T10:46:01Z</time>
      </trkpt>
      <trkpt lat="45.70272" lon="3.12747">
        <ele>510.6</ele>
        <time>2016-06-19T10:46:04Z</time>
      </trkpt>
      <trkpt lat="45.70271" lon="3.12752">
        <ele>510.12</ele>
        <time>2016-06-19T10:46:05Z</time>
      </trkpt>
      <trkpt lat="45.70272" lon="3.12755">
        <ele>509.16</ele>
        <time>2016-06-19T10:46:06Z</time>
      </trkpt>
      <trkpt lat="45.70274" lon="3.12756">
        <ele>509.16</ele>
        <time>2016-06-19T10:46:07Z</time>
      </trkpt>
      <trkpt lat="45.70276" lon="3.12757">
        <ele>509.16</ele>
        <time>2016-06-19T10:46:08Z</time>
      </trkpt>
      <trkpt lat="45.70279" lon="3.12757">
        <ele>509.16</ele>
        <time>2016-06-19T10:46:09Z</time>
      </trkpt>
      <trkpt lat="45.70283" lon="3.12757">
        <ele>508.19</ele>
        <time>2016-06-19T10:46:10Z</time>
      </trkpt>
      <trkpt lat="45.70286" lon="3.12755">
        <ele>507.23</ele>
        <time>2016-06-19T10:46:11Z</time>
      </trkpt>
      <trkpt lat="45.7029" lon="3.12753">
        <ele>507.23</ele>
        <time>2016-06-19T10:46:12Z</time>
      </trkpt>
      <trkpt lat="45.70294" lon="3.1275">
        <ele>506.75</ele>
        <time>2016-06-19T10:46:13Z</time>
      </trkpt>
      <trkpt lat="45.70298" lon="3.12748">
        <ele>506.27</ele>
        <time>2016-06-19T10:46:14Z</time>
      </trkpt>
      <trkpt lat="45.70302" lon="3.12746">
        <ele>506.27</ele>
        <time>2016-06-19T10:46:15Z</time>
      </trkpt>
      <trkpt lat="45.70306" lon="3.12743">
        <ele>505.79</ele>
        <time>2016-06-19T10:46:16Z</time>
      </trkpt>
      <trkpt lat="45.70311" lon="3.12741">
        <ele>505.31</ele>
        <time>2016-06-19T10:46:17Z</time>
      </trkpt>
      <trkpt lat="45.70315" lon="3.12739">
        <ele>504.83</ele>
        <time>2016-06-19T10:46:18Z</time>
      </trkpt>
      <trkpt lat="45.7032" lon="3.12737">
        <ele>504.83</ele>
        <time>2016-06-19T10:46:19Z</time>
      </trkpt>
      <trkpt lat="45.70325" lon="3.12735">
        <ele>505.31</ele>
        <time>2016-06-19T10:46:20Z</time>
      </trkpt>
      <trkpt lat="45.70339" lon="3.12729">
        <ele>503.87</ele>
        <time>2016-06-19T10:46:23Z</time>
      </trkpt>
      <trkpt lat="45.70363" lon="3.12718">
        <ele>502.43</ele>
        <time>2016-06-19T10:46:28Z</time>
      </trkpt>
      <trkpt lat="45.70382" lon="3.12707">
        <ele>501.46</ele>
        <time>2016-06-19T10:46:32Z</time>
      </trkpt>
      <trkpt lat="45.70422" lon="3.12692">
        <ele>500.02</ele>
        <time>2016-06-19T10:46:40Z</time>
      </trkpt>
      <trkpt lat="45.70427" lon="3.12692">
        <ele>499.54</ele>
        <time>2016-06-19T10:46:41Z</time>
      </trkpt>
      <trkpt lat="45.70494" lon="3.1269">
        <ele>497.14</ele>
        <time>2016-06-19T10:46:54Z</time>
      </trkpt>
      <trkpt lat="45.70536" lon="3.12683">
        <ele>496.66</ele>
        <time>2016-06-19T10:47:05Z</time>
      </trkpt>
      <trkpt lat="45.70592" lon="3.12663">
        <ele>494.74</ele>
        <time>2016-06-19T10:47:19Z</time>
      </trkpt>
      <trkpt lat="45.70645" lon="3.12645">
        <ele>493.29</ele>
        <time>2016-06-19T10:47:31Z</time>
      </trkpt>
      <trkpt lat="45.70702" lon="3.1263">
        <ele>490.41</ele>
        <time>2016-06-19T10:47:44Z</time>
      </trkpt>
      <trkpt lat="45.70704" lon="3.12633">
        <ele>490.41</ele>
        <time>2016-06-19T10:47:45Z</time>
      </trkpt>
      <trkpt lat="45.70705" lon="3.12638">
        <ele>489.93</ele>
        <time>2016-06-19T10:47:46Z</time>
      </trkpt>
      <trkpt lat="45.70704" lon="3.12644">
        <ele>489.45</ele>
        <time>2016-06-19T10:47:47Z</time>
      </trkpt>
      <trkpt lat="45.70701" lon="3.12649">
        <ele>490.89</ele>
        <time>2016-06-19T10:47:48Z</time>
      </trkpt>
      <trkpt lat="45.70697" lon="3.12654">
        <ele>488.01</ele>
        <time>2016-06-19T10:47:49Z</time>
      </trkpt>
      <trkpt lat="45.70694" lon="3.1266">
        <ele>488.01</ele>
        <time>2016-06-19T10:47:50Z</time>
      </trkpt>
      <trkpt lat="45.70674" lon="3.12689">
        <ele>485.12</ele>
        <time>2016-06-19T10:47:56Z</time>
      </trkpt>
      <trkpt lat="45.70674" lon="3.12692">
        <ele>485.12</ele>
        <time>2016-06-19T10:47:59Z</time>
      </trkpt>
      <trkpt lat="45.70675" lon="3.12692">
        <ele>484.64</ele>
        <time>2016-06-19T10:48:00Z</time>
      </trkpt>
      <trkpt lat="45.70677" lon="3.12692">
        <ele>485.6</ele>
        <time>2016-06-19T10:48:01Z</time>
      </trkpt>
      <trkpt lat="45.70678" lon="3.12692">
        <ele>485.6</ele>
        <time>2016-06-19T10:48:02Z</time>
      </trkpt>
      <trkpt lat="45.7068" lon="3.12692">
        <ele>486.08</ele>
        <time>2016-06-19T10:48:03Z</time>
      </trkpt>
      <trkpt lat="45.70682" lon="3.12693">
        <ele>485.6</ele>
        <time>2016-06-19T10:48:04Z</time>
      </trkpt>
      <trkpt lat="45.70722" lon="3.12707">
        <ele>487.05</ele>
        <time>2016-06-19T10:48:18Z</time>
      </trkpt>
      <trkpt lat="45.70736" lon="3.12714">
        <ele>487.05</ele>
        <time>2016-06-19T10:48:30Z</time>
      </trkpt>
      <trkpt lat="45.70736" lon="3.12714">
        <ele>484.64</ele>
        <time>2016-06-19T10:48:40Z</time>
      </trkpt>
      <trkpt lat="45.70736" lon="3.12714">
        <ele>488.49</ele>
        <time>2016-06-19T12:45:14Z</time>
      </trkpt>
      <trkpt lat="45.70736" lon="3.12714">
        <ele>758.14</ele>
        <time>2016-06-19T12:45:15Z</time>
      </trkpt>
      <trkpt lat="45.70736" lon="3.12714">
        <ele>754.77</ele>
        <time>2016-06-19T12:45:18Z</time>
      </trkpt>
      <trkpt lat="45.70736" lon="3.12714">
        <ele>757.66</ele>
        <time>2016-06-19T12:45:19Z</time>
      </trkpt>
      <trkpt lat="45.70736" lon="3.12714">
        <ele>755.73</ele>
        <time>2016-06-19T12:45:20Z</time>
      </trkpt>
      <trkpt lat="45.70736" lon="3.12714">
        <ele>757.66</ele>
        <time>2016-06-19T12:45:21Z</time>
      </trkpt>
    </trkseg>
  </trk>
</gpx>